<?xml version="1.0" encoding="UTF-8" standalone="no" ?>
<gpx xmlns="http://www.topografix.com/GPX/1/1" xmlns:xsi="http://www.w3.org/2001/XMLSchema-instance" xsi:schemaLocation="http://www.topografix.com/GPX/1/1 http://www.topografix.com/GPX/1/1/gpx.xsd" version="1.1" creator="VisuGPX - https://www.visugpx.com">
  <metadata>
    <name>2022-10-11 j27 Galan - Narcastet</name>
    <desc><![CDATA[File with points/tracks from Locus Map/3.37.2]]></desc>
  </metadata>
  <trk>
    <name><![CDATA[2022-10-11 j27]]></name>
    <trkseg>
      <trkpt lat="43.21677" lon="0.41029">
        <ele>368.2</ele>
        <time>2022-10-11T07:13:55.000Z</time>
      </trkpt>
      <trkpt lat="43.21684" lon="0.4102">
        <ele>364.3</ele>
        <time>2022-10-11T07:14:25.000Z</time>
      </trkpt>
      <trkpt lat="43.2169" lon="0.4103">
        <ele>363.23</ele>
        <time>2022-10-11T07:14:53.000Z</time>
      </trkpt>
      <trkpt lat="43.21669" lon="0.41022">
        <ele>362.57</ele>
        <time>2022-10-11T07:15:05.000Z</time>
      </trkpt>
      <trkpt lat="43.21661" lon="0.41028">
        <ele>358.9</ele>
        <time>2022-10-11T07:15:30.000Z</time>
      </trkpt>
      <trkpt lat="43.21657" lon="0.41017">
        <ele>358.9</ele>
        <time>2022-10-11T07:15:37.000Z</time>
      </trkpt>
      <trkpt lat="43.21659" lon="0.41001">
        <ele>358.97</ele>
        <time>2022-10-11T07:15:42.000Z</time>
      </trkpt>
      <trkpt lat="43.21667" lon="0.40988">
        <ele>359.1</ele>
        <time>2022-10-11T07:15:47.000Z</time>
      </trkpt>
      <trkpt lat="43.21656" lon="0.41">
        <ele>358.83</ele>
        <time>2022-10-11T07:16:01.000Z</time>
      </trkpt>
      <trkpt lat="43.21647" lon="0.41005">
        <ele>358.6</ele>
        <time>2022-10-11T07:16:09.000Z</time>
      </trkpt>
      <trkpt lat="43.21664" lon="0.40988">
        <ele>358.28</ele>
        <time>2022-10-11T07:16:19.000Z</time>
      </trkpt>
      <trkpt lat="43.21667" lon="0.40971">
        <ele>351.88</ele>
        <time>2022-10-11T07:16:57.000Z</time>
      </trkpt>
      <trkpt lat="43.21679" lon="0.40967">
        <ele>349.8</ele>
        <time>2022-10-11T07:17:02.000Z</time>
      </trkpt>
      <trkpt lat="43.217" lon="0.40973">
        <ele>349.89</ele>
        <time>2022-10-11T07:17:07.000Z</time>
      </trkpt>
      <trkpt lat="43.21723" lon="0.40981">
        <ele>350</ele>
        <time>2022-10-11T07:17:12.000Z</time>
      </trkpt>
      <trkpt lat="43.21749" lon="0.40989">
        <ele>350.17</ele>
        <time>2022-10-11T07:17:17.000Z</time>
      </trkpt>
      <trkpt lat="43.21772" lon="0.4099">
        <ele>350.67</ele>
        <time>2022-10-11T07:17:22.000Z</time>
      </trkpt>
      <trkpt lat="43.21791" lon="0.40979">
        <ele>352.4</ele>
        <time>2022-10-11T07:17:27.000Z</time>
      </trkpt>
      <trkpt lat="43.21806" lon="0.40949">
        <ele>354.66</ele>
        <time>2022-10-11T07:17:32.000Z</time>
      </trkpt>
      <trkpt lat="43.2181" lon="0.40925">
        <ele>355.89</ele>
        <time>2022-10-11T07:17:37.000Z</time>
      </trkpt>
      <trkpt lat="43.21816" lon="0.40903">
        <ele>356.99</ele>
        <time>2022-10-11T07:17:42.000Z</time>
      </trkpt>
      <trkpt lat="43.21821" lon="0.40884">
        <ele>359.36</ele>
        <time>2022-10-11T07:17:47.000Z</time>
      </trkpt>
      <trkpt lat="43.21825" lon="0.40869">
        <ele>360.64</ele>
        <time>2022-10-11T07:17:52.000Z</time>
      </trkpt>
      <trkpt lat="43.21827" lon="0.40856">
        <ele>361.54</ele>
        <time>2022-10-11T07:17:57.000Z</time>
      </trkpt>
      <trkpt lat="43.21831" lon="0.40843">
        <ele>363.13</ele>
        <time>2022-10-11T07:18:04.000Z</time>
      </trkpt>
      <trkpt lat="43.21834" lon="0.40828">
        <ele>364.56</ele>
        <time>2022-10-11T07:18:10.000Z</time>
      </trkpt>
      <trkpt lat="43.21837" lon="0.40815">
        <ele>366.62</ele>
        <time>2022-10-11T07:18:16.000Z</time>
      </trkpt>
      <trkpt lat="43.21842" lon="0.40804">
        <ele>367.93</ele>
        <time>2022-10-11T07:18:23.000Z</time>
      </trkpt>
      <trkpt lat="43.21848" lon="0.40793">
        <ele>369.4</ele>
        <time>2022-10-11T07:18:30.000Z</time>
      </trkpt>
      <trkpt lat="43.21853" lon="0.40781">
        <ele>370.93</ele>
        <time>2022-10-11T07:18:37.000Z</time>
      </trkpt>
      <trkpt lat="43.21855" lon="0.40767">
        <ele>372.71</ele>
        <time>2022-10-11T07:18:43.000Z</time>
      </trkpt>
      <trkpt lat="43.21858" lon="0.40755">
        <ele>373.37</ele>
        <time>2022-10-11T07:18:48.000Z</time>
      </trkpt>
      <trkpt lat="43.21864" lon="0.4074">
        <ele>373.74</ele>
        <time>2022-10-11T07:18:53.000Z</time>
      </trkpt>
      <trkpt lat="43.21866" lon="0.40728">
        <ele>374.34</ele>
        <time>2022-10-11T07:18:58.000Z</time>
      </trkpt>
      <trkpt lat="43.21864" lon="0.40715">
        <ele>375.23</ele>
        <time>2022-10-11T07:19:04.000Z</time>
      </trkpt>
      <trkpt lat="43.21865" lon="0.40702">
        <ele>376.14</ele>
        <time>2022-10-11T07:19:10.000Z</time>
      </trkpt>
      <trkpt lat="43.21863" lon="0.40686">
        <ele>378.2</ele>
        <time>2022-10-11T07:19:28.000Z</time>
      </trkpt>
      <trkpt lat="43.21867" lon="0.40668">
        <ele>377.2</ele>
        <time>2022-10-11T07:19:33.000Z</time>
      </trkpt>
      <trkpt lat="43.21869" lon="0.40649">
        <ele>376.88</ele>
        <time>2022-10-11T07:19:38.000Z</time>
      </trkpt>
      <trkpt lat="43.21872" lon="0.40624">
        <ele>376.15</ele>
        <time>2022-10-11T07:19:43.000Z</time>
      </trkpt>
      <trkpt lat="43.21868" lon="0.40609">
        <ele>375.73</ele>
        <time>2022-10-11T07:19:48.000Z</time>
      </trkpt>
      <trkpt lat="43.21852" lon="0.40601">
        <ele>375.85</ele>
        <time>2022-10-11T07:19:53.000Z</time>
      </trkpt>
      <trkpt lat="43.21831" lon="0.40591">
        <ele>374.98</ele>
        <time>2022-10-11T07:19:58.000Z</time>
      </trkpt>
      <trkpt lat="43.21806" lon="0.40579">
        <ele>372.34</ele>
        <time>2022-10-11T07:20:03.000Z</time>
      </trkpt>
      <trkpt lat="43.21779" lon="0.40567">
        <ele>370.53</ele>
        <time>2022-10-11T07:20:08.000Z</time>
      </trkpt>
      <trkpt lat="43.21752" lon="0.40554">
        <ele>368.46</ele>
        <time>2022-10-11T07:20:13.000Z</time>
      </trkpt>
      <trkpt lat="43.21723" lon="0.40541">
        <ele>366.52</ele>
        <time>2022-10-11T07:20:18.000Z</time>
      </trkpt>
      <trkpt lat="43.21694" lon="0.40525">
        <ele>364.81</ele>
        <time>2022-10-11T07:20:23.000Z</time>
      </trkpt>
      <trkpt lat="43.21664" lon="0.40507">
        <ele>362.73</ele>
        <time>2022-10-11T07:20:28.000Z</time>
      </trkpt>
      <trkpt lat="43.2163" lon="0.40491">
        <ele>361.03</ele>
        <time>2022-10-11T07:20:33.000Z</time>
      </trkpt>
      <trkpt lat="43.21601" lon="0.40477">
        <ele>359.4</ele>
        <time>2022-10-11T07:20:38.000Z</time>
      </trkpt>
      <trkpt lat="43.2157" lon="0.40464">
        <ele>357.71</ele>
        <time>2022-10-11T07:20:43.000Z</time>
      </trkpt>
      <trkpt lat="43.21533" lon="0.4044">
        <ele>355.81</ele>
        <time>2022-10-11T07:20:48.000Z</time>
      </trkpt>
      <trkpt lat="43.21494" lon="0.40416">
        <ele>354.01</ele>
        <time>2022-10-11T07:20:53.000Z</time>
      </trkpt>
      <trkpt lat="43.2145" lon="0.404">
        <ele>352.13</ele>
        <time>2022-10-11T07:20:58.000Z</time>
      </trkpt>
      <trkpt lat="43.21402" lon="0.40365">
        <ele>350.43</ele>
        <time>2022-10-11T07:21:03.000Z</time>
      </trkpt>
      <trkpt lat="43.21356" lon="0.40332">
        <ele>348.33</ele>
        <time>2022-10-11T07:21:08.000Z</time>
      </trkpt>
      <trkpt lat="43.21326" lon="0.40298">
        <ele>346.33</ele>
        <time>2022-10-11T07:21:13.000Z</time>
      </trkpt>
      <trkpt lat="43.21298" lon="0.40253">
        <ele>344.53</ele>
        <time>2022-10-11T07:21:18.000Z</time>
      </trkpt>
      <trkpt lat="43.21269" lon="0.40216">
        <ele>342.63</ele>
        <time>2022-10-11T07:21:23.000Z</time>
      </trkpt>
      <trkpt lat="43.21239" lon="0.40182">
        <ele>340.63</ele>
        <time>2022-10-11T07:21:28.000Z</time>
      </trkpt>
      <trkpt lat="43.21211" lon="0.40148">
        <ele>338.73</ele>
        <time>2022-10-11T07:21:33.000Z</time>
      </trkpt>
      <trkpt lat="43.21185" lon="0.4012">
        <ele>336.64</ele>
        <time>2022-10-11T07:21:38.000Z</time>
      </trkpt>
      <trkpt lat="43.21161" lon="0.40092">
        <ele>334.71</ele>
        <time>2022-10-11T07:21:43.000Z</time>
      </trkpt>
      <trkpt lat="43.21141" lon="0.40068">
        <ele>332.9</ele>
        <time>2022-10-11T07:21:48.000Z</time>
      </trkpt>
      <trkpt lat="43.21123" lon="0.40049">
        <ele>331.32</ele>
        <time>2022-10-11T07:21:53.000Z</time>
      </trkpt>
      <trkpt lat="43.21111" lon="0.40034">
        <ele>329.79</ele>
        <time>2022-10-11T07:21:58.000Z</time>
      </trkpt>
      <trkpt lat="43.21095" lon="0.40016">
        <ele>328.76</ele>
        <time>2022-10-11T07:22:03.000Z</time>
      </trkpt>
      <trkpt lat="43.21078" lon="0.4">
        <ele>327.84</ele>
        <time>2022-10-11T07:22:08.000Z</time>
      </trkpt>
      <trkpt lat="43.2106" lon="0.39986">
        <ele>327</ele>
        <time>2022-10-11T07:22:13.000Z</time>
      </trkpt>
      <trkpt lat="43.21041" lon="0.39975">
        <ele>327.8</ele>
        <time>2022-10-11T07:22:18.000Z</time>
      </trkpt>
      <trkpt lat="43.21022" lon="0.39966">
        <ele>330.43</ele>
        <time>2022-10-11T07:22:23.000Z</time>
      </trkpt>
      <trkpt lat="43.21002" lon="0.39955">
        <ele>333.35</ele>
        <time>2022-10-11T07:22:28.000Z</time>
      </trkpt>
      <trkpt lat="43.20981" lon="0.39946">
        <ele>336.43</ele>
        <time>2022-10-11T07:22:33.000Z</time>
      </trkpt>
      <trkpt lat="43.2096" lon="0.39937">
        <ele>339.74</ele>
        <time>2022-10-11T07:22:38.000Z</time>
      </trkpt>
      <trkpt lat="43.20939" lon="0.3993">
        <ele>343.22</ele>
        <time>2022-10-11T07:22:43.000Z</time>
      </trkpt>
      <trkpt lat="43.20919" lon="0.39918">
        <ele>344.35</ele>
        <time>2022-10-11T07:22:48.000Z</time>
      </trkpt>
      <trkpt lat="43.20899" lon="0.39908">
        <ele>346.09</ele>
        <time>2022-10-11T07:22:53.000Z</time>
      </trkpt>
      <trkpt lat="43.20879" lon="0.39897">
        <ele>346.81</ele>
        <time>2022-10-11T07:22:58.000Z</time>
      </trkpt>
      <trkpt lat="43.20858" lon="0.39887">
        <ele>347.45</ele>
        <time>2022-10-11T07:23:03.000Z</time>
      </trkpt>
      <trkpt lat="43.20837" lon="0.39877">
        <ele>348.64</ele>
        <time>2022-10-11T07:23:08.000Z</time>
      </trkpt>
      <trkpt lat="43.20818" lon="0.39866">
        <ele>349.36</ele>
        <time>2022-10-11T07:23:13.000Z</time>
      </trkpt>
      <trkpt lat="43.20798" lon="0.39856">
        <ele>350.04</ele>
        <time>2022-10-11T07:23:18.000Z</time>
      </trkpt>
      <trkpt lat="43.20777" lon="0.39845">
        <ele>350.96</ele>
        <time>2022-10-11T07:23:23.000Z</time>
      </trkpt>
      <trkpt lat="43.20759" lon="0.39836">
        <ele>351.42</ele>
        <time>2022-10-11T07:23:28.000Z</time>
      </trkpt>
      <trkpt lat="43.2074" lon="0.39823">
        <ele>352.3</ele>
        <time>2022-10-11T07:23:33.000Z</time>
      </trkpt>
      <trkpt lat="43.20724" lon="0.39808">
        <ele>352.87</ele>
        <time>2022-10-11T07:23:38.000Z</time>
      </trkpt>
      <trkpt lat="43.20709" lon="0.39794">
        <ele>353</ele>
        <time>2022-10-11T07:23:43.000Z</time>
      </trkpt>
      <trkpt lat="43.20694" lon="0.39779">
        <ele>353.1</ele>
        <time>2022-10-11T07:23:48.000Z</time>
      </trkpt>
      <trkpt lat="43.20677" lon="0.39756">
        <ele>353.19</ele>
        <time>2022-10-11T07:23:53.000Z</time>
      </trkpt>
      <trkpt lat="43.20662" lon="0.39736">
        <ele>353.49</ele>
        <time>2022-10-11T07:23:58.000Z</time>
      </trkpt>
      <trkpt lat="43.20643" lon="0.3972">
        <ele>353.68</ele>
        <time>2022-10-11T07:24:03.000Z</time>
      </trkpt>
      <trkpt lat="43.20626" lon="0.39702">
        <ele>354.07</ele>
        <time>2022-10-11T07:24:08.000Z</time>
      </trkpt>
      <trkpt lat="43.20608" lon="0.39682">
        <ele>354.32</ele>
        <time>2022-10-11T07:24:13.000Z</time>
      </trkpt>
      <trkpt lat="43.20595" lon="0.39661">
        <ele>354.01</ele>
        <time>2022-10-11T07:24:18.000Z</time>
      </trkpt>
      <trkpt lat="43.20579" lon="0.3964">
        <ele>353.53</ele>
        <time>2022-10-11T07:24:23.000Z</time>
      </trkpt>
      <trkpt lat="43.2056" lon="0.39617">
        <ele>353.23</ele>
        <time>2022-10-11T07:24:28.000Z</time>
      </trkpt>
      <trkpt lat="43.20542" lon="0.3959">
        <ele>353.47</ele>
        <time>2022-10-11T07:24:33.000Z</time>
      </trkpt>
      <trkpt lat="43.20524" lon="0.39569">
        <ele>353.56</ele>
        <time>2022-10-11T07:24:38.000Z</time>
      </trkpt>
      <trkpt lat="43.20507" lon="0.39549">
        <ele>353.67</ele>
        <time>2022-10-11T07:24:43.000Z</time>
      </trkpt>
      <trkpt lat="43.20489" lon="0.39529">
        <ele>353.72</ele>
        <time>2022-10-11T07:24:48.000Z</time>
      </trkpt>
      <trkpt lat="43.20473" lon="0.39509">
        <ele>353.89</ele>
        <time>2022-10-11T07:24:53.000Z</time>
      </trkpt>
      <trkpt lat="43.20458" lon="0.39491">
        <ele>353.73</ele>
        <time>2022-10-11T07:24:58.000Z</time>
      </trkpt>
      <trkpt lat="43.20442" lon="0.39474">
        <ele>353.72</ele>
        <time>2022-10-11T07:25:03.000Z</time>
      </trkpt>
      <trkpt lat="43.20428" lon="0.39457">
        <ele>353.34</ele>
        <time>2022-10-11T07:25:08.000Z</time>
      </trkpt>
      <trkpt lat="43.20413" lon="0.39442">
        <ele>352.84</ele>
        <time>2022-10-11T07:25:13.000Z</time>
      </trkpt>
      <trkpt lat="43.20399" lon="0.39427">
        <ele>352.03</ele>
        <time>2022-10-11T07:25:18.000Z</time>
      </trkpt>
      <trkpt lat="43.20385" lon="0.39413">
        <ele>351.35</ele>
        <time>2022-10-11T07:25:23.000Z</time>
      </trkpt>
      <trkpt lat="43.20372" lon="0.39395">
        <ele>350.37</ele>
        <time>2022-10-11T07:25:28.000Z</time>
      </trkpt>
      <trkpt lat="43.20358" lon="0.39379">
        <ele>350.03</ele>
        <time>2022-10-11T07:25:33.000Z</time>
      </trkpt>
      <trkpt lat="43.20344" lon="0.39361">
        <ele>349.82</ele>
        <time>2022-10-11T07:25:38.000Z</time>
      </trkpt>
      <trkpt lat="43.20331" lon="0.39348">
        <ele>349.43</ele>
        <time>2022-10-11T07:25:43.000Z</time>
      </trkpt>
      <trkpt lat="43.20318" lon="0.39331">
        <ele>349.03</ele>
        <time>2022-10-11T07:25:48.000Z</time>
      </trkpt>
      <trkpt lat="43.20296" lon="0.39313">
        <ele>348.46</ele>
        <time>2022-10-11T07:25:53.000Z</time>
      </trkpt>
      <trkpt lat="43.20278" lon="0.39296">
        <ele>347.93</ele>
        <time>2022-10-11T07:25:58.000Z</time>
      </trkpt>
      <trkpt lat="43.20263" lon="0.39279">
        <ele>347.83</ele>
        <time>2022-10-11T07:26:03.000Z</time>
      </trkpt>
      <trkpt lat="43.20251" lon="0.39264">
        <ele>347.45</ele>
        <time>2022-10-11T07:26:08.000Z</time>
      </trkpt>
      <trkpt lat="43.20241" lon="0.39249">
        <ele>346.99</ele>
        <time>2022-10-11T07:26:13.000Z</time>
      </trkpt>
      <trkpt lat="43.20237" lon="0.39237">
        <ele>346.66</ele>
        <time>2022-10-11T07:26:18.000Z</time>
      </trkpt>
      <trkpt lat="43.20228" lon="0.39243">
        <ele>361.66</ele>
        <time>2022-10-11T07:26:59.000Z</time>
      </trkpt>
      <trkpt lat="43.20217" lon="0.39237">
        <ele>361.73</ele>
        <time>2022-10-11T07:27:04.000Z</time>
      </trkpt>
      <trkpt lat="43.20183" lon="0.39208">
        <ele>361.03</ele>
        <time>2022-10-11T07:27:09.000Z</time>
      </trkpt>
      <trkpt lat="43.20158" lon="0.39189">
        <ele>361.09</ele>
        <time>2022-10-11T07:27:14.000Z</time>
      </trkpt>
      <trkpt lat="43.20138" lon="0.39173">
        <ele>361.12</ele>
        <time>2022-10-11T07:27:19.000Z</time>
      </trkpt>
      <trkpt lat="43.20122" lon="0.39158">
        <ele>361.27</ele>
        <time>2022-10-11T07:27:24.000Z</time>
      </trkpt>
      <trkpt lat="43.20106" lon="0.39145">
        <ele>361.69</ele>
        <time>2022-10-11T07:27:29.000Z</time>
      </trkpt>
      <trkpt lat="43.20091" lon="0.39129">
        <ele>361.89</ele>
        <time>2022-10-11T07:27:34.000Z</time>
      </trkpt>
      <trkpt lat="43.20073" lon="0.39116">
        <ele>362.2</ele>
        <time>2022-10-11T07:27:39.000Z</time>
      </trkpt>
      <trkpt lat="43.20052" lon="0.39102">
        <ele>363.55</ele>
        <time>2022-10-11T07:27:44.000Z</time>
      </trkpt>
      <trkpt lat="43.20031" lon="0.39085">
        <ele>364.62</ele>
        <time>2022-10-11T07:27:49.000Z</time>
      </trkpt>
      <trkpt lat="43.20011" lon="0.39067">
        <ele>364.89</ele>
        <time>2022-10-11T07:27:54.000Z</time>
      </trkpt>
      <trkpt lat="43.19992" lon="0.3905">
        <ele>365.51</ele>
        <time>2022-10-11T07:27:59.000Z</time>
      </trkpt>
      <trkpt lat="43.19974" lon="0.39032">
        <ele>365.69</ele>
        <time>2022-10-11T07:28:04.000Z</time>
      </trkpt>
      <trkpt lat="43.19956" lon="0.39012">
        <ele>365.31</ele>
        <time>2022-10-11T07:28:09.000Z</time>
      </trkpt>
      <trkpt lat="43.19939" lon="0.38992">
        <ele>365.57</ele>
        <time>2022-10-11T07:28:14.000Z</time>
      </trkpt>
      <trkpt lat="43.19923" lon="0.38972">
        <ele>366.82</ele>
        <time>2022-10-11T07:28:19.000Z</time>
      </trkpt>
      <trkpt lat="43.1991" lon="0.38951">
        <ele>366.71</ele>
        <time>2022-10-11T07:28:24.000Z</time>
      </trkpt>
      <trkpt lat="43.19895" lon="0.38929">
        <ele>366.33</ele>
        <time>2022-10-11T07:28:29.000Z</time>
      </trkpt>
      <trkpt lat="43.1988" lon="0.38909">
        <ele>367.46</ele>
        <time>2022-10-11T07:28:34.000Z</time>
      </trkpt>
      <trkpt lat="43.19866" lon="0.38889">
        <ele>369.92</ele>
        <time>2022-10-11T07:28:39.000Z</time>
      </trkpt>
      <trkpt lat="43.19853" lon="0.38865">
        <ele>370.92</ele>
        <time>2022-10-11T07:28:44.000Z</time>
      </trkpt>
      <trkpt lat="43.19841" lon="0.38842">
        <ele>371.05</ele>
        <time>2022-10-11T07:28:49.000Z</time>
      </trkpt>
      <trkpt lat="43.1983" lon="0.38818">
        <ele>369.58</ele>
        <time>2022-10-11T07:28:54.000Z</time>
      </trkpt>
      <trkpt lat="43.19818" lon="0.38795">
        <ele>369.29</ele>
        <time>2022-10-11T07:28:59.000Z</time>
      </trkpt>
      <trkpt lat="43.19806" lon="0.38771">
        <ele>369.88</ele>
        <time>2022-10-11T07:29:04.000Z</time>
      </trkpt>
      <trkpt lat="43.19795" lon="0.38746">
        <ele>370.63</ele>
        <time>2022-10-11T07:29:09.000Z</time>
      </trkpt>
      <trkpt lat="43.19783" lon="0.38722">
        <ele>370.98</ele>
        <time>2022-10-11T07:29:14.000Z</time>
      </trkpt>
      <trkpt lat="43.19772" lon="0.38699">
        <ele>371.06</ele>
        <time>2022-10-11T07:29:19.000Z</time>
      </trkpt>
      <trkpt lat="43.19762" lon="0.38671">
        <ele>370.72</ele>
        <time>2022-10-11T07:29:24.000Z</time>
      </trkpt>
      <trkpt lat="43.19756" lon="0.38642">
        <ele>372.95</ele>
        <time>2022-10-11T07:29:29.000Z</time>
      </trkpt>
      <trkpt lat="43.19755" lon="0.38617">
        <ele>376.09</ele>
        <time>2022-10-11T07:29:34.000Z</time>
      </trkpt>
      <trkpt lat="43.19756" lon="0.38591">
        <ele>378.73</ele>
        <time>2022-10-11T07:29:39.000Z</time>
      </trkpt>
      <trkpt lat="43.19757" lon="0.38564">
        <ele>380.54</ele>
        <time>2022-10-11T07:29:44.000Z</time>
      </trkpt>
      <trkpt lat="43.19759" lon="0.38538">
        <ele>382.25</ele>
        <time>2022-10-11T07:29:49.000Z</time>
      </trkpt>
      <trkpt lat="43.19761" lon="0.3851">
        <ele>382.28</ele>
        <time>2022-10-11T07:29:54.000Z</time>
      </trkpt>
      <trkpt lat="43.19761" lon="0.38483">
        <ele>383.22</ele>
        <time>2022-10-11T07:29:59.000Z</time>
      </trkpt>
      <trkpt lat="43.19762" lon="0.38456">
        <ele>383.46</ele>
        <time>2022-10-11T07:30:04.000Z</time>
      </trkpt>
      <trkpt lat="43.19763" lon="0.3843">
        <ele>384.32</ele>
        <time>2022-10-11T07:30:09.000Z</time>
      </trkpt>
      <trkpt lat="43.19763" lon="0.38406">
        <ele>385.92</ele>
        <time>2022-10-11T07:30:14.000Z</time>
      </trkpt>
      <trkpt lat="43.19764" lon="0.3838">
        <ele>385.46</ele>
        <time>2022-10-11T07:30:19.000Z</time>
      </trkpt>
      <trkpt lat="43.19764" lon="0.38356">
        <ele>385.52</ele>
        <time>2022-10-11T07:30:24.000Z</time>
      </trkpt>
      <trkpt lat="43.19765" lon="0.38332">
        <ele>384.44</ele>
        <time>2022-10-11T07:30:29.000Z</time>
      </trkpt>
      <trkpt lat="43.19766" lon="0.38309">
        <ele>384.37</ele>
        <time>2022-10-11T07:30:34.000Z</time>
      </trkpt>
      <trkpt lat="43.19766" lon="0.38289">
        <ele>384.58</ele>
        <time>2022-10-11T07:30:39.000Z</time>
      </trkpt>
      <trkpt lat="43.19766" lon="0.38269">
        <ele>385.73</ele>
        <time>2022-10-11T07:30:44.000Z</time>
      </trkpt>
      <trkpt lat="43.19765" lon="0.38248">
        <ele>389.23</ele>
        <time>2022-10-11T07:30:49.000Z</time>
      </trkpt>
      <trkpt lat="43.19765" lon="0.38226">
        <ele>390.16</ele>
        <time>2022-10-11T07:30:54.000Z</time>
      </trkpt>
      <trkpt lat="43.19765" lon="0.38206">
        <ele>390.37</ele>
        <time>2022-10-11T07:30:59.000Z</time>
      </trkpt>
      <trkpt lat="43.19766" lon="0.38185">
        <ele>391.12</ele>
        <time>2022-10-11T07:31:04.000Z</time>
      </trkpt>
      <trkpt lat="43.19768" lon="0.38163">
        <ele>391.82</ele>
        <time>2022-10-11T07:31:09.000Z</time>
      </trkpt>
      <trkpt lat="43.19768" lon="0.38142">
        <ele>391.56</ele>
        <time>2022-10-11T07:31:14.000Z</time>
      </trkpt>
      <trkpt lat="43.19767" lon="0.38121">
        <ele>392.51</ele>
        <time>2022-10-11T07:31:19.000Z</time>
      </trkpt>
      <trkpt lat="43.19768" lon="0.38096">
        <ele>392.39</ele>
        <time>2022-10-11T07:31:24.000Z</time>
      </trkpt>
      <trkpt lat="43.19768" lon="0.38076">
        <ele>391.27</ele>
        <time>2022-10-11T07:31:29.000Z</time>
      </trkpt>
      <trkpt lat="43.19769" lon="0.38059">
        <ele>391.55</ele>
        <time>2022-10-11T07:31:34.000Z</time>
      </trkpt>
      <trkpt lat="43.19769" lon="0.3804">
        <ele>393.48</ele>
        <time>2022-10-11T07:31:39.000Z</time>
      </trkpt>
      <trkpt lat="43.19768" lon="0.38021">
        <ele>395.7</ele>
        <time>2022-10-11T07:31:44.000Z</time>
      </trkpt>
      <trkpt lat="43.19767" lon="0.38007">
        <ele>397.33</ele>
        <time>2022-10-11T07:31:49.000Z</time>
      </trkpt>
      <trkpt lat="43.19766" lon="0.37992">
        <ele>399.4</ele>
        <time>2022-10-11T07:31:54.000Z</time>
      </trkpt>
      <trkpt lat="43.19766" lon="0.37971">
        <ele>400.53</ele>
        <time>2022-10-11T07:31:59.000Z</time>
      </trkpt>
      <trkpt lat="43.19767" lon="0.37958">
        <ele>402.57</ele>
        <time>2022-10-11T07:32:05.000Z</time>
      </trkpt>
      <trkpt lat="43.19764" lon="0.37945">
        <ele>404.83</ele>
        <time>2022-10-11T07:32:11.000Z</time>
      </trkpt>
      <trkpt lat="43.19762" lon="0.37929">
        <ele>404.73</ele>
        <time>2022-10-11T07:32:16.000Z</time>
      </trkpt>
      <trkpt lat="43.19762" lon="0.37916">
        <ele>404.09</ele>
        <time>2022-10-11T07:32:21.000Z</time>
      </trkpt>
      <trkpt lat="43.19761" lon="0.37899">
        <ele>403.21</ele>
        <time>2022-10-11T07:32:26.000Z</time>
      </trkpt>
      <trkpt lat="43.19761" lon="0.37882">
        <ele>403.05</ele>
        <time>2022-10-11T07:32:31.000Z</time>
      </trkpt>
      <trkpt lat="43.1976" lon="0.37868">
        <ele>403.76</ele>
        <time>2022-10-11T07:32:36.000Z</time>
      </trkpt>
      <trkpt lat="43.1976" lon="0.37852">
        <ele>403.32</ele>
        <time>2022-10-11T07:32:41.000Z</time>
      </trkpt>
      <trkpt lat="43.19759" lon="0.37838">
        <ele>404.24</ele>
        <time>2022-10-11T07:32:46.000Z</time>
      </trkpt>
      <trkpt lat="43.19758" lon="0.37823">
        <ele>405.74</ele>
        <time>2022-10-11T07:32:51.000Z</time>
      </trkpt>
      <trkpt lat="43.19758" lon="0.3781">
        <ele>405.5</ele>
        <time>2022-10-11T07:32:56.000Z</time>
      </trkpt>
      <trkpt lat="43.19759" lon="0.37795">
        <ele>405.42</ele>
        <time>2022-10-11T07:33:01.000Z</time>
      </trkpt>
      <trkpt lat="43.19761" lon="0.3778">
        <ele>404.82</ele>
        <time>2022-10-11T07:33:06.000Z</time>
      </trkpt>
      <trkpt lat="43.19763" lon="0.37767">
        <ele>404.9</ele>
        <time>2022-10-11T07:33:11.000Z</time>
      </trkpt>
      <trkpt lat="43.19765" lon="0.37754">
        <ele>405.03</ele>
        <time>2022-10-11T07:33:16.000Z</time>
      </trkpt>
      <trkpt lat="43.19766" lon="0.37741">
        <ele>405.35</ele>
        <time>2022-10-11T07:33:21.000Z</time>
      </trkpt>
      <trkpt lat="43.19767" lon="0.37728">
        <ele>406.08</ele>
        <time>2022-10-11T07:33:26.000Z</time>
      </trkpt>
      <trkpt lat="43.19768" lon="0.37715">
        <ele>406.8</ele>
        <time>2022-10-11T07:33:31.000Z</time>
      </trkpt>
      <trkpt lat="43.19771" lon="0.37701">
        <ele>408.03</ele>
        <time>2022-10-11T07:33:36.000Z</time>
      </trkpt>
      <trkpt lat="43.19771" lon="0.37688">
        <ele>410.05</ele>
        <time>2022-10-11T07:33:41.000Z</time>
      </trkpt>
      <trkpt lat="43.19768" lon="0.37676">
        <ele>411.9</ele>
        <time>2022-10-11T07:33:46.000Z</time>
      </trkpt>
      <trkpt lat="43.19764" lon="0.37664">
        <ele>412.57</ele>
        <time>2022-10-11T07:33:51.000Z</time>
      </trkpt>
      <trkpt lat="43.1976" lon="0.37653">
        <ele>413.07</ele>
        <time>2022-10-11T07:33:56.000Z</time>
      </trkpt>
      <trkpt lat="43.19753" lon="0.37642">
        <ele>413.56</ele>
        <time>2022-10-11T07:34:02.000Z</time>
      </trkpt>
      <trkpt lat="43.19747" lon="0.37631">
        <ele>413.96</ele>
        <time>2022-10-11T07:34:07.000Z</time>
      </trkpt>
      <trkpt lat="43.1974" lon="0.3762">
        <ele>413.31</ele>
        <time>2022-10-11T07:34:12.000Z</time>
      </trkpt>
      <trkpt lat="43.19734" lon="0.37609">
        <ele>413.11</ele>
        <time>2022-10-11T07:34:17.000Z</time>
      </trkpt>
      <trkpt lat="43.19728" lon="0.37599">
        <ele>413.07</ele>
        <time>2022-10-11T07:34:22.000Z</time>
      </trkpt>
      <trkpt lat="43.19722" lon="0.3759">
        <ele>412.81</ele>
        <time>2022-10-11T07:34:27.000Z</time>
      </trkpt>
      <trkpt lat="43.19717" lon="0.3758">
        <ele>412.8</ele>
        <time>2022-10-11T07:34:32.000Z</time>
      </trkpt>
      <trkpt lat="43.19709" lon="0.37569">
        <ele>412.71</ele>
        <time>2022-10-11T07:34:37.000Z</time>
      </trkpt>
      <trkpt lat="43.19702" lon="0.37561">
        <ele>412.97</ele>
        <time>2022-10-11T07:34:42.000Z</time>
      </trkpt>
      <trkpt lat="43.19695" lon="0.3755">
        <ele>413.29</ele>
        <time>2022-10-11T07:34:47.000Z</time>
      </trkpt>
      <trkpt lat="43.19688" lon="0.37538">
        <ele>414.03</ele>
        <time>2022-10-11T07:34:52.000Z</time>
      </trkpt>
      <trkpt lat="43.19681" lon="0.37528">
        <ele>415.13</ele>
        <time>2022-10-11T07:34:57.000Z</time>
      </trkpt>
      <trkpt lat="43.19673" lon="0.37516">
        <ele>416.15</ele>
        <time>2022-10-11T07:35:02.000Z</time>
      </trkpt>
      <trkpt lat="43.19667" lon="0.37507">
        <ele>418.79</ele>
        <time>2022-10-11T07:35:07.000Z</time>
      </trkpt>
      <trkpt lat="43.19661" lon="0.37496">
        <ele>419.24</ele>
        <time>2022-10-11T07:35:12.000Z</time>
      </trkpt>
      <trkpt lat="43.19654" lon="0.37485">
        <ele>419.46</ele>
        <time>2022-10-11T07:35:17.000Z</time>
      </trkpt>
      <trkpt lat="43.19647" lon="0.37475">
        <ele>419.08</ele>
        <time>2022-10-11T07:35:22.000Z</time>
      </trkpt>
      <trkpt lat="43.19641" lon="0.37462">
        <ele>417.97</ele>
        <time>2022-10-11T07:35:27.000Z</time>
      </trkpt>
      <trkpt lat="43.19633" lon="0.37453">
        <ele>417.7</ele>
        <time>2022-10-11T07:35:33.000Z</time>
      </trkpt>
      <trkpt lat="43.19627" lon="0.37442">
        <ele>418</ele>
        <time>2022-10-11T07:35:38.000Z</time>
      </trkpt>
      <trkpt lat="43.19619" lon="0.3743">
        <ele>418.2</ele>
        <time>2022-10-11T07:35:43.000Z</time>
      </trkpt>
      <trkpt lat="43.19612" lon="0.37421">
        <ele>419.29</ele>
        <time>2022-10-11T07:35:48.000Z</time>
      </trkpt>
      <trkpt lat="43.19605" lon="0.3741">
        <ele>420.26</ele>
        <time>2022-10-11T07:35:53.000Z</time>
      </trkpt>
      <trkpt lat="43.19598" lon="0.374">
        <ele>420.77</ele>
        <time>2022-10-11T07:35:58.000Z</time>
      </trkpt>
      <trkpt lat="43.19591" lon="0.37391">
        <ele>421.39</ele>
        <time>2022-10-11T07:36:04.000Z</time>
      </trkpt>
      <trkpt lat="43.19584" lon="0.37381">
        <ele>421.67</ele>
        <time>2022-10-11T07:36:10.000Z</time>
      </trkpt>
      <trkpt lat="43.19576" lon="0.37371">
        <ele>421.8</ele>
        <time>2022-10-11T07:36:16.000Z</time>
      </trkpt>
      <trkpt lat="43.1957" lon="0.37361">
        <ele>422.27</ele>
        <time>2022-10-11T07:36:22.000Z</time>
      </trkpt>
      <trkpt lat="43.19563" lon="0.37347">
        <ele>423.23</ele>
        <time>2022-10-11T07:36:27.000Z</time>
      </trkpt>
      <trkpt lat="43.19558" lon="0.37336">
        <ele>424.66</ele>
        <time>2022-10-11T07:36:33.000Z</time>
      </trkpt>
      <trkpt lat="43.19549" lon="0.37327">
        <ele>425.25</ele>
        <time>2022-10-11T07:36:38.000Z</time>
      </trkpt>
      <trkpt lat="43.19541" lon="0.37316">
        <ele>426.33</ele>
        <time>2022-10-11T07:36:43.000Z</time>
      </trkpt>
      <trkpt lat="43.19531" lon="0.37306">
        <ele>428.08</ele>
        <time>2022-10-11T07:36:48.000Z</time>
      </trkpt>
      <trkpt lat="43.19522" lon="0.37298">
        <ele>429.75</ele>
        <time>2022-10-11T07:36:53.000Z</time>
      </trkpt>
      <trkpt lat="43.19512" lon="0.37293">
        <ele>431.5</ele>
        <time>2022-10-11T07:36:58.000Z</time>
      </trkpt>
      <trkpt lat="43.19503" lon="0.37286">
        <ele>432.34</ele>
        <time>2022-10-11T07:37:03.000Z</time>
      </trkpt>
      <trkpt lat="43.19493" lon="0.3728">
        <ele>433.14</ele>
        <time>2022-10-11T07:37:08.000Z</time>
      </trkpt>
      <trkpt lat="43.19484" lon="0.37273">
        <ele>433.69</ele>
        <time>2022-10-11T07:37:13.000Z</time>
      </trkpt>
      <trkpt lat="43.19475" lon="0.37265">
        <ele>434.42</ele>
        <time>2022-10-11T07:37:18.000Z</time>
      </trkpt>
      <trkpt lat="43.19466" lon="0.37259">
        <ele>434.8</ele>
        <time>2022-10-11T07:37:23.000Z</time>
      </trkpt>
      <trkpt lat="43.19456" lon="0.37253">
        <ele>434.9</ele>
        <time>2022-10-11T07:37:28.000Z</time>
      </trkpt>
      <trkpt lat="43.19447" lon="0.37246">
        <ele>436.05</ele>
        <time>2022-10-11T07:37:33.000Z</time>
      </trkpt>
      <trkpt lat="43.19438" lon="0.3724">
        <ele>435.91</ele>
        <time>2022-10-11T07:37:38.000Z</time>
      </trkpt>
      <trkpt lat="43.19429" lon="0.37233">
        <ele>435.8</ele>
        <time>2022-10-11T07:37:43.000Z</time>
      </trkpt>
      <trkpt lat="43.1942" lon="0.37226">
        <ele>436.25</ele>
        <time>2022-10-11T07:37:48.000Z</time>
      </trkpt>
      <trkpt lat="43.19411" lon="0.37218">
        <ele>437.21</ele>
        <time>2022-10-11T07:37:53.000Z</time>
      </trkpt>
      <trkpt lat="43.19402" lon="0.3721">
        <ele>439.15</ele>
        <time>2022-10-11T07:37:59.000Z</time>
      </trkpt>
      <trkpt lat="43.19394" lon="0.37205">
        <ele>439.22</ele>
        <time>2022-10-11T07:38:04.000Z</time>
      </trkpt>
      <trkpt lat="43.19385" lon="0.37198">
        <ele>440.41</ele>
        <time>2022-10-11T07:38:09.000Z</time>
      </trkpt>
      <trkpt lat="43.19377" lon="0.37188">
        <ele>442.06</ele>
        <time>2022-10-11T07:38:14.000Z</time>
      </trkpt>
      <trkpt lat="43.1937" lon="0.37176">
        <ele>443.55</ele>
        <time>2022-10-11T07:38:19.000Z</time>
      </trkpt>
      <trkpt lat="43.19364" lon="0.37164">
        <ele>444.11</ele>
        <time>2022-10-11T07:38:24.000Z</time>
      </trkpt>
      <trkpt lat="43.19358" lon="0.37151">
        <ele>444.67</ele>
        <time>2022-10-11T07:38:29.000Z</time>
      </trkpt>
      <trkpt lat="43.19354" lon="0.37135">
        <ele>445.22</ele>
        <time>2022-10-11T07:38:34.000Z</time>
      </trkpt>
      <trkpt lat="43.19351" lon="0.37123">
        <ele>445.57</ele>
        <time>2022-10-11T07:38:39.000Z</time>
      </trkpt>
      <trkpt lat="43.19348" lon="0.37108">
        <ele>446.23</ele>
        <time>2022-10-11T07:38:44.000Z</time>
      </trkpt>
      <trkpt lat="43.19347" lon="0.37093">
        <ele>447.19</ele>
        <time>2022-10-11T07:38:49.000Z</time>
      </trkpt>
      <trkpt lat="43.19345" lon="0.37077">
        <ele>447.84</ele>
        <time>2022-10-11T07:38:54.000Z</time>
      </trkpt>
      <trkpt lat="43.19344" lon="0.37064">
        <ele>448.49</ele>
        <time>2022-10-11T07:38:59.000Z</time>
      </trkpt>
      <trkpt lat="43.19341" lon="0.37052">
        <ele>450.4</ele>
        <time>2022-10-11T07:39:05.000Z</time>
      </trkpt>
      <trkpt lat="43.1934" lon="0.37038">
        <ele>450.73</ele>
        <time>2022-10-11T07:39:10.000Z</time>
      </trkpt>
      <trkpt lat="43.19339" lon="0.37025">
        <ele>451.17</ele>
        <time>2022-10-11T07:39:15.000Z</time>
      </trkpt>
      <trkpt lat="43.19337" lon="0.37011">
        <ele>450.99</ele>
        <time>2022-10-11T07:39:20.000Z</time>
      </trkpt>
      <trkpt lat="43.19336" lon="0.36998">
        <ele>451.96</ele>
        <time>2022-10-11T07:39:25.000Z</time>
      </trkpt>
      <trkpt lat="43.19338" lon="0.36981">
        <ele>452.89</ele>
        <time>2022-10-11T07:39:30.000Z</time>
      </trkpt>
      <trkpt lat="43.19339" lon="0.36969">
        <ele>453.99</ele>
        <time>2022-10-11T07:39:35.000Z</time>
      </trkpt>
      <trkpt lat="43.1934" lon="0.36955">
        <ele>454.32</ele>
        <time>2022-10-11T07:39:40.000Z</time>
      </trkpt>
      <trkpt lat="43.19342" lon="0.36942">
        <ele>453.87</ele>
        <time>2022-10-11T07:39:45.000Z</time>
      </trkpt>
      <trkpt lat="43.19342" lon="0.36928">
        <ele>454.94</ele>
        <time>2022-10-11T07:39:50.000Z</time>
      </trkpt>
      <trkpt lat="43.19342" lon="0.36913">
        <ele>455.72</ele>
        <time>2022-10-11T07:39:56.000Z</time>
      </trkpt>
      <trkpt lat="43.19345" lon="0.369">
        <ele>456.79</ele>
        <time>2022-10-11T07:40:01.000Z</time>
      </trkpt>
      <trkpt lat="43.19348" lon="0.36886">
        <ele>457.05</ele>
        <time>2022-10-11T07:40:06.000Z</time>
      </trkpt>
      <trkpt lat="43.19349" lon="0.36873">
        <ele>457.04</ele>
        <time>2022-10-11T07:40:11.000Z</time>
      </trkpt>
      <trkpt lat="43.1935" lon="0.36857">
        <ele>457.26</ele>
        <time>2022-10-11T07:40:17.000Z</time>
      </trkpt>
      <trkpt lat="43.19353" lon="0.3684">
        <ele>457.55</ele>
        <time>2022-10-11T07:40:22.000Z</time>
      </trkpt>
      <trkpt lat="43.19356" lon="0.36823">
        <ele>458.34</ele>
        <time>2022-10-11T07:40:27.000Z</time>
      </trkpt>
      <trkpt lat="43.19359" lon="0.3681">
        <ele>458.85</ele>
        <time>2022-10-11T07:40:32.000Z</time>
      </trkpt>
      <trkpt lat="43.1936" lon="0.36797">
        <ele>459.83</ele>
        <time>2022-10-11T07:40:37.000Z</time>
      </trkpt>
      <trkpt lat="43.19361" lon="0.36784">
        <ele>460.26</ele>
        <time>2022-10-11T07:40:42.000Z</time>
      </trkpt>
      <trkpt lat="43.19363" lon="0.36771">
        <ele>460.93</ele>
        <time>2022-10-11T07:40:47.000Z</time>
      </trkpt>
      <trkpt lat="43.19367" lon="0.36757">
        <ele>462.43</ele>
        <time>2022-10-11T07:40:52.000Z</time>
      </trkpt>
      <trkpt lat="43.1937" lon="0.36741">
        <ele>463.27</ele>
        <time>2022-10-11T07:40:57.000Z</time>
      </trkpt>
      <trkpt lat="43.19373" lon="0.36727">
        <ele>463.74</ele>
        <time>2022-10-11T07:41:02.000Z</time>
      </trkpt>
      <trkpt lat="43.19375" lon="0.36713">
        <ele>464.69</ele>
        <time>2022-10-11T07:41:07.000Z</time>
      </trkpt>
      <trkpt lat="43.19376" lon="0.367">
        <ele>466.22</ele>
        <time>2022-10-11T07:41:12.000Z</time>
      </trkpt>
      <trkpt lat="43.19376" lon="0.36687">
        <ele>467.43</ele>
        <time>2022-10-11T07:41:17.000Z</time>
      </trkpt>
      <trkpt lat="43.19373" lon="0.36675">
        <ele>467.9</ele>
        <time>2022-10-11T07:41:22.000Z</time>
      </trkpt>
      <trkpt lat="43.19367" lon="0.36661">
        <ele>467.56</ele>
        <time>2022-10-11T07:41:27.000Z</time>
      </trkpt>
      <trkpt lat="43.19359" lon="0.36652">
        <ele>466.98</ele>
        <time>2022-10-11T07:41:32.000Z</time>
      </trkpt>
      <trkpt lat="43.19348" lon="0.36647">
        <ele>467.59</ele>
        <time>2022-10-11T07:41:37.000Z</time>
      </trkpt>
      <trkpt lat="43.19336" lon="0.36645">
        <ele>467.79</ele>
        <time>2022-10-11T07:41:42.000Z</time>
      </trkpt>
      <trkpt lat="43.19324" lon="0.36648">
        <ele>468.54</ele>
        <time>2022-10-11T07:41:47.000Z</time>
      </trkpt>
      <trkpt lat="43.19314" lon="0.36654">
        <ele>469</ele>
        <time>2022-10-11T07:41:53.000Z</time>
      </trkpt>
      <trkpt lat="43.19306" lon="0.36661">
        <ele>469.4</ele>
        <time>2022-10-11T07:41:58.000Z</time>
      </trkpt>
      <trkpt lat="43.19297" lon="0.36668">
        <ele>468.99</ele>
        <time>2022-10-11T07:42:03.000Z</time>
      </trkpt>
      <trkpt lat="43.19289" lon="0.36678">
        <ele>469.33</ele>
        <time>2022-10-11T07:42:08.000Z</time>
      </trkpt>
      <trkpt lat="43.19282" lon="0.36687">
        <ele>470.17</ele>
        <time>2022-10-11T07:42:13.000Z</time>
      </trkpt>
      <trkpt lat="43.19275" lon="0.36698">
        <ele>470.93</ele>
        <time>2022-10-11T07:42:18.000Z</time>
      </trkpt>
      <trkpt lat="43.19269" lon="0.36708">
        <ele>471.88</ele>
        <time>2022-10-11T07:42:23.000Z</time>
      </trkpt>
      <trkpt lat="43.19262" lon="0.36717">
        <ele>473.59</ele>
        <time>2022-10-11T07:42:28.000Z</time>
      </trkpt>
      <trkpt lat="43.19254" lon="0.36724">
        <ele>474.64</ele>
        <time>2022-10-11T07:42:33.000Z</time>
      </trkpt>
      <trkpt lat="43.19246" lon="0.3673">
        <ele>476.33</ele>
        <time>2022-10-11T07:42:38.000Z</time>
      </trkpt>
      <trkpt lat="43.19238" lon="0.36737">
        <ele>477.27</ele>
        <time>2022-10-11T07:42:43.000Z</time>
      </trkpt>
      <trkpt lat="43.19229" lon="0.36741">
        <ele>477.68</ele>
        <time>2022-10-11T07:42:48.000Z</time>
      </trkpt>
      <trkpt lat="43.19219" lon="0.36744">
        <ele>477.97</ele>
        <time>2022-10-11T07:42:53.000Z</time>
      </trkpt>
      <trkpt lat="43.19208" lon="0.36747">
        <ele>478.28</ele>
        <time>2022-10-11T07:42:58.000Z</time>
      </trkpt>
      <trkpt lat="43.19198" lon="0.36748">
        <ele>478.57</ele>
        <time>2022-10-11T07:43:03.000Z</time>
      </trkpt>
      <trkpt lat="43.19188" lon="0.36747">
        <ele>478.6</ele>
        <time>2022-10-11T07:43:08.000Z</time>
      </trkpt>
      <trkpt lat="43.19178" lon="0.36746">
        <ele>478.4</ele>
        <time>2022-10-11T07:43:13.000Z</time>
      </trkpt>
      <trkpt lat="43.19169" lon="0.36741">
        <ele>479.43</ele>
        <time>2022-10-11T07:43:19.000Z</time>
      </trkpt>
      <trkpt lat="43.1916" lon="0.36737">
        <ele>479.6</ele>
        <time>2022-10-11T07:43:24.000Z</time>
      </trkpt>
      <trkpt lat="43.1915" lon="0.36732">
        <ele>479.34</ele>
        <time>2022-10-11T07:43:30.000Z</time>
      </trkpt>
      <trkpt lat="43.19143" lon="0.36722">
        <ele>478.41</ele>
        <time>2022-10-11T07:43:36.000Z</time>
      </trkpt>
      <trkpt lat="43.19138" lon="0.36709">
        <ele>478.5</ele>
        <time>2022-10-11T07:43:41.000Z</time>
      </trkpt>
      <trkpt lat="43.19135" lon="0.36697">
        <ele>478.67</ele>
        <time>2022-10-11T07:43:46.000Z</time>
      </trkpt>
      <trkpt lat="43.19132" lon="0.36683">
        <ele>479.77</ele>
        <time>2022-10-11T07:43:51.000Z</time>
      </trkpt>
      <trkpt lat="43.19131" lon="0.36667">
        <ele>480.84</ele>
        <time>2022-10-11T07:43:56.000Z</time>
      </trkpt>
      <trkpt lat="43.19131" lon="0.36653">
        <ele>481.26</ele>
        <time>2022-10-11T07:44:01.000Z</time>
      </trkpt>
      <trkpt lat="43.19133" lon="0.36641">
        <ele>481.72</ele>
        <time>2022-10-11T07:44:06.000Z</time>
      </trkpt>
      <trkpt lat="43.19135" lon="0.36627">
        <ele>482.47</ele>
        <time>2022-10-11T07:44:12.000Z</time>
      </trkpt>
      <trkpt lat="43.19137" lon="0.36613">
        <ele>482.51</ele>
        <time>2022-10-11T07:44:17.000Z</time>
      </trkpt>
      <trkpt lat="43.19138" lon="0.36599">
        <ele>483.56</ele>
        <time>2022-10-11T07:44:22.000Z</time>
      </trkpt>
      <trkpt lat="43.19139" lon="0.36584">
        <ele>484.68</ele>
        <time>2022-10-11T07:44:27.000Z</time>
      </trkpt>
      <trkpt lat="43.19141" lon="0.36571">
        <ele>485.96</ele>
        <time>2022-10-11T07:44:32.000Z</time>
      </trkpt>
      <trkpt lat="43.19142" lon="0.36556">
        <ele>488.14</ele>
        <time>2022-10-11T07:44:38.000Z</time>
      </trkpt>
      <trkpt lat="43.19143" lon="0.36543">
        <ele>488.96</ele>
        <time>2022-10-11T07:44:43.000Z</time>
      </trkpt>
      <trkpt lat="43.19145" lon="0.3653">
        <ele>488.9</ele>
        <time>2022-10-11T07:44:48.000Z</time>
      </trkpt>
      <trkpt lat="43.19148" lon="0.36516">
        <ele>490.09</ele>
        <time>2022-10-11T07:44:53.000Z</time>
      </trkpt>
      <trkpt lat="43.19151" lon="0.36501">
        <ele>491.48</ele>
        <time>2022-10-11T07:44:58.000Z</time>
      </trkpt>
      <trkpt lat="43.19153" lon="0.36488">
        <ele>491.87</ele>
        <time>2022-10-11T07:45:03.000Z</time>
      </trkpt>
      <trkpt lat="43.19155" lon="0.36473">
        <ele>492.64</ele>
        <time>2022-10-11T07:45:08.000Z</time>
      </trkpt>
      <trkpt lat="43.19157" lon="0.36459">
        <ele>493.14</ele>
        <time>2022-10-11T07:45:13.000Z</time>
      </trkpt>
      <trkpt lat="43.19161" lon="0.36446">
        <ele>493.69</ele>
        <time>2022-10-11T07:45:19.000Z</time>
      </trkpt>
      <trkpt lat="43.19164" lon="0.36434">
        <ele>493.64</ele>
        <time>2022-10-11T07:45:24.000Z</time>
      </trkpt>
      <trkpt lat="43.19167" lon="0.36421">
        <ele>493.47</ele>
        <time>2022-10-11T07:45:29.000Z</time>
      </trkpt>
      <trkpt lat="43.1917" lon="0.36408">
        <ele>493.11</ele>
        <time>2022-10-11T07:45:34.000Z</time>
      </trkpt>
      <trkpt lat="43.19172" lon="0.36394">
        <ele>492.58</ele>
        <time>2022-10-11T07:45:40.000Z</time>
      </trkpt>
      <trkpt lat="43.19175" lon="0.36379">
        <ele>492.78</ele>
        <time>2022-10-11T07:45:45.000Z</time>
      </trkpt>
      <trkpt lat="43.1918" lon="0.36366">
        <ele>493.2</ele>
        <time>2022-10-11T07:45:50.000Z</time>
      </trkpt>
      <trkpt lat="43.19184" lon="0.36351">
        <ele>492.84</ele>
        <time>2022-10-11T07:45:55.000Z</time>
      </trkpt>
      <trkpt lat="43.19188" lon="0.36338">
        <ele>492.84</ele>
        <time>2022-10-11T07:46:00.000Z</time>
      </trkpt>
      <trkpt lat="43.19191" lon="0.36324">
        <ele>493.24</ele>
        <time>2022-10-11T07:46:05.000Z</time>
      </trkpt>
      <trkpt lat="43.19195" lon="0.3631">
        <ele>493.4</ele>
        <time>2022-10-11T07:46:10.000Z</time>
      </trkpt>
      <trkpt lat="43.19197" lon="0.36295">
        <ele>494.69</ele>
        <time>2022-10-11T07:46:15.000Z</time>
      </trkpt>
      <trkpt lat="43.19198" lon="0.36281">
        <ele>496.01</ele>
        <time>2022-10-11T07:46:20.000Z</time>
      </trkpt>
      <trkpt lat="43.19199" lon="0.36265">
        <ele>496.57</ele>
        <time>2022-10-11T07:46:25.000Z</time>
      </trkpt>
      <trkpt lat="43.19198" lon="0.3625">
        <ele>498.33</ele>
        <time>2022-10-11T07:46:30.000Z</time>
      </trkpt>
      <trkpt lat="43.19196" lon="0.36232">
        <ele>498.64</ele>
        <time>2022-10-11T07:46:35.000Z</time>
      </trkpt>
      <trkpt lat="43.19194" lon="0.36211">
        <ele>498.57</ele>
        <time>2022-10-11T07:46:40.000Z</time>
      </trkpt>
      <trkpt lat="43.19191" lon="0.3619">
        <ele>499.14</ele>
        <time>2022-10-11T07:46:45.000Z</time>
      </trkpt>
      <trkpt lat="43.19187" lon="0.36169">
        <ele>499.54</ele>
        <time>2022-10-11T07:46:50.000Z</time>
      </trkpt>
      <trkpt lat="43.19183" lon="0.36147">
        <ele>499.77</ele>
        <time>2022-10-11T07:46:55.000Z</time>
      </trkpt>
      <trkpt lat="43.1918" lon="0.36124">
        <ele>500.26</ele>
        <time>2022-10-11T07:47:00.000Z</time>
      </trkpt>
      <trkpt lat="43.19176" lon="0.36104">
        <ele>500.8</ele>
        <time>2022-10-11T07:47:05.000Z</time>
      </trkpt>
      <trkpt lat="43.19172" lon="0.36083">
        <ele>499.32</ele>
        <time>2022-10-11T07:47:10.000Z</time>
      </trkpt>
      <trkpt lat="43.19169" lon="0.36063">
        <ele>499.27</ele>
        <time>2022-10-11T07:47:15.000Z</time>
      </trkpt>
      <trkpt lat="43.19165" lon="0.36044">
        <ele>499.64</ele>
        <time>2022-10-11T07:47:20.000Z</time>
      </trkpt>
      <trkpt lat="43.19161" lon="0.36025">
        <ele>500.38</ele>
        <time>2022-10-11T07:47:25.000Z</time>
      </trkpt>
      <trkpt lat="43.19158" lon="0.36006">
        <ele>501.38</ele>
        <time>2022-10-11T07:47:30.000Z</time>
      </trkpt>
      <trkpt lat="43.19155" lon="0.35985">
        <ele>502.15</ele>
        <time>2022-10-11T07:47:35.000Z</time>
      </trkpt>
      <trkpt lat="43.19152" lon="0.35964">
        <ele>502.49</ele>
        <time>2022-10-11T07:47:40.000Z</time>
      </trkpt>
      <trkpt lat="43.19147" lon="0.35942">
        <ele>502.77</ele>
        <time>2022-10-11T07:47:45.000Z</time>
      </trkpt>
      <trkpt lat="43.19143" lon="0.3592">
        <ele>502.96</ele>
        <time>2022-10-11T07:47:50.000Z</time>
      </trkpt>
      <trkpt lat="43.19139" lon="0.359">
        <ele>504.84</ele>
        <time>2022-10-11T07:47:55.000Z</time>
      </trkpt>
      <trkpt lat="43.19133" lon="0.3588">
        <ele>505.6</ele>
        <time>2022-10-11T07:48:00.000Z</time>
      </trkpt>
      <trkpt lat="43.19124" lon="0.35875">
        <ele>506.5</ele>
        <time>2022-10-11T07:48:46.000Z</time>
      </trkpt>
      <trkpt lat="43.19114" lon="0.3587">
        <ele>506.71</ele>
        <time>2022-10-11T07:48:51.000Z</time>
      </trkpt>
      <trkpt lat="43.191" lon="0.35857">
        <ele>506.97</ele>
        <time>2022-10-11T07:48:56.000Z</time>
      </trkpt>
      <trkpt lat="43.19086" lon="0.35842">
        <ele>506.98</ele>
        <time>2022-10-11T07:49:01.000Z</time>
      </trkpt>
      <trkpt lat="43.19072" lon="0.35823">
        <ele>506.83</ele>
        <time>2022-10-11T07:49:06.000Z</time>
      </trkpt>
      <trkpt lat="43.19058" lon="0.35801">
        <ele>507.04</ele>
        <time>2022-10-11T07:49:11.000Z</time>
      </trkpt>
      <trkpt lat="43.19043" lon="0.35776">
        <ele>507.18</ele>
        <time>2022-10-11T07:49:16.000Z</time>
      </trkpt>
      <trkpt lat="43.19027" lon="0.35751">
        <ele>506.8</ele>
        <time>2022-10-11T07:49:21.000Z</time>
      </trkpt>
      <trkpt lat="43.19013" lon="0.35729">
        <ele>507.39</ele>
        <time>2022-10-11T07:49:26.000Z</time>
      </trkpt>
      <trkpt lat="43.18998" lon="0.35706">
        <ele>508.51</ele>
        <time>2022-10-11T07:49:31.000Z</time>
      </trkpt>
      <trkpt lat="43.18986" lon="0.35687">
        <ele>509.56</ele>
        <time>2022-10-11T07:49:36.000Z</time>
      </trkpt>
      <trkpt lat="43.18978" lon="0.35671">
        <ele>508.75</ele>
        <time>2022-10-11T07:49:41.000Z</time>
      </trkpt>
      <trkpt lat="43.18962" lon="0.35663">
        <ele>508.79</ele>
        <time>2022-10-11T07:49:46.000Z</time>
      </trkpt>
      <trkpt lat="43.18946" lon="0.35653">
        <ele>508.71</ele>
        <time>2022-10-11T07:49:51.000Z</time>
      </trkpt>
      <trkpt lat="43.18929" lon="0.35642">
        <ele>507.9</ele>
        <time>2022-10-11T07:49:56.000Z</time>
      </trkpt>
      <trkpt lat="43.1891" lon="0.35637">
        <ele>507.58</ele>
        <time>2022-10-11T07:50:01.000Z</time>
      </trkpt>
      <trkpt lat="43.18889" lon="0.35638">
        <ele>508.36</ele>
        <time>2022-10-11T07:50:06.000Z</time>
      </trkpt>
      <trkpt lat="43.18867" lon="0.35642">
        <ele>508.16</ele>
        <time>2022-10-11T07:50:11.000Z</time>
      </trkpt>
      <trkpt lat="43.18844" lon="0.35646">
        <ele>508.51</ele>
        <time>2022-10-11T07:50:16.000Z</time>
      </trkpt>
      <trkpt lat="43.18822" lon="0.35652">
        <ele>511.3</ele>
        <time>2022-10-11T07:50:21.000Z</time>
      </trkpt>
      <trkpt lat="43.188" lon="0.35657">
        <ele>513.71</ele>
        <time>2022-10-11T07:50:26.000Z</time>
      </trkpt>
      <trkpt lat="43.18777" lon="0.35663">
        <ele>515.02</ele>
        <time>2022-10-11T07:50:31.000Z</time>
      </trkpt>
      <trkpt lat="43.18755" lon="0.35673">
        <ele>516.22</ele>
        <time>2022-10-11T07:50:36.000Z</time>
      </trkpt>
      <trkpt lat="43.18733" lon="0.35684">
        <ele>517.43</ele>
        <time>2022-10-11T07:50:41.000Z</time>
      </trkpt>
      <trkpt lat="43.18712" lon="0.35699">
        <ele>517.97</ele>
        <time>2022-10-11T07:50:46.000Z</time>
      </trkpt>
      <trkpt lat="43.18691" lon="0.35711">
        <ele>517.07</ele>
        <time>2022-10-11T07:50:51.000Z</time>
      </trkpt>
      <trkpt lat="43.18666" lon="0.35717">
        <ele>516.73</ele>
        <time>2022-10-11T07:50:56.000Z</time>
      </trkpt>
      <trkpt lat="43.1864" lon="0.35723">
        <ele>516.72</ele>
        <time>2022-10-11T07:51:01.000Z</time>
      </trkpt>
      <trkpt lat="43.18613" lon="0.35729">
        <ele>516.41</ele>
        <time>2022-10-11T07:51:06.000Z</time>
      </trkpt>
      <trkpt lat="43.18588" lon="0.35733">
        <ele>515.51</ele>
        <time>2022-10-11T07:51:11.000Z</time>
      </trkpt>
      <trkpt lat="43.18561" lon="0.35735">
        <ele>514.41</ele>
        <time>2022-10-11T07:51:16.000Z</time>
      </trkpt>
      <trkpt lat="43.18535" lon="0.35735">
        <ele>513.1</ele>
        <time>2022-10-11T07:51:21.000Z</time>
      </trkpt>
      <trkpt lat="43.18513" lon="0.3573">
        <ele>511.38</ele>
        <time>2022-10-11T07:51:26.000Z</time>
      </trkpt>
      <trkpt lat="43.18486" lon="0.35722">
        <ele>509.9</ele>
        <time>2022-10-11T07:51:31.000Z</time>
      </trkpt>
      <trkpt lat="43.18467" lon="0.35705">
        <ele>509.33</ele>
        <time>2022-10-11T07:51:36.000Z</time>
      </trkpt>
      <trkpt lat="43.18458" lon="0.35688">
        <ele>508.58</ele>
        <time>2022-10-11T07:51:41.000Z</time>
      </trkpt>
      <trkpt lat="43.18449" lon="0.35667">
        <ele>507.67</ele>
        <time>2022-10-11T07:51:46.000Z</time>
      </trkpt>
      <trkpt lat="43.18447" lon="0.35645">
        <ele>506.77</ele>
        <time>2022-10-11T07:51:51.000Z</time>
      </trkpt>
      <trkpt lat="43.18447" lon="0.35632">
        <ele>505.96</ele>
        <time>2022-10-11T07:51:56.000Z</time>
      </trkpt>
      <trkpt lat="43.18438" lon="0.35636">
        <ele>509.46</ele>
        <time>2022-10-11T07:54:22.000Z</time>
      </trkpt>
      <trkpt lat="43.18431" lon="0.35628">
        <ele>507.59</ele>
        <time>2022-10-11T07:55:59.000Z</time>
      </trkpt>
      <trkpt lat="43.18428" lon="0.35595">
        <ele>507.5</ele>
        <time>2022-10-11T07:56:04.000Z</time>
      </trkpt>
      <trkpt lat="43.18428" lon="0.35563">
        <ele>507.3</ele>
        <time>2022-10-11T07:56:09.000Z</time>
      </trkpt>
      <trkpt lat="43.18428" lon="0.35527">
        <ele>507.97</ele>
        <time>2022-10-11T07:56:14.000Z</time>
      </trkpt>
      <trkpt lat="43.18409" lon="0.35507">
        <ele>508.78</ele>
        <time>2022-10-11T07:56:19.000Z</time>
      </trkpt>
      <trkpt lat="43.18381" lon="0.35497">
        <ele>508.92</ele>
        <time>2022-10-11T07:56:24.000Z</time>
      </trkpt>
      <trkpt lat="43.18377" lon="0.35449">
        <ele>508.7</ele>
        <time>2022-10-11T07:56:29.000Z</time>
      </trkpt>
      <trkpt lat="43.18384" lon="0.35388">
        <ele>507.72</ele>
        <time>2022-10-11T07:56:34.000Z</time>
      </trkpt>
      <trkpt lat="43.18362" lon="0.35332">
        <ele>506.28</ele>
        <time>2022-10-11T07:56:39.000Z</time>
      </trkpt>
      <trkpt lat="43.1833" lon="0.35279">
        <ele>504.71</ele>
        <time>2022-10-11T07:56:44.000Z</time>
      </trkpt>
      <trkpt lat="43.18318" lon="0.35234">
        <ele>502.26</ele>
        <time>2022-10-11T07:56:49.000Z</time>
      </trkpt>
      <trkpt lat="43.18358" lon="0.35239">
        <ele>499.39</ele>
        <time>2022-10-11T07:56:54.000Z</time>
      </trkpt>
      <trkpt lat="43.18398" lon="0.35273">
        <ele>497.96</ele>
        <time>2022-10-11T07:56:59.000Z</time>
      </trkpt>
      <trkpt lat="43.1844" lon="0.3528">
        <ele>495.44</ele>
        <time>2022-10-11T07:57:04.000Z</time>
      </trkpt>
      <trkpt lat="43.18481" lon="0.3524">
        <ele>491.91</ele>
        <time>2022-10-11T07:57:09.000Z</time>
      </trkpt>
      <trkpt lat="43.18525" lon="0.35195">
        <ele>488.71</ele>
        <time>2022-10-11T07:57:14.000Z</time>
      </trkpt>
      <trkpt lat="43.18574" lon="0.35174">
        <ele>484.74</ele>
        <time>2022-10-11T07:57:19.000Z</time>
      </trkpt>
      <trkpt lat="43.18624" lon="0.35148">
        <ele>481</ele>
        <time>2022-10-11T07:57:24.000Z</time>
      </trkpt>
      <trkpt lat="43.18651" lon="0.35081">
        <ele>476.59</ele>
        <time>2022-10-11T07:57:29.000Z</time>
      </trkpt>
      <trkpt lat="43.18666" lon="0.35008">
        <ele>472.17</ele>
        <time>2022-10-11T07:57:34.000Z</time>
      </trkpt>
      <trkpt lat="43.18688" lon="0.34938">
        <ele>467.45</ele>
        <time>2022-10-11T07:57:39.000Z</time>
      </trkpt>
      <trkpt lat="43.18714" lon="0.34867">
        <ele>462.66</ele>
        <time>2022-10-11T07:57:44.000Z</time>
      </trkpt>
      <trkpt lat="43.18742" lon="0.34802">
        <ele>459.4</ele>
        <time>2022-10-11T07:57:49.000Z</time>
      </trkpt>
      <trkpt lat="43.18762" lon="0.34726">
        <ele>456.13</ele>
        <time>2022-10-11T07:57:54.000Z</time>
      </trkpt>
      <trkpt lat="43.18777" lon="0.34652">
        <ele>452.9</ele>
        <time>2022-10-11T07:57:59.000Z</time>
      </trkpt>
      <trkpt lat="43.18788" lon="0.34581">
        <ele>449.85</ele>
        <time>2022-10-11T07:58:04.000Z</time>
      </trkpt>
      <trkpt lat="43.1878" lon="0.34517">
        <ele>446.6</ele>
        <time>2022-10-11T07:58:09.000Z</time>
      </trkpt>
      <trkpt lat="43.18742" lon="0.34502">
        <ele>443.13</ele>
        <time>2022-10-11T07:58:14.000Z</time>
      </trkpt>
      <trkpt lat="43.18692" lon="0.34504">
        <ele>440.03</ele>
        <time>2022-10-11T07:58:19.000Z</time>
      </trkpt>
      <trkpt lat="43.18605" lon="0.34516">
        <ele>436.71</ele>
        <time>2022-10-11T07:58:24.000Z</time>
      </trkpt>
      <trkpt lat="43.18551" lon="0.34519">
        <ele>433.7</ele>
        <time>2022-10-11T07:58:29.000Z</time>
      </trkpt>
      <trkpt lat="43.1848" lon="0.34525">
        <ele>430.7</ele>
        <time>2022-10-11T07:58:34.000Z</time>
      </trkpt>
      <trkpt lat="43.1842" lon="0.34525">
        <ele>427.7</ele>
        <time>2022-10-11T07:58:39.000Z</time>
      </trkpt>
      <trkpt lat="43.18377" lon="0.34517">
        <ele>424.62</ele>
        <time>2022-10-11T07:58:44.000Z</time>
      </trkpt>
      <trkpt lat="43.18371" lon="0.34465">
        <ele>421.41</ele>
        <time>2022-10-11T07:58:49.000Z</time>
      </trkpt>
      <trkpt lat="43.18384" lon="0.34427">
        <ele>418.5</ele>
        <time>2022-10-11T07:58:54.000Z</time>
      </trkpt>
      <trkpt lat="43.18437" lon="0.34396">
        <ele>415.5</ele>
        <time>2022-10-11T07:58:59.000Z</time>
      </trkpt>
      <trkpt lat="43.18491" lon="0.34369">
        <ele>412.7</ele>
        <time>2022-10-11T07:59:04.000Z</time>
      </trkpt>
      <trkpt lat="43.18591" lon="0.34376">
        <ele>409.77</ele>
        <time>2022-10-11T07:59:09.000Z</time>
      </trkpt>
      <trkpt lat="43.18659" lon="0.34369">
        <ele>406.73</ele>
        <time>2022-10-11T07:59:14.000Z</time>
      </trkpt>
      <trkpt lat="43.18717" lon="0.34345">
        <ele>403.33</ele>
        <time>2022-10-11T07:59:19.000Z</time>
      </trkpt>
      <trkpt lat="43.18759" lon="0.3429">
        <ele>399.44</ele>
        <time>2022-10-11T07:59:24.000Z</time>
      </trkpt>
      <trkpt lat="43.18788" lon="0.34225">
        <ele>395.64</ele>
        <time>2022-10-11T07:59:29.000Z</time>
      </trkpt>
      <trkpt lat="43.18794" lon="0.34152">
        <ele>392.13</ele>
        <time>2022-10-11T07:59:34.000Z</time>
      </trkpt>
      <trkpt lat="43.18787" lon="0.34076">
        <ele>388</ele>
        <time>2022-10-11T07:59:39.000Z</time>
      </trkpt>
      <trkpt lat="43.18783" lon="0.34008">
        <ele>382.97</ele>
        <time>2022-10-11T07:59:44.000Z</time>
      </trkpt>
      <trkpt lat="43.18779" lon="0.33944">
        <ele>378.3</ele>
        <time>2022-10-11T07:59:49.000Z</time>
      </trkpt>
      <trkpt lat="43.18794" lon="0.33889">
        <ele>371.53</ele>
        <time>2022-10-11T07:59:54.000Z</time>
      </trkpt>
      <trkpt lat="43.18815" lon="0.33836">
        <ele>369.65</ele>
        <time>2022-10-11T07:59:59.000Z</time>
      </trkpt>
      <trkpt lat="43.18834" lon="0.33785">
        <ele>367.8</ele>
        <time>2022-10-11T08:00:04.000Z</time>
      </trkpt>
      <trkpt lat="43.18849" lon="0.33742">
        <ele>366.07</ele>
        <time>2022-10-11T08:00:09.000Z</time>
      </trkpt>
      <trkpt lat="43.18864" lon="0.33699">
        <ele>365.31</ele>
        <time>2022-10-11T08:00:14.000Z</time>
      </trkpt>
      <trkpt lat="43.18877" lon="0.33667">
        <ele>364.65</ele>
        <time>2022-10-11T08:00:19.000Z</time>
      </trkpt>
      <trkpt lat="43.18886" lon="0.33645">
        <ele>366.01</ele>
        <time>2022-10-11T08:00:24.000Z</time>
      </trkpt>
      <trkpt lat="43.18894" lon="0.33621">
        <ele>366.26</ele>
        <time>2022-10-11T08:00:29.000Z</time>
      </trkpt>
      <trkpt lat="43.18901" lon="0.33598">
        <ele>367.77</ele>
        <time>2022-10-11T08:00:34.000Z</time>
      </trkpt>
      <trkpt lat="43.18909" lon="0.33576">
        <ele>368.88</ele>
        <time>2022-10-11T08:00:39.000Z</time>
      </trkpt>
      <trkpt lat="43.18917" lon="0.33553">
        <ele>368.59</ele>
        <time>2022-10-11T08:00:44.000Z</time>
      </trkpt>
      <trkpt lat="43.18924" lon="0.33533">
        <ele>369.13</ele>
        <time>2022-10-11T08:00:49.000Z</time>
      </trkpt>
      <trkpt lat="43.18931" lon="0.33512">
        <ele>368.85</ele>
        <time>2022-10-11T08:00:54.000Z</time>
      </trkpt>
      <trkpt lat="43.18937" lon="0.33494">
        <ele>368.75</ele>
        <time>2022-10-11T08:00:59.000Z</time>
      </trkpt>
      <trkpt lat="43.18943" lon="0.33476">
        <ele>369.56</ele>
        <time>2022-10-11T08:01:04.000Z</time>
      </trkpt>
      <trkpt lat="43.1895" lon="0.33459">
        <ele>370.72</ele>
        <time>2022-10-11T08:01:09.000Z</time>
      </trkpt>
      <trkpt lat="43.18956" lon="0.33441">
        <ele>370.7</ele>
        <time>2022-10-11T08:01:14.000Z</time>
      </trkpt>
      <trkpt lat="43.18962" lon="0.33424">
        <ele>371.13</ele>
        <time>2022-10-11T08:01:19.000Z</time>
      </trkpt>
      <trkpt lat="43.18969" lon="0.33405">
        <ele>372.31</ele>
        <time>2022-10-11T08:01:24.000Z</time>
      </trkpt>
      <trkpt lat="43.18976" lon="0.33388">
        <ele>373.91</ele>
        <time>2022-10-11T08:01:29.000Z</time>
      </trkpt>
      <trkpt lat="43.18981" lon="0.33371">
        <ele>375.44</ele>
        <time>2022-10-11T08:01:34.000Z</time>
      </trkpt>
      <trkpt lat="43.18987" lon="0.33353">
        <ele>375.49</ele>
        <time>2022-10-11T08:01:39.000Z</time>
      </trkpt>
      <trkpt lat="43.18991" lon="0.33334">
        <ele>375.34</ele>
        <time>2022-10-11T08:01:44.000Z</time>
      </trkpt>
      <trkpt lat="43.18997" lon="0.33316">
        <ele>375.93</ele>
        <time>2022-10-11T08:01:49.000Z</time>
      </trkpt>
      <trkpt lat="43.19003" lon="0.33299">
        <ele>376.77</ele>
        <time>2022-10-11T08:01:54.000Z</time>
      </trkpt>
      <trkpt lat="43.19007" lon="0.33286">
        <ele>377.7</ele>
        <time>2022-10-11T08:01:59.000Z</time>
      </trkpt>
      <trkpt lat="43.1901" lon="0.33272">
        <ele>379.33</ele>
        <time>2022-10-11T08:02:04.000Z</time>
      </trkpt>
      <trkpt lat="43.19013" lon="0.33259">
        <ele>380.44</ele>
        <time>2022-10-11T08:02:09.000Z</time>
      </trkpt>
      <trkpt lat="43.19012" lon="0.33247">
        <ele>381.17</ele>
        <time>2022-10-11T08:02:14.000Z</time>
      </trkpt>
      <trkpt lat="43.19013" lon="0.33233">
        <ele>382.13</ele>
        <time>2022-10-11T08:02:19.000Z</time>
      </trkpt>
      <trkpt lat="43.19013" lon="0.3322">
        <ele>382.82</ele>
        <time>2022-10-11T08:02:24.000Z</time>
      </trkpt>
      <trkpt lat="43.19011" lon="0.33208">
        <ele>382.78</ele>
        <time>2022-10-11T08:02:29.000Z</time>
      </trkpt>
      <trkpt lat="43.19009" lon="0.33195">
        <ele>385.74</ele>
        <time>2022-10-11T08:02:34.000Z</time>
      </trkpt>
      <trkpt lat="43.19008" lon="0.33182">
        <ele>386.64</ele>
        <time>2022-10-11T08:02:39.000Z</time>
      </trkpt>
      <trkpt lat="43.19005" lon="0.33168">
        <ele>387.24</ele>
        <time>2022-10-11T08:02:46.000Z</time>
      </trkpt>
      <trkpt lat="43.19004" lon="0.33156">
        <ele>388.33</ele>
        <time>2022-10-11T08:02:51.000Z</time>
      </trkpt>
      <trkpt lat="43.19005" lon="0.33142">
        <ele>389.01</ele>
        <time>2022-10-11T08:02:57.000Z</time>
      </trkpt>
      <trkpt lat="43.19007" lon="0.33128">
        <ele>390.56</ele>
        <time>2022-10-11T08:03:04.000Z</time>
      </trkpt>
      <trkpt lat="43.19012" lon="0.33115">
        <ele>391.83</ele>
        <time>2022-10-11T08:03:11.000Z</time>
      </trkpt>
      <trkpt lat="43.19019" lon="0.33105">
        <ele>393.03</ele>
        <time>2022-10-11T08:03:17.000Z</time>
      </trkpt>
      <trkpt lat="43.19025" lon="0.33093">
        <ele>393.9</ele>
        <time>2022-10-11T08:03:23.000Z</time>
      </trkpt>
      <trkpt lat="43.1903" lon="0.33082">
        <ele>395.3</ele>
        <time>2022-10-11T08:03:29.000Z</time>
      </trkpt>
      <trkpt lat="43.19031" lon="0.33069">
        <ele>396.51</ele>
        <time>2022-10-11T08:03:35.000Z</time>
      </trkpt>
      <trkpt lat="43.19031" lon="0.33057">
        <ele>397.73</ele>
        <time>2022-10-11T08:03:40.000Z</time>
      </trkpt>
      <trkpt lat="43.19032" lon="0.33044">
        <ele>399.3</ele>
        <time>2022-10-11T08:03:46.000Z</time>
      </trkpt>
      <trkpt lat="43.19034" lon="0.3303">
        <ele>400.7</ele>
        <time>2022-10-11T08:03:51.000Z</time>
      </trkpt>
      <trkpt lat="43.19038" lon="0.33015">
        <ele>401.55</ele>
        <time>2022-10-11T08:03:56.000Z</time>
      </trkpt>
      <trkpt lat="43.19041" lon="0.32998">
        <ele>401.91</ele>
        <time>2022-10-11T08:04:01.000Z</time>
      </trkpt>
      <trkpt lat="43.19046" lon="0.3298">
        <ele>402.55</ele>
        <time>2022-10-11T08:04:06.000Z</time>
      </trkpt>
      <trkpt lat="43.19047" lon="0.32962">
        <ele>403.57</ele>
        <time>2022-10-11T08:04:11.000Z</time>
      </trkpt>
      <trkpt lat="43.19042" lon="0.32946">
        <ele>405.86</ele>
        <time>2022-10-11T08:04:16.000Z</time>
      </trkpt>
      <trkpt lat="43.19033" lon="0.3293">
        <ele>407.5</ele>
        <time>2022-10-11T08:04:21.000Z</time>
      </trkpt>
      <trkpt lat="43.19024" lon="0.32913">
        <ele>408.8</ele>
        <time>2022-10-11T08:04:26.000Z</time>
      </trkpt>
      <trkpt lat="43.19014" lon="0.32895">
        <ele>409.77</ele>
        <time>2022-10-11T08:04:31.000Z</time>
      </trkpt>
      <trkpt lat="43.19005" lon="0.32881">
        <ele>410.6</ele>
        <time>2022-10-11T08:04:36.000Z</time>
      </trkpt>
      <trkpt lat="43.18996" lon="0.32863">
        <ele>410.4</ele>
        <time>2022-10-11T08:04:41.000Z</time>
      </trkpt>
      <trkpt lat="43.18987" lon="0.32845">
        <ele>410.05</ele>
        <time>2022-10-11T08:04:46.000Z</time>
      </trkpt>
      <trkpt lat="43.18973" lon="0.32827">
        <ele>410.9</ele>
        <time>2022-10-11T08:04:51.000Z</time>
      </trkpt>
      <trkpt lat="43.18959" lon="0.32811">
        <ele>410.14</ele>
        <time>2022-10-11T08:04:56.000Z</time>
      </trkpt>
      <trkpt lat="43.18944" lon="0.32797">
        <ele>409.92</ele>
        <time>2022-10-11T08:05:01.000Z</time>
      </trkpt>
      <trkpt lat="43.18928" lon="0.32783">
        <ele>411.64</ele>
        <time>2022-10-11T08:05:06.000Z</time>
      </trkpt>
      <trkpt lat="43.18911" lon="0.32767">
        <ele>410.74</ele>
        <time>2022-10-11T08:05:11.000Z</time>
      </trkpt>
      <trkpt lat="43.18893" lon="0.32748">
        <ele>410.33</ele>
        <time>2022-10-11T08:05:16.000Z</time>
      </trkpt>
      <trkpt lat="43.18878" lon="0.32726">
        <ele>410.39</ele>
        <time>2022-10-11T08:05:21.000Z</time>
      </trkpt>
      <trkpt lat="43.1887" lon="0.32708">
        <ele>411.44</ele>
        <time>2022-10-11T08:05:26.000Z</time>
      </trkpt>
      <trkpt lat="43.18871" lon="0.32688">
        <ele>411.16</ele>
        <time>2022-10-11T08:05:31.000Z</time>
      </trkpt>
      <trkpt lat="43.18872" lon="0.32671">
        <ele>410.97</ele>
        <time>2022-10-11T08:05:36.000Z</time>
      </trkpt>
      <trkpt lat="43.18876" lon="0.32651">
        <ele>410.42</ele>
        <time>2022-10-11T08:05:41.000Z</time>
      </trkpt>
      <trkpt lat="43.18881" lon="0.32631">
        <ele>410.3</ele>
        <time>2022-10-11T08:05:46.000Z</time>
      </trkpt>
      <trkpt lat="43.18889" lon="0.32615">
        <ele>411.19</ele>
        <time>2022-10-11T08:05:51.000Z</time>
      </trkpt>
      <trkpt lat="43.18894" lon="0.32601">
        <ele>414.1</ele>
        <time>2022-10-11T08:05:56.000Z</time>
      </trkpt>
      <trkpt lat="43.18903" lon="0.32588">
        <ele>414.99</ele>
        <time>2022-10-11T08:06:01.000Z</time>
      </trkpt>
      <trkpt lat="43.18905" lon="0.32575">
        <ele>415.4</ele>
        <time>2022-10-11T08:06:06.000Z</time>
      </trkpt>
      <trkpt lat="43.18912" lon="0.32556">
        <ele>414.99</ele>
        <time>2022-10-11T08:06:11.000Z</time>
      </trkpt>
      <trkpt lat="43.18915" lon="0.32538">
        <ele>414.35</ele>
        <time>2022-10-11T08:06:16.000Z</time>
      </trkpt>
      <trkpt lat="43.18916" lon="0.32524">
        <ele>414.78</ele>
        <time>2022-10-11T08:06:22.000Z</time>
      </trkpt>
      <trkpt lat="43.18916" lon="0.32512">
        <ele>415.68</ele>
        <time>2022-10-11T08:06:27.000Z</time>
      </trkpt>
      <trkpt lat="43.18913" lon="0.32499">
        <ele>416.79</ele>
        <time>2022-10-11T08:06:32.000Z</time>
      </trkpt>
      <trkpt lat="43.18913" lon="0.32485">
        <ele>417.37</ele>
        <time>2022-10-11T08:06:37.000Z</time>
      </trkpt>
      <trkpt lat="43.1891" lon="0.32473">
        <ele>417.87</ele>
        <time>2022-10-11T08:06:43.000Z</time>
      </trkpt>
      <trkpt lat="43.18905" lon="0.3246">
        <ele>417.82</ele>
        <time>2022-10-11T08:06:49.000Z</time>
      </trkpt>
      <trkpt lat="43.18904" lon="0.32445">
        <ele>417.97</ele>
        <time>2022-10-11T08:06:54.000Z</time>
      </trkpt>
      <trkpt lat="43.18903" lon="0.3243">
        <ele>417.52</ele>
        <time>2022-10-11T08:07:50.000Z</time>
      </trkpt>
      <trkpt lat="43.189" lon="0.32415">
        <ele>417.28</ele>
        <time>2022-10-11T08:07:56.000Z</time>
      </trkpt>
      <trkpt lat="43.18897" lon="0.324">
        <ele>417.94</ele>
        <time>2022-10-11T08:08:01.000Z</time>
      </trkpt>
      <trkpt lat="43.18894" lon="0.32386">
        <ele>418.76</ele>
        <time>2022-10-11T08:08:06.000Z</time>
      </trkpt>
      <trkpt lat="43.18892" lon="0.32373">
        <ele>419.73</ele>
        <time>2022-10-11T08:08:11.000Z</time>
      </trkpt>
      <trkpt lat="43.18894" lon="0.32358">
        <ele>420.22</ele>
        <time>2022-10-11T08:08:16.000Z</time>
      </trkpt>
      <trkpt lat="43.18895" lon="0.32344">
        <ele>419.77</ele>
        <time>2022-10-11T08:08:21.000Z</time>
      </trkpt>
      <trkpt lat="43.18896" lon="0.3233">
        <ele>420.05</ele>
        <time>2022-10-11T08:08:26.000Z</time>
      </trkpt>
      <trkpt lat="43.189" lon="0.32316">
        <ele>420.64</ele>
        <time>2022-10-11T08:08:31.000Z</time>
      </trkpt>
      <trkpt lat="43.18906" lon="0.32301">
        <ele>422.1</ele>
        <time>2022-10-11T08:08:36.000Z</time>
      </trkpt>
      <trkpt lat="43.18912" lon="0.32288">
        <ele>422.95</ele>
        <time>2022-10-11T08:08:41.000Z</time>
      </trkpt>
      <trkpt lat="43.18917" lon="0.32276">
        <ele>423.56</ele>
        <time>2022-10-11T08:08:46.000Z</time>
      </trkpt>
      <trkpt lat="43.18921" lon="0.32265">
        <ele>424.48</ele>
        <time>2022-10-11T08:08:51.000Z</time>
      </trkpt>
      <trkpt lat="43.18928" lon="0.32254">
        <ele>426.12</ele>
        <time>2022-10-11T08:08:57.000Z</time>
      </trkpt>
      <trkpt lat="43.18936" lon="0.32244">
        <ele>428.19</ele>
        <time>2022-10-11T08:09:03.000Z</time>
      </trkpt>
      <trkpt lat="43.1894" lon="0.32232">
        <ele>429.95</ele>
        <time>2022-10-11T08:09:08.000Z</time>
      </trkpt>
      <trkpt lat="43.18944" lon="0.3222">
        <ele>431.82</ele>
        <time>2022-10-11T08:09:13.000Z</time>
      </trkpt>
      <trkpt lat="43.18949" lon="0.32207">
        <ele>433.42</ele>
        <time>2022-10-11T08:09:19.000Z</time>
      </trkpt>
      <trkpt lat="43.18951" lon="0.32194">
        <ele>434.74</ele>
        <time>2022-10-11T08:09:24.000Z</time>
      </trkpt>
      <trkpt lat="43.18955" lon="0.32179">
        <ele>435.2</ele>
        <time>2022-10-11T08:09:29.000Z</time>
      </trkpt>
      <trkpt lat="43.1896" lon="0.32165">
        <ele>435.81</ele>
        <time>2022-10-11T08:09:35.000Z</time>
      </trkpt>
      <trkpt lat="43.18963" lon="0.32152">
        <ele>436.43</ele>
        <time>2022-10-11T08:09:40.000Z</time>
      </trkpt>
      <trkpt lat="43.18966" lon="0.3214">
        <ele>437.05</ele>
        <time>2022-10-11T08:09:45.000Z</time>
      </trkpt>
      <trkpt lat="43.18967" lon="0.32125">
        <ele>437.67</ele>
        <time>2022-10-11T08:09:51.000Z</time>
      </trkpt>
      <trkpt lat="43.18961" lon="0.32111">
        <ele>438.07</ele>
        <time>2022-10-11T08:09:58.000Z</time>
      </trkpt>
      <trkpt lat="43.18952" lon="0.32109">
        <ele>438.37</ele>
        <time>2022-10-11T08:10:03.000Z</time>
      </trkpt>
      <trkpt lat="43.18941" lon="0.32112">
        <ele>438.7</ele>
        <time>2022-10-11T08:10:08.000Z</time>
      </trkpt>
      <trkpt lat="43.18932" lon="0.32122">
        <ele>439</ele>
        <time>2022-10-11T08:10:13.000Z</time>
      </trkpt>
      <trkpt lat="43.18925" lon="0.32131">
        <ele>439.47</ele>
        <time>2022-10-11T08:10:18.000Z</time>
      </trkpt>
      <trkpt lat="43.18917" lon="0.32145">
        <ele>440.06</ele>
        <time>2022-10-11T08:10:23.000Z</time>
      </trkpt>
      <trkpt lat="43.18909" lon="0.32158">
        <ele>440.38</ele>
        <time>2022-10-11T08:10:28.000Z</time>
      </trkpt>
      <trkpt lat="43.18899" lon="0.32169">
        <ele>441.05</ele>
        <time>2022-10-11T08:10:33.000Z</time>
      </trkpt>
      <trkpt lat="43.18891" lon="0.32175">
        <ele>442.79</ele>
        <time>2022-10-11T08:10:38.000Z</time>
      </trkpt>
      <trkpt lat="43.18881" lon="0.32181">
        <ele>444.24</ele>
        <time>2022-10-11T08:10:43.000Z</time>
      </trkpt>
      <trkpt lat="43.18871" lon="0.32186">
        <ele>444.8</ele>
        <time>2022-10-11T08:10:48.000Z</time>
      </trkpt>
      <trkpt lat="43.18861" lon="0.3219">
        <ele>445.68</ele>
        <time>2022-10-11T08:10:53.000Z</time>
      </trkpt>
      <trkpt lat="43.1885" lon="0.32193">
        <ele>447.93</ele>
        <time>2022-10-11T08:10:59.000Z</time>
      </trkpt>
      <trkpt lat="43.18841" lon="0.32193">
        <ele>449.05</ele>
        <time>2022-10-11T08:11:04.000Z</time>
      </trkpt>
      <trkpt lat="43.18831" lon="0.32189">
        <ele>451.56</ele>
        <time>2022-10-11T08:11:09.000Z</time>
      </trkpt>
      <trkpt lat="43.1882" lon="0.32187">
        <ele>453.09</ele>
        <time>2022-10-11T08:11:14.000Z</time>
      </trkpt>
      <trkpt lat="43.18809" lon="0.32183">
        <ele>453.2</ele>
        <time>2022-10-11T08:11:19.000Z</time>
      </trkpt>
      <trkpt lat="43.18799" lon="0.32178">
        <ele>454.17</ele>
        <time>2022-10-11T08:11:24.000Z</time>
      </trkpt>
      <trkpt lat="43.18788" lon="0.32174">
        <ele>454.91</ele>
        <time>2022-10-11T08:11:29.000Z</time>
      </trkpt>
      <trkpt lat="43.18779" lon="0.32166">
        <ele>455.22</ele>
        <time>2022-10-11T08:11:34.000Z</time>
      </trkpt>
      <trkpt lat="43.18774" lon="0.32153">
        <ele>456.86</ele>
        <time>2022-10-11T08:11:39.000Z</time>
      </trkpt>
      <trkpt lat="43.18769" lon="0.32137">
        <ele>458.06</ele>
        <time>2022-10-11T08:11:44.000Z</time>
      </trkpt>
      <trkpt lat="43.18765" lon="0.32123">
        <ele>458.47</ele>
        <time>2022-10-11T08:11:49.000Z</time>
      </trkpt>
      <trkpt lat="43.18761" lon="0.32108">
        <ele>457.38</ele>
        <time>2022-10-11T08:11:54.000Z</time>
      </trkpt>
      <trkpt lat="43.18759" lon="0.32095">
        <ele>457.03</ele>
        <time>2022-10-11T08:11:59.000Z</time>
      </trkpt>
      <trkpt lat="43.18757" lon="0.32078">
        <ele>459.97</ele>
        <time>2022-10-11T08:12:04.000Z</time>
      </trkpt>
      <trkpt lat="43.18758" lon="0.32064">
        <ele>463.31</ele>
        <time>2022-10-11T08:12:09.000Z</time>
      </trkpt>
      <trkpt lat="43.18761" lon="0.32049">
        <ele>464.95</ele>
        <time>2022-10-11T08:12:14.000Z</time>
      </trkpt>
      <trkpt lat="43.18764" lon="0.32033">
        <ele>465.31</ele>
        <time>2022-10-11T08:12:19.000Z</time>
      </trkpt>
      <trkpt lat="43.18766" lon="0.32018">
        <ele>464.88</ele>
        <time>2022-10-11T08:12:24.000Z</time>
      </trkpt>
      <trkpt lat="43.18769" lon="0.32004">
        <ele>466.34</ele>
        <time>2022-10-11T08:12:29.000Z</time>
      </trkpt>
      <trkpt lat="43.18772" lon="0.3199">
        <ele>466.47</ele>
        <time>2022-10-11T08:12:34.000Z</time>
      </trkpt>
      <trkpt lat="43.18774" lon="0.31974">
        <ele>467.61</ele>
        <time>2022-10-11T08:12:39.000Z</time>
      </trkpt>
      <trkpt lat="43.18778" lon="0.31959">
        <ele>467.86</ele>
        <time>2022-10-11T08:12:44.000Z</time>
      </trkpt>
      <trkpt lat="43.18782" lon="0.31944">
        <ele>467.06</ele>
        <time>2022-10-11T08:12:49.000Z</time>
      </trkpt>
      <trkpt lat="43.18786" lon="0.31929">
        <ele>466.86</ele>
        <time>2022-10-11T08:12:54.000Z</time>
      </trkpt>
      <trkpt lat="43.18791" lon="0.31915">
        <ele>466.23</ele>
        <time>2022-10-11T08:12:59.000Z</time>
      </trkpt>
      <trkpt lat="43.18796" lon="0.31903">
        <ele>466.16</ele>
        <time>2022-10-11T08:13:04.000Z</time>
      </trkpt>
      <trkpt lat="43.18802" lon="0.3189">
        <ele>466.99</ele>
        <time>2022-10-11T08:13:09.000Z</time>
      </trkpt>
      <trkpt lat="43.18807" lon="0.31877">
        <ele>467.44</ele>
        <time>2022-10-11T08:13:14.000Z</time>
      </trkpt>
      <trkpt lat="43.18812" lon="0.31865">
        <ele>468.25</ele>
        <time>2022-10-11T08:13:19.000Z</time>
      </trkpt>
      <trkpt lat="43.18817" lon="0.31853">
        <ele>469.62</ele>
        <time>2022-10-11T08:13:24.000Z</time>
      </trkpt>
      <trkpt lat="43.18822" lon="0.3184">
        <ele>470.52</ele>
        <time>2022-10-11T08:13:30.000Z</time>
      </trkpt>
      <trkpt lat="43.18826" lon="0.31829">
        <ele>471.73</ele>
        <time>2022-10-11T08:13:35.000Z</time>
      </trkpt>
      <trkpt lat="43.18829" lon="0.31817">
        <ele>473.01</ele>
        <time>2022-10-11T08:13:40.000Z</time>
      </trkpt>
      <trkpt lat="43.18832" lon="0.31804">
        <ele>474.43</ele>
        <time>2022-10-11T08:13:46.000Z</time>
      </trkpt>
      <trkpt lat="43.18836" lon="0.31792">
        <ele>475.83</ele>
        <time>2022-10-11T08:13:51.000Z</time>
      </trkpt>
      <trkpt lat="43.18839" lon="0.31779">
        <ele>476.83</ele>
        <time>2022-10-11T08:13:56.000Z</time>
      </trkpt>
      <trkpt lat="43.18842" lon="0.31765">
        <ele>477.86</ele>
        <time>2022-10-11T08:14:01.000Z</time>
      </trkpt>
      <trkpt lat="43.18846" lon="0.31753">
        <ele>478.56</ele>
        <time>2022-10-11T08:14:06.000Z</time>
      </trkpt>
      <trkpt lat="43.1885" lon="0.3174">
        <ele>479.04</ele>
        <time>2022-10-11T08:14:11.000Z</time>
      </trkpt>
      <trkpt lat="43.18855" lon="0.31726">
        <ele>479.92</ele>
        <time>2022-10-11T08:14:17.000Z</time>
      </trkpt>
      <trkpt lat="43.18859" lon="0.31711">
        <ele>480.58</ele>
        <time>2022-10-11T08:14:22.000Z</time>
      </trkpt>
      <trkpt lat="43.18864" lon="0.31696">
        <ele>481.49</ele>
        <time>2022-10-11T08:14:27.000Z</time>
      </trkpt>
      <trkpt lat="43.18868" lon="0.31682">
        <ele>482.52</ele>
        <time>2022-10-11T08:14:32.000Z</time>
      </trkpt>
      <trkpt lat="43.1887" lon="0.31668">
        <ele>485.57</ele>
        <time>2022-10-11T08:14:37.000Z</time>
      </trkpt>
      <trkpt lat="43.18874" lon="0.31656">
        <ele>486.75</ele>
        <time>2022-10-11T08:14:42.000Z</time>
      </trkpt>
      <trkpt lat="43.18876" lon="0.31644">
        <ele>487.02</ele>
        <time>2022-10-11T08:14:47.000Z</time>
      </trkpt>
      <trkpt lat="43.18881" lon="0.31631">
        <ele>486.75</ele>
        <time>2022-10-11T08:14:52.000Z</time>
      </trkpt>
      <trkpt lat="43.18884" lon="0.31619">
        <ele>486.47</ele>
        <time>2022-10-11T08:14:57.000Z</time>
      </trkpt>
      <trkpt lat="43.18888" lon="0.31606">
        <ele>487.26</ele>
        <time>2022-10-11T08:15:02.000Z</time>
      </trkpt>
      <trkpt lat="43.18893" lon="0.31594">
        <ele>487.96</ele>
        <time>2022-10-11T08:15:07.000Z</time>
      </trkpt>
      <trkpt lat="43.18899" lon="0.31584">
        <ele>488.3</ele>
        <time>2022-10-11T08:15:12.000Z</time>
      </trkpt>
      <trkpt lat="43.18907" lon="0.31575">
        <ele>488.32</ele>
        <time>2022-10-11T08:15:17.000Z</time>
      </trkpt>
      <trkpt lat="43.18913" lon="0.31565">
        <ele>489.32</ele>
        <time>2022-10-11T08:15:22.000Z</time>
      </trkpt>
      <trkpt lat="43.1892" lon="0.31555">
        <ele>488.84</ele>
        <time>2022-10-11T08:15:27.000Z</time>
      </trkpt>
      <trkpt lat="43.18926" lon="0.31545">
        <ele>490.24</ele>
        <time>2022-10-11T08:15:32.000Z</time>
      </trkpt>
      <trkpt lat="43.18931" lon="0.31534">
        <ele>491.02</ele>
        <time>2022-10-11T08:15:37.000Z</time>
      </trkpt>
      <trkpt lat="43.18938" lon="0.31523">
        <ele>491.16</ele>
        <time>2022-10-11T08:15:42.000Z</time>
      </trkpt>
      <trkpt lat="43.18943" lon="0.31512">
        <ele>491.39</ele>
        <time>2022-10-11T08:15:47.000Z</time>
      </trkpt>
      <trkpt lat="43.18949" lon="0.315">
        <ele>491.21</ele>
        <time>2022-10-11T08:15:52.000Z</time>
      </trkpt>
      <trkpt lat="43.18956" lon="0.31489">
        <ele>490.8</ele>
        <time>2022-10-11T08:15:57.000Z</time>
      </trkpt>
      <trkpt lat="43.18963" lon="0.31477">
        <ele>490.34</ele>
        <time>2022-10-11T08:16:02.000Z</time>
      </trkpt>
      <trkpt lat="43.18968" lon="0.31466">
        <ele>490.57</ele>
        <time>2022-10-11T08:16:07.000Z</time>
      </trkpt>
      <trkpt lat="43.18972" lon="0.31454">
        <ele>490.97</ele>
        <time>2022-10-11T08:16:12.000Z</time>
      </trkpt>
      <trkpt lat="43.18976" lon="0.31441">
        <ele>491.3</ele>
        <time>2022-10-11T08:16:17.000Z</time>
      </trkpt>
      <trkpt lat="43.18981" lon="0.31431">
        <ele>492.43</ele>
        <time>2022-10-11T08:16:22.000Z</time>
      </trkpt>
      <trkpt lat="43.18985" lon="0.31418">
        <ele>493.91</ele>
        <time>2022-10-11T08:16:27.000Z</time>
      </trkpt>
      <trkpt lat="43.18989" lon="0.31405">
        <ele>494.83</ele>
        <time>2022-10-11T08:16:32.000Z</time>
      </trkpt>
      <trkpt lat="43.18992" lon="0.31393">
        <ele>494.97</ele>
        <time>2022-10-11T08:16:37.000Z</time>
      </trkpt>
      <trkpt lat="43.18996" lon="0.31381">
        <ele>495.59</ele>
        <time>2022-10-11T08:16:42.000Z</time>
      </trkpt>
      <trkpt lat="43.18999" lon="0.31367">
        <ele>496.87</ele>
        <time>2022-10-11T08:16:47.000Z</time>
      </trkpt>
      <trkpt lat="43.19003" lon="0.31354">
        <ele>498.48</ele>
        <time>2022-10-11T08:16:52.000Z</time>
      </trkpt>
      <trkpt lat="43.19006" lon="0.31341">
        <ele>499.78</ele>
        <time>2022-10-11T08:16:57.000Z</time>
      </trkpt>
      <trkpt lat="43.19009" lon="0.31328">
        <ele>500.84</ele>
        <time>2022-10-11T08:17:02.000Z</time>
      </trkpt>
      <trkpt lat="43.19012" lon="0.31314">
        <ele>501.73</ele>
        <time>2022-10-11T08:17:07.000Z</time>
      </trkpt>
      <trkpt lat="43.19014" lon="0.313">
        <ele>503.08</ele>
        <time>2022-10-11T08:17:12.000Z</time>
      </trkpt>
      <trkpt lat="43.19016" lon="0.31287">
        <ele>504.62</ele>
        <time>2022-10-11T08:17:17.000Z</time>
      </trkpt>
      <trkpt lat="43.19017" lon="0.31273">
        <ele>505.99</ele>
        <time>2022-10-11T08:17:22.000Z</time>
      </trkpt>
      <trkpt lat="43.19018" lon="0.31259">
        <ele>507.17</ele>
        <time>2022-10-11T08:17:27.000Z</time>
      </trkpt>
      <trkpt lat="43.19018" lon="0.31244">
        <ele>508.03</ele>
        <time>2022-10-11T08:17:32.000Z</time>
      </trkpt>
      <trkpt lat="43.19019" lon="0.31225">
        <ele>508.24</ele>
        <time>2022-10-11T08:17:37.000Z</time>
      </trkpt>
      <trkpt lat="43.19019" lon="0.31206">
        <ele>508.04</ele>
        <time>2022-10-11T08:17:42.000Z</time>
      </trkpt>
      <trkpt lat="43.19019" lon="0.31185">
        <ele>508.01</ele>
        <time>2022-10-11T08:17:47.000Z</time>
      </trkpt>
      <trkpt lat="43.19019" lon="0.31162">
        <ele>507.66</ele>
        <time>2022-10-11T08:17:52.000Z</time>
      </trkpt>
      <trkpt lat="43.19019" lon="0.31137">
        <ele>507.32</ele>
        <time>2022-10-11T08:17:57.000Z</time>
      </trkpt>
      <trkpt lat="43.19018" lon="0.3111">
        <ele>506.48</ele>
        <time>2022-10-11T08:18:02.000Z</time>
      </trkpt>
      <trkpt lat="43.19017" lon="0.3108">
        <ele>506.59</ele>
        <time>2022-10-11T08:18:07.000Z</time>
      </trkpt>
      <trkpt lat="43.19016" lon="0.31048">
        <ele>506.62</ele>
        <time>2022-10-11T08:18:12.000Z</time>
      </trkpt>
      <trkpt lat="43.19016" lon="0.31012">
        <ele>505.05</ele>
        <time>2022-10-11T08:18:17.000Z</time>
      </trkpt>
      <trkpt lat="43.19014" lon="0.30974">
        <ele>505.06</ele>
        <time>2022-10-11T08:18:22.000Z</time>
      </trkpt>
      <trkpt lat="43.19014" lon="0.30935">
        <ele>504.07</ele>
        <time>2022-10-11T08:18:27.000Z</time>
      </trkpt>
      <trkpt lat="43.19013" lon="0.30891">
        <ele>502.4</ele>
        <time>2022-10-11T08:18:32.000Z</time>
      </trkpt>
      <trkpt lat="43.19012" lon="0.30843">
        <ele>500.77</ele>
        <time>2022-10-11T08:18:37.000Z</time>
      </trkpt>
      <trkpt lat="43.19012" lon="0.3079">
        <ele>499.15</ele>
        <time>2022-10-11T08:18:42.000Z</time>
      </trkpt>
      <trkpt lat="43.19011" lon="0.30737">
        <ele>498.31</ele>
        <time>2022-10-11T08:18:47.000Z</time>
      </trkpt>
      <trkpt lat="43.1901" lon="0.3068">
        <ele>496.55</ele>
        <time>2022-10-11T08:18:52.000Z</time>
      </trkpt>
      <trkpt lat="43.19008" lon="0.30622">
        <ele>495.17</ele>
        <time>2022-10-11T08:18:57.000Z</time>
      </trkpt>
      <trkpt lat="43.19007" lon="0.30565">
        <ele>493.6</ele>
        <time>2022-10-11T08:19:02.000Z</time>
      </trkpt>
      <trkpt lat="43.19006" lon="0.30509">
        <ele>491.95</ele>
        <time>2022-10-11T08:19:07.000Z</time>
      </trkpt>
      <trkpt lat="43.19007" lon="0.30463">
        <ele>490.27</ele>
        <time>2022-10-11T08:19:12.000Z</time>
      </trkpt>
      <trkpt lat="43.19008" lon="0.30431">
        <ele>489.5</ele>
        <time>2022-10-11T08:19:17.000Z</time>
      </trkpt>
      <trkpt lat="43.19008" lon="0.30409">
        <ele>489.3</ele>
        <time>2022-10-11T08:19:22.000Z</time>
      </trkpt>
      <trkpt lat="43.19007" lon="0.30392">
        <ele>489.52</ele>
        <time>2022-10-11T08:19:27.000Z</time>
      </trkpt>
      <trkpt lat="43.19005" lon="0.30373">
        <ele>490.49</ele>
        <time>2022-10-11T08:19:32.000Z</time>
      </trkpt>
      <trkpt lat="43.19004" lon="0.30353">
        <ele>491.25</ele>
        <time>2022-10-11T08:19:37.000Z</time>
      </trkpt>
      <trkpt lat="43.19003" lon="0.30331">
        <ele>492.14</ele>
        <time>2022-10-11T08:19:42.000Z</time>
      </trkpt>
      <trkpt lat="43.19003" lon="0.30308">
        <ele>493.38</ele>
        <time>2022-10-11T08:19:47.000Z</time>
      </trkpt>
      <trkpt lat="43.19002" lon="0.30285">
        <ele>494.81</ele>
        <time>2022-10-11T08:19:52.000Z</time>
      </trkpt>
      <trkpt lat="43.19002" lon="0.30259">
        <ele>496.13</ele>
        <time>2022-10-11T08:19:57.000Z</time>
      </trkpt>
      <trkpt lat="43.19002" lon="0.30231">
        <ele>495.61</ele>
        <time>2022-10-11T08:20:02.000Z</time>
      </trkpt>
      <trkpt lat="43.19002" lon="0.302">
        <ele>494.66</ele>
        <time>2022-10-11T08:20:07.000Z</time>
      </trkpt>
      <trkpt lat="43.19002" lon="0.30165">
        <ele>494.5</ele>
        <time>2022-10-11T08:20:12.000Z</time>
      </trkpt>
      <trkpt lat="43.19" lon="0.30125">
        <ele>494.43</ele>
        <time>2022-10-11T08:20:17.000Z</time>
      </trkpt>
      <trkpt lat="43.18999" lon="0.30083">
        <ele>492.53</ele>
        <time>2022-10-11T08:20:22.000Z</time>
      </trkpt>
      <trkpt lat="43.18999" lon="0.30038">
        <ele>490.72</ele>
        <time>2022-10-11T08:20:27.000Z</time>
      </trkpt>
      <trkpt lat="43.18998" lon="0.29987">
        <ele>487.59</ele>
        <time>2022-10-11T08:20:32.000Z</time>
      </trkpt>
      <trkpt lat="43.18997" lon="0.29928">
        <ele>483.65</ele>
        <time>2022-10-11T08:20:37.000Z</time>
      </trkpt>
      <trkpt lat="43.18995" lon="0.29862">
        <ele>480.29</ele>
        <time>2022-10-11T08:20:42.000Z</time>
      </trkpt>
      <trkpt lat="43.18993" lon="0.29792">
        <ele>476.85</ele>
        <time>2022-10-11T08:20:47.000Z</time>
      </trkpt>
      <trkpt lat="43.18997" lon="0.29726">
        <ele>474.61</ele>
        <time>2022-10-11T08:20:52.000Z</time>
      </trkpt>
      <trkpt lat="43.19002" lon="0.29676">
        <ele>475.33</ele>
        <time>2022-10-11T08:20:57.000Z</time>
      </trkpt>
      <trkpt lat="43.19007" lon="0.29636">
        <ele>476.22</ele>
        <time>2022-10-11T08:21:02.000Z</time>
      </trkpt>
      <trkpt lat="43.19011" lon="0.29607">
        <ele>477.6</ele>
        <time>2022-10-11T08:21:07.000Z</time>
      </trkpt>
      <trkpt lat="43.19014" lon="0.29583">
        <ele>479.7</ele>
        <time>2022-10-11T08:21:12.000Z</time>
      </trkpt>
      <trkpt lat="43.19015" lon="0.29564">
        <ele>483.73</ele>
        <time>2022-10-11T08:21:17.000Z</time>
      </trkpt>
      <trkpt lat="43.19017" lon="0.29547">
        <ele>485.26</ele>
        <time>2022-10-11T08:21:22.000Z</time>
      </trkpt>
      <trkpt lat="43.19018" lon="0.2953">
        <ele>486.76</ele>
        <time>2022-10-11T08:21:27.000Z</time>
      </trkpt>
      <trkpt lat="43.19022" lon="0.29512">
        <ele>485.88</ele>
        <time>2022-10-11T08:21:32.000Z</time>
      </trkpt>
      <trkpt lat="43.19024" lon="0.29495">
        <ele>485.36</ele>
        <time>2022-10-11T08:21:37.000Z</time>
      </trkpt>
      <trkpt lat="43.19025" lon="0.29477">
        <ele>486.7</ele>
        <time>2022-10-11T08:21:42.000Z</time>
      </trkpt>
      <trkpt lat="43.19028" lon="0.29457">
        <ele>486.67</ele>
        <time>2022-10-11T08:21:47.000Z</time>
      </trkpt>
      <trkpt lat="43.1903" lon="0.29438">
        <ele>487.4</ele>
        <time>2022-10-11T08:21:52.000Z</time>
      </trkpt>
      <trkpt lat="43.19033" lon="0.29418">
        <ele>488.56</ele>
        <time>2022-10-11T08:21:57.000Z</time>
      </trkpt>
      <trkpt lat="43.19037" lon="0.29399">
        <ele>489.4</ele>
        <time>2022-10-11T08:22:02.000Z</time>
      </trkpt>
      <trkpt lat="43.19039" lon="0.2938">
        <ele>490.42</ele>
        <time>2022-10-11T08:22:07.000Z</time>
      </trkpt>
      <trkpt lat="43.1904" lon="0.29363">
        <ele>490.95</ele>
        <time>2022-10-11T08:22:12.000Z</time>
      </trkpt>
      <trkpt lat="43.19042" lon="0.29345">
        <ele>491.65</ele>
        <time>2022-10-11T08:22:17.000Z</time>
      </trkpt>
      <trkpt lat="43.19045" lon="0.29323">
        <ele>492.81</ele>
        <time>2022-10-11T08:22:22.000Z</time>
      </trkpt>
      <trkpt lat="43.19046" lon="0.29303">
        <ele>495.08</ele>
        <time>2022-10-11T08:22:27.000Z</time>
      </trkpt>
      <trkpt lat="43.19048" lon="0.29278">
        <ele>495.92</ele>
        <time>2022-10-11T08:22:32.000Z</time>
      </trkpt>
      <trkpt lat="43.19052" lon="0.2925">
        <ele>495.83</ele>
        <time>2022-10-11T08:22:37.000Z</time>
      </trkpt>
      <trkpt lat="43.19056" lon="0.29219">
        <ele>494.24</ele>
        <time>2022-10-11T08:22:42.000Z</time>
      </trkpt>
      <trkpt lat="43.19061" lon="0.29184">
        <ele>492.85</ele>
        <time>2022-10-11T08:22:47.000Z</time>
      </trkpt>
      <trkpt lat="43.19065" lon="0.29146">
        <ele>492.78</ele>
        <time>2022-10-11T08:22:52.000Z</time>
      </trkpt>
      <trkpt lat="43.1907" lon="0.29109">
        <ele>491.64</ele>
        <time>2022-10-11T08:22:57.000Z</time>
      </trkpt>
      <trkpt lat="43.19077" lon="0.29071">
        <ele>491.2</ele>
        <time>2022-10-11T08:23:02.000Z</time>
      </trkpt>
      <trkpt lat="43.19082" lon="0.29031">
        <ele>489.71</ele>
        <time>2022-10-11T08:23:07.000Z</time>
      </trkpt>
      <trkpt lat="43.19086" lon="0.28993">
        <ele>488.2</ele>
        <time>2022-10-11T08:23:12.000Z</time>
      </trkpt>
      <trkpt lat="43.19092" lon="0.28953">
        <ele>485.7</ele>
        <time>2022-10-11T08:23:17.000Z</time>
      </trkpt>
      <trkpt lat="43.19097" lon="0.28909">
        <ele>484.71</ele>
        <time>2022-10-11T08:23:22.000Z</time>
      </trkpt>
      <trkpt lat="43.19103" lon="0.28858">
        <ele>482.66</ele>
        <time>2022-10-11T08:23:27.000Z</time>
      </trkpt>
      <trkpt lat="43.19103" lon="0.28803">
        <ele>481.69</ele>
        <time>2022-10-11T08:23:32.000Z</time>
      </trkpt>
      <trkpt lat="43.19077" lon="0.28765">
        <ele>480.43</ele>
        <time>2022-10-11T08:23:37.000Z</time>
      </trkpt>
      <trkpt lat="43.19033" lon="0.28758">
        <ele>478.24</ele>
        <time>2022-10-11T08:23:42.000Z</time>
      </trkpt>
      <trkpt lat="43.18986" lon="0.28757">
        <ele>475.43</ele>
        <time>2022-10-11T08:23:47.000Z</time>
      </trkpt>
      <trkpt lat="43.18936" lon="0.28756">
        <ele>472.39</ele>
        <time>2022-10-11T08:23:52.000Z</time>
      </trkpt>
      <trkpt lat="43.18894" lon="0.2874">
        <ele>469.32</ele>
        <time>2022-10-11T08:23:57.000Z</time>
      </trkpt>
      <trkpt lat="43.18882" lon="0.28689">
        <ele>467.53</ele>
        <time>2022-10-11T08:24:02.000Z</time>
      </trkpt>
      <trkpt lat="43.18908" lon="0.28656">
        <ele>464.84</ele>
        <time>2022-10-11T08:24:07.000Z</time>
      </trkpt>
      <trkpt lat="43.1893" lon="0.28635">
        <ele>462.63</ele>
        <time>2022-10-11T08:24:12.000Z</time>
      </trkpt>
      <trkpt lat="43.18945" lon="0.2862">
        <ele>461.09</ele>
        <time>2022-10-11T08:24:17.000Z</time>
      </trkpt>
      <trkpt lat="43.18955" lon="0.28604">
        <ele>460.17</ele>
        <time>2022-10-11T08:24:22.000Z</time>
      </trkpt>
      <trkpt lat="43.18968" lon="0.28591">
        <ele>459.07</ele>
        <time>2022-10-11T08:24:27.000Z</time>
      </trkpt>
      <trkpt lat="43.1898" lon="0.28581">
        <ele>460.22</ele>
        <time>2022-10-11T08:24:32.000Z</time>
      </trkpt>
      <trkpt lat="43.18994" lon="0.28574">
        <ele>462.99</ele>
        <time>2022-10-11T08:24:37.000Z</time>
      </trkpt>
      <trkpt lat="43.19005" lon="0.28565">
        <ele>464.77</ele>
        <time>2022-10-11T08:24:42.000Z</time>
      </trkpt>
      <trkpt lat="43.19017" lon="0.28555">
        <ele>465.24</ele>
        <time>2022-10-11T08:24:47.000Z</time>
      </trkpt>
      <trkpt lat="43.19027" lon="0.28546">
        <ele>466.59</ele>
        <time>2022-10-11T08:24:52.000Z</time>
      </trkpt>
      <trkpt lat="43.19037" lon="0.28535">
        <ele>469.03</ele>
        <time>2022-10-11T08:24:57.000Z</time>
      </trkpt>
      <trkpt lat="43.19049" lon="0.28524">
        <ele>471.24</ele>
        <time>2022-10-11T08:25:02.000Z</time>
      </trkpt>
      <trkpt lat="43.19065" lon="0.28513">
        <ele>471.77</ele>
        <time>2022-10-11T08:25:07.000Z</time>
      </trkpt>
      <trkpt lat="43.19077" lon="0.28499">
        <ele>473.17</ele>
        <time>2022-10-11T08:25:12.000Z</time>
      </trkpt>
      <trkpt lat="43.19086" lon="0.28483">
        <ele>475.4</ele>
        <time>2022-10-11T08:25:17.000Z</time>
      </trkpt>
      <trkpt lat="43.19094" lon="0.28465">
        <ele>476.71</ele>
        <time>2022-10-11T08:25:22.000Z</time>
      </trkpt>
      <trkpt lat="43.191" lon="0.2845">
        <ele>478.89</ele>
        <time>2022-10-11T08:25:27.000Z</time>
      </trkpt>
      <trkpt lat="43.19107" lon="0.28435">
        <ele>482.83</ele>
        <time>2022-10-11T08:25:32.000Z</time>
      </trkpt>
      <trkpt lat="43.19115" lon="0.28418">
        <ele>484.62</ele>
        <time>2022-10-11T08:25:37.000Z</time>
      </trkpt>
      <trkpt lat="43.19122" lon="0.28398">
        <ele>484.76</ele>
        <time>2022-10-11T08:25:42.000Z</time>
      </trkpt>
      <trkpt lat="43.19125" lon="0.28377">
        <ele>485.93</ele>
        <time>2022-10-11T08:25:47.000Z</time>
      </trkpt>
      <trkpt lat="43.19124" lon="0.28351">
        <ele>486.68</ele>
        <time>2022-10-11T08:25:52.000Z</time>
      </trkpt>
      <trkpt lat="43.19118" lon="0.2832">
        <ele>485.63</ele>
        <time>2022-10-11T08:25:57.000Z</time>
      </trkpt>
      <trkpt lat="43.19102" lon="0.28283">
        <ele>483.69</ele>
        <time>2022-10-11T08:26:02.000Z</time>
      </trkpt>
      <trkpt lat="43.19085" lon="0.2824">
        <ele>481.95</ele>
        <time>2022-10-11T08:26:07.000Z</time>
      </trkpt>
      <trkpt lat="43.19076" lon="0.28187">
        <ele>479.56</ele>
        <time>2022-10-11T08:26:12.000Z</time>
      </trkpt>
      <trkpt lat="43.19077" lon="0.28127">
        <ele>478.79</ele>
        <time>2022-10-11T08:26:17.000Z</time>
      </trkpt>
      <trkpt lat="43.19085" lon="0.28067">
        <ele>475.98</ele>
        <time>2022-10-11T08:26:22.000Z</time>
      </trkpt>
      <trkpt lat="43.19099" lon="0.28007">
        <ele>472.7</ele>
        <time>2022-10-11T08:26:27.000Z</time>
      </trkpt>
      <trkpt lat="43.1911" lon="0.27946">
        <ele>469.97</ele>
        <time>2022-10-11T08:26:32.000Z</time>
      </trkpt>
      <trkpt lat="43.19128" lon="0.27883">
        <ele>467.57</ele>
        <time>2022-10-11T08:26:37.000Z</time>
      </trkpt>
      <trkpt lat="43.19154" lon="0.27826">
        <ele>464.62</ele>
        <time>2022-10-11T08:26:42.000Z</time>
      </trkpt>
      <trkpt lat="43.19175" lon="0.2777">
        <ele>461.82</ele>
        <time>2022-10-11T08:26:47.000Z</time>
      </trkpt>
      <trkpt lat="43.19157" lon="0.27713">
        <ele>458.8</ele>
        <time>2022-10-11T08:26:52.000Z</time>
      </trkpt>
      <trkpt lat="43.19129" lon="0.27664">
        <ele>455.58</ele>
        <time>2022-10-11T08:26:57.000Z</time>
      </trkpt>
      <trkpt lat="43.19101" lon="0.27612">
        <ele>452.74</ele>
        <time>2022-10-11T08:27:02.000Z</time>
      </trkpt>
      <trkpt lat="43.19085" lon="0.27545">
        <ele>449.78</ele>
        <time>2022-10-11T08:27:07.000Z</time>
      </trkpt>
      <trkpt lat="43.19089" lon="0.27475">
        <ele>447.46</ele>
        <time>2022-10-11T08:27:12.000Z</time>
      </trkpt>
      <trkpt lat="43.191" lon="0.27408">
        <ele>445.14</ele>
        <time>2022-10-11T08:27:17.000Z</time>
      </trkpt>
      <trkpt lat="43.19124" lon="0.27347">
        <ele>442.79</ele>
        <time>2022-10-11T08:27:22.000Z</time>
      </trkpt>
      <trkpt lat="43.1919" lon="0.27305">
        <ele>439.97</ele>
        <time>2022-10-11T08:27:27.000Z</time>
      </trkpt>
      <trkpt lat="43.19229" lon="0.27266">
        <ele>437.66</ele>
        <time>2022-10-11T08:27:32.000Z</time>
      </trkpt>
      <trkpt lat="43.19267" lon="0.27237">
        <ele>435.04</ele>
        <time>2022-10-11T08:27:37.000Z</time>
      </trkpt>
      <trkpt lat="43.19305" lon="0.27225">
        <ele>432.84</ele>
        <time>2022-10-11T08:27:42.000Z</time>
      </trkpt>
      <trkpt lat="43.1934" lon="0.27222">
        <ele>431.01</ele>
        <time>2022-10-11T08:27:47.000Z</time>
      </trkpt>
      <trkpt lat="43.1937" lon="0.27213">
        <ele>429.2</ele>
        <time>2022-10-11T08:27:52.000Z</time>
      </trkpt>
      <trkpt lat="43.194" lon="0.27192">
        <ele>427.26</ele>
        <time>2022-10-11T08:27:57.000Z</time>
      </trkpt>
      <trkpt lat="43.19433" lon="0.27156">
        <ele>425.51</ele>
        <time>2022-10-11T08:28:02.000Z</time>
      </trkpt>
      <trkpt lat="43.19459" lon="0.2711">
        <ele>423.98</ele>
        <time>2022-10-11T08:28:07.000Z</time>
      </trkpt>
      <trkpt lat="43.19463" lon="0.27049">
        <ele>420.81</ele>
        <time>2022-10-11T08:28:12.000Z</time>
      </trkpt>
      <trkpt lat="43.19429" lon="0.2702">
        <ele>417.35</ele>
        <time>2022-10-11T08:28:17.000Z</time>
      </trkpt>
      <trkpt lat="43.19381" lon="0.27029">
        <ele>414.2</ele>
        <time>2022-10-11T08:28:22.000Z</time>
      </trkpt>
      <trkpt lat="43.19337" lon="0.27056">
        <ele>412.41</ele>
        <time>2022-10-11T08:28:27.000Z</time>
      </trkpt>
      <trkpt lat="43.19295" lon="0.27094">
        <ele>410.83</ele>
        <time>2022-10-11T08:28:32.000Z</time>
      </trkpt>
      <trkpt lat="43.19249" lon="0.27126">
        <ele>408.04</ele>
        <time>2022-10-11T08:28:37.000Z</time>
      </trkpt>
      <trkpt lat="43.19204" lon="0.27153">
        <ele>405.9</ele>
        <time>2022-10-11T08:28:42.000Z</time>
      </trkpt>
      <trkpt lat="43.19155" lon="0.27162">
        <ele>401.62</ele>
        <time>2022-10-11T08:28:47.000Z</time>
      </trkpt>
      <trkpt lat="43.19118" lon="0.27119">
        <ele>397.26</ele>
        <time>2022-10-11T08:28:52.000Z</time>
      </trkpt>
      <trkpt lat="43.19121" lon="0.2705">
        <ele>394.22</ele>
        <time>2022-10-11T08:28:57.000Z</time>
      </trkpt>
      <trkpt lat="43.1913" lon="0.26981">
        <ele>391.12</ele>
        <time>2022-10-11T08:29:02.000Z</time>
      </trkpt>
      <trkpt lat="43.19135" lon="0.26912">
        <ele>386.9</ele>
        <time>2022-10-11T08:29:07.000Z</time>
      </trkpt>
      <trkpt lat="43.19117" lon="0.26849">
        <ele>382.99</ele>
        <time>2022-10-11T08:29:12.000Z</time>
      </trkpt>
      <trkpt lat="43.19077" lon="0.2681">
        <ele>379.38</ele>
        <time>2022-10-11T08:29:17.000Z</time>
      </trkpt>
      <trkpt lat="43.19028" lon="0.26794">
        <ele>375.12</ele>
        <time>2022-10-11T08:29:22.000Z</time>
      </trkpt>
      <trkpt lat="43.18982" lon="0.26774">
        <ele>371.42</ele>
        <time>2022-10-11T08:29:27.000Z</time>
      </trkpt>
      <trkpt lat="43.18946" lon="0.2675">
        <ele>369</ele>
        <time>2022-10-11T08:29:32.000Z</time>
      </trkpt>
      <trkpt lat="43.18935" lon="0.26719">
        <ele>369.78</ele>
        <time>2022-10-11T08:29:37.000Z</time>
      </trkpt>
      <trkpt lat="43.18943" lon="0.26698">
        <ele>370.66</ele>
        <time>2022-10-11T08:29:42.000Z</time>
      </trkpt>
      <trkpt lat="43.18944" lon="0.26684">
        <ele>376.65</ele>
        <time>2022-10-11T08:32:04.000Z</time>
      </trkpt>
      <trkpt lat="43.18958" lon="0.26679">
        <ele>377.9</ele>
        <time>2022-10-11T08:32:09.000Z</time>
      </trkpt>
      <trkpt lat="43.18979" lon="0.2667">
        <ele>377.99</ele>
        <time>2022-10-11T08:32:14.000Z</time>
      </trkpt>
      <trkpt lat="43.19005" lon="0.26659">
        <ele>378</ele>
        <time>2022-10-11T08:32:19.000Z</time>
      </trkpt>
      <trkpt lat="43.19037" lon="0.2665">
        <ele>377.79</ele>
        <time>2022-10-11T08:32:24.000Z</time>
      </trkpt>
      <trkpt lat="43.1907" lon="0.26637">
        <ele>378.27</ele>
        <time>2022-10-11T08:32:29.000Z</time>
      </trkpt>
      <trkpt lat="43.19107" lon="0.26625">
        <ele>378.4</ele>
        <time>2022-10-11T08:32:34.000Z</time>
      </trkpt>
      <trkpt lat="43.19152" lon="0.26621">
        <ele>377.76</ele>
        <time>2022-10-11T08:32:39.000Z</time>
      </trkpt>
      <trkpt lat="43.19194" lon="0.26609">
        <ele>377.97</ele>
        <time>2022-10-11T08:32:44.000Z</time>
      </trkpt>
      <trkpt lat="43.19242" lon="0.26592">
        <ele>378.29</ele>
        <time>2022-10-11T08:32:49.000Z</time>
      </trkpt>
      <trkpt lat="43.19284" lon="0.2657">
        <ele>378.5</ele>
        <time>2022-10-11T08:32:54.000Z</time>
      </trkpt>
      <trkpt lat="43.1933" lon="0.26547">
        <ele>378.6</ele>
        <time>2022-10-11T08:32:59.000Z</time>
      </trkpt>
      <trkpt lat="43.19369" lon="0.26521">
        <ele>378.89</ele>
        <time>2022-10-11T08:33:04.000Z</time>
      </trkpt>
      <trkpt lat="43.19401" lon="0.26504">
        <ele>379.27</ele>
        <time>2022-10-11T08:33:09.000Z</time>
      </trkpt>
      <trkpt lat="43.19426" lon="0.26463">
        <ele>379.69</ele>
        <time>2022-10-11T08:33:14.000Z</time>
      </trkpt>
      <trkpt lat="43.19471" lon="0.26449">
        <ele>379.6</ele>
        <time>2022-10-11T08:33:19.000Z</time>
      </trkpt>
      <trkpt lat="43.19486" lon="0.26474">
        <ele>379.58</ele>
        <time>2022-10-11T08:33:24.000Z</time>
      </trkpt>
      <trkpt lat="43.19531" lon="0.26518">
        <ele>379.68</ele>
        <time>2022-10-11T08:33:29.000Z</time>
      </trkpt>
      <trkpt lat="43.19566" lon="0.26503">
        <ele>379.7</ele>
        <time>2022-10-11T08:33:34.000Z</time>
      </trkpt>
      <trkpt lat="43.19602" lon="0.26476">
        <ele>379.28</ele>
        <time>2022-10-11T08:33:39.000Z</time>
      </trkpt>
      <trkpt lat="43.19636" lon="0.26445">
        <ele>378.08</ele>
        <time>2022-10-11T08:33:44.000Z</time>
      </trkpt>
      <trkpt lat="43.19668" lon="0.26411">
        <ele>377.14</ele>
        <time>2022-10-11T08:33:49.000Z</time>
      </trkpt>
      <trkpt lat="43.1969" lon="0.26364">
        <ele>376.34</ele>
        <time>2022-10-11T08:33:54.000Z</time>
      </trkpt>
      <trkpt lat="43.19704" lon="0.26308">
        <ele>375.73</ele>
        <time>2022-10-11T08:33:59.000Z</time>
      </trkpt>
      <trkpt lat="43.19715" lon="0.26258">
        <ele>374.8</ele>
        <time>2022-10-11T08:34:04.000Z</time>
      </trkpt>
      <trkpt lat="43.19734" lon="0.26212">
        <ele>373.82</ele>
        <time>2022-10-11T08:34:09.000Z</time>
      </trkpt>
      <trkpt lat="43.1973" lon="0.26176">
        <ele>372.18</ele>
        <time>2022-10-11T08:34:14.000Z</time>
      </trkpt>
      <trkpt lat="43.19714" lon="0.26144">
        <ele>371.53</ele>
        <time>2022-10-11T08:34:19.000Z</time>
      </trkpt>
      <trkpt lat="43.19719" lon="0.2612">
        <ele>370.93</ele>
        <time>2022-10-11T08:34:24.000Z</time>
      </trkpt>
      <trkpt lat="43.19758" lon="0.26093">
        <ele>369.9</ele>
        <time>2022-10-11T08:34:29.000Z</time>
      </trkpt>
      <trkpt lat="43.19784" lon="0.2604">
        <ele>368.02</ele>
        <time>2022-10-11T08:34:34.000Z</time>
      </trkpt>
      <trkpt lat="43.19807" lon="0.2598">
        <ele>364.74</ele>
        <time>2022-10-11T08:34:39.000Z</time>
      </trkpt>
      <trkpt lat="43.19819" lon="0.25921">
        <ele>361.22</ele>
        <time>2022-10-11T08:34:44.000Z</time>
      </trkpt>
      <trkpt lat="43.19828" lon="0.25859">
        <ele>357.3</ele>
        <time>2022-10-11T08:34:49.000Z</time>
      </trkpt>
      <trkpt lat="43.19839" lon="0.25796">
        <ele>353.03</ele>
        <time>2022-10-11T08:34:54.000Z</time>
      </trkpt>
      <trkpt lat="43.19873" lon="0.25743">
        <ele>347.26</ele>
        <time>2022-10-11T08:34:59.000Z</time>
      </trkpt>
      <trkpt lat="43.19918" lon="0.25737">
        <ele>343.7</ele>
        <time>2022-10-11T08:35:04.000Z</time>
      </trkpt>
      <trkpt lat="43.19954" lon="0.25732">
        <ele>341.13</ele>
        <time>2022-10-11T08:35:09.000Z</time>
      </trkpt>
      <trkpt lat="43.19975" lon="0.2571">
        <ele>336.17</ele>
        <time>2022-10-11T08:35:14.000Z</time>
      </trkpt>
      <trkpt lat="43.19979" lon="0.25662">
        <ele>331.77</ele>
        <time>2022-10-11T08:35:19.000Z</time>
      </trkpt>
      <trkpt lat="43.19979" lon="0.25611">
        <ele>325.3</ele>
        <time>2022-10-11T08:35:24.000Z</time>
      </trkpt>
      <trkpt lat="43.19979" lon="0.25565">
        <ele>316.6</ele>
        <time>2022-10-11T08:35:29.000Z</time>
      </trkpt>
      <trkpt lat="43.19983" lon="0.25513">
        <ele>310.37</ele>
        <time>2022-10-11T08:35:34.000Z</time>
      </trkpt>
      <trkpt lat="43.19989" lon="0.25453">
        <ele>303.96</ele>
        <time>2022-10-11T08:35:39.000Z</time>
      </trkpt>
      <trkpt lat="43.19992" lon="0.25394">
        <ele>297.69</ele>
        <time>2022-10-11T08:35:44.000Z</time>
      </trkpt>
      <trkpt lat="43.19996" lon="0.2534">
        <ele>292.5</ele>
        <time>2022-10-11T08:35:49.000Z</time>
      </trkpt>
      <trkpt lat="43.20002" lon="0.25288">
        <ele>287.63</ele>
        <time>2022-10-11T08:35:54.000Z</time>
      </trkpt>
      <trkpt lat="43.20011" lon="0.25237">
        <ele>282.62</ele>
        <time>2022-10-11T08:35:59.000Z</time>
      </trkpt>
      <trkpt lat="43.20031" lon="0.25196">
        <ele>278.93</ele>
        <time>2022-10-11T08:36:04.000Z</time>
      </trkpt>
      <trkpt lat="43.20045" lon="0.25161">
        <ele>275.36</ele>
        <time>2022-10-11T08:36:09.000Z</time>
      </trkpt>
      <trkpt lat="43.20053" lon="0.25117">
        <ele>271.79</ele>
        <time>2022-10-11T08:36:14.000Z</time>
      </trkpt>
      <trkpt lat="43.2006" lon="0.2507">
        <ele>269.09</ele>
        <time>2022-10-11T08:36:19.000Z</time>
      </trkpt>
      <trkpt lat="43.20066" lon="0.25018">
        <ele>266.37</ele>
        <time>2022-10-11T08:36:24.000Z</time>
      </trkpt>
      <trkpt lat="43.20071" lon="0.24969">
        <ele>264.06</ele>
        <time>2022-10-11T08:36:29.000Z</time>
      </trkpt>
      <trkpt lat="43.20075" lon="0.2492">
        <ele>263.04</ele>
        <time>2022-10-11T08:36:34.000Z</time>
      </trkpt>
      <trkpt lat="43.20079" lon="0.24873">
        <ele>262.44</ele>
        <time>2022-10-11T08:36:39.000Z</time>
      </trkpt>
      <trkpt lat="43.20086" lon="0.24828">
        <ele>260.37</ele>
        <time>2022-10-11T08:36:44.000Z</time>
      </trkpt>
      <trkpt lat="43.20094" lon="0.24787">
        <ele>259.94</ele>
        <time>2022-10-11T08:36:49.000Z</time>
      </trkpt>
      <trkpt lat="43.20097" lon="0.24747">
        <ele>260.88</ele>
        <time>2022-10-11T08:36:54.000Z</time>
      </trkpt>
      <trkpt lat="43.20098" lon="0.24705">
        <ele>262.31</ele>
        <time>2022-10-11T08:36:59.000Z</time>
      </trkpt>
      <trkpt lat="43.20099" lon="0.24668">
        <ele>265.74</ele>
        <time>2022-10-11T08:37:04.000Z</time>
      </trkpt>
      <trkpt lat="43.20094" lon="0.24627">
        <ele>266.78</ele>
        <time>2022-10-11T08:37:09.000Z</time>
      </trkpt>
      <trkpt lat="43.20098" lon="0.24589">
        <ele>267.27</ele>
        <time>2022-10-11T08:37:14.000Z</time>
      </trkpt>
      <trkpt lat="43.20112" lon="0.24558">
        <ele>267.9</ele>
        <time>2022-10-11T08:37:19.000Z</time>
      </trkpt>
      <trkpt lat="43.2013" lon="0.24538">
        <ele>268.25</ele>
        <time>2022-10-11T08:37:24.000Z</time>
      </trkpt>
      <trkpt lat="43.20144" lon="0.2453">
        <ele>267.64</ele>
        <time>2022-10-11T08:37:29.000Z</time>
      </trkpt>
      <trkpt lat="43.20156" lon="0.24526">
        <ele>267.5</ele>
        <time>2022-10-11T08:37:34.000Z</time>
      </trkpt>
      <trkpt lat="43.2017" lon="0.24523">
        <ele>267.48</ele>
        <time>2022-10-11T08:37:39.000Z</time>
      </trkpt>
      <trkpt lat="43.20184" lon="0.24517">
        <ele>267.43</ele>
        <time>2022-10-11T08:37:44.000Z</time>
      </trkpt>
      <trkpt lat="43.20197" lon="0.24513">
        <ele>267.42</ele>
        <time>2022-10-11T08:37:49.000Z</time>
      </trkpt>
      <trkpt lat="43.20212" lon="0.2451">
        <ele>267.52</ele>
        <time>2022-10-11T08:37:54.000Z</time>
      </trkpt>
      <trkpt lat="43.20227" lon="0.24511">
        <ele>267.77</ele>
        <time>2022-10-11T08:37:59.000Z</time>
      </trkpt>
      <trkpt lat="43.20244" lon="0.24515">
        <ele>268.59</ele>
        <time>2022-10-11T08:38:04.000Z</time>
      </trkpt>
      <trkpt lat="43.20265" lon="0.24521">
        <ele>270.33</ele>
        <time>2022-10-11T08:38:09.000Z</time>
      </trkpt>
      <trkpt lat="43.20299" lon="0.24513">
        <ele>271.76</ele>
        <time>2022-10-11T08:38:14.000Z</time>
      </trkpt>
      <trkpt lat="43.2033" lon="0.24499">
        <ele>272.01</ele>
        <time>2022-10-11T08:38:19.000Z</time>
      </trkpt>
      <trkpt lat="43.20365" lon="0.24483">
        <ele>272.28</ele>
        <time>2022-10-11T08:38:24.000Z</time>
      </trkpt>
      <trkpt lat="43.20397" lon="0.24472">
        <ele>272.25</ele>
        <time>2022-10-11T08:38:29.000Z</time>
      </trkpt>
      <trkpt lat="43.20431" lon="0.24463">
        <ele>272.55</ele>
        <time>2022-10-11T08:38:34.000Z</time>
      </trkpt>
      <trkpt lat="43.20456" lon="0.24456">
        <ele>272.09</ele>
        <time>2022-10-11T08:38:39.000Z</time>
      </trkpt>
      <trkpt lat="43.20478" lon="0.24452">
        <ele>270.15</ele>
        <time>2022-10-11T08:38:44.000Z</time>
      </trkpt>
      <trkpt lat="43.20502" lon="0.24451">
        <ele>268.67</ele>
        <time>2022-10-11T08:38:49.000Z</time>
      </trkpt>
      <trkpt lat="43.2053" lon="0.24448">
        <ele>266.79</ele>
        <time>2022-10-11T08:38:54.000Z</time>
      </trkpt>
      <trkpt lat="43.2056" lon="0.24449">
        <ele>266.1</ele>
        <time>2022-10-11T08:38:59.000Z</time>
      </trkpt>
      <trkpt lat="43.20591" lon="0.24449">
        <ele>265.89</ele>
        <time>2022-10-11T08:39:04.000Z</time>
      </trkpt>
      <trkpt lat="43.20623" lon="0.24439">
        <ele>267.67</ele>
        <time>2022-10-11T08:39:09.000Z</time>
      </trkpt>
      <trkpt lat="43.20658" lon="0.24428">
        <ele>266.57</ele>
        <time>2022-10-11T08:39:14.000Z</time>
      </trkpt>
      <trkpt lat="43.20695" lon="0.2442">
        <ele>263.75</ele>
        <time>2022-10-11T08:39:19.000Z</time>
      </trkpt>
      <trkpt lat="43.2073" lon="0.2439">
        <ele>266.21</ele>
        <time>2022-10-11T08:39:24.000Z</time>
      </trkpt>
      <trkpt lat="43.2076" lon="0.24359">
        <ele>267.37</ele>
        <time>2022-10-11T08:39:29.000Z</time>
      </trkpt>
      <trkpt lat="43.20784" lon="0.24322">
        <ele>265.5</ele>
        <time>2022-10-11T08:39:34.000Z</time>
      </trkpt>
      <trkpt lat="43.20806" lon="0.24278">
        <ele>264.47</ele>
        <time>2022-10-11T08:39:39.000Z</time>
      </trkpt>
      <trkpt lat="43.20826" lon="0.24232">
        <ele>262.89</ele>
        <time>2022-10-11T08:39:44.000Z</time>
      </trkpt>
      <trkpt lat="43.20854" lon="0.24198">
        <ele>262.27</ele>
        <time>2022-10-11T08:39:49.000Z</time>
      </trkpt>
      <trkpt lat="43.20889" lon="0.24177">
        <ele>261.57</ele>
        <time>2022-10-11T08:39:54.000Z</time>
      </trkpt>
      <trkpt lat="43.20924" lon="0.2417">
        <ele>259.66</ele>
        <time>2022-10-11T08:39:59.000Z</time>
      </trkpt>
      <trkpt lat="43.20957" lon="0.24169">
        <ele>258.84</ele>
        <time>2022-10-11T08:40:04.000Z</time>
      </trkpt>
      <trkpt lat="43.20988" lon="0.24167">
        <ele>258.71</ele>
        <time>2022-10-11T08:40:09.000Z</time>
      </trkpt>
      <trkpt lat="43.21022" lon="0.24168">
        <ele>256.33</ele>
        <time>2022-10-11T08:40:14.000Z</time>
      </trkpt>
      <trkpt lat="43.21055" lon="0.24168">
        <ele>254.5</ele>
        <time>2022-10-11T08:40:19.000Z</time>
      </trkpt>
      <trkpt lat="43.21085" lon="0.24165">
        <ele>252.53</ele>
        <time>2022-10-11T08:40:24.000Z</time>
      </trkpt>
      <trkpt lat="43.21111" lon="0.24147">
        <ele>251.46</ele>
        <time>2022-10-11T08:40:29.000Z</time>
      </trkpt>
      <trkpt lat="43.21138" lon="0.24128">
        <ele>248.31</ele>
        <time>2022-10-11T08:40:34.000Z</time>
      </trkpt>
      <trkpt lat="43.21168" lon="0.24111">
        <ele>246.91</ele>
        <time>2022-10-11T08:40:39.000Z</time>
      </trkpt>
      <trkpt lat="43.21201" lon="0.24096">
        <ele>245.66</ele>
        <time>2022-10-11T08:40:44.000Z</time>
      </trkpt>
      <trkpt lat="43.21239" lon="0.24084">
        <ele>243.99</ele>
        <time>2022-10-11T08:40:49.000Z</time>
      </trkpt>
      <trkpt lat="43.21278" lon="0.24075">
        <ele>241.46</ele>
        <time>2022-10-11T08:40:54.000Z</time>
      </trkpt>
      <trkpt lat="43.21317" lon="0.24075">
        <ele>241.46</ele>
        <time>2022-10-11T08:40:59.000Z</time>
      </trkpt>
      <trkpt lat="43.21351" lon="0.24082">
        <ele>240.03</ele>
        <time>2022-10-11T08:41:04.000Z</time>
      </trkpt>
      <trkpt lat="43.21381" lon="0.24079">
        <ele>242.07</ele>
        <time>2022-10-11T08:41:09.000Z</time>
      </trkpt>
      <trkpt lat="43.2141" lon="0.24074">
        <ele>242.22</ele>
        <time>2022-10-11T08:41:14.000Z</time>
      </trkpt>
      <trkpt lat="43.21438" lon="0.24069">
        <ele>242.89</ele>
        <time>2022-10-11T08:41:19.000Z</time>
      </trkpt>
      <trkpt lat="43.21467" lon="0.24062">
        <ele>243.7</ele>
        <time>2022-10-11T08:41:24.000Z</time>
      </trkpt>
      <trkpt lat="43.21494" lon="0.24053">
        <ele>244.44</ele>
        <time>2022-10-11T08:41:29.000Z</time>
      </trkpt>
      <trkpt lat="43.21521" lon="0.24042">
        <ele>246.05</ele>
        <time>2022-10-11T08:41:34.000Z</time>
      </trkpt>
      <trkpt lat="43.21547" lon="0.24033">
        <ele>246.87</ele>
        <time>2022-10-11T08:41:39.000Z</time>
      </trkpt>
      <trkpt lat="43.2157" lon="0.24027">
        <ele>247.69</ele>
        <time>2022-10-11T08:41:44.000Z</time>
      </trkpt>
      <trkpt lat="43.21592" lon="0.2402">
        <ele>248.03</ele>
        <time>2022-10-11T08:41:49.000Z</time>
      </trkpt>
      <trkpt lat="43.21613" lon="0.24013">
        <ele>249.12</ele>
        <time>2022-10-11T08:41:54.000Z</time>
      </trkpt>
      <trkpt lat="43.21636" lon="0.24013">
        <ele>249.14</ele>
        <time>2022-10-11T08:41:59.000Z</time>
      </trkpt>
      <trkpt lat="43.21661" lon="0.24041">
        <ele>248.51</ele>
        <time>2022-10-11T08:42:04.000Z</time>
      </trkpt>
      <trkpt lat="43.21685" lon="0.24084">
        <ele>249.06</ele>
        <time>2022-10-11T08:42:09.000Z</time>
      </trkpt>
      <trkpt lat="43.21697" lon="0.24131">
        <ele>249.45</ele>
        <time>2022-10-11T08:42:14.000Z</time>
      </trkpt>
      <trkpt lat="43.21723" lon="0.24159">
        <ele>249.73</ele>
        <time>2022-10-11T08:42:19.000Z</time>
      </trkpt>
      <trkpt lat="43.21738" lon="0.24128">
        <ele>249.58</ele>
        <time>2022-10-11T08:42:24.000Z</time>
      </trkpt>
      <trkpt lat="43.21751" lon="0.24078">
        <ele>250.64</ele>
        <time>2022-10-11T08:42:29.000Z</time>
      </trkpt>
      <trkpt lat="43.21769" lon="0.24059">
        <ele>249.91</ele>
        <time>2022-10-11T08:42:34.000Z</time>
      </trkpt>
      <trkpt lat="43.21783" lon="0.24048">
        <ele>249.3</ele>
        <time>2022-10-11T08:42:39.000Z</time>
      </trkpt>
      <trkpt lat="43.21795" lon="0.24038">
        <ele>249.63</ele>
        <time>2022-10-11T08:42:44.000Z</time>
      </trkpt>
      <trkpt lat="43.21807" lon="0.24027">
        <ele>249.62</ele>
        <time>2022-10-11T08:42:49.000Z</time>
      </trkpt>
      <trkpt lat="43.21822" lon="0.24021">
        <ele>249.99</ele>
        <time>2022-10-11T08:42:54.000Z</time>
      </trkpt>
      <trkpt lat="43.21837" lon="0.24019">
        <ele>249.43</ele>
        <time>2022-10-11T08:42:59.000Z</time>
      </trkpt>
      <trkpt lat="43.21852" lon="0.24021">
        <ele>249.84</ele>
        <time>2022-10-11T08:43:04.000Z</time>
      </trkpt>
      <trkpt lat="43.21869" lon="0.24023">
        <ele>250.22</ele>
        <time>2022-10-11T08:43:09.000Z</time>
      </trkpt>
      <trkpt lat="43.21886" lon="0.24025">
        <ele>251.29</ele>
        <time>2022-10-11T08:43:14.000Z</time>
      </trkpt>
      <trkpt lat="43.21901" lon="0.24028">
        <ele>253.26</ele>
        <time>2022-10-11T08:43:19.000Z</time>
      </trkpt>
      <trkpt lat="43.21912" lon="0.24031">
        <ele>254.86</ele>
        <time>2022-10-11T08:43:24.000Z</time>
      </trkpt>
      <trkpt lat="43.21925" lon="0.24032">
        <ele>253.29</ele>
        <time>2022-10-11T08:43:29.000Z</time>
      </trkpt>
      <trkpt lat="43.2194" lon="0.24031">
        <ele>252.87</ele>
        <time>2022-10-11T08:43:34.000Z</time>
      </trkpt>
      <trkpt lat="43.21954" lon="0.2403">
        <ele>250.98</ele>
        <time>2022-10-11T08:43:39.000Z</time>
      </trkpt>
      <trkpt lat="43.2197" lon="0.24027">
        <ele>248.05</ele>
        <time>2022-10-11T08:43:44.000Z</time>
      </trkpt>
      <trkpt lat="43.21987" lon="0.24028">
        <ele>247.62</ele>
        <time>2022-10-11T08:43:49.000Z</time>
      </trkpt>
      <trkpt lat="43.22005" lon="0.24031">
        <ele>247.85</ele>
        <time>2022-10-11T08:43:54.000Z</time>
      </trkpt>
      <trkpt lat="43.22024" lon="0.24034">
        <ele>251.64</ele>
        <time>2022-10-11T08:43:59.000Z</time>
      </trkpt>
      <trkpt lat="43.22044" lon="0.24032">
        <ele>254.52</ele>
        <time>2022-10-11T08:44:04.000Z</time>
      </trkpt>
      <trkpt lat="43.22064" lon="0.24027">
        <ele>252.67</ele>
        <time>2022-10-11T08:44:09.000Z</time>
      </trkpt>
      <trkpt lat="43.22084" lon="0.24024">
        <ele>253.14</ele>
        <time>2022-10-11T08:44:14.000Z</time>
      </trkpt>
      <trkpt lat="43.22105" lon="0.24013">
        <ele>251.77</ele>
        <time>2022-10-11T08:44:19.000Z</time>
      </trkpt>
      <trkpt lat="43.22128" lon="0.24">
        <ele>249.63</ele>
        <time>2022-10-11T08:44:24.000Z</time>
      </trkpt>
      <trkpt lat="43.22153" lon="0.23971">
        <ele>248.33</ele>
        <time>2022-10-11T08:44:29.000Z</time>
      </trkpt>
      <trkpt lat="43.22176" lon="0.23938">
        <ele>247.35</ele>
        <time>2022-10-11T08:44:34.000Z</time>
      </trkpt>
      <trkpt lat="43.22205" lon="0.23922">
        <ele>248.3</ele>
        <time>2022-10-11T08:44:39.000Z</time>
      </trkpt>
      <trkpt lat="43.22233" lon="0.23915">
        <ele>249.19</ele>
        <time>2022-10-11T08:44:44.000Z</time>
      </trkpt>
      <trkpt lat="43.22262" lon="0.23904">
        <ele>250.21</ele>
        <time>2022-10-11T08:44:49.000Z</time>
      </trkpt>
      <trkpt lat="43.22298" lon="0.23891">
        <ele>249.9</ele>
        <time>2022-10-11T08:44:54.000Z</time>
      </trkpt>
      <trkpt lat="43.22334" lon="0.23874">
        <ele>248.71</ele>
        <time>2022-10-11T08:44:59.000Z</time>
      </trkpt>
      <trkpt lat="43.22368" lon="0.23851">
        <ele>247.31</ele>
        <time>2022-10-11T08:45:04.000Z</time>
      </trkpt>
      <trkpt lat="43.22401" lon="0.23814">
        <ele>244.16</ele>
        <time>2022-10-11T08:45:09.000Z</time>
      </trkpt>
      <trkpt lat="43.2244" lon="0.23768">
        <ele>240.29</ele>
        <time>2022-10-11T08:45:14.000Z</time>
      </trkpt>
      <trkpt lat="43.22486" lon="0.23739">
        <ele>237.24</ele>
        <time>2022-10-11T08:45:19.000Z</time>
      </trkpt>
      <trkpt lat="43.22533" lon="0.23715">
        <ele>234.94</ele>
        <time>2022-10-11T08:45:24.000Z</time>
      </trkpt>
      <trkpt lat="43.22581" lon="0.23694">
        <ele>232.37</ele>
        <time>2022-10-11T08:45:29.000Z</time>
      </trkpt>
      <trkpt lat="43.22621" lon="0.23674">
        <ele>230.73</ele>
        <time>2022-10-11T08:45:34.000Z</time>
      </trkpt>
      <trkpt lat="43.22652" lon="0.23655">
        <ele>229.25</ele>
        <time>2022-10-11T08:45:39.000Z</time>
      </trkpt>
      <trkpt lat="43.2268" lon="0.2364">
        <ele>228.07</ele>
        <time>2022-10-11T08:45:44.000Z</time>
      </trkpt>
      <trkpt lat="43.22709" lon="0.23629">
        <ele>227.19</ele>
        <time>2022-10-11T08:45:49.000Z</time>
      </trkpt>
      <trkpt lat="43.22741" lon="0.23619">
        <ele>227.25</ele>
        <time>2022-10-11T08:45:54.000Z</time>
      </trkpt>
      <trkpt lat="43.22775" lon="0.23605">
        <ele>227.54</ele>
        <time>2022-10-11T08:45:59.000Z</time>
      </trkpt>
      <trkpt lat="43.22805" lon="0.23584">
        <ele>230.65</ele>
        <time>2022-10-11T08:46:04.000Z</time>
      </trkpt>
      <trkpt lat="43.22821" lon="0.23574">
        <ele>230.52</ele>
        <time>2022-10-11T08:46:09.000Z</time>
      </trkpt>
      <trkpt lat="43.22828" lon="0.23563">
        <ele>234.35</ele>
        <time>2022-10-11T08:46:57.000Z</time>
      </trkpt>
      <trkpt lat="43.22819" lon="0.23567">
        <ele>234.95</ele>
        <time>2022-10-11T08:47:09.000Z</time>
      </trkpt>
      <trkpt lat="43.22819" lon="0.23553">
        <ele>235.1</ele>
        <time>2022-10-11T08:47:14.000Z</time>
      </trkpt>
      <trkpt lat="43.22821" lon="0.23514">
        <ele>235.3</ele>
        <time>2022-10-11T08:47:19.000Z</time>
      </trkpt>
      <trkpt lat="43.22827" lon="0.23456">
        <ele>235.3</ele>
        <time>2022-10-11T08:47:24.000Z</time>
      </trkpt>
      <trkpt lat="43.22839" lon="0.234">
        <ele>235.21</ele>
        <time>2022-10-11T08:47:29.000Z</time>
      </trkpt>
      <trkpt lat="43.22861" lon="0.23352">
        <ele>235.3</ele>
        <time>2022-10-11T08:47:34.000Z</time>
      </trkpt>
      <trkpt lat="43.22892" lon="0.23309">
        <ele>235.47</ele>
        <time>2022-10-11T08:47:39.000Z</time>
      </trkpt>
      <trkpt lat="43.2292" lon="0.23286">
        <ele>235.6</ele>
        <time>2022-10-11T08:47:44.000Z</time>
      </trkpt>
      <trkpt lat="43.22948" lon="0.23291">
        <ele>235.77</ele>
        <time>2022-10-11T08:47:49.000Z</time>
      </trkpt>
      <trkpt lat="43.22974" lon="0.23293">
        <ele>235.51</ele>
        <time>2022-10-11T08:47:54.000Z</time>
      </trkpt>
      <trkpt lat="43.23001" lon="0.23279">
        <ele>236.03</ele>
        <time>2022-10-11T08:47:59.000Z</time>
      </trkpt>
      <trkpt lat="43.23022" lon="0.23233">
        <ele>236.67</ele>
        <time>2022-10-11T08:48:04.000Z</time>
      </trkpt>
      <trkpt lat="43.2304" lon="0.23188">
        <ele>236.9</ele>
        <time>2022-10-11T08:48:09.000Z</time>
      </trkpt>
      <trkpt lat="43.23054" lon="0.23147">
        <ele>237.27</ele>
        <time>2022-10-11T08:48:14.000Z</time>
      </trkpt>
      <trkpt lat="43.23067" lon="0.23106">
        <ele>237.7</ele>
        <time>2022-10-11T08:48:19.000Z</time>
      </trkpt>
      <trkpt lat="43.2308" lon="0.23066">
        <ele>237.46</ele>
        <time>2022-10-11T08:48:24.000Z</time>
      </trkpt>
      <trkpt lat="43.23094" lon="0.23024">
        <ele>237.01</ele>
        <time>2022-10-11T08:48:29.000Z</time>
      </trkpt>
      <trkpt lat="43.23108" lon="0.22982">
        <ele>237.03</ele>
        <time>2022-10-11T08:48:34.000Z</time>
      </trkpt>
      <trkpt lat="43.23122" lon="0.22942">
        <ele>237.66</ele>
        <time>2022-10-11T08:48:39.000Z</time>
      </trkpt>
      <trkpt lat="43.23136" lon="0.22896">
        <ele>237.97</ele>
        <time>2022-10-11T08:48:44.000Z</time>
      </trkpt>
      <trkpt lat="43.23149" lon="0.2285">
        <ele>238.29</ele>
        <time>2022-10-11T08:48:49.000Z</time>
      </trkpt>
      <trkpt lat="43.23151" lon="0.22801">
        <ele>237.89</ele>
        <time>2022-10-11T08:48:54.000Z</time>
      </trkpt>
      <trkpt lat="43.23145" lon="0.22753">
        <ele>236.43</ele>
        <time>2022-10-11T08:48:59.000Z</time>
      </trkpt>
      <trkpt lat="43.23134" lon="0.22707">
        <ele>235.43</ele>
        <time>2022-10-11T08:49:04.000Z</time>
      </trkpt>
      <trkpt lat="43.23124" lon="0.22665">
        <ele>234.56</ele>
        <time>2022-10-11T08:49:09.000Z</time>
      </trkpt>
      <trkpt lat="43.23114" lon="0.22625">
        <ele>232.58</ele>
        <time>2022-10-11T08:49:14.000Z</time>
      </trkpt>
      <trkpt lat="43.23105" lon="0.22583">
        <ele>230.98</ele>
        <time>2022-10-11T08:49:19.000Z</time>
      </trkpt>
      <trkpt lat="43.23096" lon="0.22543">
        <ele>229.36</ele>
        <time>2022-10-11T08:49:24.000Z</time>
      </trkpt>
      <trkpt lat="43.23085" lon="0.22506">
        <ele>229.49</ele>
        <time>2022-10-11T08:49:29.000Z</time>
      </trkpt>
      <trkpt lat="43.23076" lon="0.22468">
        <ele>231.59</ele>
        <time>2022-10-11T08:49:34.000Z</time>
      </trkpt>
      <trkpt lat="43.23068" lon="0.22429">
        <ele>232.7</ele>
        <time>2022-10-11T08:49:39.000Z</time>
      </trkpt>
      <trkpt lat="43.2306" lon="0.22388">
        <ele>232.45</ele>
        <time>2022-10-11T08:49:44.000Z</time>
      </trkpt>
      <trkpt lat="43.23053" lon="0.22347">
        <ele>234.54</ele>
        <time>2022-10-11T08:49:49.000Z</time>
      </trkpt>
      <trkpt lat="43.23047" lon="0.2231">
        <ele>235.65</ele>
        <time>2022-10-11T08:49:54.000Z</time>
      </trkpt>
      <trkpt lat="43.23043" lon="0.22268">
        <ele>236.2</ele>
        <time>2022-10-11T08:49:59.000Z</time>
      </trkpt>
      <trkpt lat="43.23037" lon="0.2223">
        <ele>236</ele>
        <time>2022-10-11T08:50:04.000Z</time>
      </trkpt>
      <trkpt lat="43.23032" lon="0.22193">
        <ele>235.71</ele>
        <time>2022-10-11T08:50:09.000Z</time>
      </trkpt>
      <trkpt lat="43.23029" lon="0.22158">
        <ele>236.13</ele>
        <time>2022-10-11T08:50:14.000Z</time>
      </trkpt>
      <trkpt lat="43.23027" lon="0.22125">
        <ele>237.02</ele>
        <time>2022-10-11T08:50:19.000Z</time>
      </trkpt>
      <trkpt lat="43.23025" lon="0.22101">
        <ele>237.89</ele>
        <time>2022-10-11T08:50:24.000Z</time>
      </trkpt>
      <trkpt lat="43.23035" lon="0.22091">
        <ele>238.7</ele>
        <time>2022-10-11T08:50:29.000Z</time>
      </trkpt>
      <trkpt lat="43.23057" lon="0.22086">
        <ele>238.25</ele>
        <time>2022-10-11T08:50:34.000Z</time>
      </trkpt>
      <trkpt lat="43.23083" lon="0.22082">
        <ele>236.33</ele>
        <time>2022-10-11T08:50:39.000Z</time>
      </trkpt>
      <trkpt lat="43.2311" lon="0.22078">
        <ele>232.77</ele>
        <time>2022-10-11T08:50:44.000Z</time>
      </trkpt>
      <trkpt lat="43.23134" lon="0.22074">
        <ele>229.07</ele>
        <time>2022-10-11T08:50:49.000Z</time>
      </trkpt>
      <trkpt lat="43.23164" lon="0.22069">
        <ele>225.19</ele>
        <time>2022-10-11T08:50:54.000Z</time>
      </trkpt>
      <trkpt lat="43.23194" lon="0.22063">
        <ele>224.78</ele>
        <time>2022-10-11T08:50:59.000Z</time>
      </trkpt>
      <trkpt lat="43.23225" lon="0.22057">
        <ele>225.44</ele>
        <time>2022-10-11T08:51:04.000Z</time>
      </trkpt>
      <trkpt lat="43.23258" lon="0.22051">
        <ele>223.74</ele>
        <time>2022-10-11T08:51:09.000Z</time>
      </trkpt>
      <trkpt lat="43.23294" lon="0.22045">
        <ele>222.39</ele>
        <time>2022-10-11T08:51:14.000Z</time>
      </trkpt>
      <trkpt lat="43.2333" lon="0.22036">
        <ele>221.49</ele>
        <time>2022-10-11T08:51:19.000Z</time>
      </trkpt>
      <trkpt lat="43.23367" lon="0.22029">
        <ele>221.6</ele>
        <time>2022-10-11T08:51:24.000Z</time>
      </trkpt>
      <trkpt lat="43.23403" lon="0.22022">
        <ele>220.67</ele>
        <time>2022-10-11T08:51:29.000Z</time>
      </trkpt>
      <trkpt lat="43.2344" lon="0.22015">
        <ele>217.24</ele>
        <time>2022-10-11T08:51:34.000Z</time>
      </trkpt>
      <trkpt lat="43.23475" lon="0.22007">
        <ele>215.5</ele>
        <time>2022-10-11T08:51:39.000Z</time>
      </trkpt>
      <trkpt lat="43.23511" lon="0.22002">
        <ele>215.12</ele>
        <time>2022-10-11T08:51:44.000Z</time>
      </trkpt>
      <trkpt lat="43.23548" lon="0.21995">
        <ele>216.17</ele>
        <time>2022-10-11T08:51:49.000Z</time>
      </trkpt>
      <trkpt lat="43.23581" lon="0.21989">
        <ele>215.83</ele>
        <time>2022-10-11T08:51:54.000Z</time>
      </trkpt>
      <trkpt lat="43.23614" lon="0.21988">
        <ele>213.13</ele>
        <time>2022-10-11T08:51:59.000Z</time>
      </trkpt>
      <trkpt lat="43.23649" lon="0.21995">
        <ele>212.37</ele>
        <time>2022-10-11T08:52:04.000Z</time>
      </trkpt>
      <trkpt lat="43.23683" lon="0.22003">
        <ele>212.59</ele>
        <time>2022-10-11T08:52:09.000Z</time>
      </trkpt>
      <trkpt lat="43.23718" lon="0.22009">
        <ele>213.42</ele>
        <time>2022-10-11T08:52:14.000Z</time>
      </trkpt>
      <trkpt lat="43.23748" lon="0.22016">
        <ele>216.63</ele>
        <time>2022-10-11T08:52:19.000Z</time>
      </trkpt>
      <trkpt lat="43.23776" lon="0.22022">
        <ele>218.15</ele>
        <time>2022-10-11T08:52:24.000Z</time>
      </trkpt>
      <trkpt lat="43.23804" lon="0.22029">
        <ele>219.27</ele>
        <time>2022-10-11T08:52:29.000Z</time>
      </trkpt>
      <trkpt lat="43.23834" lon="0.22036">
        <ele>218.66</ele>
        <time>2022-10-11T08:52:34.000Z</time>
      </trkpt>
      <trkpt lat="43.23861" lon="0.22043">
        <ele>218.35</ele>
        <time>2022-10-11T08:52:39.000Z</time>
      </trkpt>
      <trkpt lat="43.23888" lon="0.22047">
        <ele>217.85</ele>
        <time>2022-10-11T08:52:44.000Z</time>
      </trkpt>
      <trkpt lat="43.23917" lon="0.22054">
        <ele>216.78</ele>
        <time>2022-10-11T08:52:49.000Z</time>
      </trkpt>
      <trkpt lat="43.23946" lon="0.22061">
        <ele>217</ele>
        <time>2022-10-11T08:52:54.000Z</time>
      </trkpt>
      <trkpt lat="43.23976" lon="0.22065">
        <ele>216.37</ele>
        <time>2022-10-11T08:52:59.000Z</time>
      </trkpt>
      <trkpt lat="43.24005" lon="0.22071">
        <ele>216.12</ele>
        <time>2022-10-11T08:53:04.000Z</time>
      </trkpt>
      <trkpt lat="43.24035" lon="0.22078">
        <ele>215.41</ele>
        <time>2022-10-11T08:53:09.000Z</time>
      </trkpt>
      <trkpt lat="43.2406" lon="0.22083">
        <ele>215.1</ele>
        <time>2022-10-11T08:53:14.000Z</time>
      </trkpt>
      <trkpt lat="43.24083" lon="0.22092">
        <ele>215.08</ele>
        <time>2022-10-11T08:53:19.000Z</time>
      </trkpt>
      <trkpt lat="43.241" lon="0.22085">
        <ele>214.9</ele>
        <time>2022-10-11T08:53:24.000Z</time>
      </trkpt>
      <trkpt lat="43.24099" lon="0.22061">
        <ele>216.29</ele>
        <time>2022-10-11T08:53:29.000Z</time>
      </trkpt>
      <trkpt lat="43.241" lon="0.22032">
        <ele>219.27</ele>
        <time>2022-10-11T08:53:34.000Z</time>
      </trkpt>
      <trkpt lat="43.24099" lon="0.22001">
        <ele>221.54</ele>
        <time>2022-10-11T08:53:39.000Z</time>
      </trkpt>
      <trkpt lat="43.24096" lon="0.21967">
        <ele>222.54</ele>
        <time>2022-10-11T08:53:44.000Z</time>
      </trkpt>
      <trkpt lat="43.24094" lon="0.21933">
        <ele>223.88</ele>
        <time>2022-10-11T08:53:49.000Z</time>
      </trkpt>
      <trkpt lat="43.24093" lon="0.21898">
        <ele>225.68</ele>
        <time>2022-10-11T08:53:54.000Z</time>
      </trkpt>
      <trkpt lat="43.2409" lon="0.2186">
        <ele>226.78</ele>
        <time>2022-10-11T08:53:59.000Z</time>
      </trkpt>
      <trkpt lat="43.24088" lon="0.21822">
        <ele>227.86</ele>
        <time>2022-10-11T08:54:04.000Z</time>
      </trkpt>
      <trkpt lat="43.24087" lon="0.21784">
        <ele>228.79</ele>
        <time>2022-10-11T08:54:09.000Z</time>
      </trkpt>
      <trkpt lat="43.24084" lon="0.21746">
        <ele>229.21</ele>
        <time>2022-10-11T08:54:14.000Z</time>
      </trkpt>
      <trkpt lat="43.24082" lon="0.21708">
        <ele>230.24</ele>
        <time>2022-10-11T08:54:19.000Z</time>
      </trkpt>
      <trkpt lat="43.24079" lon="0.2167">
        <ele>231.29</ele>
        <time>2022-10-11T08:54:24.000Z</time>
      </trkpt>
      <trkpt lat="43.24078" lon="0.21629">
        <ele>231.53</ele>
        <time>2022-10-11T08:54:29.000Z</time>
      </trkpt>
      <trkpt lat="43.24076" lon="0.21588">
        <ele>229.6</ele>
        <time>2022-10-11T08:54:34.000Z</time>
      </trkpt>
      <trkpt lat="43.24074" lon="0.21546">
        <ele>228.4</ele>
        <time>2022-10-11T08:54:39.000Z</time>
      </trkpt>
      <trkpt lat="43.24073" lon="0.21505">
        <ele>228.36</ele>
        <time>2022-10-11T08:54:44.000Z</time>
      </trkpt>
      <trkpt lat="43.24071" lon="0.21463">
        <ele>228.08</ele>
        <time>2022-10-11T08:54:49.000Z</time>
      </trkpt>
      <trkpt lat="43.24069" lon="0.21423">
        <ele>228.87</ele>
        <time>2022-10-11T08:54:54.000Z</time>
      </trkpt>
      <trkpt lat="43.24066" lon="0.21386">
        <ele>229.74</ele>
        <time>2022-10-11T08:54:59.000Z</time>
      </trkpt>
      <trkpt lat="43.24066" lon="0.21347">
        <ele>230.08</ele>
        <time>2022-10-11T08:55:04.000Z</time>
      </trkpt>
      <trkpt lat="43.24063" lon="0.2131">
        <ele>230.06</ele>
        <time>2022-10-11T08:55:09.000Z</time>
      </trkpt>
      <trkpt lat="43.2406" lon="0.21274">
        <ele>229.46</ele>
        <time>2022-10-11T08:55:14.000Z</time>
      </trkpt>
      <trkpt lat="43.24057" lon="0.2124">
        <ele>228.64</ele>
        <time>2022-10-11T08:55:19.000Z</time>
      </trkpt>
      <trkpt lat="43.24054" lon="0.21206">
        <ele>229.15</ele>
        <time>2022-10-11T08:55:24.000Z</time>
      </trkpt>
      <trkpt lat="43.24051" lon="0.21174">
        <ele>229.64</ele>
        <time>2022-10-11T08:55:29.000Z</time>
      </trkpt>
      <trkpt lat="43.24045" lon="0.21145">
        <ele>230.93</ele>
        <time>2022-10-11T08:55:34.000Z</time>
      </trkpt>
      <trkpt lat="43.24041" lon="0.21118">
        <ele>230.4</ele>
        <time>2022-10-11T08:55:39.000Z</time>
      </trkpt>
      <trkpt lat="43.24036" lon="0.21092">
        <ele>230.48</ele>
        <time>2022-10-11T08:55:44.000Z</time>
      </trkpt>
      <trkpt lat="43.24034" lon="0.2107">
        <ele>230.72</ele>
        <time>2022-10-11T08:55:49.000Z</time>
      </trkpt>
      <trkpt lat="43.24029" lon="0.21049">
        <ele>230.5</ele>
        <time>2022-10-11T08:55:54.000Z</time>
      </trkpt>
      <trkpt lat="43.24024" lon="0.21024">
        <ele>231.11</ele>
        <time>2022-10-11T08:55:59.000Z</time>
      </trkpt>
      <trkpt lat="43.24019" lon="0.20999">
        <ele>232.96</ele>
        <time>2022-10-11T08:56:04.000Z</time>
      </trkpt>
      <trkpt lat="43.24014" lon="0.20972">
        <ele>234.13</ele>
        <time>2022-10-11T08:56:09.000Z</time>
      </trkpt>
      <trkpt lat="43.24008" lon="0.20945">
        <ele>236.38</ele>
        <time>2022-10-11T08:56:14.000Z</time>
      </trkpt>
      <trkpt lat="43.24004" lon="0.20917">
        <ele>236.38</ele>
        <time>2022-10-11T08:56:19.000Z</time>
      </trkpt>
      <trkpt lat="43.24001" lon="0.20891">
        <ele>236.53</ele>
        <time>2022-10-11T08:56:24.000Z</time>
      </trkpt>
      <trkpt lat="43.23997" lon="0.20866">
        <ele>235.62</ele>
        <time>2022-10-11T08:56:29.000Z</time>
      </trkpt>
      <trkpt lat="43.23992" lon="0.2084">
        <ele>235.63</ele>
        <time>2022-10-11T08:56:34.000Z</time>
      </trkpt>
      <trkpt lat="43.23986" lon="0.2082">
        <ele>235.43</ele>
        <time>2022-10-11T08:56:39.000Z</time>
      </trkpt>
      <trkpt lat="43.23982" lon="0.20797">
        <ele>235.59</ele>
        <time>2022-10-11T08:56:44.000Z</time>
      </trkpt>
      <trkpt lat="43.23979" lon="0.20765">
        <ele>235.88</ele>
        <time>2022-10-11T08:56:49.000Z</time>
      </trkpt>
      <trkpt lat="43.23974" lon="0.20736">
        <ele>236.31</ele>
        <time>2022-10-11T08:56:54.000Z</time>
      </trkpt>
      <trkpt lat="43.23966" lon="0.20709">
        <ele>237.21</ele>
        <time>2022-10-11T08:56:59.000Z</time>
      </trkpt>
      <trkpt lat="43.23957" lon="0.20686">
        <ele>238.49</ele>
        <time>2022-10-11T08:57:04.000Z</time>
      </trkpt>
      <trkpt lat="43.2395" lon="0.2066">
        <ele>238.15</ele>
        <time>2022-10-11T08:57:09.000Z</time>
      </trkpt>
      <trkpt lat="43.23943" lon="0.20633">
        <ele>239.45</ele>
        <time>2022-10-11T08:57:14.000Z</time>
      </trkpt>
      <trkpt lat="43.23937" lon="0.20606">
        <ele>240.06</ele>
        <time>2022-10-11T08:57:19.000Z</time>
      </trkpt>
      <trkpt lat="43.23928" lon="0.20583">
        <ele>240.25</ele>
        <time>2022-10-11T08:57:24.000Z</time>
      </trkpt>
      <trkpt lat="43.2392" lon="0.20557">
        <ele>239.87</ele>
        <time>2022-10-11T08:57:29.000Z</time>
      </trkpt>
      <trkpt lat="43.23912" lon="0.20534">
        <ele>240.71</ele>
        <time>2022-10-11T08:57:34.000Z</time>
      </trkpt>
      <trkpt lat="43.23903" lon="0.20508">
        <ele>241.96</ele>
        <time>2022-10-11T08:57:39.000Z</time>
      </trkpt>
      <trkpt lat="43.23893" lon="0.20487">
        <ele>243.46</ele>
        <time>2022-10-11T08:57:44.000Z</time>
      </trkpt>
      <trkpt lat="43.23884" lon="0.20465">
        <ele>243.4</ele>
        <time>2022-10-11T08:57:49.000Z</time>
      </trkpt>
      <trkpt lat="43.23875" lon="0.20446">
        <ele>242.61</ele>
        <time>2022-10-11T08:57:54.000Z</time>
      </trkpt>
      <trkpt lat="43.23866" lon="0.20426">
        <ele>242.77</ele>
        <time>2022-10-11T08:57:59.000Z</time>
      </trkpt>
      <trkpt lat="43.23857" lon="0.20406">
        <ele>242.63</ele>
        <time>2022-10-11T08:58:04.000Z</time>
      </trkpt>
      <trkpt lat="43.23848" lon="0.20386">
        <ele>242.31</ele>
        <time>2022-10-11T08:58:09.000Z</time>
      </trkpt>
      <trkpt lat="43.23842" lon="0.20363">
        <ele>242.03</ele>
        <time>2022-10-11T08:58:14.000Z</time>
      </trkpt>
      <trkpt lat="43.23833" lon="0.20337">
        <ele>241.98</ele>
        <time>2022-10-11T08:58:19.000Z</time>
      </trkpt>
      <trkpt lat="43.23824" lon="0.20316">
        <ele>242.12</ele>
        <time>2022-10-11T08:58:24.000Z</time>
      </trkpt>
      <trkpt lat="43.23815" lon="0.20286">
        <ele>242.3</ele>
        <time>2022-10-11T08:58:29.000Z</time>
      </trkpt>
      <trkpt lat="43.23809" lon="0.2026">
        <ele>242.84</ele>
        <time>2022-10-11T08:58:34.000Z</time>
      </trkpt>
      <trkpt lat="43.23803" lon="0.20232">
        <ele>243.55</ele>
        <time>2022-10-11T08:58:39.000Z</time>
      </trkpt>
      <trkpt lat="43.23794" lon="0.20203">
        <ele>246.13</ele>
        <time>2022-10-11T08:58:44.000Z</time>
      </trkpt>
      <trkpt lat="43.23782" lon="0.20178">
        <ele>248.12</ele>
        <time>2022-10-11T08:58:49.000Z</time>
      </trkpt>
      <trkpt lat="43.23768" lon="0.2016">
        <ele>247.65</ele>
        <time>2022-10-11T08:58:54.000Z</time>
      </trkpt>
      <trkpt lat="43.23754" lon="0.20142">
        <ele>247.92</ele>
        <time>2022-10-11T08:58:59.000Z</time>
      </trkpt>
      <trkpt lat="43.23741" lon="0.20123">
        <ele>248.25</ele>
        <time>2022-10-11T08:59:04.000Z</time>
      </trkpt>
      <trkpt lat="43.23729" lon="0.20103">
        <ele>248.4</ele>
        <time>2022-10-11T08:59:09.000Z</time>
      </trkpt>
      <trkpt lat="43.23716" lon="0.20084">
        <ele>249.55</ele>
        <time>2022-10-11T08:59:14.000Z</time>
      </trkpt>
      <trkpt lat="43.23704" lon="0.2006">
        <ele>250.66</ele>
        <time>2022-10-11T08:59:19.000Z</time>
      </trkpt>
      <trkpt lat="43.23692" lon="0.20035">
        <ele>250.96</ele>
        <time>2022-10-11T08:59:24.000Z</time>
      </trkpt>
      <trkpt lat="43.2368" lon="0.20013">
        <ele>251.16</ele>
        <time>2022-10-11T08:59:29.000Z</time>
      </trkpt>
      <trkpt lat="43.23668" lon="0.19994">
        <ele>251.77</ele>
        <time>2022-10-11T08:59:34.000Z</time>
      </trkpt>
      <trkpt lat="43.23659" lon="0.19977">
        <ele>251.7</ele>
        <time>2022-10-11T08:59:39.000Z</time>
      </trkpt>
      <trkpt lat="43.23648" lon="0.19959">
        <ele>251.6</ele>
        <time>2022-10-11T08:59:44.000Z</time>
      </trkpt>
      <trkpt lat="43.23638" lon="0.19932">
        <ele>252.67</ele>
        <time>2022-10-11T08:59:49.000Z</time>
      </trkpt>
      <trkpt lat="43.23631" lon="0.19914">
        <ele>253.17</ele>
        <time>2022-10-11T08:59:54.000Z</time>
      </trkpt>
      <trkpt lat="43.23624" lon="0.19896">
        <ele>253.57</ele>
        <time>2022-10-11T08:59:59.000Z</time>
      </trkpt>
      <trkpt lat="43.23616" lon="0.1988">
        <ele>255.47</ele>
        <time>2022-10-11T09:00:04.000Z</time>
      </trkpt>
      <trkpt lat="43.23608" lon="0.19862">
        <ele>255.86</ele>
        <time>2022-10-11T09:00:09.000Z</time>
      </trkpt>
      <trkpt lat="43.23601" lon="0.19846">
        <ele>256.38</ele>
        <time>2022-10-11T09:00:14.000Z</time>
      </trkpt>
      <trkpt lat="43.23592" lon="0.1983">
        <ele>256.72</ele>
        <time>2022-10-11T09:00:19.000Z</time>
      </trkpt>
      <trkpt lat="43.23584" lon="0.19812">
        <ele>258.19</ele>
        <time>2022-10-11T09:00:24.000Z</time>
      </trkpt>
      <trkpt lat="43.23578" lon="0.19795">
        <ele>258.25</ele>
        <time>2022-10-11T09:00:29.000Z</time>
      </trkpt>
      <trkpt lat="43.2357" lon="0.19779">
        <ele>259.7</ele>
        <time>2022-10-11T09:00:34.000Z</time>
      </trkpt>
      <trkpt lat="43.23563" lon="0.19764">
        <ele>259.49</ele>
        <time>2022-10-11T09:00:39.000Z</time>
      </trkpt>
      <trkpt lat="43.23556" lon="0.19747">
        <ele>259.49</ele>
        <time>2022-10-11T09:00:44.000Z</time>
      </trkpt>
      <trkpt lat="43.23549" lon="0.1973">
        <ele>261.47</ele>
        <time>2022-10-11T09:00:49.000Z</time>
      </trkpt>
      <trkpt lat="43.23543" lon="0.19712">
        <ele>263.98</ele>
        <time>2022-10-11T09:00:54.000Z</time>
      </trkpt>
      <trkpt lat="43.23537" lon="0.19694">
        <ele>264.42</ele>
        <time>2022-10-11T09:00:59.000Z</time>
      </trkpt>
      <trkpt lat="43.23532" lon="0.19675">
        <ele>264.05</ele>
        <time>2022-10-11T09:01:04.000Z</time>
      </trkpt>
      <trkpt lat="43.23525" lon="0.19656">
        <ele>264.38</ele>
        <time>2022-10-11T09:01:09.000Z</time>
      </trkpt>
      <trkpt lat="43.2352" lon="0.19638">
        <ele>265.1</ele>
        <time>2022-10-11T09:01:14.000Z</time>
      </trkpt>
      <trkpt lat="43.23515" lon="0.19621">
        <ele>265.78</ele>
        <time>2022-10-11T09:01:19.000Z</time>
      </trkpt>
      <trkpt lat="43.23508" lon="0.196">
        <ele>265.34</ele>
        <time>2022-10-11T09:01:24.000Z</time>
      </trkpt>
      <trkpt lat="43.23502" lon="0.19577">
        <ele>265.5</ele>
        <time>2022-10-11T09:01:29.000Z</time>
      </trkpt>
      <trkpt lat="43.23497" lon="0.1955">
        <ele>266.17</ele>
        <time>2022-10-11T09:01:34.000Z</time>
      </trkpt>
      <trkpt lat="43.23495" lon="0.1952">
        <ele>266.09</ele>
        <time>2022-10-11T09:01:39.000Z</time>
      </trkpt>
      <trkpt lat="43.23497" lon="0.19488">
        <ele>266.53</ele>
        <time>2022-10-11T09:01:44.000Z</time>
      </trkpt>
      <trkpt lat="43.235" lon="0.19455">
        <ele>267.84</ele>
        <time>2022-10-11T09:01:49.000Z</time>
      </trkpt>
      <trkpt lat="43.23506" lon="0.19421">
        <ele>268.66</ele>
        <time>2022-10-11T09:01:54.000Z</time>
      </trkpt>
      <trkpt lat="43.23508" lon="0.19387">
        <ele>267.52</ele>
        <time>2022-10-11T09:01:59.000Z</time>
      </trkpt>
      <trkpt lat="43.23504" lon="0.19358">
        <ele>266.49</ele>
        <time>2022-10-11T09:02:04.000Z</time>
      </trkpt>
      <trkpt lat="43.23496" lon="0.19336">
        <ele>266.76</ele>
        <time>2022-10-11T09:02:09.000Z</time>
      </trkpt>
      <trkpt lat="43.23485" lon="0.19313">
        <ele>265.44</ele>
        <time>2022-10-11T09:02:14.000Z</time>
      </trkpt>
      <trkpt lat="43.23473" lon="0.19296">
        <ele>265.11</ele>
        <time>2022-10-11T09:02:19.000Z</time>
      </trkpt>
      <trkpt lat="43.23459" lon="0.19276">
        <ele>264.91</ele>
        <time>2022-10-11T09:02:24.000Z</time>
      </trkpt>
      <trkpt lat="43.23444" lon="0.19253">
        <ele>264.71</ele>
        <time>2022-10-11T09:02:29.000Z</time>
      </trkpt>
      <trkpt lat="43.23429" lon="0.19229">
        <ele>264.72</ele>
        <time>2022-10-11T09:02:34.000Z</time>
      </trkpt>
      <trkpt lat="43.23415" lon="0.19204">
        <ele>264.97</ele>
        <time>2022-10-11T09:02:39.000Z</time>
      </trkpt>
      <trkpt lat="43.234" lon="0.1918">
        <ele>265</ele>
        <time>2022-10-11T09:02:44.000Z</time>
      </trkpt>
      <trkpt lat="43.23384" lon="0.19156">
        <ele>265.1</ele>
        <time>2022-10-11T09:02:49.000Z</time>
      </trkpt>
      <trkpt lat="43.23367" lon="0.19132">
        <ele>265.29</ele>
        <time>2022-10-11T09:02:54.000Z</time>
      </trkpt>
      <trkpt lat="43.23352" lon="0.19103">
        <ele>265.49</ele>
        <time>2022-10-11T09:02:59.000Z</time>
      </trkpt>
      <trkpt lat="43.23336" lon="0.19078">
        <ele>265.57</ele>
        <time>2022-10-11T09:03:04.000Z</time>
      </trkpt>
      <trkpt lat="43.23321" lon="0.1905">
        <ele>265.6</ele>
        <time>2022-10-11T09:03:09.000Z</time>
      </trkpt>
      <trkpt lat="43.23305" lon="0.19022">
        <ele>265.69</ele>
        <time>2022-10-11T09:03:14.000Z</time>
      </trkpt>
      <trkpt lat="43.23291" lon="0.18994">
        <ele>265.79</ele>
        <time>2022-10-11T09:03:19.000Z</time>
      </trkpt>
      <trkpt lat="43.23275" lon="0.18957">
        <ele>265.9</ele>
        <time>2022-10-11T09:03:24.000Z</time>
      </trkpt>
      <trkpt lat="43.23264" lon="0.18931">
        <ele>266.93</ele>
        <time>2022-10-11T09:03:29.000Z</time>
      </trkpt>
      <trkpt lat="43.2325" lon="0.18903">
        <ele>268.1</ele>
        <time>2022-10-11T09:03:34.000Z</time>
      </trkpt>
      <trkpt lat="43.23234" lon="0.18877">
        <ele>269.1</ele>
        <time>2022-10-11T09:03:39.000Z</time>
      </trkpt>
      <trkpt lat="43.2322" lon="0.1885">
        <ele>270.75</ele>
        <time>2022-10-11T09:03:44.000Z</time>
      </trkpt>
      <trkpt lat="43.23207" lon="0.18823">
        <ele>272.59</ele>
        <time>2022-10-11T09:03:49.000Z</time>
      </trkpt>
      <trkpt lat="43.23194" lon="0.188">
        <ele>273.22</ele>
        <time>2022-10-11T09:03:54.000Z</time>
      </trkpt>
      <trkpt lat="43.23181" lon="0.18778">
        <ele>272.5</ele>
        <time>2022-10-11T09:03:59.000Z</time>
      </trkpt>
      <trkpt lat="43.23169" lon="0.18758">
        <ele>273.15</ele>
        <time>2022-10-11T09:04:04.000Z</time>
      </trkpt>
      <trkpt lat="43.2316" lon="0.18737">
        <ele>274</ele>
        <time>2022-10-11T09:04:09.000Z</time>
      </trkpt>
      <trkpt lat="43.23148" lon="0.18719">
        <ele>273.11</ele>
        <time>2022-10-11T09:04:14.000Z</time>
      </trkpt>
      <trkpt lat="43.23137" lon="0.18701">
        <ele>273.09</ele>
        <time>2022-10-11T09:04:19.000Z</time>
      </trkpt>
      <trkpt lat="43.23127" lon="0.18683">
        <ele>274.12</ele>
        <time>2022-10-11T09:04:24.000Z</time>
      </trkpt>
      <trkpt lat="43.23116" lon="0.18664">
        <ele>276.07</ele>
        <time>2022-10-11T09:04:29.000Z</time>
      </trkpt>
      <trkpt lat="43.23105" lon="0.18646">
        <ele>276.93</ele>
        <time>2022-10-11T09:04:34.000Z</time>
      </trkpt>
      <trkpt lat="43.23095" lon="0.18627">
        <ele>276.18</ele>
        <time>2022-10-11T09:04:39.000Z</time>
      </trkpt>
      <trkpt lat="43.23085" lon="0.18609">
        <ele>276.71</ele>
        <time>2022-10-11T09:04:44.000Z</time>
      </trkpt>
      <trkpt lat="43.23074" lon="0.1859">
        <ele>276.2</ele>
        <time>2022-10-11T09:04:49.000Z</time>
      </trkpt>
      <trkpt lat="43.23063" lon="0.18571">
        <ele>277.34</ele>
        <time>2022-10-11T09:04:54.000Z</time>
      </trkpt>
      <trkpt lat="43.23051" lon="0.18554">
        <ele>278.76</ele>
        <time>2022-10-11T09:04:59.000Z</time>
      </trkpt>
      <trkpt lat="43.23039" lon="0.18535">
        <ele>279.53</ele>
        <time>2022-10-11T09:05:04.000Z</time>
      </trkpt>
      <trkpt lat="43.23028" lon="0.1851">
        <ele>279.12</ele>
        <time>2022-10-11T09:05:09.000Z</time>
      </trkpt>
      <trkpt lat="43.23016" lon="0.18486">
        <ele>278.75</ele>
        <time>2022-10-11T09:05:14.000Z</time>
      </trkpt>
      <trkpt lat="43.23005" lon="0.1846">
        <ele>277.88</ele>
        <time>2022-10-11T09:05:19.000Z</time>
      </trkpt>
      <trkpt lat="43.22994" lon="0.18434">
        <ele>277.43</ele>
        <time>2022-10-11T09:05:24.000Z</time>
      </trkpt>
      <trkpt lat="43.22985" lon="0.18405">
        <ele>277.58</ele>
        <time>2022-10-11T09:05:29.000Z</time>
      </trkpt>
      <trkpt lat="43.22977" lon="0.18376">
        <ele>276.56</ele>
        <time>2022-10-11T09:05:34.000Z</time>
      </trkpt>
      <trkpt lat="43.22969" lon="0.18346">
        <ele>276.04</ele>
        <time>2022-10-11T09:05:39.000Z</time>
      </trkpt>
      <trkpt lat="43.22961" lon="0.18318">
        <ele>277.65</ele>
        <time>2022-10-11T09:05:44.000Z</time>
      </trkpt>
      <trkpt lat="43.22954" lon="0.18292">
        <ele>278.16</ele>
        <time>2022-10-11T09:05:49.000Z</time>
      </trkpt>
      <trkpt lat="43.22947" lon="0.18265">
        <ele>277.93</ele>
        <time>2022-10-11T09:05:54.000Z</time>
      </trkpt>
      <trkpt lat="43.22939" lon="0.18235">
        <ele>278.78</ele>
        <time>2022-10-11T09:05:59.000Z</time>
      </trkpt>
      <trkpt lat="43.22933" lon="0.18203">
        <ele>279.77</ele>
        <time>2022-10-11T09:06:04.000Z</time>
      </trkpt>
      <trkpt lat="43.22929" lon="0.18168">
        <ele>280.51</ele>
        <time>2022-10-11T09:06:09.000Z</time>
      </trkpt>
      <trkpt lat="43.2292" lon="0.18137">
        <ele>279.98</ele>
        <time>2022-10-11T09:06:14.000Z</time>
      </trkpt>
      <trkpt lat="43.22913" lon="0.18113">
        <ele>281.39</ele>
        <time>2022-10-11T09:06:19.000Z</time>
      </trkpt>
      <trkpt lat="43.22906" lon="0.18089">
        <ele>281.52</ele>
        <time>2022-10-11T09:06:24.000Z</time>
      </trkpt>
      <trkpt lat="43.22898" lon="0.18065">
        <ele>281.33</ele>
        <time>2022-10-11T09:06:29.000Z</time>
      </trkpt>
      <trkpt lat="43.22892" lon="0.1804">
        <ele>280.94</ele>
        <time>2022-10-11T09:06:34.000Z</time>
      </trkpt>
      <trkpt lat="43.22885" lon="0.18013">
        <ele>281.19</ele>
        <time>2022-10-11T09:06:39.000Z</time>
      </trkpt>
      <trkpt lat="43.22878" lon="0.17987">
        <ele>280.84</ele>
        <time>2022-10-11T09:06:44.000Z</time>
      </trkpt>
      <trkpt lat="43.2287" lon="0.17961">
        <ele>283</ele>
        <time>2022-10-11T09:06:49.000Z</time>
      </trkpt>
      <trkpt lat="43.22863" lon="0.17938">
        <ele>284.27</ele>
        <time>2022-10-11T09:06:54.000Z</time>
      </trkpt>
      <trkpt lat="43.22858" lon="0.17913">
        <ele>286.5</ele>
        <time>2022-10-11T09:06:59.000Z</time>
      </trkpt>
      <trkpt lat="43.22853" lon="0.1789">
        <ele>288.08</ele>
        <time>2022-10-11T09:07:04.000Z</time>
      </trkpt>
      <trkpt lat="43.22848" lon="0.17863">
        <ele>289.22</ele>
        <time>2022-10-11T09:07:09.000Z</time>
      </trkpt>
      <trkpt lat="43.22842" lon="0.17836">
        <ele>289</ele>
        <time>2022-10-11T09:07:14.000Z</time>
      </trkpt>
      <trkpt lat="43.22837" lon="0.17807">
        <ele>291.71</ele>
        <time>2022-10-11T09:07:19.000Z</time>
      </trkpt>
      <trkpt lat="43.22835" lon="0.17783">
        <ele>293.12</ele>
        <time>2022-10-11T09:07:24.000Z</time>
      </trkpt>
      <trkpt lat="43.22835" lon="0.17759">
        <ele>293.04</ele>
        <time>2022-10-11T09:07:29.000Z</time>
      </trkpt>
      <trkpt lat="43.22834" lon="0.17737">
        <ele>292.4</ele>
        <time>2022-10-11T09:07:34.000Z</time>
      </trkpt>
      <trkpt lat="43.22836" lon="0.17713">
        <ele>292.09</ele>
        <time>2022-10-11T09:07:39.000Z</time>
      </trkpt>
      <trkpt lat="43.22841" lon="0.17689">
        <ele>293.12</ele>
        <time>2022-10-11T09:07:44.000Z</time>
      </trkpt>
      <trkpt lat="43.22843" lon="0.17668">
        <ele>293.27</ele>
        <time>2022-10-11T09:07:49.000Z</time>
      </trkpt>
      <trkpt lat="43.22847" lon="0.17644">
        <ele>293.84</ele>
        <time>2022-10-11T09:07:54.000Z</time>
      </trkpt>
      <trkpt lat="43.2285" lon="0.17619">
        <ele>293.8</ele>
        <time>2022-10-11T09:07:59.000Z</time>
      </trkpt>
      <trkpt lat="43.22851" lon="0.17596">
        <ele>295.02</ele>
        <time>2022-10-11T09:08:04.000Z</time>
      </trkpt>
      <trkpt lat="43.2285" lon="0.17572">
        <ele>295.81</ele>
        <time>2022-10-11T09:08:09.000Z</time>
      </trkpt>
      <trkpt lat="43.22847" lon="0.17551">
        <ele>298.14</ele>
        <time>2022-10-11T09:08:14.000Z</time>
      </trkpt>
      <trkpt lat="43.22844" lon="0.17527">
        <ele>298.56</ele>
        <time>2022-10-11T09:08:19.000Z</time>
      </trkpt>
      <trkpt lat="43.22841" lon="0.17503">
        <ele>300.23</ele>
        <time>2022-10-11T09:08:24.000Z</time>
      </trkpt>
      <trkpt lat="43.2284" lon="0.1748">
        <ele>301.94</ele>
        <time>2022-10-11T09:08:29.000Z</time>
      </trkpt>
      <trkpt lat="43.22838" lon="0.17454">
        <ele>302.24</ele>
        <time>2022-10-11T09:08:34.000Z</time>
      </trkpt>
      <trkpt lat="43.22837" lon="0.17429">
        <ele>302.11</ele>
        <time>2022-10-11T09:08:39.000Z</time>
      </trkpt>
      <trkpt lat="43.22837" lon="0.17408">
        <ele>301.49</ele>
        <time>2022-10-11T09:08:44.000Z</time>
      </trkpt>
      <trkpt lat="43.22837" lon="0.17384">
        <ele>300.39</ele>
        <time>2022-10-11T09:08:49.000Z</time>
      </trkpt>
      <trkpt lat="43.22832" lon="0.17363">
        <ele>300.04</ele>
        <time>2022-10-11T09:08:54.000Z</time>
      </trkpt>
      <trkpt lat="43.2283" lon="0.1734">
        <ele>299.27</ele>
        <time>2022-10-11T09:08:59.000Z</time>
      </trkpt>
      <trkpt lat="43.22826" lon="0.17318">
        <ele>297.5</ele>
        <time>2022-10-11T09:09:04.000Z</time>
      </trkpt>
      <trkpt lat="43.22822" lon="0.17297">
        <ele>297.36</ele>
        <time>2022-10-11T09:09:09.000Z</time>
      </trkpt>
      <trkpt lat="43.22818" lon="0.17274">
        <ele>296.47</ele>
        <time>2022-10-11T09:09:14.000Z</time>
      </trkpt>
      <trkpt lat="43.22815" lon="0.17249">
        <ele>294.7</ele>
        <time>2022-10-11T09:09:19.000Z</time>
      </trkpt>
      <trkpt lat="43.22814" lon="0.17226">
        <ele>292.96</ele>
        <time>2022-10-11T09:09:24.000Z</time>
      </trkpt>
      <trkpt lat="43.22813" lon="0.17203">
        <ele>292.81</ele>
        <time>2022-10-11T09:09:29.000Z</time>
      </trkpt>
      <trkpt lat="43.22811" lon="0.1718">
        <ele>294.71</ele>
        <time>2022-10-11T09:09:34.000Z</time>
      </trkpt>
      <trkpt lat="43.22808" lon="0.17156">
        <ele>299.93</ele>
        <time>2022-10-11T09:09:39.000Z</time>
      </trkpt>
      <trkpt lat="43.22805" lon="0.17134">
        <ele>303.5</ele>
        <time>2022-10-11T09:09:44.000Z</time>
      </trkpt>
      <trkpt lat="43.22803" lon="0.17111">
        <ele>304.59</ele>
        <time>2022-10-11T09:09:49.000Z</time>
      </trkpt>
      <trkpt lat="43.22802" lon="0.1709">
        <ele>304.52</ele>
        <time>2022-10-11T09:09:54.000Z</time>
      </trkpt>
      <trkpt lat="43.22799" lon="0.17066">
        <ele>303.73</ele>
        <time>2022-10-11T09:09:59.000Z</time>
      </trkpt>
      <trkpt lat="43.22797" lon="0.17045">
        <ele>304.37</ele>
        <time>2022-10-11T09:10:04.000Z</time>
      </trkpt>
      <trkpt lat="43.22794" lon="0.17022">
        <ele>305.24</ele>
        <time>2022-10-11T09:10:09.000Z</time>
      </trkpt>
      <trkpt lat="43.22792" lon="0.16999">
        <ele>306.62</ele>
        <time>2022-10-11T09:10:14.000Z</time>
      </trkpt>
      <trkpt lat="43.22789" lon="0.16975">
        <ele>306.87</ele>
        <time>2022-10-11T09:10:19.000Z</time>
      </trkpt>
      <trkpt lat="43.22788" lon="0.16954">
        <ele>308.39</ele>
        <time>2022-10-11T09:10:24.000Z</time>
      </trkpt>
      <trkpt lat="43.22787" lon="0.16937">
        <ele>310.9</ele>
        <time>2022-10-11T09:10:29.000Z</time>
      </trkpt>
      <trkpt lat="43.22786" lon="0.16922">
        <ele>310.92</ele>
        <time>2022-10-11T09:10:34.000Z</time>
      </trkpt>
      <trkpt lat="43.22784" lon="0.16907">
        <ele>312.12</ele>
        <time>2022-10-11T09:10:39.000Z</time>
      </trkpt>
      <trkpt lat="43.22786" lon="0.16893">
        <ele>314.01</ele>
        <time>2022-10-11T09:10:44.000Z</time>
      </trkpt>
      <trkpt lat="43.22789" lon="0.16877">
        <ele>315.67</ele>
        <time>2022-10-11T09:10:49.000Z</time>
      </trkpt>
      <trkpt lat="43.2279" lon="0.16861">
        <ele>316.44</ele>
        <time>2022-10-11T09:10:54.000Z</time>
      </trkpt>
      <trkpt lat="43.22792" lon="0.16845">
        <ele>317.25</ele>
        <time>2022-10-11T09:10:59.000Z</time>
      </trkpt>
      <trkpt lat="43.22796" lon="0.1683">
        <ele>318.08</ele>
        <time>2022-10-11T09:11:04.000Z</time>
      </trkpt>
      <trkpt lat="43.22799" lon="0.16814">
        <ele>318.21</ele>
        <time>2022-10-11T09:11:09.000Z</time>
      </trkpt>
      <trkpt lat="43.22801" lon="0.16798">
        <ele>316.9</ele>
        <time>2022-10-11T09:11:14.000Z</time>
      </trkpt>
      <trkpt lat="43.22802" lon="0.16781">
        <ele>315.17</ele>
        <time>2022-10-11T09:11:19.000Z</time>
      </trkpt>
      <trkpt lat="43.228" lon="0.16763">
        <ele>313.73</ele>
        <time>2022-10-11T09:11:24.000Z</time>
      </trkpt>
      <trkpt lat="43.228" lon="0.16747">
        <ele>313.2</ele>
        <time>2022-10-11T09:11:29.000Z</time>
      </trkpt>
      <trkpt lat="43.22799" lon="0.16732">
        <ele>314.04</ele>
        <time>2022-10-11T09:11:34.000Z</time>
      </trkpt>
      <trkpt lat="43.22796" lon="0.16718">
        <ele>315.08</ele>
        <time>2022-10-11T09:11:39.000Z</time>
      </trkpt>
      <trkpt lat="43.22798" lon="0.16701">
        <ele>316.68</ele>
        <time>2022-10-11T09:11:44.000Z</time>
      </trkpt>
      <trkpt lat="43.22798" lon="0.16684">
        <ele>316.97</ele>
        <time>2022-10-11T09:11:49.000Z</time>
      </trkpt>
      <trkpt lat="43.22803" lon="0.16665">
        <ele>315.05</ele>
        <time>2022-10-11T09:11:54.000Z</time>
      </trkpt>
      <trkpt lat="43.22806" lon="0.16646">
        <ele>315.47</ele>
        <time>2022-10-11T09:11:59.000Z</time>
      </trkpt>
      <trkpt lat="43.22807" lon="0.16625">
        <ele>318.26</ele>
        <time>2022-10-11T09:12:04.000Z</time>
      </trkpt>
      <trkpt lat="43.22809" lon="0.16603">
        <ele>320.33</ele>
        <time>2022-10-11T09:12:09.000Z</time>
      </trkpt>
      <trkpt lat="43.22812" lon="0.16579">
        <ele>319.61</ele>
        <time>2022-10-11T09:12:14.000Z</time>
      </trkpt>
      <trkpt lat="43.22814" lon="0.16554">
        <ele>319.72</ele>
        <time>2022-10-11T09:12:19.000Z</time>
      </trkpt>
      <trkpt lat="43.22815" lon="0.16529">
        <ele>320.26</ele>
        <time>2022-10-11T09:12:24.000Z</time>
      </trkpt>
      <trkpt lat="43.22817" lon="0.16505">
        <ele>321.66</ele>
        <time>2022-10-11T09:12:29.000Z</time>
      </trkpt>
      <trkpt lat="43.22817" lon="0.1648">
        <ele>323.51</ele>
        <time>2022-10-11T09:12:34.000Z</time>
      </trkpt>
      <trkpt lat="43.22819" lon="0.16453">
        <ele>326.09</ele>
        <time>2022-10-11T09:12:39.000Z</time>
      </trkpt>
      <trkpt lat="43.22822" lon="0.16423">
        <ele>326.91</ele>
        <time>2022-10-11T09:12:44.000Z</time>
      </trkpt>
      <trkpt lat="43.22825" lon="0.16394">
        <ele>327.22</ele>
        <time>2022-10-11T09:12:49.000Z</time>
      </trkpt>
      <trkpt lat="43.22829" lon="0.16365">
        <ele>326.39</ele>
        <time>2022-10-11T09:12:54.000Z</time>
      </trkpt>
      <trkpt lat="43.22832" lon="0.16336">
        <ele>326.32</ele>
        <time>2022-10-11T09:12:59.000Z</time>
      </trkpt>
      <trkpt lat="43.22833" lon="0.16308">
        <ele>326.77</ele>
        <time>2022-10-11T09:13:04.000Z</time>
      </trkpt>
      <trkpt lat="43.22835" lon="0.1628">
        <ele>326.92</ele>
        <time>2022-10-11T09:13:09.000Z</time>
      </trkpt>
      <trkpt lat="43.22837" lon="0.16253">
        <ele>326.41</ele>
        <time>2022-10-11T09:13:14.000Z</time>
      </trkpt>
      <trkpt lat="43.22839" lon="0.16228">
        <ele>326.08</ele>
        <time>2022-10-11T09:13:19.000Z</time>
      </trkpt>
      <trkpt lat="43.22843" lon="0.16201">
        <ele>325.86</ele>
        <time>2022-10-11T09:13:24.000Z</time>
      </trkpt>
      <trkpt lat="43.22846" lon="0.16175">
        <ele>325.96</ele>
        <time>2022-10-11T09:13:29.000Z</time>
      </trkpt>
      <trkpt lat="43.22847" lon="0.1615">
        <ele>326.59</ele>
        <time>2022-10-11T09:13:34.000Z</time>
      </trkpt>
      <trkpt lat="43.22848" lon="0.16126">
        <ele>326.58</ele>
        <time>2022-10-11T09:13:39.000Z</time>
      </trkpt>
      <trkpt lat="43.22851" lon="0.16102">
        <ele>326.85</ele>
        <time>2022-10-11T09:13:44.000Z</time>
      </trkpt>
      <trkpt lat="43.22852" lon="0.16082">
        <ele>326.64</ele>
        <time>2022-10-11T09:13:49.000Z</time>
      </trkpt>
      <trkpt lat="43.22855" lon="0.16058">
        <ele>327.36</ele>
        <time>2022-10-11T09:13:54.000Z</time>
      </trkpt>
      <trkpt lat="43.22856" lon="0.1603">
        <ele>330.26</ele>
        <time>2022-10-11T09:13:59.000Z</time>
      </trkpt>
      <trkpt lat="43.22857" lon="0.16006">
        <ele>330.18</ele>
        <time>2022-10-11T09:14:04.000Z</time>
      </trkpt>
      <trkpt lat="43.22858" lon="0.15981">
        <ele>330.22</ele>
        <time>2022-10-11T09:14:09.000Z</time>
      </trkpt>
      <trkpt lat="43.22861" lon="0.15955">
        <ele>328.75</ele>
        <time>2022-10-11T09:14:14.000Z</time>
      </trkpt>
      <trkpt lat="43.22864" lon="0.1593">
        <ele>328.25</ele>
        <time>2022-10-11T09:14:19.000Z</time>
      </trkpt>
      <trkpt lat="43.22866" lon="0.15906">
        <ele>329.52</ele>
        <time>2022-10-11T09:14:24.000Z</time>
      </trkpt>
      <trkpt lat="43.22868" lon="0.15881">
        <ele>329.97</ele>
        <time>2022-10-11T09:14:29.000Z</time>
      </trkpt>
      <trkpt lat="43.22868" lon="0.1586">
        <ele>330.72</ele>
        <time>2022-10-11T09:14:34.000Z</time>
      </trkpt>
      <trkpt lat="43.22868" lon="0.15839">
        <ele>330.64</ele>
        <time>2022-10-11T09:14:39.000Z</time>
      </trkpt>
      <trkpt lat="43.22868" lon="0.15817">
        <ele>329.23</ele>
        <time>2022-10-11T09:14:44.000Z</time>
      </trkpt>
      <trkpt lat="43.22868" lon="0.15797">
        <ele>329.28</ele>
        <time>2022-10-11T09:14:49.000Z</time>
      </trkpt>
      <trkpt lat="43.22867" lon="0.15776">
        <ele>330.31</ele>
        <time>2022-10-11T09:14:54.000Z</time>
      </trkpt>
      <trkpt lat="43.22868" lon="0.15754">
        <ele>332.38</ele>
        <time>2022-10-11T09:14:59.000Z</time>
      </trkpt>
      <trkpt lat="43.22868" lon="0.1573">
        <ele>332.5</ele>
        <time>2022-10-11T09:15:04.000Z</time>
      </trkpt>
      <trkpt lat="43.22868" lon="0.15706">
        <ele>333.56</ele>
        <time>2022-10-11T09:15:09.000Z</time>
      </trkpt>
      <trkpt lat="43.22867" lon="0.15682">
        <ele>333.78</ele>
        <time>2022-10-11T09:15:14.000Z</time>
      </trkpt>
      <trkpt lat="43.22865" lon="0.1566">
        <ele>334.09</ele>
        <time>2022-10-11T09:15:19.000Z</time>
      </trkpt>
      <trkpt lat="43.22862" lon="0.15635">
        <ele>335.1</ele>
        <time>2022-10-11T09:15:24.000Z</time>
      </trkpt>
      <trkpt lat="43.22858" lon="0.15611">
        <ele>337.41</ele>
        <time>2022-10-11T09:15:29.000Z</time>
      </trkpt>
      <trkpt lat="43.22855" lon="0.15584">
        <ele>338.18</ele>
        <time>2022-10-11T09:15:34.000Z</time>
      </trkpt>
      <trkpt lat="43.22852" lon="0.15558">
        <ele>338.98</ele>
        <time>2022-10-11T09:15:39.000Z</time>
      </trkpt>
      <trkpt lat="43.22851" lon="0.15535">
        <ele>339.56</ele>
        <time>2022-10-11T09:15:44.000Z</time>
      </trkpt>
      <trkpt lat="43.22848" lon="0.15514">
        <ele>340.28</ele>
        <time>2022-10-11T09:15:49.000Z</time>
      </trkpt>
      <trkpt lat="43.22847" lon="0.15491">
        <ele>340.83</ele>
        <time>2022-10-11T09:15:54.000Z</time>
      </trkpt>
      <trkpt lat="43.22848" lon="0.15467">
        <ele>342.91</ele>
        <time>2022-10-11T09:15:59.000Z</time>
      </trkpt>
      <trkpt lat="43.22848" lon="0.15444">
        <ele>342.88</ele>
        <time>2022-10-11T09:16:04.000Z</time>
      </trkpt>
      <trkpt lat="43.22848" lon="0.15422">
        <ele>343.48</ele>
        <time>2022-10-11T09:16:09.000Z</time>
      </trkpt>
      <trkpt lat="43.22848" lon="0.15398">
        <ele>344.64</ele>
        <time>2022-10-11T09:16:14.000Z</time>
      </trkpt>
      <trkpt lat="43.22848" lon="0.15373">
        <ele>343.99</ele>
        <time>2022-10-11T09:16:19.000Z</time>
      </trkpt>
      <trkpt lat="43.2285" lon="0.1535">
        <ele>345.04</ele>
        <time>2022-10-11T09:16:24.000Z</time>
      </trkpt>
      <trkpt lat="43.22848" lon="0.15326">
        <ele>346.25</ele>
        <time>2022-10-11T09:16:29.000Z</time>
      </trkpt>
      <trkpt lat="43.2285" lon="0.15304">
        <ele>345.32</ele>
        <time>2022-10-11T09:16:34.000Z</time>
      </trkpt>
      <trkpt lat="43.22854" lon="0.15282">
        <ele>345.72</ele>
        <time>2022-10-11T09:16:39.000Z</time>
      </trkpt>
      <trkpt lat="43.22858" lon="0.15261">
        <ele>347.04</ele>
        <time>2022-10-11T09:16:44.000Z</time>
      </trkpt>
      <trkpt lat="43.22861" lon="0.15239">
        <ele>346.82</ele>
        <time>2022-10-11T09:16:49.000Z</time>
      </trkpt>
      <trkpt lat="43.22864" lon="0.15216">
        <ele>348.04</ele>
        <time>2022-10-11T09:16:54.000Z</time>
      </trkpt>
      <trkpt lat="43.22868" lon="0.15195">
        <ele>348.55</ele>
        <time>2022-10-11T09:16:59.000Z</time>
      </trkpt>
      <trkpt lat="43.22874" lon="0.15176">
        <ele>349.68</ele>
        <time>2022-10-11T09:17:04.000Z</time>
      </trkpt>
      <trkpt lat="43.2288" lon="0.15156">
        <ele>351.33</ele>
        <time>2022-10-11T09:17:09.000Z</time>
      </trkpt>
      <trkpt lat="43.22882" lon="0.15138">
        <ele>352.44</ele>
        <time>2022-10-11T09:17:14.000Z</time>
      </trkpt>
      <trkpt lat="43.22884" lon="0.15119">
        <ele>352.58</ele>
        <time>2022-10-11T09:17:19.000Z</time>
      </trkpt>
      <trkpt lat="43.22886" lon="0.15099">
        <ele>353.7</ele>
        <time>2022-10-11T09:17:24.000Z</time>
      </trkpt>
      <trkpt lat="43.22888" lon="0.15079">
        <ele>355.3</ele>
        <time>2022-10-11T09:17:29.000Z</time>
      </trkpt>
      <trkpt lat="43.2289" lon="0.15062">
        <ele>355.51</ele>
        <time>2022-10-11T09:17:34.000Z</time>
      </trkpt>
      <trkpt lat="43.22892" lon="0.15044">
        <ele>355.94</ele>
        <time>2022-10-11T09:17:39.000Z</time>
      </trkpt>
      <trkpt lat="43.22893" lon="0.15025">
        <ele>355.71</ele>
        <time>2022-10-11T09:17:44.000Z</time>
      </trkpt>
      <trkpt lat="43.22892" lon="0.15006">
        <ele>356.32</ele>
        <time>2022-10-11T09:17:49.000Z</time>
      </trkpt>
      <trkpt lat="43.22893" lon="0.14986">
        <ele>356.35</ele>
        <time>2022-10-11T09:17:54.000Z</time>
      </trkpt>
      <trkpt lat="43.22893" lon="0.14967">
        <ele>358.04</ele>
        <time>2022-10-11T09:17:59.000Z</time>
      </trkpt>
      <trkpt lat="43.22894" lon="0.14947">
        <ele>358.83</ele>
        <time>2022-10-11T09:18:04.000Z</time>
      </trkpt>
      <trkpt lat="43.22894" lon="0.1493">
        <ele>360.41</ele>
        <time>2022-10-11T09:18:09.000Z</time>
      </trkpt>
      <trkpt lat="43.22893" lon="0.14913">
        <ele>360.03</ele>
        <time>2022-10-11T09:18:14.000Z</time>
      </trkpt>
      <trkpt lat="43.22894" lon="0.14897">
        <ele>359.37</ele>
        <time>2022-10-11T09:18:19.000Z</time>
      </trkpt>
      <trkpt lat="43.22895" lon="0.1488">
        <ele>359.99</ele>
        <time>2022-10-11T09:18:24.000Z</time>
      </trkpt>
      <trkpt lat="43.22895" lon="0.14863">
        <ele>361.54</ele>
        <time>2022-10-11T09:18:29.000Z</time>
      </trkpt>
      <trkpt lat="43.22895" lon="0.14848">
        <ele>361.13</ele>
        <time>2022-10-11T09:18:34.000Z</time>
      </trkpt>
      <trkpt lat="43.22894" lon="0.14832">
        <ele>360.16</ele>
        <time>2022-10-11T09:18:39.000Z</time>
      </trkpt>
      <trkpt lat="43.22893" lon="0.14816">
        <ele>361.36</ele>
        <time>2022-10-11T09:18:44.000Z</time>
      </trkpt>
      <trkpt lat="43.22892" lon="0.14801">
        <ele>362.96</ele>
        <time>2022-10-11T09:18:49.000Z</time>
      </trkpt>
      <trkpt lat="43.22892" lon="0.14786">
        <ele>364.52</ele>
        <time>2022-10-11T09:18:54.000Z</time>
      </trkpt>
      <trkpt lat="43.22893" lon="0.14771">
        <ele>365.56</ele>
        <time>2022-10-11T09:18:59.000Z</time>
      </trkpt>
      <trkpt lat="43.22891" lon="0.14756">
        <ele>366.29</ele>
        <time>2022-10-11T09:19:04.000Z</time>
      </trkpt>
      <trkpt lat="43.22891" lon="0.14742">
        <ele>367.83</ele>
        <time>2022-10-11T09:19:09.000Z</time>
      </trkpt>
      <trkpt lat="43.22892" lon="0.14729">
        <ele>368.66</ele>
        <time>2022-10-11T09:19:14.000Z</time>
      </trkpt>
      <trkpt lat="43.22895" lon="0.14709">
        <ele>369.53</ele>
        <time>2022-10-11T09:19:19.000Z</time>
      </trkpt>
      <trkpt lat="43.22893" lon="0.14694">
        <ele>370.45</ele>
        <time>2022-10-11T09:19:24.000Z</time>
      </trkpt>
      <trkpt lat="43.22891" lon="0.14678">
        <ele>372.86</ele>
        <time>2022-10-11T09:19:29.000Z</time>
      </trkpt>
      <trkpt lat="43.22891" lon="0.14663">
        <ele>374.78</ele>
        <time>2022-10-11T09:19:34.000Z</time>
      </trkpt>
      <trkpt lat="43.22893" lon="0.14647">
        <ele>375.19</ele>
        <time>2022-10-11T09:19:39.000Z</time>
      </trkpt>
      <trkpt lat="43.22893" lon="0.14632">
        <ele>374.95</ele>
        <time>2022-10-11T09:19:44.000Z</time>
      </trkpt>
      <trkpt lat="43.22894" lon="0.14613">
        <ele>375.25</ele>
        <time>2022-10-11T09:19:49.000Z</time>
      </trkpt>
      <trkpt lat="43.22896" lon="0.14596">
        <ele>375.24</ele>
        <time>2022-10-11T09:19:54.000Z</time>
      </trkpt>
      <trkpt lat="43.22896" lon="0.14579">
        <ele>375.46</ele>
        <time>2022-10-11T09:19:59.000Z</time>
      </trkpt>
      <trkpt lat="43.22898" lon="0.14559">
        <ele>375.7</ele>
        <time>2022-10-11T09:20:04.000Z</time>
      </trkpt>
      <trkpt lat="43.22894" lon="0.14531">
        <ele>376.52</ele>
        <time>2022-10-11T09:20:09.000Z</time>
      </trkpt>
      <trkpt lat="43.22896" lon="0.1449">
        <ele>376.9</ele>
        <time>2022-10-11T09:20:14.000Z</time>
      </trkpt>
      <trkpt lat="43.22895" lon="0.14444">
        <ele>375.82</ele>
        <time>2022-10-11T09:20:19.000Z</time>
      </trkpt>
      <trkpt lat="43.2289" lon="0.14391">
        <ele>374.49</ele>
        <time>2022-10-11T09:20:24.000Z</time>
      </trkpt>
      <trkpt lat="43.22872" lon="0.14349">
        <ele>374.13</ele>
        <time>2022-10-11T09:20:29.000Z</time>
      </trkpt>
      <trkpt lat="43.22839" lon="0.14312">
        <ele>373.63</ele>
        <time>2022-10-11T09:20:34.000Z</time>
      </trkpt>
      <trkpt lat="43.22813" lon="0.14261">
        <ele>372.65</ele>
        <time>2022-10-11T09:20:39.000Z</time>
      </trkpt>
      <trkpt lat="43.22779" lon="0.14219">
        <ele>371.67</ele>
        <time>2022-10-11T09:20:44.000Z</time>
      </trkpt>
      <trkpt lat="43.22741" lon="0.14237">
        <ele>370.08</ele>
        <time>2022-10-11T09:20:49.000Z</time>
      </trkpt>
      <trkpt lat="43.22706" lon="0.14284">
        <ele>369.31</ele>
        <time>2022-10-11T09:20:54.000Z</time>
      </trkpt>
      <trkpt lat="43.22687" lon="0.14272">
        <ele>368.6</ele>
        <time>2022-10-11T09:20:59.000Z</time>
      </trkpt>
      <trkpt lat="43.22714" lon="0.14242">
        <ele>367.64</ele>
        <time>2022-10-11T09:21:04.000Z</time>
      </trkpt>
      <trkpt lat="43.22741" lon="0.14203">
        <ele>366.77</ele>
        <time>2022-10-11T09:21:09.000Z</time>
      </trkpt>
      <trkpt lat="43.22768" lon="0.14159">
        <ele>365.32</ele>
        <time>2022-10-11T09:21:14.000Z</time>
      </trkpt>
      <trkpt lat="43.22799" lon="0.14122">
        <ele>363.97</ele>
        <time>2022-10-11T09:21:19.000Z</time>
      </trkpt>
      <trkpt lat="43.22848" lon="0.14121">
        <ele>362.57</ele>
        <time>2022-10-11T09:21:24.000Z</time>
      </trkpt>
      <trkpt lat="43.22896" lon="0.14128">
        <ele>361.67</ele>
        <time>2022-10-11T09:21:29.000Z</time>
      </trkpt>
      <trkpt lat="43.22944" lon="0.14124">
        <ele>360.49</ele>
        <time>2022-10-11T09:21:34.000Z</time>
      </trkpt>
      <trkpt lat="43.22982" lon="0.14084">
        <ele>359.02</ele>
        <time>2022-10-11T09:21:39.000Z</time>
      </trkpt>
      <trkpt lat="43.22965" lon="0.13999">
        <ele>357.45</ele>
        <time>2022-10-11T09:21:44.000Z</time>
      </trkpt>
      <trkpt lat="43.22951" lon="0.13924">
        <ele>355.89</ele>
        <time>2022-10-11T09:21:49.000Z</time>
      </trkpt>
      <trkpt lat="43.22943" lon="0.1386">
        <ele>354.41</ele>
        <time>2022-10-11T09:21:54.000Z</time>
      </trkpt>
      <trkpt lat="43.22939" lon="0.1381">
        <ele>350.44</ele>
        <time>2022-10-11T09:21:59.000Z</time>
      </trkpt>
      <trkpt lat="43.22938" lon="0.13771">
        <ele>346.45</ele>
        <time>2022-10-11T09:22:04.000Z</time>
      </trkpt>
      <trkpt lat="43.22935" lon="0.13733">
        <ele>344.3</ele>
        <time>2022-10-11T09:22:09.000Z</time>
      </trkpt>
      <trkpt lat="43.22932" lon="0.13702">
        <ele>341.11</ele>
        <time>2022-10-11T09:22:14.000Z</time>
      </trkpt>
      <trkpt lat="43.22927" lon="0.13676">
        <ele>338.11</ele>
        <time>2022-10-11T09:22:19.000Z</time>
      </trkpt>
      <trkpt lat="43.22926" lon="0.13653">
        <ele>334.55</ele>
        <time>2022-10-11T09:22:24.000Z</time>
      </trkpt>
      <trkpt lat="43.22924" lon="0.13629">
        <ele>333</ele>
        <time>2022-10-11T09:22:29.000Z</time>
      </trkpt>
      <trkpt lat="43.22921" lon="0.13605">
        <ele>332.54</ele>
        <time>2022-10-11T09:22:34.000Z</time>
      </trkpt>
      <trkpt lat="43.2292" lon="0.1358">
        <ele>331.39</ele>
        <time>2022-10-11T09:22:39.000Z</time>
      </trkpt>
      <trkpt lat="43.22918" lon="0.1356">
        <ele>331.41</ele>
        <time>2022-10-11T09:22:44.000Z</time>
      </trkpt>
      <trkpt lat="43.22916" lon="0.13541">
        <ele>331.06</ele>
        <time>2022-10-11T09:22:49.000Z</time>
      </trkpt>
      <trkpt lat="43.22913" lon="0.13521">
        <ele>331.51</ele>
        <time>2022-10-11T09:22:54.000Z</time>
      </trkpt>
      <trkpt lat="43.2291" lon="0.13502">
        <ele>333.09</ele>
        <time>2022-10-11T09:22:59.000Z</time>
      </trkpt>
      <trkpt lat="43.22906" lon="0.13482">
        <ele>333.19</ele>
        <time>2022-10-11T09:23:04.000Z</time>
      </trkpt>
      <trkpt lat="43.22903" lon="0.1346">
        <ele>333.91</ele>
        <time>2022-10-11T09:23:09.000Z</time>
      </trkpt>
      <trkpt lat="43.22899" lon="0.13442">
        <ele>334.92</ele>
        <time>2022-10-11T09:23:14.000Z</time>
      </trkpt>
      <trkpt lat="43.22896" lon="0.13422">
        <ele>336.12</ele>
        <time>2022-10-11T09:23:19.000Z</time>
      </trkpt>
      <trkpt lat="43.22893" lon="0.13402">
        <ele>337.33</ele>
        <time>2022-10-11T09:23:24.000Z</time>
      </trkpt>
      <trkpt lat="43.22889" lon="0.13383">
        <ele>338.63</ele>
        <time>2022-10-11T09:23:29.000Z</time>
      </trkpt>
      <trkpt lat="43.22886" lon="0.13364">
        <ele>339.14</ele>
        <time>2022-10-11T09:23:34.000Z</time>
      </trkpt>
      <trkpt lat="43.22884" lon="0.13343">
        <ele>341.5</ele>
        <time>2022-10-11T09:23:39.000Z</time>
      </trkpt>
      <trkpt lat="43.2288" lon="0.13325">
        <ele>342.06</ele>
        <time>2022-10-11T09:23:44.000Z</time>
      </trkpt>
      <trkpt lat="43.22877" lon="0.13307">
        <ele>341.58</ele>
        <time>2022-10-11T09:23:49.000Z</time>
      </trkpt>
      <trkpt lat="43.22874" lon="0.13288">
        <ele>341.03</ele>
        <time>2022-10-11T09:23:54.000Z</time>
      </trkpt>
      <trkpt lat="43.22871" lon="0.13268">
        <ele>340.43</ele>
        <time>2022-10-11T09:23:59.000Z</time>
      </trkpt>
      <trkpt lat="43.22868" lon="0.13248">
        <ele>340.42</ele>
        <time>2022-10-11T09:24:04.000Z</time>
      </trkpt>
      <trkpt lat="43.22865" lon="0.13227">
        <ele>340.03</ele>
        <time>2022-10-11T09:24:09.000Z</time>
      </trkpt>
      <trkpt lat="43.22861" lon="0.13208">
        <ele>343.09</ele>
        <time>2022-10-11T09:24:14.000Z</time>
      </trkpt>
      <trkpt lat="43.22858" lon="0.1319">
        <ele>343.68</ele>
        <time>2022-10-11T09:24:19.000Z</time>
      </trkpt>
      <trkpt lat="43.22856" lon="0.13172">
        <ele>344.43</ele>
        <time>2022-10-11T09:24:24.000Z</time>
      </trkpt>
      <trkpt lat="43.22852" lon="0.13155">
        <ele>344.92</ele>
        <time>2022-10-11T09:24:29.000Z</time>
      </trkpt>
      <trkpt lat="43.22849" lon="0.13135">
        <ele>344.61</ele>
        <time>2022-10-11T09:24:34.000Z</time>
      </trkpt>
      <trkpt lat="43.22847" lon="0.13115">
        <ele>345.51</ele>
        <time>2022-10-11T09:24:39.000Z</time>
      </trkpt>
      <trkpt lat="43.22843" lon="0.13097">
        <ele>346.05</ele>
        <time>2022-10-11T09:24:44.000Z</time>
      </trkpt>
      <trkpt lat="43.2284" lon="0.13077">
        <ele>346.79</ele>
        <time>2022-10-11T09:24:49.000Z</time>
      </trkpt>
      <trkpt lat="43.22837" lon="0.13057">
        <ele>346.89</ele>
        <time>2022-10-11T09:24:54.000Z</time>
      </trkpt>
      <trkpt lat="43.22835" lon="0.13037">
        <ele>347.06</ele>
        <time>2022-10-11T09:24:59.000Z</time>
      </trkpt>
      <trkpt lat="43.22832" lon="0.13016">
        <ele>350.2</ele>
        <time>2022-10-11T09:25:04.000Z</time>
      </trkpt>
      <trkpt lat="43.22829" lon="0.12996">
        <ele>351.73</ele>
        <time>2022-10-11T09:25:09.000Z</time>
      </trkpt>
      <trkpt lat="43.22828" lon="0.12977">
        <ele>352.2</ele>
        <time>2022-10-11T09:25:14.000Z</time>
      </trkpt>
      <trkpt lat="43.22824" lon="0.12958">
        <ele>352.18</ele>
        <time>2022-10-11T09:25:19.000Z</time>
      </trkpt>
      <trkpt lat="43.22821" lon="0.12936">
        <ele>350.88</ele>
        <time>2022-10-11T09:25:24.000Z</time>
      </trkpt>
      <trkpt lat="43.22818" lon="0.12916">
        <ele>351.28</ele>
        <time>2022-10-11T09:25:29.000Z</time>
      </trkpt>
      <trkpt lat="43.22815" lon="0.12895">
        <ele>352.11</ele>
        <time>2022-10-11T09:25:34.000Z</time>
      </trkpt>
      <trkpt lat="43.22812" lon="0.12872">
        <ele>354.24</ele>
        <time>2022-10-11T09:25:39.000Z</time>
      </trkpt>
      <trkpt lat="43.22808" lon="0.1285">
        <ele>354.3</ele>
        <time>2022-10-11T09:25:44.000Z</time>
      </trkpt>
      <trkpt lat="43.22804" lon="0.12827">
        <ele>354.47</ele>
        <time>2022-10-11T09:25:49.000Z</time>
      </trkpt>
      <trkpt lat="43.22799" lon="0.12804">
        <ele>355.14</ele>
        <time>2022-10-11T09:25:54.000Z</time>
      </trkpt>
      <trkpt lat="43.22794" lon="0.12781">
        <ele>355.39</ele>
        <time>2022-10-11T09:25:59.000Z</time>
      </trkpt>
      <trkpt lat="43.22791" lon="0.12757">
        <ele>355.22</ele>
        <time>2022-10-11T09:26:04.000Z</time>
      </trkpt>
      <trkpt lat="43.22789" lon="0.12734">
        <ele>354.5</ele>
        <time>2022-10-11T09:26:09.000Z</time>
      </trkpt>
      <trkpt lat="43.22788" lon="0.12714">
        <ele>355.07</ele>
        <time>2022-10-11T09:26:14.000Z</time>
      </trkpt>
      <trkpt lat="43.22784" lon="0.12697">
        <ele>357.1</ele>
        <time>2022-10-11T09:26:19.000Z</time>
      </trkpt>
      <trkpt lat="43.22778" lon="0.12686">
        <ele>357.45</ele>
        <time>2022-10-11T09:27:42.000Z</time>
      </trkpt>
      <trkpt lat="43.22774" lon="0.12673">
        <ele>358.03</ele>
        <time>2022-10-11T09:27:48.000Z</time>
      </trkpt>
      <trkpt lat="43.22769" lon="0.12655">
        <ele>357.14</ele>
        <time>2022-10-11T09:27:53.000Z</time>
      </trkpt>
      <trkpt lat="43.22761" lon="0.12639">
        <ele>356.31</ele>
        <time>2022-10-11T09:27:58.000Z</time>
      </trkpt>
      <trkpt lat="43.22754" lon="0.12624">
        <ele>355.99</ele>
        <time>2022-10-11T09:28:03.000Z</time>
      </trkpt>
      <trkpt lat="43.22742" lon="0.12611">
        <ele>356.92</ele>
        <time>2022-10-11T09:28:08.000Z</time>
      </trkpt>
      <trkpt lat="43.2273" lon="0.12598">
        <ele>358.66</ele>
        <time>2022-10-11T09:28:13.000Z</time>
      </trkpt>
      <trkpt lat="43.22718" lon="0.12586">
        <ele>359.92</ele>
        <time>2022-10-11T09:28:18.000Z</time>
      </trkpt>
      <trkpt lat="43.22709" lon="0.12571">
        <ele>360.69</ele>
        <time>2022-10-11T09:28:23.000Z</time>
      </trkpt>
      <trkpt lat="43.22698" lon="0.12561">
        <ele>360.44</ele>
        <time>2022-10-11T09:28:28.000Z</time>
      </trkpt>
      <trkpt lat="43.22686" lon="0.12553">
        <ele>361.92</ele>
        <time>2022-10-11T09:28:33.000Z</time>
      </trkpt>
      <trkpt lat="43.22672" lon="0.12547">
        <ele>363.46</ele>
        <time>2022-10-11T09:28:38.000Z</time>
      </trkpt>
      <trkpt lat="43.22658" lon="0.12544">
        <ele>365.07</ele>
        <time>2022-10-11T09:28:43.000Z</time>
      </trkpt>
      <trkpt lat="43.22644" lon="0.12541">
        <ele>367.37</ele>
        <time>2022-10-11T09:28:48.000Z</time>
      </trkpt>
      <trkpt lat="43.22632" lon="0.12539">
        <ele>368.73</ele>
        <time>2022-10-11T09:28:53.000Z</time>
      </trkpt>
      <trkpt lat="43.22616" lon="0.12537">
        <ele>370.55</ele>
        <time>2022-10-11T09:28:58.000Z</time>
      </trkpt>
      <trkpt lat="43.22601" lon="0.12533">
        <ele>370.62</ele>
        <time>2022-10-11T09:29:03.000Z</time>
      </trkpt>
      <trkpt lat="43.22589" lon="0.12527">
        <ele>370.87</ele>
        <time>2022-10-11T09:29:08.000Z</time>
      </trkpt>
      <trkpt lat="43.22576" lon="0.12518">
        <ele>370.9</ele>
        <time>2022-10-11T09:29:13.000Z</time>
      </trkpt>
      <trkpt lat="43.22564" lon="0.12509">
        <ele>371.73</ele>
        <time>2022-10-11T09:29:18.000Z</time>
      </trkpt>
      <trkpt lat="43.22553" lon="0.12495">
        <ele>371.71</ele>
        <time>2022-10-11T09:29:23.000Z</time>
      </trkpt>
      <trkpt lat="43.22541" lon="0.12482">
        <ele>371.73</ele>
        <time>2022-10-11T09:29:28.000Z</time>
      </trkpt>
      <trkpt lat="43.22531" lon="0.12469">
        <ele>372.05</ele>
        <time>2022-10-11T09:29:33.000Z</time>
      </trkpt>
      <trkpt lat="43.22521" lon="0.12456">
        <ele>372.2</ele>
        <time>2022-10-11T09:29:38.000Z</time>
      </trkpt>
      <trkpt lat="43.2251" lon="0.12443">
        <ele>372.43</ele>
        <time>2022-10-11T09:29:43.000Z</time>
      </trkpt>
      <trkpt lat="43.225" lon="0.12429">
        <ele>373.05</ele>
        <time>2022-10-11T09:29:48.000Z</time>
      </trkpt>
      <trkpt lat="43.22487" lon="0.12411">
        <ele>373.42</ele>
        <time>2022-10-11T09:29:53.000Z</time>
      </trkpt>
      <trkpt lat="43.2247" lon="0.12394">
        <ele>373.06</ele>
        <time>2022-10-11T09:29:58.000Z</time>
      </trkpt>
      <trkpt lat="43.22446" lon="0.12372">
        <ele>373.56</ele>
        <time>2022-10-11T09:30:03.000Z</time>
      </trkpt>
      <trkpt lat="43.22416" lon="0.12351">
        <ele>373.52</ele>
        <time>2022-10-11T09:30:08.000Z</time>
      </trkpt>
      <trkpt lat="43.22384" lon="0.1233">
        <ele>373.4</ele>
        <time>2022-10-11T09:30:13.000Z</time>
      </trkpt>
      <trkpt lat="43.22346" lon="0.1231">
        <ele>373.3</ele>
        <time>2022-10-11T09:30:18.000Z</time>
      </trkpt>
      <trkpt lat="43.22302" lon="0.12302">
        <ele>373.69</ele>
        <time>2022-10-11T09:30:23.000Z</time>
      </trkpt>
      <trkpt lat="43.22259" lon="0.12307">
        <ele>373.46</ele>
        <time>2022-10-11T09:30:28.000Z</time>
      </trkpt>
      <trkpt lat="43.22239" lon="0.12284">
        <ele>372.32</ele>
        <time>2022-10-11T09:30:33.000Z</time>
      </trkpt>
      <trkpt lat="43.22271" lon="0.12272">
        <ele>371.61</ele>
        <time>2022-10-11T09:30:38.000Z</time>
      </trkpt>
      <trkpt lat="43.22316" lon="0.12253">
        <ele>370.92</ele>
        <time>2022-10-11T09:30:43.000Z</time>
      </trkpt>
      <trkpt lat="43.22363" lon="0.1224">
        <ele>370.7</ele>
        <time>2022-10-11T09:30:48.000Z</time>
      </trkpt>
      <trkpt lat="43.22406" lon="0.12218">
        <ele>370.38</ele>
        <time>2022-10-11T09:30:53.000Z</time>
      </trkpt>
      <trkpt lat="43.22444" lon="0.12178">
        <ele>369.86</ele>
        <time>2022-10-11T09:30:58.000Z</time>
      </trkpt>
      <trkpt lat="43.22491" lon="0.12164">
        <ele>369.14</ele>
        <time>2022-10-11T09:31:03.000Z</time>
      </trkpt>
      <trkpt lat="43.22536" lon="0.12147">
        <ele>368.27</ele>
        <time>2022-10-11T09:31:08.000Z</time>
      </trkpt>
      <trkpt lat="43.22577" lon="0.12118">
        <ele>367.24</ele>
        <time>2022-10-11T09:31:13.000Z</time>
      </trkpt>
      <trkpt lat="43.22621" lon="0.12093">
        <ele>365.93</ele>
        <time>2022-10-11T09:31:18.000Z</time>
      </trkpt>
      <trkpt lat="43.22667" lon="0.12065">
        <ele>363.57</ele>
        <time>2022-10-11T09:31:23.000Z</time>
      </trkpt>
      <trkpt lat="43.22709" lon="0.1203">
        <ele>361.52</ele>
        <time>2022-10-11T09:31:28.000Z</time>
      </trkpt>
      <trkpt lat="43.22751" lon="0.12001">
        <ele>359.78</ele>
        <time>2022-10-11T09:31:33.000Z</time>
      </trkpt>
      <trkpt lat="43.22796" lon="0.11974">
        <ele>358.13</ele>
        <time>2022-10-11T09:31:38.000Z</time>
      </trkpt>
      <trkpt lat="43.22841" lon="0.11941">
        <ele>356.23</ele>
        <time>2022-10-11T09:31:43.000Z</time>
      </trkpt>
      <trkpt lat="43.22881" lon="0.11903">
        <ele>354.6</ele>
        <time>2022-10-11T09:31:48.000Z</time>
      </trkpt>
      <trkpt lat="43.22917" lon="0.11862">
        <ele>352.74</ele>
        <time>2022-10-11T09:31:53.000Z</time>
      </trkpt>
      <trkpt lat="43.22938" lon="0.11803">
        <ele>349.86</ele>
        <time>2022-10-11T09:31:58.000Z</time>
      </trkpt>
      <trkpt lat="43.22931" lon="0.11731">
        <ele>347.78</ele>
        <time>2022-10-11T09:32:03.000Z</time>
      </trkpt>
      <trkpt lat="43.22929" lon="0.11666">
        <ele>339.18</ele>
        <time>2022-10-11T09:32:08.000Z</time>
      </trkpt>
      <trkpt lat="43.22927" lon="0.11606">
        <ele>328.19</ele>
        <time>2022-10-11T09:32:13.000Z</time>
      </trkpt>
      <trkpt lat="43.2292" lon="0.11549">
        <ele>321.63</ele>
        <time>2022-10-11T09:32:18.000Z</time>
      </trkpt>
      <trkpt lat="43.22916" lon="0.11499">
        <ele>317.33</ele>
        <time>2022-10-11T09:32:23.000Z</time>
      </trkpt>
      <trkpt lat="43.22911" lon="0.11449">
        <ele>313.97</ele>
        <time>2022-10-11T09:32:28.000Z</time>
      </trkpt>
      <trkpt lat="43.22906" lon="0.11401">
        <ele>310.39</ele>
        <time>2022-10-11T09:32:33.000Z</time>
      </trkpt>
      <trkpt lat="43.22902" lon="0.11351">
        <ele>308.8</ele>
        <time>2022-10-11T09:32:38.000Z</time>
      </trkpt>
      <trkpt lat="43.22899" lon="0.11301">
        <ele>305.73</ele>
        <time>2022-10-11T09:32:43.000Z</time>
      </trkpt>
      <trkpt lat="43.22894" lon="0.11252">
        <ele>305.19</ele>
        <time>2022-10-11T09:32:48.000Z</time>
      </trkpt>
      <trkpt lat="43.22892" lon="0.11204">
        <ele>302.44</ele>
        <time>2022-10-11T09:32:53.000Z</time>
      </trkpt>
      <trkpt lat="43.22888" lon="0.1116">
        <ele>301.4</ele>
        <time>2022-10-11T09:32:58.000Z</time>
      </trkpt>
      <trkpt lat="43.22885" lon="0.11116">
        <ele>301.15</ele>
        <time>2022-10-11T09:33:03.000Z</time>
      </trkpt>
      <trkpt lat="43.22882" lon="0.11074">
        <ele>301.3</ele>
        <time>2022-10-11T09:33:08.000Z</time>
      </trkpt>
      <trkpt lat="43.2288" lon="0.11035">
        <ele>301.2</ele>
        <time>2022-10-11T09:33:13.000Z</time>
      </trkpt>
      <trkpt lat="43.22877" lon="0.10996">
        <ele>301.01</ele>
        <time>2022-10-11T09:33:18.000Z</time>
      </trkpt>
      <trkpt lat="43.22873" lon="0.10957">
        <ele>300.98</ele>
        <time>2022-10-11T09:33:23.000Z</time>
      </trkpt>
      <trkpt lat="43.22869" lon="0.10918">
        <ele>301.34</ele>
        <time>2022-10-11T09:33:28.000Z</time>
      </trkpt>
      <trkpt lat="43.22868" lon="0.1088">
        <ele>301.67</ele>
        <time>2022-10-11T09:33:33.000Z</time>
      </trkpt>
      <trkpt lat="43.22865" lon="0.10847">
        <ele>302.72</ele>
        <time>2022-10-11T09:33:38.000Z</time>
      </trkpt>
      <trkpt lat="43.22863" lon="0.10813">
        <ele>302.83</ele>
        <time>2022-10-11T09:33:43.000Z</time>
      </trkpt>
      <trkpt lat="43.2286" lon="0.10783">
        <ele>302.52</ele>
        <time>2022-10-11T09:33:48.000Z</time>
      </trkpt>
      <trkpt lat="43.22859" lon="0.1075">
        <ele>301.93</ele>
        <time>2022-10-11T09:33:53.000Z</time>
      </trkpt>
      <trkpt lat="43.22856" lon="0.10717">
        <ele>302.27</ele>
        <time>2022-10-11T09:33:58.000Z</time>
      </trkpt>
      <trkpt lat="43.22853" lon="0.10686">
        <ele>303.61</ele>
        <time>2022-10-11T09:34:03.000Z</time>
      </trkpt>
      <trkpt lat="43.22852" lon="0.10656">
        <ele>305.1</ele>
        <time>2022-10-11T09:34:08.000Z</time>
      </trkpt>
      <trkpt lat="43.2285" lon="0.10625">
        <ele>306.98</ele>
        <time>2022-10-11T09:34:13.000Z</time>
      </trkpt>
      <trkpt lat="43.22848" lon="0.10597">
        <ele>308.01</ele>
        <time>2022-10-11T09:34:18.000Z</time>
      </trkpt>
      <trkpt lat="43.22851" lon="0.10571">
        <ele>308.01</ele>
        <time>2022-10-11T09:34:23.000Z</time>
      </trkpt>
      <trkpt lat="43.22847" lon="0.10547">
        <ele>308.2</ele>
        <time>2022-10-11T09:34:28.000Z</time>
      </trkpt>
      <trkpt lat="43.22844" lon="0.1052">
        <ele>308.02</ele>
        <time>2022-10-11T09:34:33.000Z</time>
      </trkpt>
      <trkpt lat="43.22844" lon="0.10501">
        <ele>308.78</ele>
        <time>2022-10-11T09:34:38.000Z</time>
      </trkpt>
      <trkpt lat="43.22842" lon="0.10488">
        <ele>309.47</ele>
        <time>2022-10-11T09:34:44.000Z</time>
      </trkpt>
      <trkpt lat="43.22841" lon="0.1047">
        <ele>309.7</ele>
        <time>2022-10-11T09:34:49.000Z</time>
      </trkpt>
      <trkpt lat="43.2284" lon="0.10455">
        <ele>310.51</ele>
        <time>2022-10-11T09:34:54.000Z</time>
      </trkpt>
      <trkpt lat="43.22833" lon="0.10447">
        <ele>311.96</ele>
        <time>2022-10-11T09:35:00.000Z</time>
      </trkpt>
      <trkpt lat="43.22842" lon="0.10444">
        <ele>318.85</ele>
        <time>2022-10-11T09:53:19.000Z</time>
      </trkpt>
      <trkpt lat="43.2284" lon="0.10431">
        <ele>318.14</ele>
        <time>2022-10-11T09:53:27.000Z</time>
      </trkpt>
      <trkpt lat="43.22834" lon="0.10419">
        <ele>318.9</ele>
        <time>2022-10-11T09:55:57.000Z</time>
      </trkpt>
      <trkpt lat="43.22836" lon="0.104">
        <ele>319</ele>
        <time>2022-10-11T09:56:02.000Z</time>
      </trkpt>
      <trkpt lat="43.22842" lon="0.10377">
        <ele>318.8</ele>
        <time>2022-10-11T09:56:07.000Z</time>
      </trkpt>
      <trkpt lat="43.22847" lon="0.1036">
        <ele>318.14</ele>
        <time>2022-10-11T09:56:12.000Z</time>
      </trkpt>
      <trkpt lat="43.22852" lon="0.10342">
        <ele>317.63</ele>
        <time>2022-10-11T09:56:17.000Z</time>
      </trkpt>
      <trkpt lat="43.22856" lon="0.10327">
        <ele>317.48</ele>
        <time>2022-10-11T09:56:22.000Z</time>
      </trkpt>
      <trkpt lat="43.22857" lon="0.10314">
        <ele>317.66</ele>
        <time>2022-10-11T09:56:27.000Z</time>
      </trkpt>
      <trkpt lat="43.22846" lon="0.10315">
        <ele>318.07</ele>
        <time>2022-10-11T09:57:00.000Z</time>
      </trkpt>
      <trkpt lat="43.22831" lon="0.10316">
        <ele>318.02</ele>
        <time>2022-10-11T09:57:05.000Z</time>
      </trkpt>
      <trkpt lat="43.22814" lon="0.10319">
        <ele>316.79</ele>
        <time>2022-10-11T09:57:10.000Z</time>
      </trkpt>
      <trkpt lat="43.22795" lon="0.10318">
        <ele>315.64</ele>
        <time>2022-10-11T09:57:15.000Z</time>
      </trkpt>
      <trkpt lat="43.22775" lon="0.10316">
        <ele>313.53</ele>
        <time>2022-10-11T09:57:20.000Z</time>
      </trkpt>
      <trkpt lat="43.22755" lon="0.1032">
        <ele>313.15</ele>
        <time>2022-10-11T09:57:25.000Z</time>
      </trkpt>
      <trkpt lat="43.22736" lon="0.10321">
        <ele>314.12</ele>
        <time>2022-10-11T09:57:30.000Z</time>
      </trkpt>
      <trkpt lat="43.22716" lon="0.10321">
        <ele>314.6</ele>
        <time>2022-10-11T09:57:35.000Z</time>
      </trkpt>
      <trkpt lat="43.22696" lon="0.10321">
        <ele>313.68</ele>
        <time>2022-10-11T09:57:40.000Z</time>
      </trkpt>
      <trkpt lat="43.22678" lon="0.10332">
        <ele>312.58</ele>
        <time>2022-10-11T09:57:45.000Z</time>
      </trkpt>
      <trkpt lat="43.22667" lon="0.10354">
        <ele>311.65</ele>
        <time>2022-10-11T09:57:50.000Z</time>
      </trkpt>
      <trkpt lat="43.22651" lon="0.10371">
        <ele>311.83</ele>
        <time>2022-10-11T09:57:55.000Z</time>
      </trkpt>
      <trkpt lat="43.22627" lon="0.10372">
        <ele>312.94</ele>
        <time>2022-10-11T09:58:00.000Z</time>
      </trkpt>
      <trkpt lat="43.22604" lon="0.10376">
        <ele>314.2</ele>
        <time>2022-10-11T09:58:05.000Z</time>
      </trkpt>
      <trkpt lat="43.22582" lon="0.10377">
        <ele>314.95</ele>
        <time>2022-10-11T09:58:10.000Z</time>
      </trkpt>
      <trkpt lat="43.22558" lon="0.10381">
        <ele>316.45</ele>
        <time>2022-10-11T09:58:15.000Z</time>
      </trkpt>
      <trkpt lat="43.22535" lon="0.10383">
        <ele>321.34</ele>
        <time>2022-10-11T09:58:20.000Z</time>
      </trkpt>
      <trkpt lat="43.22511" lon="0.10382">
        <ele>323.41</ele>
        <time>2022-10-11T09:58:25.000Z</time>
      </trkpt>
      <trkpt lat="43.22491" lon="0.10372">
        <ele>324.62</ele>
        <time>2022-10-11T09:58:30.000Z</time>
      </trkpt>
      <trkpt lat="43.22475" lon="0.1035">
        <ele>324.95</ele>
        <time>2022-10-11T09:58:35.000Z</time>
      </trkpt>
      <trkpt lat="43.22471" lon="0.10324">
        <ele>321.6</ele>
        <time>2022-10-11T09:58:40.000Z</time>
      </trkpt>
      <trkpt lat="43.2247" lon="0.10293">
        <ele>320.64</ele>
        <time>2022-10-11T09:58:45.000Z</time>
      </trkpt>
      <trkpt lat="43.22468" lon="0.10262">
        <ele>319.86</ele>
        <time>2022-10-11T09:58:50.000Z</time>
      </trkpt>
      <trkpt lat="43.22466" lon="0.10232">
        <ele>319.13</ele>
        <time>2022-10-11T09:58:55.000Z</time>
      </trkpt>
      <trkpt lat="43.22466" lon="0.10204">
        <ele>318.46</ele>
        <time>2022-10-11T09:59:00.000Z</time>
      </trkpt>
      <trkpt lat="43.22468" lon="0.10173">
        <ele>317.6</ele>
        <time>2022-10-11T09:59:05.000Z</time>
      </trkpt>
      <trkpt lat="43.22468" lon="0.10149">
        <ele>317.87</ele>
        <time>2022-10-11T09:59:10.000Z</time>
      </trkpt>
      <trkpt lat="43.22464" lon="0.10137">
        <ele>317.54</ele>
        <time>2022-10-11T09:59:19.000Z</time>
      </trkpt>
      <trkpt lat="43.22445" lon="0.10138">
        <ele>318.73</ele>
        <time>2022-10-11T09:59:24.000Z</time>
      </trkpt>
      <trkpt lat="43.2243" lon="0.10151">
        <ele>317.64</ele>
        <time>2022-10-11T09:59:29.000Z</time>
      </trkpt>
      <trkpt lat="43.22416" lon="0.10153">
        <ele>315.94</ele>
        <time>2022-10-11T09:59:34.000Z</time>
      </trkpt>
      <trkpt lat="43.22405" lon="0.10139">
        <ele>316.14</ele>
        <time>2022-10-11T09:59:39.000Z</time>
      </trkpt>
      <trkpt lat="43.22404" lon="0.10116">
        <ele>316.75</ele>
        <time>2022-10-11T09:59:44.000Z</time>
      </trkpt>
      <trkpt lat="43.22404" lon="0.10088">
        <ele>316.86</ele>
        <time>2022-10-11T09:59:49.000Z</time>
      </trkpt>
      <trkpt lat="43.22406" lon="0.10063">
        <ele>317.49</ele>
        <time>2022-10-11T09:59:54.000Z</time>
      </trkpt>
      <trkpt lat="43.22403" lon="0.10036">
        <ele>317.04</ele>
        <time>2022-10-11T09:59:59.000Z</time>
      </trkpt>
      <trkpt lat="43.224" lon="0.10005">
        <ele>317.34</ele>
        <time>2022-10-11T10:00:04.000Z</time>
      </trkpt>
      <trkpt lat="43.22399" lon="0.09978">
        <ele>317.16</ele>
        <time>2022-10-11T10:00:09.000Z</time>
      </trkpt>
      <trkpt lat="43.22399" lon="0.09946">
        <ele>315.73</ele>
        <time>2022-10-11T10:00:14.000Z</time>
      </trkpt>
      <trkpt lat="43.22397" lon="0.09915">
        <ele>315.45</ele>
        <time>2022-10-11T10:00:19.000Z</time>
      </trkpt>
      <trkpt lat="43.22399" lon="0.09881">
        <ele>314.74</ele>
        <time>2022-10-11T10:00:24.000Z</time>
      </trkpt>
      <trkpt lat="43.224" lon="0.09859">
        <ele>313.82</ele>
        <time>2022-10-11T10:00:29.000Z</time>
      </trkpt>
      <trkpt lat="43.22401" lon="0.09832">
        <ele>311.72</ele>
        <time>2022-10-11T10:00:34.000Z</time>
      </trkpt>
      <trkpt lat="43.224" lon="0.09803">
        <ele>310.17</ele>
        <time>2022-10-11T10:00:39.000Z</time>
      </trkpt>
      <trkpt lat="43.224" lon="0.09772">
        <ele>309.33</ele>
        <time>2022-10-11T10:00:44.000Z</time>
      </trkpt>
      <trkpt lat="43.224" lon="0.09743">
        <ele>309.61</ele>
        <time>2022-10-11T10:00:49.000Z</time>
      </trkpt>
      <trkpt lat="43.224" lon="0.09708">
        <ele>308.72</ele>
        <time>2022-10-11T10:00:54.000Z</time>
      </trkpt>
      <trkpt lat="43.224" lon="0.09659">
        <ele>308.21</ele>
        <time>2022-10-11T10:00:59.000Z</time>
      </trkpt>
      <trkpt lat="43.22399" lon="0.09591">
        <ele>307.09</ele>
        <time>2022-10-11T10:01:04.000Z</time>
      </trkpt>
      <trkpt lat="43.22399" lon="0.09533">
        <ele>306.01</ele>
        <time>2022-10-11T10:01:09.000Z</time>
      </trkpt>
      <trkpt lat="43.22402" lon="0.09489">
        <ele>305.34</ele>
        <time>2022-10-11T10:01:14.000Z</time>
      </trkpt>
      <trkpt lat="43.22402" lon="0.09454">
        <ele>306.3</ele>
        <time>2022-10-11T10:01:19.000Z</time>
      </trkpt>
      <trkpt lat="43.22407" lon="0.09421">
        <ele>306.64</ele>
        <time>2022-10-11T10:01:24.000Z</time>
      </trkpt>
      <trkpt lat="43.22396" lon="0.09386">
        <ele>307.27</ele>
        <time>2022-10-11T10:01:29.000Z</time>
      </trkpt>
      <trkpt lat="43.22388" lon="0.09348">
        <ele>307.95</ele>
        <time>2022-10-11T10:01:34.000Z</time>
      </trkpt>
      <trkpt lat="43.22375" lon="0.09316">
        <ele>308.38</ele>
        <time>2022-10-11T10:01:39.000Z</time>
      </trkpt>
      <trkpt lat="43.22363" lon="0.09285">
        <ele>309.24</ele>
        <time>2022-10-11T10:01:44.000Z</time>
      </trkpt>
      <trkpt lat="43.22351" lon="0.09254">
        <ele>309.49</ele>
        <time>2022-10-11T10:01:49.000Z</time>
      </trkpt>
      <trkpt lat="43.22334" lon="0.09229">
        <ele>308.69</ele>
        <time>2022-10-11T10:01:54.000Z</time>
      </trkpt>
      <trkpt lat="43.22321" lon="0.09201">
        <ele>307.8</ele>
        <time>2022-10-11T10:01:59.000Z</time>
      </trkpt>
      <trkpt lat="43.22316" lon="0.09172">
        <ele>306.54</ele>
        <time>2022-10-11T10:02:04.000Z</time>
      </trkpt>
      <trkpt lat="43.2232" lon="0.09141">
        <ele>304.9</ele>
        <time>2022-10-11T10:02:09.000Z</time>
      </trkpt>
      <trkpt lat="43.22311" lon="0.09117">
        <ele>302.92</ele>
        <time>2022-10-11T10:02:14.000Z</time>
      </trkpt>
      <trkpt lat="43.22297" lon="0.09101">
        <ele>301.83</ele>
        <time>2022-10-11T10:02:19.000Z</time>
      </trkpt>
      <trkpt lat="43.22293" lon="0.09086">
        <ele>301.68</ele>
        <time>2022-10-11T10:02:24.000Z</time>
      </trkpt>
      <trkpt lat="43.22286" lon="0.09075">
        <ele>308.29</ele>
        <time>2022-10-11T10:03:45.000Z</time>
      </trkpt>
      <trkpt lat="43.22285" lon="0.09054">
        <ele>308.33</ele>
        <time>2022-10-11T10:03:50.000Z</time>
      </trkpt>
      <trkpt lat="43.22282" lon="0.09026">
        <ele>307.66</ele>
        <time>2022-10-11T10:03:55.000Z</time>
      </trkpt>
      <trkpt lat="43.22284" lon="0.08993">
        <ele>307.13</ele>
        <time>2022-10-11T10:04:00.000Z</time>
      </trkpt>
      <trkpt lat="43.22288" lon="0.08961">
        <ele>306.78</ele>
        <time>2022-10-11T10:04:05.000Z</time>
      </trkpt>
      <trkpt lat="43.22296" lon="0.08931">
        <ele>306.53</ele>
        <time>2022-10-11T10:04:10.000Z</time>
      </trkpt>
      <trkpt lat="43.22302" lon="0.08898">
        <ele>306.87</ele>
        <time>2022-10-11T10:04:15.000Z</time>
      </trkpt>
      <trkpt lat="43.22309" lon="0.08866">
        <ele>306.43</ele>
        <time>2022-10-11T10:04:20.000Z</time>
      </trkpt>
      <trkpt lat="43.22317" lon="0.08828">
        <ele>306.01</ele>
        <time>2022-10-11T10:04:25.000Z</time>
      </trkpt>
      <trkpt lat="43.22321" lon="0.08786">
        <ele>304.94</ele>
        <time>2022-10-11T10:04:30.000Z</time>
      </trkpt>
      <trkpt lat="43.2233" lon="0.08746">
        <ele>304.43</ele>
        <time>2022-10-11T10:04:35.000Z</time>
      </trkpt>
      <trkpt lat="43.22337" lon="0.08703">
        <ele>303.95</ele>
        <time>2022-10-11T10:04:40.000Z</time>
      </trkpt>
      <trkpt lat="43.22345" lon="0.0866">
        <ele>303.41</ele>
        <time>2022-10-11T10:04:45.000Z</time>
      </trkpt>
      <trkpt lat="43.22354" lon="0.08617">
        <ele>303.21</ele>
        <time>2022-10-11T10:04:50.000Z</time>
      </trkpt>
      <trkpt lat="43.22359" lon="0.08575">
        <ele>302.46</ele>
        <time>2022-10-11T10:04:55.000Z</time>
      </trkpt>
      <trkpt lat="43.22364" lon="0.0854">
        <ele>301.95</ele>
        <time>2022-10-11T10:05:00.000Z</time>
      </trkpt>
      <trkpt lat="43.22369" lon="0.08513">
        <ele>302.25</ele>
        <time>2022-10-11T10:05:05.000Z</time>
      </trkpt>
      <trkpt lat="43.22373" lon="0.08492">
        <ele>302.92</ele>
        <time>2022-10-11T10:05:10.000Z</time>
      </trkpt>
      <trkpt lat="43.22375" lon="0.08478">
        <ele>305.83</ele>
        <time>2022-10-11T10:05:22.000Z</time>
      </trkpt>
      <trkpt lat="43.2238" lon="0.08458">
        <ele>305.62</ele>
        <time>2022-10-11T10:05:27.000Z</time>
      </trkpt>
      <trkpt lat="43.22384" lon="0.08431">
        <ele>305.6</ele>
        <time>2022-10-11T10:05:32.000Z</time>
      </trkpt>
      <trkpt lat="43.22393" lon="0.08397">
        <ele>306.22</ele>
        <time>2022-10-11T10:05:37.000Z</time>
      </trkpt>
      <trkpt lat="43.22401" lon="0.08364">
        <ele>307.35</ele>
        <time>2022-10-11T10:05:42.000Z</time>
      </trkpt>
      <trkpt lat="43.22406" lon="0.08333">
        <ele>308.87</ele>
        <time>2022-10-11T10:05:47.000Z</time>
      </trkpt>
      <trkpt lat="43.22421" lon="0.0832">
        <ele>309.27</ele>
        <time>2022-10-11T10:05:52.000Z</time>
      </trkpt>
      <trkpt lat="43.2243" lon="0.08295">
        <ele>309.12</ele>
        <time>2022-10-11T10:05:57.000Z</time>
      </trkpt>
      <trkpt lat="43.22425" lon="0.08266">
        <ele>308.07</ele>
        <time>2022-10-11T10:06:02.000Z</time>
      </trkpt>
      <trkpt lat="43.2242" lon="0.08239">
        <ele>307.27</ele>
        <time>2022-10-11T10:06:07.000Z</time>
      </trkpt>
      <trkpt lat="43.22431" lon="0.08224">
        <ele>306.91</ele>
        <time>2022-10-11T10:06:12.000Z</time>
      </trkpt>
      <trkpt lat="43.22455" lon="0.08216">
        <ele>307.02</ele>
        <time>2022-10-11T10:06:17.000Z</time>
      </trkpt>
      <trkpt lat="43.22483" lon="0.08203">
        <ele>307.22</ele>
        <time>2022-10-11T10:06:22.000Z</time>
      </trkpt>
      <trkpt lat="43.2251" lon="0.08195">
        <ele>307.03</ele>
        <time>2022-10-11T10:06:27.000Z</time>
      </trkpt>
      <trkpt lat="43.22537" lon="0.08185">
        <ele>307.63</ele>
        <time>2022-10-11T10:06:32.000Z</time>
      </trkpt>
      <trkpt lat="43.22563" lon="0.08178">
        <ele>308.3</ele>
        <time>2022-10-11T10:06:37.000Z</time>
      </trkpt>
      <trkpt lat="43.22582" lon="0.08167">
        <ele>306.11</ele>
        <time>2022-10-11T10:06:42.000Z</time>
      </trkpt>
      <trkpt lat="43.22583" lon="0.08145">
        <ele>304.29</ele>
        <time>2022-10-11T10:06:47.000Z</time>
      </trkpt>
      <trkpt lat="43.22576" lon="0.08116">
        <ele>304.13</ele>
        <time>2022-10-11T10:06:52.000Z</time>
      </trkpt>
      <trkpt lat="43.22571" lon="0.08086">
        <ele>303.66</ele>
        <time>2022-10-11T10:06:57.000Z</time>
      </trkpt>
      <trkpt lat="43.22566" lon="0.08053">
        <ele>303.84</ele>
        <time>2022-10-11T10:07:02.000Z</time>
      </trkpt>
      <trkpt lat="43.22561" lon="0.0802">
        <ele>305.21</ele>
        <time>2022-10-11T10:07:07.000Z</time>
      </trkpt>
      <trkpt lat="43.22556" lon="0.07994">
        <ele>305.65</ele>
        <time>2022-10-11T10:07:12.000Z</time>
      </trkpt>
      <trkpt lat="43.22553" lon="0.07982">
        <ele>305.68</ele>
        <time>2022-10-11T10:07:17.000Z</time>
      </trkpt>
      <trkpt lat="43.22551" lon="0.0796">
        <ele>307.09</ele>
        <time>2022-10-11T10:07:22.000Z</time>
      </trkpt>
      <trkpt lat="43.22549" lon="0.07942">
        <ele>306.91</ele>
        <time>2022-10-11T10:07:27.000Z</time>
      </trkpt>
      <trkpt lat="43.2255" lon="0.07912">
        <ele>307.54</ele>
        <time>2022-10-11T10:07:32.000Z</time>
      </trkpt>
      <trkpt lat="43.22546" lon="0.07883">
        <ele>307.23</ele>
        <time>2022-10-11T10:07:37.000Z</time>
      </trkpt>
      <trkpt lat="43.22536" lon="0.0786">
        <ele>306.44</ele>
        <time>2022-10-11T10:07:42.000Z</time>
      </trkpt>
      <trkpt lat="43.22537" lon="0.07843">
        <ele>305.44</ele>
        <time>2022-10-11T10:07:47.000Z</time>
      </trkpt>
      <trkpt lat="43.22553" lon="0.07823">
        <ele>305.13</ele>
        <time>2022-10-11T10:07:52.000Z</time>
      </trkpt>
      <trkpt lat="43.22572" lon="0.07797">
        <ele>304.39</ele>
        <time>2022-10-11T10:07:57.000Z</time>
      </trkpt>
      <trkpt lat="43.22592" lon="0.0778">
        <ele>303.63</ele>
        <time>2022-10-11T10:08:02.000Z</time>
      </trkpt>
      <trkpt lat="43.22614" lon="0.07775">
        <ele>303.3</ele>
        <time>2022-10-11T10:08:07.000Z</time>
      </trkpt>
      <trkpt lat="43.22629" lon="0.07772">
        <ele>303.2</ele>
        <time>2022-10-11T10:08:12.000Z</time>
      </trkpt>
      <trkpt lat="43.22639" lon="0.07751">
        <ele>303.04</ele>
        <time>2022-10-11T10:08:17.000Z</time>
      </trkpt>
      <trkpt lat="43.22635" lon="0.07721">
        <ele>302.39</ele>
        <time>2022-10-11T10:08:22.000Z</time>
      </trkpt>
      <trkpt lat="43.2263" lon="0.07691">
        <ele>301.74</ele>
        <time>2022-10-11T10:08:27.000Z</time>
      </trkpt>
      <trkpt lat="43.22626" lon="0.07671">
        <ele>302.05</ele>
        <time>2022-10-11T10:08:32.000Z</time>
      </trkpt>
      <trkpt lat="43.22621" lon="0.07648">
        <ele>302.69</ele>
        <time>2022-10-11T10:08:37.000Z</time>
      </trkpt>
      <trkpt lat="43.22619" lon="0.07619">
        <ele>302.06</ele>
        <time>2022-10-11T10:08:42.000Z</time>
      </trkpt>
      <trkpt lat="43.22619" lon="0.0759">
        <ele>301.9</ele>
        <time>2022-10-11T10:08:47.000Z</time>
      </trkpt>
      <trkpt lat="43.22616" lon="0.0756">
        <ele>301.88</ele>
        <time>2022-10-11T10:08:52.000Z</time>
      </trkpt>
      <trkpt lat="43.22614" lon="0.07529">
        <ele>301.41</ele>
        <time>2022-10-11T10:08:57.000Z</time>
      </trkpt>
      <trkpt lat="43.22609" lon="0.07499">
        <ele>300.83</ele>
        <time>2022-10-11T10:09:02.000Z</time>
      </trkpt>
      <trkpt lat="43.22607" lon="0.07478">
        <ele>300.33</ele>
        <time>2022-10-11T10:09:07.000Z</time>
      </trkpt>
      <trkpt lat="43.22603" lon="0.07449">
        <ele>299.9</ele>
        <time>2022-10-11T10:09:12.000Z</time>
      </trkpt>
      <trkpt lat="43.226" lon="0.07417">
        <ele>299.33</ele>
        <time>2022-10-11T10:09:17.000Z</time>
      </trkpt>
      <trkpt lat="43.226" lon="0.07384">
        <ele>299.2</ele>
        <time>2022-10-11T10:09:22.000Z</time>
      </trkpt>
      <trkpt lat="43.22594" lon="0.0735">
        <ele>299.59</ele>
        <time>2022-10-11T10:09:27.000Z</time>
      </trkpt>
      <trkpt lat="43.22585" lon="0.07318">
        <ele>299.89</ele>
        <time>2022-10-11T10:09:32.000Z</time>
      </trkpt>
      <trkpt lat="43.22575" lon="0.07288">
        <ele>299.5</ele>
        <time>2022-10-11T10:09:37.000Z</time>
      </trkpt>
      <trkpt lat="43.22558" lon="0.07255">
        <ele>299.23</ele>
        <time>2022-10-11T10:09:42.000Z</time>
      </trkpt>
      <trkpt lat="43.2254" lon="0.07221">
        <ele>298.66</ele>
        <time>2022-10-11T10:09:47.000Z</time>
      </trkpt>
      <trkpt lat="43.22526" lon="0.0719">
        <ele>298.85</ele>
        <time>2022-10-11T10:09:52.000Z</time>
      </trkpt>
      <trkpt lat="43.22509" lon="0.07162">
        <ele>298.73</ele>
        <time>2022-10-11T10:09:57.000Z</time>
      </trkpt>
      <trkpt lat="43.22496" lon="0.07133">
        <ele>298.4</ele>
        <time>2022-10-11T10:10:02.000Z</time>
      </trkpt>
      <trkpt lat="43.22481" lon="0.07099">
        <ele>299.74</ele>
        <time>2022-10-11T10:10:07.000Z</time>
      </trkpt>
      <trkpt lat="43.22467" lon="0.07068">
        <ele>300.1</ele>
        <time>2022-10-11T10:10:12.000Z</time>
      </trkpt>
      <trkpt lat="43.22454" lon="0.07041">
        <ele>300.96</ele>
        <time>2022-10-11T10:10:17.000Z</time>
      </trkpt>
      <trkpt lat="43.22439" lon="0.07021">
        <ele>302.11</ele>
        <time>2022-10-11T10:10:22.000Z</time>
      </trkpt>
      <trkpt lat="43.22424" lon="0.07008">
        <ele>304.32</ele>
        <time>2022-10-11T10:10:27.000Z</time>
      </trkpt>
      <trkpt lat="43.22415" lon="0.07">
        <ele>306.89</ele>
        <time>2022-10-11T10:10:43.000Z</time>
      </trkpt>
      <trkpt lat="43.22408" lon="0.06972">
        <ele>306.87</ele>
        <time>2022-10-11T10:10:48.000Z</time>
      </trkpt>
      <trkpt lat="43.22411" lon="0.06939">
        <ele>307.32</ele>
        <time>2022-10-11T10:10:53.000Z</time>
      </trkpt>
      <trkpt lat="43.22415" lon="0.0691">
        <ele>307.71</ele>
        <time>2022-10-11T10:10:58.000Z</time>
      </trkpt>
      <trkpt lat="43.22418" lon="0.06879">
        <ele>308.46</ele>
        <time>2022-10-11T10:11:03.000Z</time>
      </trkpt>
      <trkpt lat="43.22419" lon="0.06861">
        <ele>309.24</ele>
        <time>2022-10-11T10:11:08.000Z</time>
      </trkpt>
      <trkpt lat="43.22428" lon="0.06851">
        <ele>308.16</ele>
        <time>2022-10-11T10:11:30.000Z</time>
      </trkpt>
      <trkpt lat="43.22426" lon="0.06837">
        <ele>304.28</ele>
        <time>2022-10-11T10:11:47.000Z</time>
      </trkpt>
      <trkpt lat="43.22424" lon="0.06814">
        <ele>303.53</ele>
        <time>2022-10-11T10:11:52.000Z</time>
      </trkpt>
      <trkpt lat="43.22425" lon="0.06785">
        <ele>303.75</ele>
        <time>2022-10-11T10:11:57.000Z</time>
      </trkpt>
      <trkpt lat="43.22431" lon="0.06747">
        <ele>304.88</ele>
        <time>2022-10-11T10:12:02.000Z</time>
      </trkpt>
      <trkpt lat="43.22435" lon="0.06708">
        <ele>304.32</ele>
        <time>2022-10-11T10:12:07.000Z</time>
      </trkpt>
      <trkpt lat="43.22438" lon="0.06672">
        <ele>304.6</ele>
        <time>2022-10-11T10:12:12.000Z</time>
      </trkpt>
      <trkpt lat="43.22443" lon="0.06642">
        <ele>304.26</ele>
        <time>2022-10-11T10:12:17.000Z</time>
      </trkpt>
      <trkpt lat="43.22446" lon="0.06611">
        <ele>304.19</ele>
        <time>2022-10-11T10:12:22.000Z</time>
      </trkpt>
      <trkpt lat="43.22451" lon="0.06582">
        <ele>304.82</ele>
        <time>2022-10-11T10:12:27.000Z</time>
      </trkpt>
      <trkpt lat="43.22455" lon="0.0656">
        <ele>304.4</ele>
        <time>2022-10-11T10:12:32.000Z</time>
      </trkpt>
      <trkpt lat="43.2246" lon="0.0655">
        <ele>302.41</ele>
        <time>2022-10-11T10:12:49.000Z</time>
      </trkpt>
      <trkpt lat="43.22463" lon="0.06525">
        <ele>302.6</ele>
        <time>2022-10-11T10:12:54.000Z</time>
      </trkpt>
      <trkpt lat="43.22464" lon="0.06486">
        <ele>302.64</ele>
        <time>2022-10-11T10:12:59.000Z</time>
      </trkpt>
      <trkpt lat="43.22466" lon="0.06444">
        <ele>302.9</ele>
        <time>2022-10-11T10:13:04.000Z</time>
      </trkpt>
      <trkpt lat="43.22472" lon="0.06401">
        <ele>303.02</ele>
        <time>2022-10-11T10:13:09.000Z</time>
      </trkpt>
      <trkpt lat="43.22475" lon="0.06361">
        <ele>303.12</ele>
        <time>2022-10-11T10:13:14.000Z</time>
      </trkpt>
      <trkpt lat="43.22481" lon="0.06317">
        <ele>303.27</ele>
        <time>2022-10-11T10:13:19.000Z</time>
      </trkpt>
      <trkpt lat="43.22487" lon="0.06273">
        <ele>303.69</ele>
        <time>2022-10-11T10:13:24.000Z</time>
      </trkpt>
      <trkpt lat="43.2249" lon="0.06234">
        <ele>303.6</ele>
        <time>2022-10-11T10:13:29.000Z</time>
      </trkpt>
      <trkpt lat="43.22496" lon="0.06192">
        <ele>304.02</ele>
        <time>2022-10-11T10:13:34.000Z</time>
      </trkpt>
      <trkpt lat="43.22503" lon="0.06152">
        <ele>304.19</ele>
        <time>2022-10-11T10:13:39.000Z</time>
      </trkpt>
      <trkpt lat="43.22504" lon="0.06113">
        <ele>304.37</ele>
        <time>2022-10-11T10:13:44.000Z</time>
      </trkpt>
      <trkpt lat="43.22507" lon="0.06071">
        <ele>304.18</ele>
        <time>2022-10-11T10:13:49.000Z</time>
      </trkpt>
      <trkpt lat="43.22511" lon="0.06028">
        <ele>303.81</ele>
        <time>2022-10-11T10:13:54.000Z</time>
      </trkpt>
      <trkpt lat="43.22515" lon="0.05986">
        <ele>303.41</ele>
        <time>2022-10-11T10:13:59.000Z</time>
      </trkpt>
      <trkpt lat="43.22515" lon="0.05945">
        <ele>303.18</ele>
        <time>2022-10-11T10:14:04.000Z</time>
      </trkpt>
      <trkpt lat="43.22513" lon="0.05906">
        <ele>302.34</ele>
        <time>2022-10-11T10:14:09.000Z</time>
      </trkpt>
      <trkpt lat="43.22512" lon="0.05866">
        <ele>301.82</ele>
        <time>2022-10-11T10:14:14.000Z</time>
      </trkpt>
      <trkpt lat="43.22513" lon="0.05822">
        <ele>301.25</ele>
        <time>2022-10-11T10:14:19.000Z</time>
      </trkpt>
      <trkpt lat="43.22514" lon="0.05776">
        <ele>302.01</ele>
        <time>2022-10-11T10:14:24.000Z</time>
      </trkpt>
      <trkpt lat="43.22521" lon="0.05748">
        <ele>301.38</ele>
        <time>2022-10-11T10:14:29.000Z</time>
      </trkpt>
      <trkpt lat="43.22542" lon="0.05743">
        <ele>300.98</ele>
        <time>2022-10-11T10:14:34.000Z</time>
      </trkpt>
      <trkpt lat="43.22563" lon="0.05736">
        <ele>300.6</ele>
        <time>2022-10-11T10:14:39.000Z</time>
      </trkpt>
      <trkpt lat="43.22585" lon="0.05728">
        <ele>300.87</ele>
        <time>2022-10-11T10:14:44.000Z</time>
      </trkpt>
      <trkpt lat="43.22609" lon="0.05722">
        <ele>301.29</ele>
        <time>2022-10-11T10:14:49.000Z</time>
      </trkpt>
      <trkpt lat="43.22633" lon="0.05713">
        <ele>301.33</ele>
        <time>2022-10-11T10:14:54.000Z</time>
      </trkpt>
      <trkpt lat="43.22659" lon="0.05704">
        <ele>301.22</ele>
        <time>2022-10-11T10:14:59.000Z</time>
      </trkpt>
      <trkpt lat="43.22682" lon="0.05695">
        <ele>301.47</ele>
        <time>2022-10-11T10:15:04.000Z</time>
      </trkpt>
      <trkpt lat="43.22706" lon="0.05688">
        <ele>301.3</ele>
        <time>2022-10-11T10:15:09.000Z</time>
      </trkpt>
      <trkpt lat="43.22729" lon="0.0568">
        <ele>301.69</ele>
        <time>2022-10-11T10:15:14.000Z</time>
      </trkpt>
      <trkpt lat="43.2275" lon="0.05674">
        <ele>301.63</ele>
        <time>2022-10-11T10:15:19.000Z</time>
      </trkpt>
      <trkpt lat="43.22772" lon="0.05667">
        <ele>300.74</ele>
        <time>2022-10-11T10:15:24.000Z</time>
      </trkpt>
      <trkpt lat="43.22793" lon="0.05659">
        <ele>299.23</ele>
        <time>2022-10-11T10:15:29.000Z</time>
      </trkpt>
      <trkpt lat="43.22814" lon="0.05653">
        <ele>299.89</ele>
        <time>2022-10-11T10:15:34.000Z</time>
      </trkpt>
      <trkpt lat="43.22822" lon="0.05646">
        <ele>297.99</ele>
        <time>2022-10-11T10:15:43.000Z</time>
      </trkpt>
      <trkpt lat="43.22839" lon="0.05638">
        <ele>297.97</ele>
        <time>2022-10-11T10:15:48.000Z</time>
      </trkpt>
      <trkpt lat="43.2286" lon="0.05627">
        <ele>297.43</ele>
        <time>2022-10-11T10:15:53.000Z</time>
      </trkpt>
      <trkpt lat="43.22886" lon="0.05613">
        <ele>298.26</ele>
        <time>2022-10-11T10:15:58.000Z</time>
      </trkpt>
      <trkpt lat="43.22907" lon="0.05599">
        <ele>298.44</ele>
        <time>2022-10-11T10:16:03.000Z</time>
      </trkpt>
      <trkpt lat="43.22918" lon="0.05593">
        <ele>298.94</ele>
        <time>2022-10-11T10:16:08.000Z</time>
      </trkpt>
      <trkpt lat="43.22927" lon="0.05586">
        <ele>303.73</ele>
        <time>2022-10-11T10:16:26.000Z</time>
      </trkpt>
      <trkpt lat="43.22946" lon="0.05575">
        <ele>304.66</ele>
        <time>2022-10-11T10:16:31.000Z</time>
      </trkpt>
      <trkpt lat="43.22971" lon="0.05562">
        <ele>304.97</ele>
        <time>2022-10-11T10:16:36.000Z</time>
      </trkpt>
      <trkpt lat="43.22996" lon="0.05546">
        <ele>305.48</ele>
        <time>2022-10-11T10:16:41.000Z</time>
      </trkpt>
      <trkpt lat="43.23022" lon="0.05528">
        <ele>305.89</ele>
        <time>2022-10-11T10:16:46.000Z</time>
      </trkpt>
      <trkpt lat="43.23049" lon="0.05516">
        <ele>305.82</ele>
        <time>2022-10-11T10:16:51.000Z</time>
      </trkpt>
      <trkpt lat="43.23076" lon="0.05495">
        <ele>304.83</ele>
        <time>2022-10-11T10:16:56.000Z</time>
      </trkpt>
      <trkpt lat="43.23102" lon="0.05478">
        <ele>303.84</ele>
        <time>2022-10-11T10:17:01.000Z</time>
      </trkpt>
      <trkpt lat="43.23126" lon="0.05469">
        <ele>304.16</ele>
        <time>2022-10-11T10:17:06.000Z</time>
      </trkpt>
      <trkpt lat="43.2314" lon="0.05467">
        <ele>305.24</ele>
        <time>2022-10-11T10:17:11.000Z</time>
      </trkpt>
      <trkpt lat="43.23151" lon="0.05467">
        <ele>306.17</ele>
        <time>2022-10-11T10:17:16.000Z</time>
      </trkpt>
      <trkpt lat="43.23153" lon="0.05444">
        <ele>306.3</ele>
        <time>2022-10-11T10:17:21.000Z</time>
      </trkpt>
      <trkpt lat="43.23152" lon="0.05414">
        <ele>306.65</ele>
        <time>2022-10-11T10:17:26.000Z</time>
      </trkpt>
      <trkpt lat="43.23154" lon="0.05383">
        <ele>306.89</ele>
        <time>2022-10-11T10:17:31.000Z</time>
      </trkpt>
      <trkpt lat="43.23155" lon="0.05346">
        <ele>306.46</ele>
        <time>2022-10-11T10:17:36.000Z</time>
      </trkpt>
      <trkpt lat="43.23156" lon="0.05305">
        <ele>304.47</ele>
        <time>2022-10-11T10:17:41.000Z</time>
      </trkpt>
      <trkpt lat="43.23151" lon="0.05267">
        <ele>303.56</ele>
        <time>2022-10-11T10:17:46.000Z</time>
      </trkpt>
      <trkpt lat="43.2315" lon="0.05232">
        <ele>302.99</ele>
        <time>2022-10-11T10:17:51.000Z</time>
      </trkpt>
      <trkpt lat="43.23149" lon="0.05189">
        <ele>302.51</ele>
        <time>2022-10-11T10:17:56.000Z</time>
      </trkpt>
      <trkpt lat="43.23146" lon="0.05148">
        <ele>301.17</ele>
        <time>2022-10-11T10:18:01.000Z</time>
      </trkpt>
      <trkpt lat="43.23143" lon="0.05106">
        <ele>300.36</ele>
        <time>2022-10-11T10:18:06.000Z</time>
      </trkpt>
      <trkpt lat="43.23141" lon="0.05066">
        <ele>298.38</ele>
        <time>2022-10-11T10:18:11.000Z</time>
      </trkpt>
      <trkpt lat="43.23139" lon="0.05025">
        <ele>296.47</ele>
        <time>2022-10-11T10:18:16.000Z</time>
      </trkpt>
      <trkpt lat="43.23137" lon="0.04989">
        <ele>296.2</ele>
        <time>2022-10-11T10:18:21.000Z</time>
      </trkpt>
      <trkpt lat="43.23138" lon="0.0495">
        <ele>294.15</ele>
        <time>2022-10-11T10:18:26.000Z</time>
      </trkpt>
      <trkpt lat="43.23137" lon="0.04906">
        <ele>292.68</ele>
        <time>2022-10-11T10:18:31.000Z</time>
      </trkpt>
      <trkpt lat="43.23141" lon="0.04863">
        <ele>291.79</ele>
        <time>2022-10-11T10:18:36.000Z</time>
      </trkpt>
      <trkpt lat="43.23143" lon="0.04823">
        <ele>292.16</ele>
        <time>2022-10-11T10:18:41.000Z</time>
      </trkpt>
      <trkpt lat="43.23148" lon="0.04782">
        <ele>290.38</ele>
        <time>2022-10-11T10:18:46.000Z</time>
      </trkpt>
      <trkpt lat="43.23152" lon="0.04745">
        <ele>288.37</ele>
        <time>2022-10-11T10:18:51.000Z</time>
      </trkpt>
      <trkpt lat="43.23158" lon="0.0471">
        <ele>288.36</ele>
        <time>2022-10-11T10:18:56.000Z</time>
      </trkpt>
      <trkpt lat="43.23163" lon="0.04677">
        <ele>286.18</ele>
        <time>2022-10-11T10:19:01.000Z</time>
      </trkpt>
      <trkpt lat="43.23169" lon="0.04639">
        <ele>284.96</ele>
        <time>2022-10-11T10:19:06.000Z</time>
      </trkpt>
      <trkpt lat="43.23176" lon="0.04599">
        <ele>283.95</ele>
        <time>2022-10-11T10:19:11.000Z</time>
      </trkpt>
      <trkpt lat="43.2318" lon="0.04563">
        <ele>284.72</ele>
        <time>2022-10-11T10:19:16.000Z</time>
      </trkpt>
      <trkpt lat="43.23183" lon="0.04527">
        <ele>284.24</ele>
        <time>2022-10-11T10:19:21.000Z</time>
      </trkpt>
      <trkpt lat="43.23188" lon="0.04489">
        <ele>285.95</ele>
        <time>2022-10-11T10:19:26.000Z</time>
      </trkpt>
      <trkpt lat="43.23188" lon="0.04453">
        <ele>287.64</ele>
        <time>2022-10-11T10:19:31.000Z</time>
      </trkpt>
      <trkpt lat="43.23187" lon="0.04414">
        <ele>288.84</ele>
        <time>2022-10-11T10:19:36.000Z</time>
      </trkpt>
      <trkpt lat="43.23187" lon="0.04374">
        <ele>288.85</ele>
        <time>2022-10-11T10:19:41.000Z</time>
      </trkpt>
      <trkpt lat="43.23187" lon="0.04335">
        <ele>289.05</ele>
        <time>2022-10-11T10:19:46.000Z</time>
      </trkpt>
      <trkpt lat="43.2319" lon="0.04294">
        <ele>289.22</ele>
        <time>2022-10-11T10:19:51.000Z</time>
      </trkpt>
      <trkpt lat="43.2319" lon="0.04253">
        <ele>289.57</ele>
        <time>2022-10-11T10:19:56.000Z</time>
      </trkpt>
      <trkpt lat="43.23192" lon="0.04214">
        <ele>289.41</ele>
        <time>2022-10-11T10:20:01.000Z</time>
      </trkpt>
      <trkpt lat="43.23192" lon="0.04178">
        <ele>289.4</ele>
        <time>2022-10-11T10:20:06.000Z</time>
      </trkpt>
      <trkpt lat="43.23196" lon="0.0414">
        <ele>289.21</ele>
        <time>2022-10-11T10:20:11.000Z</time>
      </trkpt>
      <trkpt lat="43.232" lon="0.04097">
        <ele>289.01</ele>
        <time>2022-10-11T10:20:16.000Z</time>
      </trkpt>
      <trkpt lat="43.23201" lon="0.04052">
        <ele>288.86</ele>
        <time>2022-10-11T10:20:21.000Z</time>
      </trkpt>
      <trkpt lat="43.23197" lon="0.04013">
        <ele>289.17</ele>
        <time>2022-10-11T10:20:26.000Z</time>
      </trkpt>
      <trkpt lat="43.23196" lon="0.03978">
        <ele>289.9</ele>
        <time>2022-10-11T10:20:31.000Z</time>
      </trkpt>
      <trkpt lat="43.23192" lon="0.03937">
        <ele>290</ele>
        <time>2022-10-11T10:20:36.000Z</time>
      </trkpt>
      <trkpt lat="43.23188" lon="0.0389">
        <ele>290.69</ele>
        <time>2022-10-11T10:20:41.000Z</time>
      </trkpt>
      <trkpt lat="43.23181" lon="0.03851">
        <ele>291.44</ele>
        <time>2022-10-11T10:20:46.000Z</time>
      </trkpt>
      <trkpt lat="43.23175" lon="0.03813">
        <ele>291.7</ele>
        <time>2022-10-11T10:20:51.000Z</time>
      </trkpt>
      <trkpt lat="43.23171" lon="0.03774">
        <ele>291.98</ele>
        <time>2022-10-11T10:20:56.000Z</time>
      </trkpt>
      <trkpt lat="43.23174" lon="0.03732">
        <ele>291.63</ele>
        <time>2022-10-11T10:21:01.000Z</time>
      </trkpt>
      <trkpt lat="43.23176" lon="0.03692">
        <ele>291.79</ele>
        <time>2022-10-11T10:21:06.000Z</time>
      </trkpt>
      <trkpt lat="43.23178" lon="0.03652">
        <ele>291.81</ele>
        <time>2022-10-11T10:21:11.000Z</time>
      </trkpt>
      <trkpt lat="43.23182" lon="0.03612">
        <ele>291.8</ele>
        <time>2022-10-11T10:21:16.000Z</time>
      </trkpt>
      <trkpt lat="43.23183" lon="0.03576">
        <ele>291.82</ele>
        <time>2022-10-11T10:21:21.000Z</time>
      </trkpt>
      <trkpt lat="43.23184" lon="0.03541">
        <ele>292.37</ele>
        <time>2022-10-11T10:21:26.000Z</time>
      </trkpt>
      <trkpt lat="43.23191" lon="0.03504">
        <ele>292.4</ele>
        <time>2022-10-11T10:21:31.000Z</time>
      </trkpt>
      <trkpt lat="43.23203" lon="0.03467">
        <ele>292.47</ele>
        <time>2022-10-11T10:21:36.000Z</time>
      </trkpt>
      <trkpt lat="43.23214" lon="0.03427">
        <ele>292.39</ele>
        <time>2022-10-11T10:21:41.000Z</time>
      </trkpt>
      <trkpt lat="43.23224" lon="0.03387">
        <ele>293.21</ele>
        <time>2022-10-11T10:21:46.000Z</time>
      </trkpt>
      <trkpt lat="43.23235" lon="0.03346">
        <ele>293.92</ele>
        <time>2022-10-11T10:21:51.000Z</time>
      </trkpt>
      <trkpt lat="43.23243" lon="0.03305">
        <ele>293.98</ele>
        <time>2022-10-11T10:21:56.000Z</time>
      </trkpt>
      <trkpt lat="43.23251" lon="0.03262">
        <ele>293.97</ele>
        <time>2022-10-11T10:22:01.000Z</time>
      </trkpt>
      <trkpt lat="43.2326" lon="0.03221">
        <ele>295.27</ele>
        <time>2022-10-11T10:22:06.000Z</time>
      </trkpt>
      <trkpt lat="43.23269" lon="0.03182">
        <ele>296.12</ele>
        <time>2022-10-11T10:22:11.000Z</time>
      </trkpt>
      <trkpt lat="43.23278" lon="0.03146">
        <ele>296.64</ele>
        <time>2022-10-11T10:22:16.000Z</time>
      </trkpt>
      <trkpt lat="43.23286" lon="0.03113">
        <ele>297.99</ele>
        <time>2022-10-11T10:22:21.000Z</time>
      </trkpt>
      <trkpt lat="43.23294" lon="0.0308">
        <ele>298.46</ele>
        <time>2022-10-11T10:22:26.000Z</time>
      </trkpt>
      <trkpt lat="43.233" lon="0.03044">
        <ele>298.55</ele>
        <time>2022-10-11T10:22:31.000Z</time>
      </trkpt>
      <trkpt lat="43.23307" lon="0.03007">
        <ele>299.15</ele>
        <time>2022-10-11T10:22:36.000Z</time>
      </trkpt>
      <trkpt lat="43.23311" lon="0.02972">
        <ele>299.51</ele>
        <time>2022-10-11T10:22:41.000Z</time>
      </trkpt>
      <trkpt lat="43.23314" lon="0.02938">
        <ele>299.26</ele>
        <time>2022-10-11T10:22:46.000Z</time>
      </trkpt>
      <trkpt lat="43.23317" lon="0.02907">
        <ele>299.49</ele>
        <time>2022-10-11T10:22:51.000Z</time>
      </trkpt>
      <trkpt lat="43.2332" lon="0.02879">
        <ele>301.2</ele>
        <time>2022-10-11T10:22:56.000Z</time>
      </trkpt>
      <trkpt lat="43.23321" lon="0.02855">
        <ele>301.43</ele>
        <time>2022-10-11T10:23:01.000Z</time>
      </trkpt>
      <trkpt lat="43.23326" lon="0.02832">
        <ele>302.58</ele>
        <time>2022-10-11T10:23:06.000Z</time>
      </trkpt>
      <trkpt lat="43.23329" lon="0.02805">
        <ele>303.89</ele>
        <time>2022-10-11T10:23:11.000Z</time>
      </trkpt>
      <trkpt lat="43.23335" lon="0.02777">
        <ele>304.42</ele>
        <time>2022-10-11T10:23:16.000Z</time>
      </trkpt>
      <trkpt lat="43.23342" lon="0.02747">
        <ele>304.92</ele>
        <time>2022-10-11T10:23:21.000Z</time>
      </trkpt>
      <trkpt lat="43.23347" lon="0.02714">
        <ele>304.46</ele>
        <time>2022-10-11T10:23:26.000Z</time>
      </trkpt>
      <trkpt lat="43.23352" lon="0.0268">
        <ele>303.62</ele>
        <time>2022-10-11T10:23:31.000Z</time>
      </trkpt>
      <trkpt lat="43.23356" lon="0.02641">
        <ele>303.61</ele>
        <time>2022-10-11T10:23:36.000Z</time>
      </trkpt>
      <trkpt lat="43.2336" lon="0.026">
        <ele>303.48</ele>
        <time>2022-10-11T10:23:41.000Z</time>
      </trkpt>
      <trkpt lat="43.23361" lon="0.0256">
        <ele>303.07</ele>
        <time>2022-10-11T10:23:46.000Z</time>
      </trkpt>
      <trkpt lat="43.23362" lon="0.0252">
        <ele>302.43</ele>
        <time>2022-10-11T10:23:51.000Z</time>
      </trkpt>
      <trkpt lat="43.23364" lon="0.02477">
        <ele>303.19</ele>
        <time>2022-10-11T10:23:56.000Z</time>
      </trkpt>
      <trkpt lat="43.23364" lon="0.02437">
        <ele>303.41</ele>
        <time>2022-10-11T10:24:01.000Z</time>
      </trkpt>
      <trkpt lat="43.23362" lon="0.02398">
        <ele>302.97</ele>
        <time>2022-10-11T10:24:06.000Z</time>
      </trkpt>
      <trkpt lat="43.23362" lon="0.02357">
        <ele>302.11</ele>
        <time>2022-10-11T10:24:11.000Z</time>
      </trkpt>
      <trkpt lat="43.23361" lon="0.02316">
        <ele>301.03</ele>
        <time>2022-10-11T10:24:16.000Z</time>
      </trkpt>
      <trkpt lat="43.23359" lon="0.02274">
        <ele>300.28</ele>
        <time>2022-10-11T10:24:21.000Z</time>
      </trkpt>
      <trkpt lat="43.23357" lon="0.0223">
        <ele>300.14</ele>
        <time>2022-10-11T10:24:26.000Z</time>
      </trkpt>
      <trkpt lat="43.23353" lon="0.02187">
        <ele>300.32</ele>
        <time>2022-10-11T10:24:31.000Z</time>
      </trkpt>
      <trkpt lat="43.23351" lon="0.02144">
        <ele>300.38</ele>
        <time>2022-10-11T10:24:36.000Z</time>
      </trkpt>
      <trkpt lat="43.23351" lon="0.02099">
        <ele>300.77</ele>
        <time>2022-10-11T10:24:41.000Z</time>
      </trkpt>
      <trkpt lat="43.2335" lon="0.02057">
        <ele>301.58</ele>
        <time>2022-10-11T10:24:46.000Z</time>
      </trkpt>
      <trkpt lat="43.2335" lon="0.02014">
        <ele>303.54</ele>
        <time>2022-10-11T10:24:51.000Z</time>
      </trkpt>
      <trkpt lat="43.23349" lon="0.01976">
        <ele>304.23</ele>
        <time>2022-10-11T10:24:56.000Z</time>
      </trkpt>
      <trkpt lat="43.23352" lon="0.01938">
        <ele>304.81</ele>
        <time>2022-10-11T10:25:01.000Z</time>
      </trkpt>
      <trkpt lat="43.23351" lon="0.01901">
        <ele>304.54</ele>
        <time>2022-10-11T10:25:06.000Z</time>
      </trkpt>
      <trkpt lat="43.2335" lon="0.01865">
        <ele>302.67</ele>
        <time>2022-10-11T10:25:11.000Z</time>
      </trkpt>
      <trkpt lat="43.23351" lon="0.01827">
        <ele>301.09</ele>
        <time>2022-10-11T10:25:16.000Z</time>
      </trkpt>
      <trkpt lat="43.23352" lon="0.01791">
        <ele>301.63</ele>
        <time>2022-10-11T10:25:21.000Z</time>
      </trkpt>
      <trkpt lat="43.23354" lon="0.01759">
        <ele>301.43</ele>
        <time>2022-10-11T10:25:26.000Z</time>
      </trkpt>
      <trkpt lat="43.23363" lon="0.01727">
        <ele>301.32</ele>
        <time>2022-10-11T10:25:31.000Z</time>
      </trkpt>
      <trkpt lat="43.23364" lon="0.01692">
        <ele>303.23</ele>
        <time>2022-10-11T10:25:36.000Z</time>
      </trkpt>
      <trkpt lat="43.23357" lon="0.01652">
        <ele>303.2</ele>
        <time>2022-10-11T10:25:41.000Z</time>
      </trkpt>
      <trkpt lat="43.23359" lon="0.01614">
        <ele>303.42</ele>
        <time>2022-10-11T10:25:46.000Z</time>
      </trkpt>
      <trkpt lat="43.23364" lon="0.01572">
        <ele>303.36</ele>
        <time>2022-10-11T10:25:51.000Z</time>
      </trkpt>
      <trkpt lat="43.23366" lon="0.0153">
        <ele>303.49</ele>
        <time>2022-10-11T10:25:56.000Z</time>
      </trkpt>
      <trkpt lat="43.23368" lon="0.01487">
        <ele>304.63</ele>
        <time>2022-10-11T10:26:01.000Z</time>
      </trkpt>
      <trkpt lat="43.2337" lon="0.01446">
        <ele>304.17</ele>
        <time>2022-10-11T10:26:06.000Z</time>
      </trkpt>
      <trkpt lat="43.23372" lon="0.01405">
        <ele>302.8</ele>
        <time>2022-10-11T10:26:11.000Z</time>
      </trkpt>
      <trkpt lat="43.23373" lon="0.01364">
        <ele>303.5</ele>
        <time>2022-10-11T10:26:16.000Z</time>
      </trkpt>
      <trkpt lat="43.23375" lon="0.01324">
        <ele>303.64</ele>
        <time>2022-10-11T10:26:21.000Z</time>
      </trkpt>
      <trkpt lat="43.23377" lon="0.01283">
        <ele>303.86</ele>
        <time>2022-10-11T10:26:26.000Z</time>
      </trkpt>
      <trkpt lat="43.23379" lon="0.01242">
        <ele>303.25</ele>
        <time>2022-10-11T10:26:31.000Z</time>
      </trkpt>
      <trkpt lat="43.23382" lon="0.01202">
        <ele>303.3</ele>
        <time>2022-10-11T10:26:36.000Z</time>
      </trkpt>
      <trkpt lat="43.23386" lon="0.01161">
        <ele>303.3</ele>
        <time>2022-10-11T10:26:41.000Z</time>
      </trkpt>
      <trkpt lat="43.2339" lon="0.01121">
        <ele>302.74</ele>
        <time>2022-10-11T10:26:46.000Z</time>
      </trkpt>
      <trkpt lat="43.23396" lon="0.01082">
        <ele>301.79</ele>
        <time>2022-10-11T10:26:51.000Z</time>
      </trkpt>
      <trkpt lat="43.234" lon="0.01046">
        <ele>302.08</ele>
        <time>2022-10-11T10:26:56.000Z</time>
      </trkpt>
      <trkpt lat="43.234" lon="0.01012">
        <ele>301.93</ele>
        <time>2022-10-11T10:27:01.000Z</time>
      </trkpt>
      <trkpt lat="43.23399" lon="0.00975">
        <ele>302.54</ele>
        <time>2022-10-11T10:27:06.000Z</time>
      </trkpt>
      <trkpt lat="43.23399" lon="0.00937">
        <ele>303.69</ele>
        <time>2022-10-11T10:27:11.000Z</time>
      </trkpt>
      <trkpt lat="43.23402" lon="0.009">
        <ele>304.45</ele>
        <time>2022-10-11T10:27:16.000Z</time>
      </trkpt>
      <trkpt lat="43.23402" lon="0.00869">
        <ele>305.4</ele>
        <time>2022-10-11T10:27:21.000Z</time>
      </trkpt>
      <trkpt lat="43.23401" lon="0.00842">
        <ele>305.51</ele>
        <time>2022-10-11T10:27:26.000Z</time>
      </trkpt>
      <trkpt lat="43.23401" lon="0.00819">
        <ele>305.58</ele>
        <time>2022-10-11T10:27:31.000Z</time>
      </trkpt>
      <trkpt lat="43.23405" lon="0.00808">
        <ele>307.8</ele>
        <time>2022-10-11T10:27:37.000Z</time>
      </trkpt>
      <trkpt lat="43.23416" lon="0.008">
        <ele>304.68</ele>
        <time>2022-10-11T10:28:48.000Z</time>
      </trkpt>
      <trkpt lat="43.23407" lon="0.00795">
        <ele>303.08</ele>
        <time>2022-10-11T10:44:19.000Z</time>
      </trkpt>
      <trkpt lat="43.23402" lon="0.00784">
        <ele>314.22</ele>
        <time>2022-10-11T10:55:56.000Z</time>
      </trkpt>
      <trkpt lat="43.23397" lon="0.00767">
        <ele>314.03</ele>
        <time>2022-10-11T10:56:01.000Z</time>
      </trkpt>
      <trkpt lat="43.23395" lon="0.00747">
        <ele>313.58</ele>
        <time>2022-10-11T10:56:06.000Z</time>
      </trkpt>
      <trkpt lat="43.234" lon="0.00729">
        <ele>312.68</ele>
        <time>2022-10-11T10:56:11.000Z</time>
      </trkpt>
      <trkpt lat="43.23399" lon="0.00711">
        <ele>312.13</ele>
        <time>2022-10-11T10:56:16.000Z</time>
      </trkpt>
      <trkpt lat="43.234" lon="0.00694">
        <ele>311.91</ele>
        <time>2022-10-11T10:56:21.000Z</time>
      </trkpt>
      <trkpt lat="43.23404" lon="0.00672">
        <ele>310.43</ele>
        <time>2022-10-11T10:56:26.000Z</time>
      </trkpt>
      <trkpt lat="43.23408" lon="0.00647">
        <ele>309.9</ele>
        <time>2022-10-11T10:56:31.000Z</time>
      </trkpt>
      <trkpt lat="43.23411" lon="0.00625">
        <ele>309.69</ele>
        <time>2022-10-11T10:56:36.000Z</time>
      </trkpt>
      <trkpt lat="43.23415" lon="0.00601">
        <ele>309.41</ele>
        <time>2022-10-11T10:56:41.000Z</time>
      </trkpt>
      <trkpt lat="43.23417" lon="0.00575">
        <ele>307.69</ele>
        <time>2022-10-11T10:56:46.000Z</time>
      </trkpt>
      <trkpt lat="43.23419" lon="0.00551">
        <ele>306.76</ele>
        <time>2022-10-11T10:56:51.000Z</time>
      </trkpt>
      <trkpt lat="43.23424" lon="0.00525">
        <ele>306.48</ele>
        <time>2022-10-11T10:56:56.000Z</time>
      </trkpt>
      <trkpt lat="43.23427" lon="0.00502">
        <ele>305.76</ele>
        <time>2022-10-11T10:57:01.000Z</time>
      </trkpt>
      <trkpt lat="43.23428" lon="0.00478">
        <ele>305.96</ele>
        <time>2022-10-11T10:57:06.000Z</time>
      </trkpt>
      <trkpt lat="43.23427" lon="0.00453">
        <ele>305.91</ele>
        <time>2022-10-11T10:57:11.000Z</time>
      </trkpt>
      <trkpt lat="43.23429" lon="0.00426">
        <ele>306.65</ele>
        <time>2022-10-11T10:57:16.000Z</time>
      </trkpt>
      <trkpt lat="43.23429" lon="0.004">
        <ele>307.57</ele>
        <time>2022-10-11T10:57:21.000Z</time>
      </trkpt>
      <trkpt lat="43.23432" lon="0.00374">
        <ele>307.17</ele>
        <time>2022-10-11T10:57:26.000Z</time>
      </trkpt>
      <trkpt lat="43.23435" lon="0.00347">
        <ele>307.03</ele>
        <time>2022-10-11T10:57:31.000Z</time>
      </trkpt>
      <trkpt lat="43.23436" lon="0.00319">
        <ele>307.3</ele>
        <time>2022-10-11T10:57:36.000Z</time>
      </trkpt>
      <trkpt lat="43.23436" lon="0.00297">
        <ele>306.93</ele>
        <time>2022-10-11T10:57:41.000Z</time>
      </trkpt>
      <trkpt lat="43.23433" lon="0.00275">
        <ele>307.6</ele>
        <time>2022-10-11T10:57:46.000Z</time>
      </trkpt>
      <trkpt lat="43.2343" lon="0.00253">
        <ele>308.14</ele>
        <time>2022-10-11T10:57:51.000Z</time>
      </trkpt>
      <trkpt lat="43.23425" lon="0.00235">
        <ele>307.63</ele>
        <time>2022-10-11T10:57:56.000Z</time>
      </trkpt>
      <trkpt lat="43.2342" lon="0.00215">
        <ele>308</ele>
        <time>2022-10-11T10:58:01.000Z</time>
      </trkpt>
      <trkpt lat="43.23417" lon="0.00197">
        <ele>307.69</ele>
        <time>2022-10-11T10:58:06.000Z</time>
      </trkpt>
      <trkpt lat="43.2341" lon="0.00177">
        <ele>306.22</ele>
        <time>2022-10-11T10:58:11.000Z</time>
      </trkpt>
      <trkpt lat="43.23397" lon="0.00162">
        <ele>305.5</ele>
        <time>2022-10-11T10:58:16.000Z</time>
      </trkpt>
      <trkpt lat="43.23387" lon="0.00147">
        <ele>304.41</ele>
        <time>2022-10-11T10:58:21.000Z</time>
      </trkpt>
      <trkpt lat="43.23375" lon="0.0014">
        <ele>302.72</ele>
        <time>2022-10-11T10:58:26.000Z</time>
      </trkpt>
      <trkpt lat="43.23366" lon="0.00132">
        <ele>302.56</ele>
        <time>2022-10-11T10:58:31.000Z</time>
      </trkpt>
      <trkpt lat="43.23356" lon="0.00129">
        <ele>303.72</ele>
        <time>2022-10-11T10:58:36.000Z</time>
      </trkpt>
      <trkpt lat="43.23346" lon="0.00128">
        <ele>308.57</ele>
        <time>2022-10-11T10:59:04.000Z</time>
      </trkpt>
      <trkpt lat="43.23339" lon="0.00139">
        <ele>309.28</ele>
        <time>2022-10-11T10:59:28.000Z</time>
      </trkpt>
      <trkpt lat="43.23335" lon="0.0015">
        <ele>310.62</ele>
        <time>2022-10-11T10:59:36.000Z</time>
      </trkpt>
      <trkpt lat="43.23332" lon="0.00162">
        <ele>309.1</ele>
        <time>2022-10-11T11:00:08.000Z</time>
      </trkpt>
      <trkpt lat="43.23338" lon="0.00171">
        <ele>308.48</ele>
        <time>2022-10-11T11:00:31.000Z</time>
      </trkpt>
      <trkpt lat="43.23343" lon="0.00188">
        <ele>308.6</ele>
        <time>2022-10-11T11:01:57.000Z</time>
      </trkpt>
      <trkpt lat="43.23333" lon="0.00173">
        <ele>308.52</ele>
        <time>2022-10-11T11:02:10.000Z</time>
      </trkpt>
      <trkpt lat="43.23331" lon="0.00162">
        <ele>308.93</ele>
        <time>2022-10-11T11:02:22.000Z</time>
      </trkpt>
      <trkpt lat="43.23343" lon="0.00166">
        <ele>307.62</ele>
        <time>2022-10-11T11:02:53.000Z</time>
      </trkpt>
      <trkpt lat="43.23335" lon="0.00156">
        <ele>306.2</ele>
        <time>2022-10-11T11:07:46.000Z</time>
      </trkpt>
      <trkpt lat="43.23337" lon="0.00143">
        <ele>307.93</ele>
        <time>2022-10-11T11:08:38.000Z</time>
      </trkpt>
      <trkpt lat="43.23347" lon="0.00134">
        <ele>307.66</ele>
        <time>2022-10-11T11:08:43.000Z</time>
      </trkpt>
      <trkpt lat="43.23364" lon="0.00117">
        <ele>307.69</ele>
        <time>2022-10-11T11:08:48.000Z</time>
      </trkpt>
      <trkpt lat="43.2337" lon="0.00096">
        <ele>307.89</ele>
        <time>2022-10-11T11:08:53.000Z</time>
      </trkpt>
      <trkpt lat="43.23377" lon="0.00074">
        <ele>308</ele>
        <time>2022-10-11T11:08:58.000Z</time>
      </trkpt>
      <trkpt lat="43.23383" lon="0.00049">
        <ele>307.98</ele>
        <time>2022-10-11T11:09:03.000Z</time>
      </trkpt>
      <trkpt lat="43.23388" lon="0.00018">
        <ele>308.1</ele>
        <time>2022-10-11T11:09:08.000Z</time>
      </trkpt>
      <trkpt lat="43.2339" lon="-0.0001">
        <ele>308.08</ele>
        <time>2022-10-11T11:09:13.000Z</time>
      </trkpt>
      <trkpt lat="43.23398" lon="-0.00033">
        <ele>308.34</ele>
        <time>2022-10-11T11:09:18.000Z</time>
      </trkpt>
      <trkpt lat="43.23417" lon="-0.0005">
        <ele>307.2</ele>
        <time>2022-10-11T11:09:23.000Z</time>
      </trkpt>
      <trkpt lat="43.23437" lon="-0.00065">
        <ele>306.86</ele>
        <time>2022-10-11T11:09:28.000Z</time>
      </trkpt>
      <trkpt lat="43.23447" lon="-0.00086">
        <ele>307.13</ele>
        <time>2022-10-11T11:09:33.000Z</time>
      </trkpt>
      <trkpt lat="43.23451" lon="-0.001">
        <ele>307.37</ele>
        <time>2022-10-11T11:09:38.000Z</time>
      </trkpt>
      <trkpt lat="43.2346" lon="-0.00108">
        <ele>307.5</ele>
        <time>2022-10-11T11:09:43.000Z</time>
      </trkpt>
      <trkpt lat="43.23472" lon="-0.00115">
        <ele>306.96</ele>
        <time>2022-10-11T11:09:48.000Z</time>
      </trkpt>
      <trkpt lat="43.2349" lon="-0.00108">
        <ele>306.55</ele>
        <time>2022-10-11T11:09:53.000Z</time>
      </trkpt>
      <trkpt lat="43.23516" lon="-0.00098">
        <ele>305.11</ele>
        <time>2022-10-11T11:09:58.000Z</time>
      </trkpt>
      <trkpt lat="43.23536" lon="-0.00093">
        <ele>304.48</ele>
        <time>2022-10-11T11:10:03.000Z</time>
      </trkpt>
      <trkpt lat="43.23556" lon="-0.00089">
        <ele>304.21</ele>
        <time>2022-10-11T11:10:08.000Z</time>
      </trkpt>
      <trkpt lat="43.2358" lon="-0.00084">
        <ele>303.73</ele>
        <time>2022-10-11T11:10:13.000Z</time>
      </trkpt>
      <trkpt lat="43.23605" lon="-0.00091">
        <ele>305.48</ele>
        <time>2022-10-11T11:10:18.000Z</time>
      </trkpt>
      <trkpt lat="43.23619" lon="-0.00118">
        <ele>308.89</ele>
        <time>2022-10-11T11:10:23.000Z</time>
      </trkpt>
      <trkpt lat="43.23639" lon="-0.00139">
        <ele>308.82</ele>
        <time>2022-10-11T11:10:28.000Z</time>
      </trkpt>
      <trkpt lat="43.23662" lon="-0.00142">
        <ele>307.71</ele>
        <time>2022-10-11T11:10:33.000Z</time>
      </trkpt>
      <trkpt lat="43.23685" lon="-0.00138">
        <ele>307.11</ele>
        <time>2022-10-11T11:10:38.000Z</time>
      </trkpt>
      <trkpt lat="43.23708" lon="-0.00137">
        <ele>305.51</ele>
        <time>2022-10-11T11:10:43.000Z</time>
      </trkpt>
      <trkpt lat="43.2373" lon="-0.00138">
        <ele>304.49</ele>
        <time>2022-10-11T11:10:48.000Z</time>
      </trkpt>
      <trkpt lat="43.23756" lon="-0.0014">
        <ele>304.43</ele>
        <time>2022-10-11T11:10:53.000Z</time>
      </trkpt>
      <trkpt lat="43.23783" lon="-0.00147">
        <ele>303.41</ele>
        <time>2022-10-11T11:10:58.000Z</time>
      </trkpt>
      <trkpt lat="43.23806" lon="-0.00158">
        <ele>303.86</ele>
        <time>2022-10-11T11:11:03.000Z</time>
      </trkpt>
      <trkpt lat="43.23829" lon="-0.0017">
        <ele>304.05</ele>
        <time>2022-10-11T11:11:08.000Z</time>
      </trkpt>
      <trkpt lat="43.23851" lon="-0.00181">
        <ele>304.16</ele>
        <time>2022-10-11T11:11:13.000Z</time>
      </trkpt>
      <trkpt lat="43.23871" lon="-0.00192">
        <ele>304.19</ele>
        <time>2022-10-11T11:11:18.000Z</time>
      </trkpt>
      <trkpt lat="43.23888" lon="-0.0021">
        <ele>304.77</ele>
        <time>2022-10-11T11:11:23.000Z</time>
      </trkpt>
      <trkpt lat="43.239" lon="-0.00234">
        <ele>304.75</ele>
        <time>2022-10-11T11:11:28.000Z</time>
      </trkpt>
      <trkpt lat="43.23908" lon="-0.00259">
        <ele>305.6</ele>
        <time>2022-10-11T11:11:33.000Z</time>
      </trkpt>
      <trkpt lat="43.23917" lon="-0.00284">
        <ele>306.45</ele>
        <time>2022-10-11T11:11:38.000Z</time>
      </trkpt>
      <trkpt lat="43.23929" lon="-0.00311">
        <ele>306.97</ele>
        <time>2022-10-11T11:11:43.000Z</time>
      </trkpt>
      <trkpt lat="43.23944" lon="-0.00342">
        <ele>307.96</ele>
        <time>2022-10-11T11:11:48.000Z</time>
      </trkpt>
      <trkpt lat="43.2396" lon="-0.0037">
        <ele>307.04</ele>
        <time>2022-10-11T11:11:53.000Z</time>
      </trkpt>
      <trkpt lat="43.23976" lon="-0.00398">
        <ele>305.97</ele>
        <time>2022-10-11T11:11:58.000Z</time>
      </trkpt>
      <trkpt lat="43.23989" lon="-0.00418">
        <ele>306.52</ele>
        <time>2022-10-11T11:12:03.000Z</time>
      </trkpt>
      <trkpt lat="43.24002" lon="-0.0044">
        <ele>306.84</ele>
        <time>2022-10-11T11:12:08.000Z</time>
      </trkpt>
      <trkpt lat="43.24017" lon="-0.00468">
        <ele>306.49</ele>
        <time>2022-10-11T11:12:13.000Z</time>
      </trkpt>
      <trkpt lat="43.24035" lon="-0.00497">
        <ele>305.57</ele>
        <time>2022-10-11T11:12:18.000Z</time>
      </trkpt>
      <trkpt lat="43.24053" lon="-0.00526">
        <ele>305.62</ele>
        <time>2022-10-11T11:12:23.000Z</time>
      </trkpt>
      <trkpt lat="43.24071" lon="-0.00555">
        <ele>306.1</ele>
        <time>2022-10-11T11:12:28.000Z</time>
      </trkpt>
      <trkpt lat="43.24089" lon="-0.00583">
        <ele>304.43</ele>
        <time>2022-10-11T11:12:33.000Z</time>
      </trkpt>
      <trkpt lat="43.24107" lon="-0.00612">
        <ele>303.19</ele>
        <time>2022-10-11T11:12:38.000Z</time>
      </trkpt>
      <trkpt lat="43.24124" lon="-0.00645">
        <ele>303.54</ele>
        <time>2022-10-11T11:12:43.000Z</time>
      </trkpt>
      <trkpt lat="43.24142" lon="-0.00673">
        <ele>303.2</ele>
        <time>2022-10-11T11:12:48.000Z</time>
      </trkpt>
      <trkpt lat="43.24162" lon="-0.007">
        <ele>302.87</ele>
        <time>2022-10-11T11:12:53.000Z</time>
      </trkpt>
      <trkpt lat="43.24181" lon="-0.00727">
        <ele>303.42</ele>
        <time>2022-10-11T11:12:58.000Z</time>
      </trkpt>
      <trkpt lat="43.242" lon="-0.00756">
        <ele>303.59</ele>
        <time>2022-10-11T11:13:03.000Z</time>
      </trkpt>
      <trkpt lat="43.24223" lon="-0.00782">
        <ele>302.77</ele>
        <time>2022-10-11T11:13:08.000Z</time>
      </trkpt>
      <trkpt lat="43.24243" lon="-0.00809">
        <ele>303.53</ele>
        <time>2022-10-11T11:13:13.000Z</time>
      </trkpt>
      <trkpt lat="43.24263" lon="-0.00835">
        <ele>303.46</ele>
        <time>2022-10-11T11:13:18.000Z</time>
      </trkpt>
      <trkpt lat="43.2428" lon="-0.00861">
        <ele>304.3</ele>
        <time>2022-10-11T11:13:23.000Z</time>
      </trkpt>
      <trkpt lat="43.24296" lon="-0.00881">
        <ele>304.02</ele>
        <time>2022-10-11T11:13:28.000Z</time>
      </trkpt>
      <trkpt lat="43.24311" lon="-0.0089">
        <ele>303.52</ele>
        <time>2022-10-11T11:13:33.000Z</time>
      </trkpt>
      <trkpt lat="43.24322" lon="-0.00901">
        <ele>304.04</ele>
        <time>2022-10-11T11:13:38.000Z</time>
      </trkpt>
      <trkpt lat="43.24327" lon="-0.00913">
        <ele>303.23</ele>
        <time>2022-10-11T11:13:43.000Z</time>
      </trkpt>
      <trkpt lat="43.24328" lon="-0.00929">
        <ele>299.95</ele>
        <time>2022-10-11T11:14:12.000Z</time>
      </trkpt>
      <trkpt lat="43.24328" lon="-0.00959">
        <ele>299.53</ele>
        <time>2022-10-11T11:14:17.000Z</time>
      </trkpt>
      <trkpt lat="43.24331" lon="-0.00989">
        <ele>299.27</ele>
        <time>2022-10-11T11:14:22.000Z</time>
      </trkpt>
      <trkpt lat="43.24335" lon="-0.0102">
        <ele>298.91</ele>
        <time>2022-10-11T11:14:27.000Z</time>
      </trkpt>
      <trkpt lat="43.24339" lon="-0.0105">
        <ele>298.99</ele>
        <time>2022-10-11T11:14:32.000Z</time>
      </trkpt>
      <trkpt lat="43.24344" lon="-0.0108">
        <ele>298.83</ele>
        <time>2022-10-11T11:14:37.000Z</time>
      </trkpt>
      <trkpt lat="43.24349" lon="-0.01112">
        <ele>298.6</ele>
        <time>2022-10-11T11:14:42.000Z</time>
      </trkpt>
      <trkpt lat="43.24354" lon="-0.01144">
        <ele>299.78</ele>
        <time>2022-10-11T11:14:47.000Z</time>
      </trkpt>
      <trkpt lat="43.24356" lon="-0.01177">
        <ele>300.34</ele>
        <time>2022-10-11T11:14:52.000Z</time>
      </trkpt>
      <trkpt lat="43.24359" lon="-0.0121">
        <ele>302.05</ele>
        <time>2022-10-11T11:14:57.000Z</time>
      </trkpt>
      <trkpt lat="43.24361" lon="-0.0124">
        <ele>302.56</ele>
        <time>2022-10-11T11:15:02.000Z</time>
      </trkpt>
      <trkpt lat="43.24365" lon="-0.01269">
        <ele>303.59</ele>
        <time>2022-10-11T11:15:07.000Z</time>
      </trkpt>
      <trkpt lat="43.24368" lon="-0.01297">
        <ele>304.95</ele>
        <time>2022-10-11T11:15:12.000Z</time>
      </trkpt>
      <trkpt lat="43.2437" lon="-0.01327">
        <ele>305.96</ele>
        <time>2022-10-11T11:15:17.000Z</time>
      </trkpt>
      <trkpt lat="43.24371" lon="-0.01359">
        <ele>306.84</ele>
        <time>2022-10-11T11:15:22.000Z</time>
      </trkpt>
      <trkpt lat="43.24374" lon="-0.01388">
        <ele>307.48</ele>
        <time>2022-10-11T11:15:27.000Z</time>
      </trkpt>
      <trkpt lat="43.24376" lon="-0.01417">
        <ele>307.35</ele>
        <time>2022-10-11T11:15:32.000Z</time>
      </trkpt>
      <trkpt lat="43.24379" lon="-0.01448">
        <ele>306.81</ele>
        <time>2022-10-11T11:15:37.000Z</time>
      </trkpt>
      <trkpt lat="43.24381" lon="-0.01478">
        <ele>307.1</ele>
        <time>2022-10-11T11:15:42.000Z</time>
      </trkpt>
      <trkpt lat="43.24385" lon="-0.0151">
        <ele>306.93</ele>
        <time>2022-10-11T11:15:47.000Z</time>
      </trkpt>
      <trkpt lat="43.2439" lon="-0.01538">
        <ele>307.36</ele>
        <time>2022-10-11T11:15:52.000Z</time>
      </trkpt>
      <trkpt lat="43.24392" lon="-0.01562">
        <ele>308.14</ele>
        <time>2022-10-11T11:15:57.000Z</time>
      </trkpt>
      <trkpt lat="43.24392" lon="-0.0158">
        <ele>309.03</ele>
        <time>2022-10-11T11:16:02.000Z</time>
      </trkpt>
      <trkpt lat="43.24392" lon="-0.01602">
        <ele>310.11</ele>
        <time>2022-10-11T11:16:07.000Z</time>
      </trkpt>
      <trkpt lat="43.24393" lon="-0.01626">
        <ele>311.43</ele>
        <time>2022-10-11T11:16:12.000Z</time>
      </trkpt>
      <trkpt lat="43.24392" lon="-0.01647">
        <ele>313.21</ele>
        <time>2022-10-11T11:16:17.000Z</time>
      </trkpt>
      <trkpt lat="43.2439" lon="-0.01667">
        <ele>314.19</ele>
        <time>2022-10-11T11:16:22.000Z</time>
      </trkpt>
      <trkpt lat="43.24389" lon="-0.01688">
        <ele>315.01</ele>
        <time>2022-10-11T11:16:27.000Z</time>
      </trkpt>
      <trkpt lat="43.24386" lon="-0.01708">
        <ele>315.75</ele>
        <time>2022-10-11T11:16:32.000Z</time>
      </trkpt>
      <trkpt lat="43.2438" lon="-0.01723">
        <ele>316.6</ele>
        <time>2022-10-11T11:16:37.000Z</time>
      </trkpt>
      <trkpt lat="43.24374" lon="-0.0174">
        <ele>318.71</ele>
        <time>2022-10-11T11:16:42.000Z</time>
      </trkpt>
      <trkpt lat="43.24367" lon="-0.01754">
        <ele>319.04</ele>
        <time>2022-10-11T11:16:47.000Z</time>
      </trkpt>
      <trkpt lat="43.24359" lon="-0.01766">
        <ele>319.96</ele>
        <time>2022-10-11T11:16:52.000Z</time>
      </trkpt>
      <trkpt lat="43.24351" lon="-0.0178">
        <ele>319.88</ele>
        <time>2022-10-11T11:16:57.000Z</time>
      </trkpt>
      <trkpt lat="43.24342" lon="-0.01793">
        <ele>320.24</ele>
        <time>2022-10-11T11:17:02.000Z</time>
      </trkpt>
      <trkpt lat="43.24332" lon="-0.01808">
        <ele>321.06</ele>
        <time>2022-10-11T11:17:07.000Z</time>
      </trkpt>
      <trkpt lat="43.24322" lon="-0.01821">
        <ele>322.14</ele>
        <time>2022-10-11T11:17:12.000Z</time>
      </trkpt>
      <trkpt lat="43.24311" lon="-0.01835">
        <ele>322.19</ele>
        <time>2022-10-11T11:17:17.000Z</time>
      </trkpt>
      <trkpt lat="43.243" lon="-0.01847">
        <ele>322.77</ele>
        <time>2022-10-11T11:17:22.000Z</time>
      </trkpt>
      <trkpt lat="43.24288" lon="-0.01864">
        <ele>323.14</ele>
        <time>2022-10-11T11:17:27.000Z</time>
      </trkpt>
      <trkpt lat="43.24278" lon="-0.01879">
        <ele>323.54</ele>
        <time>2022-10-11T11:17:32.000Z</time>
      </trkpt>
      <trkpt lat="43.24268" lon="-0.01893">
        <ele>324.88</ele>
        <time>2022-10-11T11:17:37.000Z</time>
      </trkpt>
      <trkpt lat="43.24257" lon="-0.01909">
        <ele>325.86</ele>
        <time>2022-10-11T11:17:42.000Z</time>
      </trkpt>
      <trkpt lat="43.24248" lon="-0.01921">
        <ele>326.46</ele>
        <time>2022-10-11T11:17:47.000Z</time>
      </trkpt>
      <trkpt lat="43.24239" lon="-0.01936">
        <ele>326.99</ele>
        <time>2022-10-11T11:17:52.000Z</time>
      </trkpt>
      <trkpt lat="43.2423" lon="-0.0195">
        <ele>326.46</ele>
        <time>2022-10-11T11:17:57.000Z</time>
      </trkpt>
      <trkpt lat="43.24219" lon="-0.01964">
        <ele>326.99</ele>
        <time>2022-10-11T11:18:02.000Z</time>
      </trkpt>
      <trkpt lat="43.2421" lon="-0.01978">
        <ele>327.14</ele>
        <time>2022-10-11T11:18:07.000Z</time>
      </trkpt>
      <trkpt lat="43.242" lon="-0.01992">
        <ele>328.06</ele>
        <time>2022-10-11T11:18:12.000Z</time>
      </trkpt>
      <trkpt lat="43.24191" lon="-0.02006">
        <ele>328.25</ele>
        <time>2022-10-11T11:18:17.000Z</time>
      </trkpt>
      <trkpt lat="43.24181" lon="-0.0202">
        <ele>328.26</ele>
        <time>2022-10-11T11:18:22.000Z</time>
      </trkpt>
      <trkpt lat="43.24172" lon="-0.02034">
        <ele>328.06</ele>
        <time>2022-10-11T11:18:27.000Z</time>
      </trkpt>
      <trkpt lat="43.24163" lon="-0.0205">
        <ele>328.05</ele>
        <time>2022-10-11T11:18:32.000Z</time>
      </trkpt>
      <trkpt lat="43.24154" lon="-0.02064">
        <ele>327.04</ele>
        <time>2022-10-11T11:18:37.000Z</time>
      </trkpt>
      <trkpt lat="43.24144" lon="-0.0208">
        <ele>326.73</ele>
        <time>2022-10-11T11:18:42.000Z</time>
      </trkpt>
      <trkpt lat="43.24135" lon="-0.02095">
        <ele>327.38</ele>
        <time>2022-10-11T11:18:47.000Z</time>
      </trkpt>
      <trkpt lat="43.24126" lon="-0.02109">
        <ele>327.65</ele>
        <time>2022-10-11T11:18:52.000Z</time>
      </trkpt>
      <trkpt lat="43.24118" lon="-0.02123">
        <ele>327.85</ele>
        <time>2022-10-11T11:18:57.000Z</time>
      </trkpt>
      <trkpt lat="43.24111" lon="-0.02139">
        <ele>327.64</ele>
        <time>2022-10-11T11:19:02.000Z</time>
      </trkpt>
      <trkpt lat="43.24105" lon="-0.02155">
        <ele>327.54</ele>
        <time>2022-10-11T11:19:07.000Z</time>
      </trkpt>
      <trkpt lat="43.24098" lon="-0.0217">
        <ele>327.23</ele>
        <time>2022-10-11T11:19:12.000Z</time>
      </trkpt>
      <trkpt lat="43.24091" lon="-0.02185">
        <ele>326.83</ele>
        <time>2022-10-11T11:19:17.000Z</time>
      </trkpt>
      <trkpt lat="43.24085" lon="-0.02199">
        <ele>327.17</ele>
        <time>2022-10-11T11:19:22.000Z</time>
      </trkpt>
      <trkpt lat="43.24079" lon="-0.02216">
        <ele>327.86</ele>
        <time>2022-10-11T11:19:27.000Z</time>
      </trkpt>
      <trkpt lat="43.24073" lon="-0.0223">
        <ele>328.12</ele>
        <time>2022-10-11T11:19:32.000Z</time>
      </trkpt>
      <trkpt lat="43.24067" lon="-0.02246">
        <ele>328.27</ele>
        <time>2022-10-11T11:19:37.000Z</time>
      </trkpt>
      <trkpt lat="43.2406" lon="-0.0226">
        <ele>329.04</ele>
        <time>2022-10-11T11:19:42.000Z</time>
      </trkpt>
      <trkpt lat="43.24054" lon="-0.02275">
        <ele>329.99</ele>
        <time>2022-10-11T11:19:47.000Z</time>
      </trkpt>
      <trkpt lat="43.24046" lon="-0.02291">
        <ele>331.65</ele>
        <time>2022-10-11T11:19:52.000Z</time>
      </trkpt>
      <trkpt lat="43.24038" lon="-0.02308">
        <ele>334</ele>
        <time>2022-10-11T11:19:57.000Z</time>
      </trkpt>
      <trkpt lat="43.24031" lon="-0.02324">
        <ele>335.65</ele>
        <time>2022-10-11T11:20:02.000Z</time>
      </trkpt>
      <trkpt lat="43.24023" lon="-0.0234">
        <ele>338</ele>
        <time>2022-10-11T11:20:07.000Z</time>
      </trkpt>
      <trkpt lat="43.24016" lon="-0.02357">
        <ele>340.71</ele>
        <time>2022-10-11T11:20:12.000Z</time>
      </trkpt>
      <trkpt lat="43.24008" lon="-0.02375">
        <ele>342.82</ele>
        <time>2022-10-11T11:20:17.000Z</time>
      </trkpt>
      <trkpt lat="43.24" lon="-0.0239">
        <ele>344.48</ele>
        <time>2022-10-11T11:20:22.000Z</time>
      </trkpt>
      <trkpt lat="43.23991" lon="-0.02404">
        <ele>346.19</ele>
        <time>2022-10-11T11:20:27.000Z</time>
      </trkpt>
      <trkpt lat="43.23979" lon="-0.02422">
        <ele>347.39</ele>
        <time>2022-10-11T11:20:32.000Z</time>
      </trkpt>
      <trkpt lat="43.23969" lon="-0.02438">
        <ele>348.41</ele>
        <time>2022-10-11T11:20:37.000Z</time>
      </trkpt>
      <trkpt lat="43.23958" lon="-0.02452">
        <ele>350.3</ele>
        <time>2022-10-11T11:20:42.000Z</time>
      </trkpt>
      <trkpt lat="43.23949" lon="-0.02467">
        <ele>351.82</ele>
        <time>2022-10-11T11:20:47.000Z</time>
      </trkpt>
      <trkpt lat="43.23941" lon="-0.02483">
        <ele>352.52</ele>
        <time>2022-10-11T11:20:52.000Z</time>
      </trkpt>
      <trkpt lat="43.23936" lon="-0.02499">
        <ele>353.22</ele>
        <time>2022-10-11T11:20:57.000Z</time>
      </trkpt>
      <trkpt lat="43.23939" lon="-0.02521">
        <ele>353.89</ele>
        <time>2022-10-11T11:21:02.000Z</time>
      </trkpt>
      <trkpt lat="43.23946" lon="-0.02545">
        <ele>357.38</ele>
        <time>2022-10-11T11:21:07.000Z</time>
      </trkpt>
      <trkpt lat="43.23962" lon="-0.0255">
        <ele>359.15</ele>
        <time>2022-10-11T11:21:12.000Z</time>
      </trkpt>
      <trkpt lat="43.23976" lon="-0.02535">
        <ele>359.82</ele>
        <time>2022-10-11T11:21:17.000Z</time>
      </trkpt>
      <trkpt lat="43.23986" lon="-0.02512">
        <ele>360.42</ele>
        <time>2022-10-11T11:21:22.000Z</time>
      </trkpt>
      <trkpt lat="43.23995" lon="-0.02488">
        <ele>360.72</ele>
        <time>2022-10-11T11:21:27.000Z</time>
      </trkpt>
      <trkpt lat="43.24004" lon="-0.02466">
        <ele>360.8</ele>
        <time>2022-10-11T11:21:32.000Z</time>
      </trkpt>
      <trkpt lat="43.24012" lon="-0.02441">
        <ele>360.09</ele>
        <time>2022-10-11T11:21:37.000Z</time>
      </trkpt>
      <trkpt lat="43.24022" lon="-0.0242">
        <ele>360</ele>
        <time>2022-10-11T11:21:42.000Z</time>
      </trkpt>
      <trkpt lat="43.24032" lon="-0.024">
        <ele>359.64</ele>
        <time>2022-10-11T11:21:47.000Z</time>
      </trkpt>
      <trkpt lat="43.24043" lon="-0.02379">
        <ele>360.19</ele>
        <time>2022-10-11T11:21:52.000Z</time>
      </trkpt>
      <trkpt lat="43.24053" lon="-0.02365">
        <ele>360.67</ele>
        <time>2022-10-11T11:21:57.000Z</time>
      </trkpt>
      <trkpt lat="43.24063" lon="-0.02353">
        <ele>361.43</ele>
        <time>2022-10-11T11:22:02.000Z</time>
      </trkpt>
      <trkpt lat="43.24075" lon="-0.02342">
        <ele>362.32</ele>
        <time>2022-10-11T11:22:07.000Z</time>
      </trkpt>
      <trkpt lat="43.24088" lon="-0.0233">
        <ele>364.31</ele>
        <time>2022-10-11T11:22:12.000Z</time>
      </trkpt>
      <trkpt lat="43.24102" lon="-0.0232">
        <ele>364.78</ele>
        <time>2022-10-11T11:22:17.000Z</time>
      </trkpt>
      <trkpt lat="43.24113" lon="-0.02311">
        <ele>365.74</ele>
        <time>2022-10-11T11:22:22.000Z</time>
      </trkpt>
      <trkpt lat="43.24126" lon="-0.02301">
        <ele>367.06</ele>
        <time>2022-10-11T11:22:27.000Z</time>
      </trkpt>
      <trkpt lat="43.24139" lon="-0.0229">
        <ele>368.26</ele>
        <time>2022-10-11T11:22:32.000Z</time>
      </trkpt>
      <trkpt lat="43.24151" lon="-0.0228">
        <ele>371.49</ele>
        <time>2022-10-11T11:22:37.000Z</time>
      </trkpt>
      <trkpt lat="43.24162" lon="-0.0227">
        <ele>374.73</ele>
        <time>2022-10-11T11:22:42.000Z</time>
      </trkpt>
      <trkpt lat="43.24175" lon="-0.02261">
        <ele>375.66</ele>
        <time>2022-10-11T11:22:47.000Z</time>
      </trkpt>
      <trkpt lat="43.24188" lon="-0.02255">
        <ele>375.1</ele>
        <time>2022-10-11T11:22:52.000Z</time>
      </trkpt>
      <trkpt lat="43.24201" lon="-0.02246">
        <ele>374.61</ele>
        <time>2022-10-11T11:22:57.000Z</time>
      </trkpt>
      <trkpt lat="43.24214" lon="-0.02238">
        <ele>374.25</ele>
        <time>2022-10-11T11:23:02.000Z</time>
      </trkpt>
      <trkpt lat="43.24227" lon="-0.02227">
        <ele>372.24</ele>
        <time>2022-10-11T11:23:07.000Z</time>
      </trkpt>
      <trkpt lat="43.24239" lon="-0.02216">
        <ele>370.97</ele>
        <time>2022-10-11T11:23:12.000Z</time>
      </trkpt>
      <trkpt lat="43.24253" lon="-0.02205">
        <ele>371.82</ele>
        <time>2022-10-11T11:23:17.000Z</time>
      </trkpt>
      <trkpt lat="43.24264" lon="-0.02193">
        <ele>373.67</ele>
        <time>2022-10-11T11:23:22.000Z</time>
      </trkpt>
      <trkpt lat="43.24276" lon="-0.02182">
        <ele>373</ele>
        <time>2022-10-11T11:23:27.000Z</time>
      </trkpt>
      <trkpt lat="43.24287" lon="-0.02172">
        <ele>373.95</ele>
        <time>2022-10-11T11:23:32.000Z</time>
      </trkpt>
      <trkpt lat="43.243" lon="-0.02163">
        <ele>374.4</ele>
        <time>2022-10-11T11:23:37.000Z</time>
      </trkpt>
      <trkpt lat="43.24313" lon="-0.02156">
        <ele>376.15</ele>
        <time>2022-10-11T11:23:42.000Z</time>
      </trkpt>
      <trkpt lat="43.24328" lon="-0.02148">
        <ele>377.27</ele>
        <time>2022-10-11T11:23:47.000Z</time>
      </trkpt>
      <trkpt lat="43.24343" lon="-0.02145">
        <ele>378.14</ele>
        <time>2022-10-11T11:23:52.000Z</time>
      </trkpt>
      <trkpt lat="43.24357" lon="-0.02143">
        <ele>377.25</ele>
        <time>2022-10-11T11:23:57.000Z</time>
      </trkpt>
      <trkpt lat="43.24371" lon="-0.02145">
        <ele>378.83</ele>
        <time>2022-10-11T11:24:02.000Z</time>
      </trkpt>
      <trkpt lat="43.24384" lon="-0.0215">
        <ele>381.47</ele>
        <time>2022-10-11T11:24:07.000Z</time>
      </trkpt>
      <trkpt lat="43.24397" lon="-0.02157">
        <ele>383.04</ele>
        <time>2022-10-11T11:24:12.000Z</time>
      </trkpt>
      <trkpt lat="43.24411" lon="-0.02165">
        <ele>382.9</ele>
        <time>2022-10-11T11:24:17.000Z</time>
      </trkpt>
      <trkpt lat="43.24424" lon="-0.02176">
        <ele>383.26</ele>
        <time>2022-10-11T11:24:22.000Z</time>
      </trkpt>
      <trkpt lat="43.24435" lon="-0.0219">
        <ele>384.58</ele>
        <time>2022-10-11T11:24:27.000Z</time>
      </trkpt>
      <trkpt lat="43.24445" lon="-0.02205">
        <ele>385.56</ele>
        <time>2022-10-11T11:24:32.000Z</time>
      </trkpt>
      <trkpt lat="43.24454" lon="-0.02221">
        <ele>385.19</ele>
        <time>2022-10-11T11:24:37.000Z</time>
      </trkpt>
      <trkpt lat="43.24462" lon="-0.02236">
        <ele>384.39</ele>
        <time>2022-10-11T11:24:42.000Z</time>
      </trkpt>
      <trkpt lat="43.24466" lon="-0.02254">
        <ele>384.12</ele>
        <time>2022-10-11T11:24:47.000Z</time>
      </trkpt>
      <trkpt lat="43.2447" lon="-0.02273">
        <ele>384.42</ele>
        <time>2022-10-11T11:24:52.000Z</time>
      </trkpt>
      <trkpt lat="43.24472" lon="-0.02291">
        <ele>384.57</ele>
        <time>2022-10-11T11:24:57.000Z</time>
      </trkpt>
      <trkpt lat="43.24472" lon="-0.02313">
        <ele>384.6</ele>
        <time>2022-10-11T11:25:02.000Z</time>
      </trkpt>
      <trkpt lat="43.24474" lon="-0.0234">
        <ele>384.24</ele>
        <time>2022-10-11T11:25:07.000Z</time>
      </trkpt>
      <trkpt lat="43.24475" lon="-0.02367">
        <ele>384</ele>
        <time>2022-10-11T11:25:12.000Z</time>
      </trkpt>
      <trkpt lat="43.24477" lon="-0.02391">
        <ele>383.76</ele>
        <time>2022-10-11T11:25:17.000Z</time>
      </trkpt>
      <trkpt lat="43.24477" lon="-0.02418">
        <ele>383.99</ele>
        <time>2022-10-11T11:25:22.000Z</time>
      </trkpt>
      <trkpt lat="43.24481" lon="-0.02446">
        <ele>384.05</ele>
        <time>2022-10-11T11:25:27.000Z</time>
      </trkpt>
      <trkpt lat="43.24486" lon="-0.02474">
        <ele>384.55</ele>
        <time>2022-10-11T11:25:32.000Z</time>
      </trkpt>
      <trkpt lat="43.24489" lon="-0.02503">
        <ele>385.13</ele>
        <time>2022-10-11T11:25:37.000Z</time>
      </trkpt>
      <trkpt lat="43.24494" lon="-0.02533">
        <ele>387.4</ele>
        <time>2022-10-11T11:25:42.000Z</time>
      </trkpt>
      <trkpt lat="43.24497" lon="-0.02567">
        <ele>390.07</ele>
        <time>2022-10-11T11:25:47.000Z</time>
      </trkpt>
      <trkpt lat="43.24499" lon="-0.02602">
        <ele>391.68</ele>
        <time>2022-10-11T11:25:52.000Z</time>
      </trkpt>
      <trkpt lat="43.24501" lon="-0.02638">
        <ele>393.12</ele>
        <time>2022-10-11T11:25:57.000Z</time>
      </trkpt>
      <trkpt lat="43.24503" lon="-0.02672">
        <ele>393.82</ele>
        <time>2022-10-11T11:26:02.000Z</time>
      </trkpt>
      <trkpt lat="43.24503" lon="-0.02706">
        <ele>394.29</ele>
        <time>2022-10-11T11:26:07.000Z</time>
      </trkpt>
      <trkpt lat="43.24507" lon="-0.02737">
        <ele>396.27</ele>
        <time>2022-10-11T11:26:12.000Z</time>
      </trkpt>
      <trkpt lat="43.24507" lon="-0.02769">
        <ele>399.96</ele>
        <time>2022-10-11T11:26:17.000Z</time>
      </trkpt>
      <trkpt lat="43.24509" lon="-0.028">
        <ele>401.18</ele>
        <time>2022-10-11T11:26:22.000Z</time>
      </trkpt>
      <trkpt lat="43.24513" lon="-0.02828">
        <ele>400.8</ele>
        <time>2022-10-11T11:26:27.000Z</time>
      </trkpt>
      <trkpt lat="43.24517" lon="-0.02857">
        <ele>400.67</ele>
        <time>2022-10-11T11:26:32.000Z</time>
      </trkpt>
      <trkpt lat="43.24522" lon="-0.02887">
        <ele>400.34</ele>
        <time>2022-10-11T11:26:37.000Z</time>
      </trkpt>
      <trkpt lat="43.24525" lon="-0.02918">
        <ele>400.02</ele>
        <time>2022-10-11T11:26:42.000Z</time>
      </trkpt>
      <trkpt lat="43.2453" lon="-0.02949">
        <ele>400.09</ele>
        <time>2022-10-11T11:26:47.000Z</time>
      </trkpt>
      <trkpt lat="43.24536" lon="-0.0298">
        <ele>399.74</ele>
        <time>2022-10-11T11:26:52.000Z</time>
      </trkpt>
      <trkpt lat="43.24539" lon="-0.03013">
        <ele>398.79</ele>
        <time>2022-10-11T11:26:57.000Z</time>
      </trkpt>
      <trkpt lat="43.24542" lon="-0.03045">
        <ele>398.23</ele>
        <time>2022-10-11T11:27:02.000Z</time>
      </trkpt>
      <trkpt lat="43.24545" lon="-0.03078">
        <ele>398.74</ele>
        <time>2022-10-11T11:27:07.000Z</time>
      </trkpt>
      <trkpt lat="43.24549" lon="-0.03115">
        <ele>398.73</ele>
        <time>2022-10-11T11:27:12.000Z</time>
      </trkpt>
      <trkpt lat="43.24552" lon="-0.03156">
        <ele>398.08</ele>
        <time>2022-10-11T11:27:17.000Z</time>
      </trkpt>
      <trkpt lat="43.24556" lon="-0.03198">
        <ele>396.3</ele>
        <time>2022-10-11T11:27:22.000Z</time>
      </trkpt>
      <trkpt lat="43.2456" lon="-0.03239">
        <ele>394.14</ele>
        <time>2022-10-11T11:27:27.000Z</time>
      </trkpt>
      <trkpt lat="43.24566" lon="-0.03286">
        <ele>390.53</ele>
        <time>2022-10-11T11:27:32.000Z</time>
      </trkpt>
      <trkpt lat="43.24571" lon="-0.03335">
        <ele>389.19</ele>
        <time>2022-10-11T11:27:37.000Z</time>
      </trkpt>
      <trkpt lat="43.24575" lon="-0.03389">
        <ele>386.95</ele>
        <time>2022-10-11T11:27:42.000Z</time>
      </trkpt>
      <trkpt lat="43.24583" lon="-0.03452">
        <ele>385.47</ele>
        <time>2022-10-11T11:27:47.000Z</time>
      </trkpt>
      <trkpt lat="43.24591" lon="-0.03515">
        <ele>382.75</ele>
        <time>2022-10-11T11:27:52.000Z</time>
      </trkpt>
      <trkpt lat="43.24598" lon="-0.03574">
        <ele>382.51</ele>
        <time>2022-10-11T11:27:57.000Z</time>
      </trkpt>
      <trkpt lat="43.24603" lon="-0.03621">
        <ele>382.28</ele>
        <time>2022-10-11T11:28:02.000Z</time>
      </trkpt>
      <trkpt lat="43.24606" lon="-0.03656">
        <ele>382.83</ele>
        <time>2022-10-11T11:28:07.000Z</time>
      </trkpt>
      <trkpt lat="43.24609" lon="-0.03684">
        <ele>383.54</ele>
        <time>2022-10-11T11:28:12.000Z</time>
      </trkpt>
      <trkpt lat="43.2461" lon="-0.03705">
        <ele>384.22</ele>
        <time>2022-10-11T11:28:17.000Z</time>
      </trkpt>
      <trkpt lat="43.24613" lon="-0.03725">
        <ele>384.9</ele>
        <time>2022-10-11T11:28:22.000Z</time>
      </trkpt>
      <trkpt lat="43.24615" lon="-0.03748">
        <ele>384.58</ele>
        <time>2022-10-11T11:28:27.000Z</time>
      </trkpt>
      <trkpt lat="43.24618" lon="-0.03771">
        <ele>384.48</ele>
        <time>2022-10-11T11:28:32.000Z</time>
      </trkpt>
      <trkpt lat="43.2462" lon="-0.03794">
        <ele>385.5</ele>
        <time>2022-10-11T11:28:37.000Z</time>
      </trkpt>
      <trkpt lat="43.24622" lon="-0.03814">
        <ele>385.9</ele>
        <time>2022-10-11T11:28:42.000Z</time>
      </trkpt>
      <trkpt lat="43.24624" lon="-0.03836">
        <ele>384.78</ele>
        <time>2022-10-11T11:28:47.000Z</time>
      </trkpt>
      <trkpt lat="43.24626" lon="-0.03861">
        <ele>386.01</ele>
        <time>2022-10-11T11:28:52.000Z</time>
      </trkpt>
      <trkpt lat="43.24627" lon="-0.03884">
        <ele>386.93</ele>
        <time>2022-10-11T11:28:57.000Z</time>
      </trkpt>
      <trkpt lat="43.2463" lon="-0.03909">
        <ele>385.46</ele>
        <time>2022-10-11T11:29:02.000Z</time>
      </trkpt>
      <trkpt lat="43.24632" lon="-0.03938">
        <ele>385.98</ele>
        <time>2022-10-11T11:29:07.000Z</time>
      </trkpt>
      <trkpt lat="43.24635" lon="-0.0397">
        <ele>388.62</ele>
        <time>2022-10-11T11:29:12.000Z</time>
      </trkpt>
      <trkpt lat="43.24638" lon="-0.04006">
        <ele>391.79</ele>
        <time>2022-10-11T11:29:17.000Z</time>
      </trkpt>
      <trkpt lat="43.24639" lon="-0.04043">
        <ele>394.68</ele>
        <time>2022-10-11T11:29:22.000Z</time>
      </trkpt>
      <trkpt lat="43.24643" lon="-0.04077">
        <ele>395.64</ele>
        <time>2022-10-11T11:29:27.000Z</time>
      </trkpt>
      <trkpt lat="43.24647" lon="-0.04117">
        <ele>395.75</ele>
        <time>2022-10-11T11:29:32.000Z</time>
      </trkpt>
      <trkpt lat="43.2465" lon="-0.04157">
        <ele>395.24</ele>
        <time>2022-10-11T11:29:37.000Z</time>
      </trkpt>
      <trkpt lat="43.24654" lon="-0.042">
        <ele>395.02</ele>
        <time>2022-10-11T11:29:42.000Z</time>
      </trkpt>
      <trkpt lat="43.24657" lon="-0.04244">
        <ele>395.32</ele>
        <time>2022-10-11T11:29:47.000Z</time>
      </trkpt>
      <trkpt lat="43.24661" lon="-0.04288">
        <ele>397.2</ele>
        <time>2022-10-11T11:29:52.000Z</time>
      </trkpt>
      <trkpt lat="43.24666" lon="-0.04331">
        <ele>399.04</ele>
        <time>2022-10-11T11:29:57.000Z</time>
      </trkpt>
      <trkpt lat="43.24669" lon="-0.04371">
        <ele>400.65</ele>
        <time>2022-10-11T11:30:02.000Z</time>
      </trkpt>
      <trkpt lat="43.24676" lon="-0.04408">
        <ele>400.05</ele>
        <time>2022-10-11T11:30:07.000Z</time>
      </trkpt>
      <trkpt lat="43.2468" lon="-0.04447">
        <ele>400.18</ele>
        <time>2022-10-11T11:30:12.000Z</time>
      </trkpt>
      <trkpt lat="43.24684" lon="-0.04485">
        <ele>399.88</ele>
        <time>2022-10-11T11:30:17.000Z</time>
      </trkpt>
      <trkpt lat="43.24689" lon="-0.0452">
        <ele>399.14</ele>
        <time>2022-10-11T11:30:22.000Z</time>
      </trkpt>
      <trkpt lat="43.24691" lon="-0.04555">
        <ele>398.28</ele>
        <time>2022-10-11T11:30:27.000Z</time>
      </trkpt>
      <trkpt lat="43.24695" lon="-0.04592">
        <ele>397.38</ele>
        <time>2022-10-11T11:30:32.000Z</time>
      </trkpt>
      <trkpt lat="43.24699" lon="-0.04631">
        <ele>395.83</ele>
        <time>2022-10-11T11:30:37.000Z</time>
      </trkpt>
      <trkpt lat="43.24702" lon="-0.0467">
        <ele>393.98</ele>
        <time>2022-10-11T11:30:42.000Z</time>
      </trkpt>
      <trkpt lat="43.24707" lon="-0.04714">
        <ele>393.3</ele>
        <time>2022-10-11T11:30:47.000Z</time>
      </trkpt>
      <trkpt lat="43.24712" lon="-0.04757">
        <ele>393.24</ele>
        <time>2022-10-11T11:30:52.000Z</time>
      </trkpt>
      <trkpt lat="43.24717" lon="-0.04799">
        <ele>392.76</ele>
        <time>2022-10-11T11:30:57.000Z</time>
      </trkpt>
      <trkpt lat="43.24722" lon="-0.04841">
        <ele>392.3</ele>
        <time>2022-10-11T11:31:02.000Z</time>
      </trkpt>
      <trkpt lat="43.24727" lon="-0.04875">
        <ele>393.34</ele>
        <time>2022-10-11T11:31:07.000Z</time>
      </trkpt>
      <trkpt lat="43.24731" lon="-0.04907">
        <ele>394.09</ele>
        <time>2022-10-11T11:31:12.000Z</time>
      </trkpt>
      <trkpt lat="43.24736" lon="-0.0494">
        <ele>395.05</ele>
        <time>2022-10-11T11:31:17.000Z</time>
      </trkpt>
      <trkpt lat="43.24739" lon="-0.0497">
        <ele>395.03</ele>
        <time>2022-10-11T11:31:22.000Z</time>
      </trkpt>
      <trkpt lat="43.24742" lon="-0.05001">
        <ele>394.3</ele>
        <time>2022-10-11T11:31:27.000Z</time>
      </trkpt>
      <trkpt lat="43.24745" lon="-0.05031">
        <ele>393.42</ele>
        <time>2022-10-11T11:31:32.000Z</time>
      </trkpt>
      <trkpt lat="43.24747" lon="-0.0506">
        <ele>393.79</ele>
        <time>2022-10-11T11:31:37.000Z</time>
      </trkpt>
      <trkpt lat="43.24751" lon="-0.0509">
        <ele>395.18</ele>
        <time>2022-10-11T11:31:42.000Z</time>
      </trkpt>
      <trkpt lat="43.24752" lon="-0.05117">
        <ele>394.97</ele>
        <time>2022-10-11T11:31:47.000Z</time>
      </trkpt>
      <trkpt lat="43.24755" lon="-0.05148">
        <ele>394.77</ele>
        <time>2022-10-11T11:31:52.000Z</time>
      </trkpt>
      <trkpt lat="43.24756" lon="-0.05179">
        <ele>396.48</ele>
        <time>2022-10-11T11:31:57.000Z</time>
      </trkpt>
      <trkpt lat="43.24758" lon="-0.05211">
        <ele>397.55</ele>
        <time>2022-10-11T11:32:02.000Z</time>
      </trkpt>
      <trkpt lat="43.24762" lon="-0.05245">
        <ele>397.82</ele>
        <time>2022-10-11T11:32:07.000Z</time>
      </trkpt>
      <trkpt lat="43.24767" lon="-0.0528">
        <ele>397.71</ele>
        <time>2022-10-11T11:32:12.000Z</time>
      </trkpt>
      <trkpt lat="43.24771" lon="-0.05318">
        <ele>396.9</ele>
        <time>2022-10-11T11:32:17.000Z</time>
      </trkpt>
      <trkpt lat="43.24777" lon="-0.05355">
        <ele>396.75</ele>
        <time>2022-10-11T11:32:22.000Z</time>
      </trkpt>
      <trkpt lat="43.24783" lon="-0.05395">
        <ele>397.41</ele>
        <time>2022-10-11T11:32:27.000Z</time>
      </trkpt>
      <trkpt lat="43.24785" lon="-0.05434">
        <ele>398.25</ele>
        <time>2022-10-11T11:32:32.000Z</time>
      </trkpt>
      <trkpt lat="43.24786" lon="-0.0547">
        <ele>399.37</ele>
        <time>2022-10-11T11:32:37.000Z</time>
      </trkpt>
      <trkpt lat="43.24789" lon="-0.05506">
        <ele>400.14</ele>
        <time>2022-10-11T11:32:42.000Z</time>
      </trkpt>
      <trkpt lat="43.24793" lon="-0.05543">
        <ele>399.91</ele>
        <time>2022-10-11T11:32:47.000Z</time>
      </trkpt>
      <trkpt lat="43.24797" lon="-0.05579">
        <ele>398.66</ele>
        <time>2022-10-11T11:32:52.000Z</time>
      </trkpt>
      <trkpt lat="43.24803" lon="-0.05612">
        <ele>398.8</ele>
        <time>2022-10-11T11:32:57.000Z</time>
      </trkpt>
      <trkpt lat="43.24808" lon="-0.05644">
        <ele>398.94</ele>
        <time>2022-10-11T11:33:02.000Z</time>
      </trkpt>
      <trkpt lat="43.24816" lon="-0.05678">
        <ele>399.17</ele>
        <time>2022-10-11T11:33:07.000Z</time>
      </trkpt>
      <trkpt lat="43.24828" lon="-0.05713">
        <ele>399.35</ele>
        <time>2022-10-11T11:33:12.000Z</time>
      </trkpt>
      <trkpt lat="43.24824" lon="-0.05755">
        <ele>397.88</ele>
        <time>2022-10-11T11:33:17.000Z</time>
      </trkpt>
      <trkpt lat="43.24826" lon="-0.05796">
        <ele>397.45</ele>
        <time>2022-10-11T11:33:22.000Z</time>
      </trkpt>
      <trkpt lat="43.24829" lon="-0.05839">
        <ele>397.38</ele>
        <time>2022-10-11T11:33:27.000Z</time>
      </trkpt>
      <trkpt lat="43.24832" lon="-0.05884">
        <ele>397.62</ele>
        <time>2022-10-11T11:33:32.000Z</time>
      </trkpt>
      <trkpt lat="43.24833" lon="-0.05926">
        <ele>397.76</ele>
        <time>2022-10-11T11:33:37.000Z</time>
      </trkpt>
      <trkpt lat="43.24838" lon="-0.0597">
        <ele>396.78</ele>
        <time>2022-10-11T11:33:42.000Z</time>
      </trkpt>
      <trkpt lat="43.24841" lon="-0.06014">
        <ele>396.15</ele>
        <time>2022-10-11T11:33:47.000Z</time>
      </trkpt>
      <trkpt lat="43.24847" lon="-0.06062">
        <ele>394.95</ele>
        <time>2022-10-11T11:33:52.000Z</time>
      </trkpt>
      <trkpt lat="43.24851" lon="-0.0611">
        <ele>392.8</ele>
        <time>2022-10-11T11:33:57.000Z</time>
      </trkpt>
      <trkpt lat="43.24856" lon="-0.06155">
        <ele>392.8</ele>
        <time>2022-10-11T11:34:02.000Z</time>
      </trkpt>
      <trkpt lat="43.2486" lon="-0.06194">
        <ele>393.81</ele>
        <time>2022-10-11T11:34:07.000Z</time>
      </trkpt>
      <trkpt lat="43.24864" lon="-0.06227">
        <ele>394.55</ele>
        <time>2022-10-11T11:34:12.000Z</time>
      </trkpt>
      <trkpt lat="43.24864" lon="-0.06257">
        <ele>396.15</ele>
        <time>2022-10-11T11:34:17.000Z</time>
      </trkpt>
      <trkpt lat="43.24866" lon="-0.06285">
        <ele>398.5</ele>
        <time>2022-10-11T11:34:22.000Z</time>
      </trkpt>
      <trkpt lat="43.2487" lon="-0.06312">
        <ele>399.95</ele>
        <time>2022-10-11T11:34:27.000Z</time>
      </trkpt>
      <trkpt lat="43.24864" lon="-0.06303">
        <ele>398.58</ele>
        <time>2022-10-11T11:34:54.000Z</time>
      </trkpt>
      <trkpt lat="43.24872" lon="-0.0631">
        <ele>400.53</ele>
        <time>2022-10-11T11:40:36.000Z</time>
      </trkpt>
      <trkpt lat="43.24874" lon="-0.06325">
        <ele>400.13</ele>
        <time>2022-10-11T11:40:41.000Z</time>
      </trkpt>
      <trkpt lat="43.24877" lon="-0.06352">
        <ele>399.54</ele>
        <time>2022-10-11T11:40:46.000Z</time>
      </trkpt>
      <trkpt lat="43.2488" lon="-0.0638">
        <ele>399.02</ele>
        <time>2022-10-11T11:40:51.000Z</time>
      </trkpt>
      <trkpt lat="43.24882" lon="-0.0641">
        <ele>399.27</ele>
        <time>2022-10-11T11:40:56.000Z</time>
      </trkpt>
      <trkpt lat="43.24883" lon="-0.06441">
        <ele>399.77</ele>
        <time>2022-10-11T11:41:01.000Z</time>
      </trkpt>
      <trkpt lat="43.24883" lon="-0.06475">
        <ele>400.24</ele>
        <time>2022-10-11T11:41:06.000Z</time>
      </trkpt>
      <trkpt lat="43.24881" lon="-0.06512">
        <ele>400.45</ele>
        <time>2022-10-11T11:41:11.000Z</time>
      </trkpt>
      <trkpt lat="43.24879" lon="-0.06549">
        <ele>400.89</ele>
        <time>2022-10-11T11:41:16.000Z</time>
      </trkpt>
      <trkpt lat="43.24878" lon="-0.06586">
        <ele>401.75</ele>
        <time>2022-10-11T11:41:21.000Z</time>
      </trkpt>
      <trkpt lat="43.24876" lon="-0.06623">
        <ele>402.37</ele>
        <time>2022-10-11T11:41:26.000Z</time>
      </trkpt>
      <trkpt lat="43.24875" lon="-0.0666">
        <ele>401.62</ele>
        <time>2022-10-11T11:41:31.000Z</time>
      </trkpt>
      <trkpt lat="43.24875" lon="-0.06699">
        <ele>402.4</ele>
        <time>2022-10-11T11:41:36.000Z</time>
      </trkpt>
      <trkpt lat="43.24873" lon="-0.06742">
        <ele>402.59</ele>
        <time>2022-10-11T11:41:41.000Z</time>
      </trkpt>
      <trkpt lat="43.24873" lon="-0.06786">
        <ele>402.31</ele>
        <time>2022-10-11T11:41:46.000Z</time>
      </trkpt>
      <trkpt lat="43.24872" lon="-0.0683">
        <ele>401.48</ele>
        <time>2022-10-11T11:41:51.000Z</time>
      </trkpt>
      <trkpt lat="43.24869" lon="-0.06875">
        <ele>400.41</ele>
        <time>2022-10-11T11:41:56.000Z</time>
      </trkpt>
      <trkpt lat="43.24868" lon="-0.06921">
        <ele>399.6</ele>
        <time>2022-10-11T11:42:01.000Z</time>
      </trkpt>
      <trkpt lat="43.24867" lon="-0.06963">
        <ele>399.43</ele>
        <time>2022-10-11T11:42:06.000Z</time>
      </trkpt>
      <trkpt lat="43.24867" lon="-0.07002">
        <ele>398.06</ele>
        <time>2022-10-11T11:42:11.000Z</time>
      </trkpt>
      <trkpt lat="43.24866" lon="-0.07033">
        <ele>397.9</ele>
        <time>2022-10-11T11:42:16.000Z</time>
      </trkpt>
      <trkpt lat="43.24866" lon="-0.07062">
        <ele>397.91</ele>
        <time>2022-10-11T11:42:21.000Z</time>
      </trkpt>
      <trkpt lat="43.24867" lon="-0.07091">
        <ele>399.68</ele>
        <time>2022-10-11T11:42:26.000Z</time>
      </trkpt>
      <trkpt lat="43.24866" lon="-0.07119">
        <ele>400</ele>
        <time>2022-10-11T11:42:31.000Z</time>
      </trkpt>
      <trkpt lat="43.24867" lon="-0.07146">
        <ele>401.78</ele>
        <time>2022-10-11T11:42:36.000Z</time>
      </trkpt>
      <trkpt lat="43.24865" lon="-0.07177">
        <ele>403.24</ele>
        <time>2022-10-11T11:42:41.000Z</time>
      </trkpt>
      <trkpt lat="43.24864" lon="-0.07208">
        <ele>404.23</ele>
        <time>2022-10-11T11:42:46.000Z</time>
      </trkpt>
      <trkpt lat="43.24864" lon="-0.07237">
        <ele>404.54</ele>
        <time>2022-10-11T11:42:51.000Z</time>
      </trkpt>
      <trkpt lat="43.24862" lon="-0.07268">
        <ele>405.53</ele>
        <time>2022-10-11T11:42:56.000Z</time>
      </trkpt>
      <trkpt lat="43.24862" lon="-0.07299">
        <ele>406.39</ele>
        <time>2022-10-11T11:43:01.000Z</time>
      </trkpt>
      <trkpt lat="43.24861" lon="-0.07331">
        <ele>408.17</ele>
        <time>2022-10-11T11:43:06.000Z</time>
      </trkpt>
      <trkpt lat="43.2486" lon="-0.07361">
        <ele>408.04</ele>
        <time>2022-10-11T11:43:11.000Z</time>
      </trkpt>
      <trkpt lat="43.2486" lon="-0.07389">
        <ele>407.88</ele>
        <time>2022-10-11T11:43:16.000Z</time>
      </trkpt>
      <trkpt lat="43.2486" lon="-0.07418">
        <ele>406.81</ele>
        <time>2022-10-11T11:43:21.000Z</time>
      </trkpt>
      <trkpt lat="43.24859" lon="-0.07453">
        <ele>406.68</ele>
        <time>2022-10-11T11:43:26.000Z</time>
      </trkpt>
      <trkpt lat="43.24857" lon="-0.07487">
        <ele>407.09</ele>
        <time>2022-10-11T11:43:31.000Z</time>
      </trkpt>
      <trkpt lat="43.24856" lon="-0.07527">
        <ele>406.91</ele>
        <time>2022-10-11T11:43:36.000Z</time>
      </trkpt>
      <trkpt lat="43.24854" lon="-0.07567">
        <ele>405.59</ele>
        <time>2022-10-11T11:43:41.000Z</time>
      </trkpt>
      <trkpt lat="43.24852" lon="-0.07607">
        <ele>404.67</ele>
        <time>2022-10-11T11:43:46.000Z</time>
      </trkpt>
      <trkpt lat="43.24853" lon="-0.07644">
        <ele>403.2</ele>
        <time>2022-10-11T11:43:51.000Z</time>
      </trkpt>
      <trkpt lat="43.24851" lon="-0.07681">
        <ele>402.3</ele>
        <time>2022-10-11T11:43:56.000Z</time>
      </trkpt>
      <trkpt lat="43.24849" lon="-0.07718">
        <ele>401.94</ele>
        <time>2022-10-11T11:44:01.000Z</time>
      </trkpt>
      <trkpt lat="43.24849" lon="-0.07754">
        <ele>400.66</ele>
        <time>2022-10-11T11:44:06.000Z</time>
      </trkpt>
      <trkpt lat="43.24848" lon="-0.07792">
        <ele>399.18</ele>
        <time>2022-10-11T11:44:11.000Z</time>
      </trkpt>
      <trkpt lat="43.24848" lon="-0.07829">
        <ele>396.36</ele>
        <time>2022-10-11T11:44:16.000Z</time>
      </trkpt>
      <trkpt lat="43.24848" lon="-0.07868">
        <ele>395.95</ele>
        <time>2022-10-11T11:44:21.000Z</time>
      </trkpt>
      <trkpt lat="43.2485" lon="-0.07901">
        <ele>400.48</ele>
        <time>2022-10-11T11:44:26.000Z</time>
      </trkpt>
      <trkpt lat="43.24851" lon="-0.07933">
        <ele>403.21</ele>
        <time>2022-10-11T11:44:31.000Z</time>
      </trkpt>
      <trkpt lat="43.24849" lon="-0.07968">
        <ele>404.76</ele>
        <time>2022-10-11T11:44:36.000Z</time>
      </trkpt>
      <trkpt lat="43.24847" lon="-0.08001">
        <ele>405.12</ele>
        <time>2022-10-11T11:44:41.000Z</time>
      </trkpt>
      <trkpt lat="43.24847" lon="-0.08035">
        <ele>405.69</ele>
        <time>2022-10-11T11:44:46.000Z</time>
      </trkpt>
      <trkpt lat="43.24845" lon="-0.08069">
        <ele>406.72</ele>
        <time>2022-10-11T11:44:51.000Z</time>
      </trkpt>
      <trkpt lat="43.24844" lon="-0.08104">
        <ele>405.54</ele>
        <time>2022-10-11T11:44:56.000Z</time>
      </trkpt>
      <trkpt lat="43.24844" lon="-0.08138">
        <ele>405.65</ele>
        <time>2022-10-11T11:45:01.000Z</time>
      </trkpt>
      <trkpt lat="43.24844" lon="-0.08172">
        <ele>406.35</ele>
        <time>2022-10-11T11:45:06.000Z</time>
      </trkpt>
      <trkpt lat="43.24843" lon="-0.08207">
        <ele>406.79</ele>
        <time>2022-10-11T11:45:11.000Z</time>
      </trkpt>
      <trkpt lat="43.24841" lon="-0.08245">
        <ele>406.61</ele>
        <time>2022-10-11T11:45:16.000Z</time>
      </trkpt>
      <trkpt lat="43.24839" lon="-0.08288">
        <ele>407.44</ele>
        <time>2022-10-11T11:45:21.000Z</time>
      </trkpt>
      <trkpt lat="43.24838" lon="-0.0833">
        <ele>408.33</ele>
        <time>2022-10-11T11:45:26.000Z</time>
      </trkpt>
      <trkpt lat="43.24836" lon="-0.08378">
        <ele>408.07</ele>
        <time>2022-10-11T11:45:31.000Z</time>
      </trkpt>
      <trkpt lat="43.24836" lon="-0.08432">
        <ele>404.31</ele>
        <time>2022-10-11T11:45:36.000Z</time>
      </trkpt>
      <trkpt lat="43.24835" lon="-0.0849">
        <ele>401.21</ele>
        <time>2022-10-11T11:45:41.000Z</time>
      </trkpt>
      <trkpt lat="43.24834" lon="-0.08555">
        <ele>398</ele>
        <time>2022-10-11T11:45:46.000Z</time>
      </trkpt>
      <trkpt lat="43.24831" lon="-0.08624">
        <ele>396.18</ele>
        <time>2022-10-11T11:45:51.000Z</time>
      </trkpt>
      <trkpt lat="43.24829" lon="-0.08693">
        <ele>393.23</ele>
        <time>2022-10-11T11:45:56.000Z</time>
      </trkpt>
      <trkpt lat="43.24827" lon="-0.08764">
        <ele>389.28</ele>
        <time>2022-10-11T11:46:01.000Z</time>
      </trkpt>
      <trkpt lat="43.24826" lon="-0.08837">
        <ele>386.09</ele>
        <time>2022-10-11T11:46:06.000Z</time>
      </trkpt>
      <trkpt lat="43.24825" lon="-0.08913">
        <ele>383.37</ele>
        <time>2022-10-11T11:46:11.000Z</time>
      </trkpt>
      <trkpt lat="43.24825" lon="-0.08982">
        <ele>380.63</ele>
        <time>2022-10-11T11:46:16.000Z</time>
      </trkpt>
      <trkpt lat="43.24825" lon="-0.09044">
        <ele>377.89</ele>
        <time>2022-10-11T11:46:21.000Z</time>
      </trkpt>
      <trkpt lat="43.24823" lon="-0.091">
        <ele>376.03</ele>
        <time>2022-10-11T11:46:26.000Z</time>
      </trkpt>
      <trkpt lat="43.24822" lon="-0.09148">
        <ele>375.5</ele>
        <time>2022-10-11T11:46:31.000Z</time>
      </trkpt>
      <trkpt lat="43.24821" lon="-0.09191">
        <ele>375.43</ele>
        <time>2022-10-11T11:46:36.000Z</time>
      </trkpt>
      <trkpt lat="43.24823" lon="-0.0923">
        <ele>375.95</ele>
        <time>2022-10-11T11:46:41.000Z</time>
      </trkpt>
      <trkpt lat="43.24824" lon="-0.09264">
        <ele>377.15</ele>
        <time>2022-10-11T11:46:46.000Z</time>
      </trkpt>
      <trkpt lat="43.24824" lon="-0.09293">
        <ele>379.43</ele>
        <time>2022-10-11T11:46:51.000Z</time>
      </trkpt>
      <trkpt lat="43.24822" lon="-0.09317">
        <ele>381.29</ele>
        <time>2022-10-11T11:46:56.000Z</time>
      </trkpt>
      <trkpt lat="43.2482" lon="-0.09342">
        <ele>384.41</ele>
        <time>2022-10-11T11:47:01.000Z</time>
      </trkpt>
      <trkpt lat="43.24818" lon="-0.09364">
        <ele>386.42</ele>
        <time>2022-10-11T11:47:06.000Z</time>
      </trkpt>
      <trkpt lat="43.24817" lon="-0.09387">
        <ele>387.53</ele>
        <time>2022-10-11T11:47:11.000Z</time>
      </trkpt>
      <trkpt lat="43.24818" lon="-0.09407">
        <ele>387.86</ele>
        <time>2022-10-11T11:47:16.000Z</time>
      </trkpt>
      <trkpt lat="43.24817" lon="-0.09427">
        <ele>388.82</ele>
        <time>2022-10-11T11:47:21.000Z</time>
      </trkpt>
      <trkpt lat="43.24815" lon="-0.09448">
        <ele>391.77</ele>
        <time>2022-10-11T11:47:26.000Z</time>
      </trkpt>
      <trkpt lat="43.24815" lon="-0.09471">
        <ele>394.16</ele>
        <time>2022-10-11T11:47:31.000Z</time>
      </trkpt>
      <trkpt lat="43.24813" lon="-0.0949">
        <ele>396.42</ele>
        <time>2022-10-11T11:47:36.000Z</time>
      </trkpt>
      <trkpt lat="43.24813" lon="-0.09508">
        <ele>398.17</ele>
        <time>2022-10-11T11:47:41.000Z</time>
      </trkpt>
      <trkpt lat="43.24811" lon="-0.09528">
        <ele>400.2</ele>
        <time>2022-10-11T11:47:46.000Z</time>
      </trkpt>
      <trkpt lat="43.24811" lon="-0.09552">
        <ele>401.81</ele>
        <time>2022-10-11T11:47:51.000Z</time>
      </trkpt>
      <trkpt lat="43.24811" lon="-0.09577">
        <ele>402.45</ele>
        <time>2022-10-11T11:47:56.000Z</time>
      </trkpt>
      <trkpt lat="43.2481" lon="-0.09606">
        <ele>403.38</ele>
        <time>2022-10-11T11:48:01.000Z</time>
      </trkpt>
      <trkpt lat="43.24809" lon="-0.09638">
        <ele>401.31</ele>
        <time>2022-10-11T11:48:06.000Z</time>
      </trkpt>
      <trkpt lat="43.24809" lon="-0.09669">
        <ele>400.66</ele>
        <time>2022-10-11T11:48:11.000Z</time>
      </trkpt>
      <trkpt lat="43.24809" lon="-0.09703">
        <ele>399.37</ele>
        <time>2022-10-11T11:48:16.000Z</time>
      </trkpt>
      <trkpt lat="43.24808" lon="-0.0974">
        <ele>398.24</ele>
        <time>2022-10-11T11:48:21.000Z</time>
      </trkpt>
      <trkpt lat="43.24807" lon="-0.09781">
        <ele>397.32</ele>
        <time>2022-10-11T11:48:26.000Z</time>
      </trkpt>
      <trkpt lat="43.24807" lon="-0.09826">
        <ele>396.62</ele>
        <time>2022-10-11T11:48:31.000Z</time>
      </trkpt>
      <trkpt lat="43.24805" lon="-0.09871">
        <ele>394.6</ele>
        <time>2022-10-11T11:48:36.000Z</time>
      </trkpt>
      <trkpt lat="43.24805" lon="-0.09918">
        <ele>393.7</ele>
        <time>2022-10-11T11:48:41.000Z</time>
      </trkpt>
      <trkpt lat="43.24804" lon="-0.09966">
        <ele>393.13</ele>
        <time>2022-10-11T11:48:46.000Z</time>
      </trkpt>
      <trkpt lat="43.24803" lon="-0.10009">
        <ele>392.64</ele>
        <time>2022-10-11T11:48:51.000Z</time>
      </trkpt>
      <trkpt lat="43.24802" lon="-0.1005">
        <ele>392.6</ele>
        <time>2022-10-11T11:48:56.000Z</time>
      </trkpt>
      <trkpt lat="43.24801" lon="-0.1009">
        <ele>393.12</ele>
        <time>2022-10-11T11:49:01.000Z</time>
      </trkpt>
      <trkpt lat="43.248" lon="-0.10128">
        <ele>393.94</ele>
        <time>2022-10-11T11:49:06.000Z</time>
      </trkpt>
      <trkpt lat="43.24798" lon="-0.10166">
        <ele>393.38</ele>
        <time>2022-10-11T11:49:11.000Z</time>
      </trkpt>
      <trkpt lat="43.24796" lon="-0.10205">
        <ele>392.66</ele>
        <time>2022-10-11T11:49:16.000Z</time>
      </trkpt>
      <trkpt lat="43.24793" lon="-0.10244">
        <ele>391.63</ele>
        <time>2022-10-11T11:49:21.000Z</time>
      </trkpt>
      <trkpt lat="43.24793" lon="-0.1029">
        <ele>390.02</ele>
        <time>2022-10-11T11:49:26.000Z</time>
      </trkpt>
      <trkpt lat="43.24792" lon="-0.10338">
        <ele>389.48</ele>
        <time>2022-10-11T11:49:31.000Z</time>
      </trkpt>
      <trkpt lat="43.24789" lon="-0.10389">
        <ele>388.74</ele>
        <time>2022-10-11T11:49:36.000Z</time>
      </trkpt>
      <trkpt lat="43.24787" lon="-0.10434">
        <ele>387.72</ele>
        <time>2022-10-11T11:49:41.000Z</time>
      </trkpt>
      <trkpt lat="43.24788" lon="-0.10476">
        <ele>387.53</ele>
        <time>2022-10-11T11:49:46.000Z</time>
      </trkpt>
      <trkpt lat="43.24787" lon="-0.10517">
        <ele>389.26</ele>
        <time>2022-10-11T11:49:51.000Z</time>
      </trkpt>
      <trkpt lat="43.24786" lon="-0.10554">
        <ele>391.5</ele>
        <time>2022-10-11T11:49:56.000Z</time>
      </trkpt>
      <trkpt lat="43.24785" lon="-0.10587">
        <ele>392.39</ele>
        <time>2022-10-11T11:50:01.000Z</time>
      </trkpt>
      <trkpt lat="43.24784" lon="-0.10621">
        <ele>393.48</ele>
        <time>2022-10-11T11:50:06.000Z</time>
      </trkpt>
      <trkpt lat="43.24782" lon="-0.10654">
        <ele>393.37</ele>
        <time>2022-10-11T11:50:11.000Z</time>
      </trkpt>
      <trkpt lat="43.2478" lon="-0.1069">
        <ele>394.84</ele>
        <time>2022-10-11T11:50:16.000Z</time>
      </trkpt>
      <trkpt lat="43.2478" lon="-0.10727">
        <ele>395.13</ele>
        <time>2022-10-11T11:50:21.000Z</time>
      </trkpt>
      <trkpt lat="43.2478" lon="-0.10765">
        <ele>395.09</ele>
        <time>2022-10-11T11:50:26.000Z</time>
      </trkpt>
      <trkpt lat="43.24781" lon="-0.10806">
        <ele>394.57</ele>
        <time>2022-10-11T11:50:31.000Z</time>
      </trkpt>
      <trkpt lat="43.24784" lon="-0.10849">
        <ele>394.09</ele>
        <time>2022-10-11T11:50:36.000Z</time>
      </trkpt>
      <trkpt lat="43.24788" lon="-0.10895">
        <ele>395.15</ele>
        <time>2022-10-11T11:50:41.000Z</time>
      </trkpt>
      <trkpt lat="43.24796" lon="-0.10947">
        <ele>396.63</ele>
        <time>2022-10-11T11:50:46.000Z</time>
      </trkpt>
      <trkpt lat="43.24809" lon="-0.11">
        <ele>395.65</ele>
        <time>2022-10-11T11:50:51.000Z</time>
      </trkpt>
      <trkpt lat="43.24824" lon="-0.11061">
        <ele>394.28</ele>
        <time>2022-10-11T11:50:56.000Z</time>
      </trkpt>
      <trkpt lat="43.2484" lon="-0.11125">
        <ele>393.68</ele>
        <time>2022-10-11T11:51:01.000Z</time>
      </trkpt>
      <trkpt lat="43.24853" lon="-0.11182">
        <ele>393.03</ele>
        <time>2022-10-11T11:51:06.000Z</time>
      </trkpt>
      <trkpt lat="43.24868" lon="-0.11232">
        <ele>392.86</ele>
        <time>2022-10-11T11:51:11.000Z</time>
      </trkpt>
      <trkpt lat="43.24881" lon="-0.11275">
        <ele>392.94</ele>
        <time>2022-10-11T11:51:16.000Z</time>
      </trkpt>
      <trkpt lat="43.24891" lon="-0.11312">
        <ele>393.1</ele>
        <time>2022-10-11T11:51:21.000Z</time>
      </trkpt>
      <trkpt lat="43.24897" lon="-0.11344">
        <ele>393.3</ele>
        <time>2022-10-11T11:51:26.000Z</time>
      </trkpt>
      <trkpt lat="43.24904" lon="-0.11377">
        <ele>393.58</ele>
        <time>2022-10-11T11:51:31.000Z</time>
      </trkpt>
      <trkpt lat="43.24912" lon="-0.11409">
        <ele>394.04</ele>
        <time>2022-10-11T11:51:36.000Z</time>
      </trkpt>
      <trkpt lat="43.24918" lon="-0.11438">
        <ele>395.19</ele>
        <time>2022-10-11T11:51:41.000Z</time>
      </trkpt>
      <trkpt lat="43.24925" lon="-0.11466">
        <ele>396.69</ele>
        <time>2022-10-11T11:51:46.000Z</time>
      </trkpt>
      <trkpt lat="43.24932" lon="-0.11498">
        <ele>397.36</ele>
        <time>2022-10-11T11:51:51.000Z</time>
      </trkpt>
      <trkpt lat="43.24939" lon="-0.11526">
        <ele>398.1</ele>
        <time>2022-10-11T11:51:56.000Z</time>
      </trkpt>
      <trkpt lat="43.24946" lon="-0.1156">
        <ele>398.11</ele>
        <time>2022-10-11T11:52:01.000Z</time>
      </trkpt>
      <trkpt lat="43.24953" lon="-0.11596">
        <ele>396.41</ele>
        <time>2022-10-11T11:52:06.000Z</time>
      </trkpt>
      <trkpt lat="43.24964" lon="-0.11638">
        <ele>394.28</ele>
        <time>2022-10-11T11:52:11.000Z</time>
      </trkpt>
      <trkpt lat="43.24975" lon="-0.11681">
        <ele>392.22</ele>
        <time>2022-10-11T11:52:16.000Z</time>
      </trkpt>
      <trkpt lat="43.24988" lon="-0.11726">
        <ele>390.52</ele>
        <time>2022-10-11T11:52:21.000Z</time>
      </trkpt>
      <trkpt lat="43.25002" lon="-0.11775">
        <ele>389.01</ele>
        <time>2022-10-11T11:52:26.000Z</time>
      </trkpt>
      <trkpt lat="43.25012" lon="-0.11821">
        <ele>388.04</ele>
        <time>2022-10-11T11:52:31.000Z</time>
      </trkpt>
      <trkpt lat="43.25023" lon="-0.11866">
        <ele>387.66</ele>
        <time>2022-10-11T11:52:36.000Z</time>
      </trkpt>
      <trkpt lat="43.25032" lon="-0.11908">
        <ele>389.05</ele>
        <time>2022-10-11T11:52:41.000Z</time>
      </trkpt>
      <trkpt lat="43.25042" lon="-0.11946">
        <ele>390.41</ele>
        <time>2022-10-11T11:52:46.000Z</time>
      </trkpt>
      <trkpt lat="43.25051" lon="-0.11986">
        <ele>391.8</ele>
        <time>2022-10-11T11:52:51.000Z</time>
      </trkpt>
      <trkpt lat="43.2506" lon="-0.12024">
        <ele>393.71</ele>
        <time>2022-10-11T11:52:56.000Z</time>
      </trkpt>
      <trkpt lat="43.25067" lon="-0.12061">
        <ele>393.43</ele>
        <time>2022-10-11T11:53:01.000Z</time>
      </trkpt>
      <trkpt lat="43.25075" lon="-0.121">
        <ele>393.52</ele>
        <time>2022-10-11T11:53:06.000Z</time>
      </trkpt>
      <trkpt lat="43.25085" lon="-0.12143">
        <ele>393.09</ele>
        <time>2022-10-11T11:53:11.000Z</time>
      </trkpt>
      <trkpt lat="43.25095" lon="-0.12183">
        <ele>393.35</ele>
        <time>2022-10-11T11:53:16.000Z</time>
      </trkpt>
      <trkpt lat="43.25105" lon="-0.12226">
        <ele>392.46</ele>
        <time>2022-10-11T11:53:21.000Z</time>
      </trkpt>
      <trkpt lat="43.25115" lon="-0.1227">
        <ele>393.15</ele>
        <time>2022-10-11T11:53:26.000Z</time>
      </trkpt>
      <trkpt lat="43.25125" lon="-0.12316">
        <ele>393.74</ele>
        <time>2022-10-11T11:53:31.000Z</time>
      </trkpt>
      <trkpt lat="43.25136" lon="-0.12357">
        <ele>393.07</ele>
        <time>2022-10-11T11:53:36.000Z</time>
      </trkpt>
      <trkpt lat="43.25146" lon="-0.12401">
        <ele>393.7</ele>
        <time>2022-10-11T11:53:41.000Z</time>
      </trkpt>
      <trkpt lat="43.25157" lon="-0.12447">
        <ele>393.46</ele>
        <time>2022-10-11T11:53:46.000Z</time>
      </trkpt>
      <trkpt lat="43.25169" lon="-0.12493">
        <ele>392.54</ele>
        <time>2022-10-11T11:53:51.000Z</time>
      </trkpt>
      <trkpt lat="43.25182" lon="-0.12542">
        <ele>390.67</ele>
        <time>2022-10-11T11:53:56.000Z</time>
      </trkpt>
      <trkpt lat="43.25194" lon="-0.12589">
        <ele>388.95</ele>
        <time>2022-10-11T11:54:01.000Z</time>
      </trkpt>
      <trkpt lat="43.25205" lon="-0.12633">
        <ele>386.89</ele>
        <time>2022-10-11T11:54:06.000Z</time>
      </trkpt>
      <trkpt lat="43.25212" lon="-0.12673">
        <ele>385.59</ele>
        <time>2022-10-11T11:54:11.000Z</time>
      </trkpt>
      <trkpt lat="43.2522" lon="-0.12713">
        <ele>384.89</ele>
        <time>2022-10-11T11:54:16.000Z</time>
      </trkpt>
      <trkpt lat="43.25227" lon="-0.12751">
        <ele>385.84</ele>
        <time>2022-10-11T11:54:21.000Z</time>
      </trkpt>
      <trkpt lat="43.25233" lon="-0.12788">
        <ele>386.75</ele>
        <time>2022-10-11T11:54:26.000Z</time>
      </trkpt>
      <trkpt lat="43.25237" lon="-0.1282">
        <ele>388.34</ele>
        <time>2022-10-11T11:54:31.000Z</time>
      </trkpt>
      <trkpt lat="43.25241" lon="-0.1285">
        <ele>389.85</ele>
        <time>2022-10-11T11:54:36.000Z</time>
      </trkpt>
      <trkpt lat="43.25247" lon="-0.12876">
        <ele>389.65</ele>
        <time>2022-10-11T11:54:41.000Z</time>
      </trkpt>
      <trkpt lat="43.25251" lon="-0.12907">
        <ele>389.99</ele>
        <time>2022-10-11T11:54:46.000Z</time>
      </trkpt>
      <trkpt lat="43.25254" lon="-0.12936">
        <ele>391.1</ele>
        <time>2022-10-11T11:54:51.000Z</time>
      </trkpt>
      <trkpt lat="43.25259" lon="-0.12968">
        <ele>391.42</ele>
        <time>2022-10-11T11:54:56.000Z</time>
      </trkpt>
      <trkpt lat="43.25263" lon="-0.13001">
        <ele>393.74</ele>
        <time>2022-10-11T11:55:01.000Z</time>
      </trkpt>
      <trkpt lat="43.25268" lon="-0.13035">
        <ele>395.57</ele>
        <time>2022-10-11T11:55:06.000Z</time>
      </trkpt>
      <trkpt lat="43.25274" lon="-0.13072">
        <ele>396.99</ele>
        <time>2022-10-11T11:55:11.000Z</time>
      </trkpt>
      <trkpt lat="43.25278" lon="-0.13107">
        <ele>395.87</ele>
        <time>2022-10-11T11:55:16.000Z</time>
      </trkpt>
      <trkpt lat="43.25284" lon="-0.13142">
        <ele>395.81</ele>
        <time>2022-10-11T11:55:21.000Z</time>
      </trkpt>
      <trkpt lat="43.2529" lon="-0.13182">
        <ele>395.4</ele>
        <time>2022-10-11T11:55:26.000Z</time>
      </trkpt>
      <trkpt lat="43.25298" lon="-0.13223">
        <ele>395.7</ele>
        <time>2022-10-11T11:55:31.000Z</time>
      </trkpt>
      <trkpt lat="43.25309" lon="-0.13268">
        <ele>395.43</ele>
        <time>2022-10-11T11:55:36.000Z</time>
      </trkpt>
      <trkpt lat="43.25327" lon="-0.13317">
        <ele>394.3</ele>
        <time>2022-10-11T11:55:41.000Z</time>
      </trkpt>
      <trkpt lat="43.2535" lon="-0.13366">
        <ele>392.43</ele>
        <time>2022-10-11T11:55:46.000Z</time>
      </trkpt>
      <trkpt lat="43.25375" lon="-0.13418">
        <ele>390.08</ele>
        <time>2022-10-11T11:55:51.000Z</time>
      </trkpt>
      <trkpt lat="43.25399" lon="-0.13471">
        <ele>387.99</ele>
        <time>2022-10-11T11:55:56.000Z</time>
      </trkpt>
      <trkpt lat="43.25419" lon="-0.13524">
        <ele>387.4</ele>
        <time>2022-10-11T11:56:01.000Z</time>
      </trkpt>
      <trkpt lat="43.25435" lon="-0.13578">
        <ele>386.09</ele>
        <time>2022-10-11T11:56:06.000Z</time>
      </trkpt>
      <trkpt lat="43.25449" lon="-0.13628">
        <ele>384.02</ele>
        <time>2022-10-11T11:56:11.000Z</time>
      </trkpt>
      <trkpt lat="43.25462" lon="-0.13678">
        <ele>383.38</ele>
        <time>2022-10-11T11:56:16.000Z</time>
      </trkpt>
      <trkpt lat="43.25475" lon="-0.13731">
        <ele>382.15</ele>
        <time>2022-10-11T11:56:21.000Z</time>
      </trkpt>
      <trkpt lat="43.25488" lon="-0.13787">
        <ele>381.45</ele>
        <time>2022-10-11T11:56:26.000Z</time>
      </trkpt>
      <trkpt lat="43.25502" lon="-0.13843">
        <ele>379.57</ele>
        <time>2022-10-11T11:56:31.000Z</time>
      </trkpt>
      <trkpt lat="43.25514" lon="-0.139">
        <ele>378.77</ele>
        <time>2022-10-11T11:56:36.000Z</time>
      </trkpt>
      <trkpt lat="43.25525" lon="-0.13954">
        <ele>378.93</ele>
        <time>2022-10-11T11:56:41.000Z</time>
      </trkpt>
      <trkpt lat="43.25534" lon="-0.14004">
        <ele>378.51</ele>
        <time>2022-10-11T11:56:46.000Z</time>
      </trkpt>
      <trkpt lat="43.25545" lon="-0.14051">
        <ele>378.12</ele>
        <time>2022-10-11T11:56:51.000Z</time>
      </trkpt>
      <trkpt lat="43.25558" lon="-0.14098">
        <ele>379.37</ele>
        <time>2022-10-11T11:56:56.000Z</time>
      </trkpt>
      <trkpt lat="43.25571" lon="-0.14143">
        <ele>381.22</ele>
        <time>2022-10-11T11:57:01.000Z</time>
      </trkpt>
      <trkpt lat="43.25581" lon="-0.14186">
        <ele>380.95</ele>
        <time>2022-10-11T11:57:06.000Z</time>
      </trkpt>
      <trkpt lat="43.25593" lon="-0.14233">
        <ele>380.85</ele>
        <time>2022-10-11T11:57:11.000Z</time>
      </trkpt>
      <trkpt lat="43.25606" lon="-0.14281">
        <ele>379.35</ele>
        <time>2022-10-11T11:57:16.000Z</time>
      </trkpt>
      <trkpt lat="43.25617" lon="-0.1433">
        <ele>378.66</ele>
        <time>2022-10-11T11:57:21.000Z</time>
      </trkpt>
      <trkpt lat="43.25628" lon="-0.14376">
        <ele>378.41</ele>
        <time>2022-10-11T11:57:26.000Z</time>
      </trkpt>
      <trkpt lat="43.2564" lon="-0.14422">
        <ele>378.39</ele>
        <time>2022-10-11T11:57:31.000Z</time>
      </trkpt>
      <trkpt lat="43.25651" lon="-0.14468">
        <ele>378.73</ele>
        <time>2022-10-11T11:57:36.000Z</time>
      </trkpt>
      <trkpt lat="43.25662" lon="-0.14514">
        <ele>378.35</ele>
        <time>2022-10-11T11:57:41.000Z</time>
      </trkpt>
      <trkpt lat="43.25674" lon="-0.14561">
        <ele>376.9</ele>
        <time>2022-10-11T11:57:46.000Z</time>
      </trkpt>
      <trkpt lat="43.25686" lon="-0.14615">
        <ele>376.04</ele>
        <time>2022-10-11T11:57:51.000Z</time>
      </trkpt>
      <trkpt lat="43.25697" lon="-0.14668">
        <ele>376.14</ele>
        <time>2022-10-11T11:57:56.000Z</time>
      </trkpt>
      <trkpt lat="43.25708" lon="-0.14717">
        <ele>377.69</ele>
        <time>2022-10-11T11:58:01.000Z</time>
      </trkpt>
      <trkpt lat="43.2572" lon="-0.14758">
        <ele>378.88</ele>
        <time>2022-10-11T11:58:06.000Z</time>
      </trkpt>
      <trkpt lat="43.25728" lon="-0.14795">
        <ele>379.35</ele>
        <time>2022-10-11T11:58:11.000Z</time>
      </trkpt>
      <trkpt lat="43.25738" lon="-0.14829">
        <ele>380.97</ele>
        <time>2022-10-11T11:58:16.000Z</time>
      </trkpt>
      <trkpt lat="43.25746" lon="-0.14861">
        <ele>382.35</ele>
        <time>2022-10-11T11:58:21.000Z</time>
      </trkpt>
      <trkpt lat="43.25753" lon="-0.14895">
        <ele>383.49</ele>
        <time>2022-10-11T11:58:26.000Z</time>
      </trkpt>
      <trkpt lat="43.25762" lon="-0.14929">
        <ele>382.73</ele>
        <time>2022-10-11T11:58:31.000Z</time>
      </trkpt>
      <trkpt lat="43.25771" lon="-0.14965">
        <ele>382.96</ele>
        <time>2022-10-11T11:58:36.000Z</time>
      </trkpt>
      <trkpt lat="43.2578" lon="-0.15001">
        <ele>382.11</ele>
        <time>2022-10-11T11:58:41.000Z</time>
      </trkpt>
      <trkpt lat="43.2579" lon="-0.15042">
        <ele>380.99</ele>
        <time>2022-10-11T11:58:46.000Z</time>
      </trkpt>
      <trkpt lat="43.258" lon="-0.15086">
        <ele>380.55</ele>
        <time>2022-10-11T11:58:51.000Z</time>
      </trkpt>
      <trkpt lat="43.2581" lon="-0.15128">
        <ele>379.32</ele>
        <time>2022-10-11T11:58:56.000Z</time>
      </trkpt>
      <trkpt lat="43.25821" lon="-0.15171">
        <ele>379.3</ele>
        <time>2022-10-11T11:59:01.000Z</time>
      </trkpt>
      <trkpt lat="43.25831" lon="-0.15214">
        <ele>378.18</ele>
        <time>2022-10-11T11:59:06.000Z</time>
      </trkpt>
      <trkpt lat="43.25842" lon="-0.15259">
        <ele>376.94</ele>
        <time>2022-10-11T11:59:11.000Z</time>
      </trkpt>
      <trkpt lat="43.25853" lon="-0.15304">
        <ele>376.27</ele>
        <time>2022-10-11T11:59:16.000Z</time>
      </trkpt>
      <trkpt lat="43.25861" lon="-0.1534">
        <ele>376.02</ele>
        <time>2022-10-11T11:59:21.000Z</time>
      </trkpt>
      <trkpt lat="43.2587" lon="-0.1538">
        <ele>375.2</ele>
        <time>2022-10-11T11:59:26.000Z</time>
      </trkpt>
      <trkpt lat="43.25882" lon="-0.15422">
        <ele>372.9</ele>
        <time>2022-10-11T11:59:31.000Z</time>
      </trkpt>
      <trkpt lat="43.25892" lon="-0.15465">
        <ele>371.45</ele>
        <time>2022-10-11T11:59:36.000Z</time>
      </trkpt>
      <trkpt lat="43.259" lon="-0.15502">
        <ele>370.76</ele>
        <time>2022-10-11T11:59:41.000Z</time>
      </trkpt>
      <trkpt lat="43.25908" lon="-0.15533">
        <ele>369.89</ele>
        <time>2022-10-11T11:59:46.000Z</time>
      </trkpt>
      <trkpt lat="43.25916" lon="-0.15566">
        <ele>370.2</ele>
        <time>2022-10-11T11:59:51.000Z</time>
      </trkpt>
      <trkpt lat="43.25923" lon="-0.15595">
        <ele>371.58</ele>
        <time>2022-10-11T11:59:56.000Z</time>
      </trkpt>
      <trkpt lat="43.25931" lon="-0.15625">
        <ele>371.7</ele>
        <time>2022-10-11T12:00:01.000Z</time>
      </trkpt>
      <trkpt lat="43.25938" lon="-0.15658">
        <ele>371.8</ele>
        <time>2022-10-11T12:00:06.000Z</time>
      </trkpt>
      <trkpt lat="43.25945" lon="-0.1569">
        <ele>371.68</ele>
        <time>2022-10-11T12:00:11.000Z</time>
      </trkpt>
      <trkpt lat="43.25951" lon="-0.1572">
        <ele>371.85</ele>
        <time>2022-10-11T12:00:16.000Z</time>
      </trkpt>
      <trkpt lat="43.25958" lon="-0.15749">
        <ele>372.63</ele>
        <time>2022-10-11T12:00:21.000Z</time>
      </trkpt>
      <trkpt lat="43.25966" lon="-0.15779">
        <ele>371.59</ele>
        <time>2022-10-11T12:00:26.000Z</time>
      </trkpt>
      <trkpt lat="43.25973" lon="-0.15807">
        <ele>372.01</ele>
        <time>2022-10-11T12:00:31.000Z</time>
      </trkpt>
      <trkpt lat="43.25971" lon="-0.15824">
        <ele>374.9</ele>
        <time>2022-10-11T12:00:36.000Z</time>
      </trkpt>
      <trkpt lat="43.25951" lon="-0.15834">
        <ele>375.08</ele>
        <time>2022-10-11T12:00:41.000Z</time>
      </trkpt>
      <trkpt lat="43.25928" lon="-0.15828">
        <ele>373.58</ele>
        <time>2022-10-11T12:00:46.000Z</time>
      </trkpt>
      <trkpt lat="43.25912" lon="-0.15808">
        <ele>373.17</ele>
        <time>2022-10-11T12:00:51.000Z</time>
      </trkpt>
      <trkpt lat="43.25902" lon="-0.15791">
        <ele>374.13</ele>
        <time>2022-10-11T12:00:56.000Z</time>
      </trkpt>
      <trkpt lat="43.25911" lon="-0.15798">
        <ele>377.8</ele>
        <time>2022-10-11T12:03:37.000Z</time>
      </trkpt>
      <trkpt lat="43.25923" lon="-0.15822">
        <ele>377.72</ele>
        <time>2022-10-11T12:03:42.000Z</time>
      </trkpt>
      <trkpt lat="43.25942" lon="-0.15844">
        <ele>377.54</ele>
        <time>2022-10-11T12:03:47.000Z</time>
      </trkpt>
      <trkpt lat="43.25961" lon="-0.15831">
        <ele>377.08</ele>
        <time>2022-10-11T12:03:52.000Z</time>
      </trkpt>
      <trkpt lat="43.25977" lon="-0.1583">
        <ele>376.75</ele>
        <time>2022-10-11T12:03:57.000Z</time>
      </trkpt>
      <trkpt lat="43.25989" lon="-0.15862">
        <ele>375.16</ele>
        <time>2022-10-11T12:04:02.000Z</time>
      </trkpt>
      <trkpt lat="43.25998" lon="-0.159">
        <ele>373.8</ele>
        <time>2022-10-11T12:04:07.000Z</time>
      </trkpt>
      <trkpt lat="43.26008" lon="-0.15944">
        <ele>373.16</ele>
        <time>2022-10-11T12:04:12.000Z</time>
      </trkpt>
      <trkpt lat="43.26005" lon="-0.15988">
        <ele>375.28</ele>
        <time>2022-10-11T12:04:17.000Z</time>
      </trkpt>
      <trkpt lat="43.25985" lon="-0.16029">
        <ele>377.27</ele>
        <time>2022-10-11T12:04:22.000Z</time>
      </trkpt>
      <trkpt lat="43.25964" lon="-0.16074">
        <ele>376.47</ele>
        <time>2022-10-11T12:04:27.000Z</time>
      </trkpt>
      <trkpt lat="43.25941" lon="-0.16122">
        <ele>375.37</ele>
        <time>2022-10-11T12:04:32.000Z</time>
      </trkpt>
      <trkpt lat="43.25919" lon="-0.16172">
        <ele>372.71</ele>
        <time>2022-10-11T12:04:37.000Z</time>
      </trkpt>
      <trkpt lat="43.25907" lon="-0.16232">
        <ele>369.59</ele>
        <time>2022-10-11T12:04:42.000Z</time>
      </trkpt>
      <trkpt lat="43.25911" lon="-0.16301">
        <ele>368.06</ele>
        <time>2022-10-11T12:04:47.000Z</time>
      </trkpt>
      <trkpt lat="43.2592" lon="-0.16369">
        <ele>364.02</ele>
        <time>2022-10-11T12:04:52.000Z</time>
      </trkpt>
      <trkpt lat="43.25928" lon="-0.16436">
        <ele>361.56</ele>
        <time>2022-10-11T12:04:57.000Z</time>
      </trkpt>
      <trkpt lat="43.25944" lon="-0.16505">
        <ele>358.85</ele>
        <time>2022-10-11T12:05:02.000Z</time>
      </trkpt>
      <trkpt lat="43.25965" lon="-0.1657">
        <ele>355.8</ele>
        <time>2022-10-11T12:05:07.000Z</time>
      </trkpt>
      <trkpt lat="43.25989" lon="-0.16637">
        <ele>352.53</ele>
        <time>2022-10-11T12:05:12.000Z</time>
      </trkpt>
      <trkpt lat="43.26" lon="-0.16705">
        <ele>349.6</ele>
        <time>2022-10-11T12:05:17.000Z</time>
      </trkpt>
      <trkpt lat="43.25995" lon="-0.1677">
        <ele>347.12</ele>
        <time>2022-10-11T12:05:22.000Z</time>
      </trkpt>
      <trkpt lat="43.25979" lon="-0.1683">
        <ele>344.17</ele>
        <time>2022-10-11T12:05:27.000Z</time>
      </trkpt>
      <trkpt lat="43.25967" lon="-0.16888">
        <ele>341.59</ele>
        <time>2022-10-11T12:05:32.000Z</time>
      </trkpt>
      <trkpt lat="43.25967" lon="-0.16959">
        <ele>338.8</ele>
        <time>2022-10-11T12:05:37.000Z</time>
      </trkpt>
      <trkpt lat="43.25974" lon="-0.17033">
        <ele>336.54</ele>
        <time>2022-10-11T12:05:42.000Z</time>
      </trkpt>
      <trkpt lat="43.25993" lon="-0.17098">
        <ele>333.61</ele>
        <time>2022-10-11T12:05:47.000Z</time>
      </trkpt>
      <trkpt lat="43.26025" lon="-0.17151">
        <ele>330.69</ele>
        <time>2022-10-11T12:05:52.000Z</time>
      </trkpt>
      <trkpt lat="43.2606" lon="-0.17199">
        <ele>327.87</ele>
        <time>2022-10-11T12:05:57.000Z</time>
      </trkpt>
      <trkpt lat="43.26098" lon="-0.17247">
        <ele>324.55</ele>
        <time>2022-10-11T12:06:02.000Z</time>
      </trkpt>
      <trkpt lat="43.26133" lon="-0.17297">
        <ele>321.54</ele>
        <time>2022-10-11T12:06:07.000Z</time>
      </trkpt>
      <trkpt lat="43.26166" lon="-0.1735">
        <ele>318.03</ele>
        <time>2022-10-11T12:06:12.000Z</time>
      </trkpt>
      <trkpt lat="43.26196" lon="-0.17403">
        <ele>315.12</ele>
        <time>2022-10-11T12:06:17.000Z</time>
      </trkpt>
      <trkpt lat="43.26223" lon="-0.17459">
        <ele>314.2</ele>
        <time>2022-10-11T12:06:22.000Z</time>
      </trkpt>
      <trkpt lat="43.26243" lon="-0.1752">
        <ele>313.45</ele>
        <time>2022-10-11T12:06:27.000Z</time>
      </trkpt>
      <trkpt lat="43.2626" lon="-0.17585">
        <ele>309.43</ele>
        <time>2022-10-11T12:06:32.000Z</time>
      </trkpt>
      <trkpt lat="43.26277" lon="-0.1765">
        <ele>305.59</ele>
        <time>2022-10-11T12:06:37.000Z</time>
      </trkpt>
      <trkpt lat="43.26293" lon="-0.17715">
        <ele>302.13</ele>
        <time>2022-10-11T12:06:42.000Z</time>
      </trkpt>
      <trkpt lat="43.26309" lon="-0.1778">
        <ele>298.82</ele>
        <time>2022-10-11T12:06:47.000Z</time>
      </trkpt>
      <trkpt lat="43.26323" lon="-0.17843">
        <ele>296.27</ele>
        <time>2022-10-11T12:06:52.000Z</time>
      </trkpt>
      <trkpt lat="43.2634" lon="-0.1791">
        <ele>293.58</ele>
        <time>2022-10-11T12:06:57.000Z</time>
      </trkpt>
      <trkpt lat="43.26356" lon="-0.17975">
        <ele>290.38</ele>
        <time>2022-10-11T12:07:02.000Z</time>
      </trkpt>
      <trkpt lat="43.26373" lon="-0.1804">
        <ele>289.97</ele>
        <time>2022-10-11T12:07:07.000Z</time>
      </trkpt>
      <trkpt lat="43.26389" lon="-0.18104">
        <ele>289.78</ele>
        <time>2022-10-11T12:07:12.000Z</time>
      </trkpt>
      <trkpt lat="43.26405" lon="-0.18168">
        <ele>289.17</ele>
        <time>2022-10-11T12:07:17.000Z</time>
      </trkpt>
      <trkpt lat="43.2642" lon="-0.18227">
        <ele>288.02</ele>
        <time>2022-10-11T12:07:22.000Z</time>
      </trkpt>
      <trkpt lat="43.26432" lon="-0.18279">
        <ele>287.3</ele>
        <time>2022-10-11T12:07:27.000Z</time>
      </trkpt>
      <trkpt lat="43.26453" lon="-0.18324">
        <ele>286.22</ele>
        <time>2022-10-11T12:07:32.000Z</time>
      </trkpt>
      <trkpt lat="43.2647" lon="-0.18373">
        <ele>285.43</ele>
        <time>2022-10-11T12:07:37.000Z</time>
      </trkpt>
      <trkpt lat="43.26486" lon="-0.1842">
        <ele>285.3</ele>
        <time>2022-10-11T12:07:42.000Z</time>
      </trkpt>
      <trkpt lat="43.26501" lon="-0.18467">
        <ele>285.3</ele>
        <time>2022-10-11T12:07:47.000Z</time>
      </trkpt>
      <trkpt lat="43.26516" lon="-0.18516">
        <ele>284.73</ele>
        <time>2022-10-11T12:07:52.000Z</time>
      </trkpt>
      <trkpt lat="43.26532" lon="-0.18566">
        <ele>285.32</ele>
        <time>2022-10-11T12:07:57.000Z</time>
      </trkpt>
      <trkpt lat="43.26548" lon="-0.18617">
        <ele>284.45</ele>
        <time>2022-10-11T12:08:02.000Z</time>
      </trkpt>
      <trkpt lat="43.26565" lon="-0.18669">
        <ele>283.74</ele>
        <time>2022-10-11T12:08:07.000Z</time>
      </trkpt>
      <trkpt lat="43.26582" lon="-0.18722">
        <ele>282.68</ele>
        <time>2022-10-11T12:08:12.000Z</time>
      </trkpt>
      <trkpt lat="43.26599" lon="-0.18771">
        <ele>281.87</ele>
        <time>2022-10-11T12:08:17.000Z</time>
      </trkpt>
      <trkpt lat="43.2661" lon="-0.1879">
        <ele>281.45</ele>
        <time>2022-10-11T12:08:22.000Z</time>
      </trkpt>
      <trkpt lat="43.26616" lon="-0.18822">
        <ele>280.87</ele>
        <time>2022-10-11T12:08:27.000Z</time>
      </trkpt>
      <trkpt lat="43.2663" lon="-0.18865">
        <ele>281.13</ele>
        <time>2022-10-11T12:08:32.000Z</time>
      </trkpt>
      <trkpt lat="43.26644" lon="-0.18913">
        <ele>282.08</ele>
        <time>2022-10-11T12:08:37.000Z</time>
      </trkpt>
      <trkpt lat="43.26659" lon="-0.1896">
        <ele>281.7</ele>
        <time>2022-10-11T12:08:42.000Z</time>
      </trkpt>
      <trkpt lat="43.26675" lon="-0.19008">
        <ele>280.4</ele>
        <time>2022-10-11T12:08:47.000Z</time>
      </trkpt>
      <trkpt lat="43.26689" lon="-0.19058">
        <ele>279.78</ele>
        <time>2022-10-11T12:08:52.000Z</time>
      </trkpt>
      <trkpt lat="43.26704" lon="-0.19108">
        <ele>280.32</ele>
        <time>2022-10-11T12:08:57.000Z</time>
      </trkpt>
      <trkpt lat="43.2672" lon="-0.19158">
        <ele>280.65</ele>
        <time>2022-10-11T12:09:02.000Z</time>
      </trkpt>
      <trkpt lat="43.26735" lon="-0.19206">
        <ele>279.99</ele>
        <time>2022-10-11T12:09:07.000Z</time>
      </trkpt>
      <trkpt lat="43.26753" lon="-0.19253">
        <ele>280.1</ele>
        <time>2022-10-11T12:09:12.000Z</time>
      </trkpt>
      <trkpt lat="43.26768" lon="-0.19299">
        <ele>280.79</ele>
        <time>2022-10-11T12:09:17.000Z</time>
      </trkpt>
      <trkpt lat="43.26783" lon="-0.19345">
        <ele>281.73</ele>
        <time>2022-10-11T12:09:22.000Z</time>
      </trkpt>
      <trkpt lat="43.26797" lon="-0.19393">
        <ele>283.71</ele>
        <time>2022-10-11T12:09:27.000Z</time>
      </trkpt>
      <trkpt lat="43.26804" lon="-0.19435">
        <ele>286.48</ele>
        <time>2022-10-11T12:09:32.000Z</time>
      </trkpt>
      <trkpt lat="43.26776" lon="-0.19458">
        <ele>287.34</ele>
        <time>2022-10-11T12:09:37.000Z</time>
      </trkpt>
      <trkpt lat="43.26745" lon="-0.19481">
        <ele>286.91</ele>
        <time>2022-10-11T12:09:42.000Z</time>
      </trkpt>
      <trkpt lat="43.26724" lon="-0.19517">
        <ele>287.84</ele>
        <time>2022-10-11T12:09:47.000Z</time>
      </trkpt>
      <trkpt lat="43.26718" lon="-0.19567">
        <ele>288.3</ele>
        <time>2022-10-11T12:09:52.000Z</time>
      </trkpt>
      <trkpt lat="43.26708" lon="-0.19625">
        <ele>288.37</ele>
        <time>2022-10-11T12:09:57.000Z</time>
      </trkpt>
      <trkpt lat="43.26694" lon="-0.19697">
        <ele>288.17</ele>
        <time>2022-10-11T12:10:02.000Z</time>
      </trkpt>
      <trkpt lat="43.26679" lon="-0.19761">
        <ele>287.65</ele>
        <time>2022-10-11T12:10:07.000Z</time>
      </trkpt>
      <trkpt lat="43.2664" lon="-0.19794">
        <ele>284.88</ele>
        <time>2022-10-11T12:10:12.000Z</time>
      </trkpt>
      <trkpt lat="43.26599" lon="-0.19823">
        <ele>283.71</ele>
        <time>2022-10-11T12:10:17.000Z</time>
      </trkpt>
      <trkpt lat="43.26559" lon="-0.19853">
        <ele>281.02</ele>
        <time>2022-10-11T12:10:22.000Z</time>
      </trkpt>
      <trkpt lat="43.26524" lon="-0.19877">
        <ele>278.16</ele>
        <time>2022-10-11T12:10:27.000Z</time>
      </trkpt>
      <trkpt lat="43.26498" lon="-0.19903">
        <ele>277.26</ele>
        <time>2022-10-11T12:10:32.000Z</time>
      </trkpt>
      <trkpt lat="43.2649" lon="-0.19943">
        <ele>276.13</ele>
        <time>2022-10-11T12:10:37.000Z</time>
      </trkpt>
      <trkpt lat="43.26499" lon="-0.19988">
        <ele>275.04</ele>
        <time>2022-10-11T12:10:42.000Z</time>
      </trkpt>
      <trkpt lat="43.26507" lon="-0.20034">
        <ele>273.43</ele>
        <time>2022-10-11T12:10:47.000Z</time>
      </trkpt>
      <trkpt lat="43.26516" lon="-0.2008">
        <ele>271.47</ele>
        <time>2022-10-11T12:10:52.000Z</time>
      </trkpt>
      <trkpt lat="43.26524" lon="-0.20129">
        <ele>269.77</ele>
        <time>2022-10-11T12:10:57.000Z</time>
      </trkpt>
      <trkpt lat="43.26524" lon="-0.2018">
        <ele>267.68</ele>
        <time>2022-10-11T12:11:02.000Z</time>
      </trkpt>
      <trkpt lat="43.26524" lon="-0.20233">
        <ele>265.49</ele>
        <time>2022-10-11T12:11:07.000Z</time>
      </trkpt>
      <trkpt lat="43.26529" lon="-0.20284">
        <ele>262.22</ele>
        <time>2022-10-11T12:11:12.000Z</time>
      </trkpt>
      <trkpt lat="43.26538" lon="-0.20329">
        <ele>259.08</ele>
        <time>2022-10-11T12:11:17.000Z</time>
      </trkpt>
      <trkpt lat="43.26548" lon="-0.20373">
        <ele>258.36</ele>
        <time>2022-10-11T12:11:22.000Z</time>
      </trkpt>
      <trkpt lat="43.26558" lon="-0.20417">
        <ele>256.72</ele>
        <time>2022-10-11T12:11:27.000Z</time>
      </trkpt>
      <trkpt lat="43.26569" lon="-0.20464">
        <ele>255.67</ele>
        <time>2022-10-11T12:11:32.000Z</time>
      </trkpt>
      <trkpt lat="43.2658" lon="-0.20512">
        <ele>256.24</ele>
        <time>2022-10-11T12:11:37.000Z</time>
      </trkpt>
      <trkpt lat="43.26591" lon="-0.20558">
        <ele>256.43</ele>
        <time>2022-10-11T12:11:42.000Z</time>
      </trkpt>
      <trkpt lat="43.26602" lon="-0.20602">
        <ele>256.15</ele>
        <time>2022-10-11T12:11:47.000Z</time>
      </trkpt>
      <trkpt lat="43.26614" lon="-0.20642">
        <ele>256.79</ele>
        <time>2022-10-11T12:11:52.000Z</time>
      </trkpt>
      <trkpt lat="43.26628" lon="-0.20681">
        <ele>255.91</ele>
        <time>2022-10-11T12:11:57.000Z</time>
      </trkpt>
      <trkpt lat="43.26649" lon="-0.2071">
        <ele>255.13</ele>
        <time>2022-10-11T12:12:02.000Z</time>
      </trkpt>
      <trkpt lat="43.26672" lon="-0.2074">
        <ele>255.18</ele>
        <time>2022-10-11T12:12:07.000Z</time>
      </trkpt>
      <trkpt lat="43.26699" lon="-0.20769">
        <ele>255.62</ele>
        <time>2022-10-11T12:12:12.000Z</time>
      </trkpt>
      <trkpt lat="43.26731" lon="-0.20794">
        <ele>258.91</ele>
        <time>2022-10-11T12:12:17.000Z</time>
      </trkpt>
      <trkpt lat="43.2676" lon="-0.20818">
        <ele>260.55</ele>
        <time>2022-10-11T12:12:22.000Z</time>
      </trkpt>
      <trkpt lat="43.26786" lon="-0.20846">
        <ele>261.19</ele>
        <time>2022-10-11T12:12:27.000Z</time>
      </trkpt>
      <trkpt lat="43.26807" lon="-0.20879">
        <ele>261.21</ele>
        <time>2022-10-11T12:12:32.000Z</time>
      </trkpt>
      <trkpt lat="43.26829" lon="-0.20913">
        <ele>259.83</ele>
        <time>2022-10-11T12:12:37.000Z</time>
      </trkpt>
      <trkpt lat="43.26848" lon="-0.20954">
        <ele>260.39</ele>
        <time>2022-10-11T12:12:42.000Z</time>
      </trkpt>
      <trkpt lat="43.26851" lon="-0.21001">
        <ele>261.72</ele>
        <time>2022-10-11T12:12:47.000Z</time>
      </trkpt>
      <trkpt lat="43.26823" lon="-0.21031">
        <ele>260.5</ele>
        <time>2022-10-11T12:12:52.000Z</time>
      </trkpt>
      <trkpt lat="43.26789" lon="-0.21035">
        <ele>259.44</ele>
        <time>2022-10-11T12:12:57.000Z</time>
      </trkpt>
      <trkpt lat="43.26757" lon="-0.2104">
        <ele>259.44</ele>
        <time>2022-10-11T12:13:02.000Z</time>
      </trkpt>
      <trkpt lat="43.26729" lon="-0.21055">
        <ele>260.06</ele>
        <time>2022-10-11T12:13:07.000Z</time>
      </trkpt>
      <trkpt lat="43.26704" lon="-0.21078">
        <ele>260.1</ele>
        <time>2022-10-11T12:13:12.000Z</time>
      </trkpt>
      <trkpt lat="43.26672" lon="-0.21098">
        <ele>261.18</ele>
        <time>2022-10-11T12:13:17.000Z</time>
      </trkpt>
      <trkpt lat="43.26643" lon="-0.21124">
        <ele>261.49</ele>
        <time>2022-10-11T12:13:22.000Z</time>
      </trkpt>
      <trkpt lat="43.26648" lon="-0.21171">
        <ele>260.9</ele>
        <time>2022-10-11T12:13:27.000Z</time>
      </trkpt>
      <trkpt lat="43.26659" lon="-0.21219">
        <ele>259.47</ele>
        <time>2022-10-11T12:13:32.000Z</time>
      </trkpt>
      <trkpt lat="43.26664" lon="-0.21264">
        <ele>259.68</ele>
        <time>2022-10-11T12:13:37.000Z</time>
      </trkpt>
      <trkpt lat="43.26672" lon="-0.21305">
        <ele>259.42</ele>
        <time>2022-10-11T12:13:42.000Z</time>
      </trkpt>
      <trkpt lat="43.26674" lon="-0.21318">
        <ele>259.55</ele>
        <time>2022-10-11T12:13:47.000Z</time>
      </trkpt>
      <trkpt lat="43.26684" lon="-0.21325">
        <ele>257.15</ele>
        <time>2022-10-11T12:14:37.000Z</time>
      </trkpt>
      <trkpt lat="43.26689" lon="-0.21348">
        <ele>257.01</ele>
        <time>2022-10-11T12:14:42.000Z</time>
      </trkpt>
      <trkpt lat="43.26694" lon="-0.21382">
        <ele>256.91</ele>
        <time>2022-10-11T12:14:47.000Z</time>
      </trkpt>
      <trkpt lat="43.26704" lon="-0.2142">
        <ele>256.43</ele>
        <time>2022-10-11T12:14:52.000Z</time>
      </trkpt>
      <trkpt lat="43.26715" lon="-0.21461">
        <ele>256.4</ele>
        <time>2022-10-11T12:14:57.000Z</time>
      </trkpt>
      <trkpt lat="43.26725" lon="-0.21505">
        <ele>256.44</ele>
        <time>2022-10-11T12:15:02.000Z</time>
      </trkpt>
      <trkpt lat="43.26734" lon="-0.21548">
        <ele>256.25</ele>
        <time>2022-10-11T12:15:07.000Z</time>
      </trkpt>
      <trkpt lat="43.26744" lon="-0.21585">
        <ele>255.84</ele>
        <time>2022-10-11T12:15:12.000Z</time>
      </trkpt>
      <trkpt lat="43.26757" lon="-0.21621">
        <ele>254.51</ele>
        <time>2022-10-11T12:15:17.000Z</time>
      </trkpt>
      <trkpt lat="43.26768" lon="-0.21659">
        <ele>253.88</ele>
        <time>2022-10-11T12:15:22.000Z</time>
      </trkpt>
      <trkpt lat="43.26771" lon="-0.21702">
        <ele>254.19</ele>
        <time>2022-10-11T12:15:27.000Z</time>
      </trkpt>
      <trkpt lat="43.2677" lon="-0.21744">
        <ele>253.85</ele>
        <time>2022-10-11T12:15:32.000Z</time>
      </trkpt>
      <trkpt lat="43.2677" lon="-0.21787">
        <ele>254.01</ele>
        <time>2022-10-11T12:15:37.000Z</time>
      </trkpt>
      <trkpt lat="43.2677" lon="-0.21829">
        <ele>253.94</ele>
        <time>2022-10-11T12:15:42.000Z</time>
      </trkpt>
      <trkpt lat="43.26773" lon="-0.21871">
        <ele>253.8</ele>
        <time>2022-10-11T12:15:47.000Z</time>
      </trkpt>
      <trkpt lat="43.26779" lon="-0.21915">
        <ele>253.53</ele>
        <time>2022-10-11T12:15:52.000Z</time>
      </trkpt>
      <trkpt lat="43.26789" lon="-0.2195">
        <ele>254.44</ele>
        <time>2022-10-11T12:15:57.000Z</time>
      </trkpt>
      <trkpt lat="43.268" lon="-0.21989">
        <ele>255.01</ele>
        <time>2022-10-11T12:16:02.000Z</time>
      </trkpt>
      <trkpt lat="43.2681" lon="-0.22025">
        <ele>255.44</ele>
        <time>2022-10-11T12:16:07.000Z</time>
      </trkpt>
      <trkpt lat="43.2682" lon="-0.22062">
        <ele>255.57</ele>
        <time>2022-10-11T12:16:12.000Z</time>
      </trkpt>
      <trkpt lat="43.26832" lon="-0.22102">
        <ele>253.51</ele>
        <time>2022-10-11T12:16:17.000Z</time>
      </trkpt>
      <trkpt lat="43.26845" lon="-0.22142">
        <ele>252.52</ele>
        <time>2022-10-11T12:16:22.000Z</time>
      </trkpt>
      <trkpt lat="43.2686" lon="-0.22179">
        <ele>251.35</ele>
        <time>2022-10-11T12:16:27.000Z</time>
      </trkpt>
      <trkpt lat="43.26878" lon="-0.22211">
        <ele>250.12</ele>
        <time>2022-10-11T12:16:32.000Z</time>
      </trkpt>
      <trkpt lat="43.26895" lon="-0.22244">
        <ele>248.56</ele>
        <time>2022-10-11T12:16:37.000Z</time>
      </trkpt>
      <trkpt lat="43.26916" lon="-0.22276">
        <ele>247.28</ele>
        <time>2022-10-11T12:16:42.000Z</time>
      </trkpt>
      <trkpt lat="43.26939" lon="-0.22307">
        <ele>245.5</ele>
        <time>2022-10-11T12:16:47.000Z</time>
      </trkpt>
      <trkpt lat="43.26959" lon="-0.22338">
        <ele>243.54</ele>
        <time>2022-10-11T12:16:52.000Z</time>
      </trkpt>
      <trkpt lat="43.26979" lon="-0.22371">
        <ele>241.25</ele>
        <time>2022-10-11T12:16:57.000Z</time>
      </trkpt>
      <trkpt lat="43.26994" lon="-0.22409">
        <ele>238.96</ele>
        <time>2022-10-11T12:17:02.000Z</time>
      </trkpt>
      <trkpt lat="43.27005" lon="-0.22444">
        <ele>237.96</ele>
        <time>2022-10-11T12:17:07.000Z</time>
      </trkpt>
      <trkpt lat="43.27006" lon="-0.22483">
        <ele>237.05</ele>
        <time>2022-10-11T12:17:12.000Z</time>
      </trkpt>
      <trkpt lat="43.26999" lon="-0.22516">
        <ele>238.23</ele>
        <time>2022-10-11T12:17:17.000Z</time>
      </trkpt>
      <trkpt lat="43.26995" lon="-0.22557">
        <ele>238.88</ele>
        <time>2022-10-11T12:17:22.000Z</time>
      </trkpt>
      <trkpt lat="43.26996" lon="-0.22594">
        <ele>240.38</ele>
        <time>2022-10-11T12:17:27.000Z</time>
      </trkpt>
      <trkpt lat="43.26994" lon="-0.22626">
        <ele>243.05</ele>
        <time>2022-10-11T12:17:32.000Z</time>
      </trkpt>
      <trkpt lat="43.2699" lon="-0.22662">
        <ele>245.67</ele>
        <time>2022-10-11T12:17:37.000Z</time>
      </trkpt>
      <trkpt lat="43.26989" lon="-0.22698">
        <ele>247.51</ele>
        <time>2022-10-11T12:17:42.000Z</time>
      </trkpt>
      <trkpt lat="43.26988" lon="-0.22732">
        <ele>250.57</ele>
        <time>2022-10-11T12:17:47.000Z</time>
      </trkpt>
      <trkpt lat="43.26985" lon="-0.22769">
        <ele>252.03</ele>
        <time>2022-10-11T12:17:52.000Z</time>
      </trkpt>
      <trkpt lat="43.26982" lon="-0.22812">
        <ele>252.63</ele>
        <time>2022-10-11T12:17:57.000Z</time>
      </trkpt>
      <trkpt lat="43.26977" lon="-0.22853">
        <ele>253.42</ele>
        <time>2022-10-11T12:18:02.000Z</time>
      </trkpt>
      <trkpt lat="43.26968" lon="-0.22896">
        <ele>257.31</ele>
        <time>2022-10-11T12:18:07.000Z</time>
      </trkpt>
      <trkpt lat="43.26961" lon="-0.22937">
        <ele>259.37</ele>
        <time>2022-10-11T12:18:12.000Z</time>
      </trkpt>
      <trkpt lat="43.26956" lon="-0.2298">
        <ele>261.04</ele>
        <time>2022-10-11T12:18:17.000Z</time>
      </trkpt>
      <trkpt lat="43.2695" lon="-0.23018">
        <ele>259.6</ele>
        <time>2022-10-11T12:18:22.000Z</time>
      </trkpt>
      <trkpt lat="43.26948" lon="-0.23059">
        <ele>258.84</ele>
        <time>2022-10-11T12:18:27.000Z</time>
      </trkpt>
      <trkpt lat="43.26951" lon="-0.231">
        <ele>257.67</ele>
        <time>2022-10-11T12:18:32.000Z</time>
      </trkpt>
      <trkpt lat="43.26954" lon="-0.23142">
        <ele>257.32</ele>
        <time>2022-10-11T12:18:37.000Z</time>
      </trkpt>
      <trkpt lat="43.26956" lon="-0.23185">
        <ele>256.32</ele>
        <time>2022-10-11T12:18:42.000Z</time>
      </trkpt>
      <trkpt lat="43.26958" lon="-0.23227">
        <ele>256</ele>
        <time>2022-10-11T12:18:47.000Z</time>
      </trkpt>
      <trkpt lat="43.26961" lon="-0.23267">
        <ele>255.54</ele>
        <time>2022-10-11T12:18:52.000Z</time>
      </trkpt>
      <trkpt lat="43.26968" lon="-0.23309">
        <ele>255.42</ele>
        <time>2022-10-11T12:18:57.000Z</time>
      </trkpt>
      <trkpt lat="43.26974" lon="-0.23347">
        <ele>254.86</ele>
        <time>2022-10-11T12:19:02.000Z</time>
      </trkpt>
      <trkpt lat="43.26978" lon="-0.23393">
        <ele>249.38</ele>
        <time>2022-10-11T12:19:07.000Z</time>
      </trkpt>
      <trkpt lat="43.26981" lon="-0.23444">
        <ele>244.77</ele>
        <time>2022-10-11T12:19:12.000Z</time>
      </trkpt>
      <trkpt lat="43.26986" lon="-0.23491">
        <ele>243.45</ele>
        <time>2022-10-11T12:19:17.000Z</time>
      </trkpt>
      <trkpt lat="43.2699" lon="-0.23533">
        <ele>241.87</ele>
        <time>2022-10-11T12:19:22.000Z</time>
      </trkpt>
      <trkpt lat="43.26988" lon="-0.23577">
        <ele>240.97</ele>
        <time>2022-10-11T12:19:27.000Z</time>
      </trkpt>
      <trkpt lat="43.26982" lon="-0.23618">
        <ele>240.64</ele>
        <time>2022-10-11T12:19:32.000Z</time>
      </trkpt>
      <trkpt lat="43.26974" lon="-0.23659">
        <ele>242.03</ele>
        <time>2022-10-11T12:19:37.000Z</time>
      </trkpt>
      <trkpt lat="43.26966" lon="-0.23697">
        <ele>242.98</ele>
        <time>2022-10-11T12:19:42.000Z</time>
      </trkpt>
      <trkpt lat="43.26955" lon="-0.23737">
        <ele>242.55</ele>
        <time>2022-10-11T12:19:47.000Z</time>
      </trkpt>
      <trkpt lat="43.2695" lon="-0.2378">
        <ele>241.18</ele>
        <time>2022-10-11T12:19:52.000Z</time>
      </trkpt>
      <trkpt lat="43.26951" lon="-0.23831">
        <ele>242.21</ele>
        <time>2022-10-11T12:19:57.000Z</time>
      </trkpt>
      <trkpt lat="43.26957" lon="-0.23881">
        <ele>242.58</ele>
        <time>2022-10-11T12:20:02.000Z</time>
      </trkpt>
      <trkpt lat="43.26959" lon="-0.23932">
        <ele>242.89</ele>
        <time>2022-10-11T12:20:07.000Z</time>
      </trkpt>
      <trkpt lat="43.2696" lon="-0.23984">
        <ele>243.17</ele>
        <time>2022-10-11T12:20:12.000Z</time>
      </trkpt>
      <trkpt lat="43.26954" lon="-0.24033">
        <ele>242.46</ele>
        <time>2022-10-11T12:20:17.000Z</time>
      </trkpt>
      <trkpt lat="43.26954" lon="-0.24082">
        <ele>240.9</ele>
        <time>2022-10-11T12:20:22.000Z</time>
      </trkpt>
      <trkpt lat="43.26958" lon="-0.24128">
        <ele>240.26</ele>
        <time>2022-10-11T12:20:27.000Z</time>
      </trkpt>
      <trkpt lat="43.26965" lon="-0.24173">
        <ele>239.01</ele>
        <time>2022-10-11T12:20:32.000Z</time>
      </trkpt>
      <trkpt lat="43.26971" lon="-0.24217">
        <ele>237.17</ele>
        <time>2022-10-11T12:20:37.000Z</time>
      </trkpt>
      <trkpt lat="43.26977" lon="-0.24261">
        <ele>235.52</ele>
        <time>2022-10-11T12:20:42.000Z</time>
      </trkpt>
      <trkpt lat="43.26985" lon="-0.24306">
        <ele>233.25</ele>
        <time>2022-10-11T12:20:47.000Z</time>
      </trkpt>
      <trkpt lat="43.26995" lon="-0.24354">
        <ele>231.48</ele>
        <time>2022-10-11T12:20:52.000Z</time>
      </trkpt>
      <trkpt lat="43.27014" lon="-0.24385">
        <ele>230.63</ele>
        <time>2022-10-11T12:20:57.000Z</time>
      </trkpt>
      <trkpt lat="43.27044" lon="-0.244">
        <ele>231.92</ele>
        <time>2022-10-11T12:21:02.000Z</time>
      </trkpt>
      <trkpt lat="43.27075" lon="-0.24415">
        <ele>232.49</ele>
        <time>2022-10-11T12:21:07.000Z</time>
      </trkpt>
      <trkpt lat="43.27102" lon="-0.2444">
        <ele>233.36</ele>
        <time>2022-10-11T12:21:12.000Z</time>
      </trkpt>
      <trkpt lat="43.27125" lon="-0.24471">
        <ele>233.59</ele>
        <time>2022-10-11T12:21:17.000Z</time>
      </trkpt>
      <trkpt lat="43.27149" lon="-0.24496">
        <ele>234.18</ele>
        <time>2022-10-11T12:21:22.000Z</time>
      </trkpt>
      <trkpt lat="43.27172" lon="-0.24519">
        <ele>234.69</ele>
        <time>2022-10-11T12:21:27.000Z</time>
      </trkpt>
      <trkpt lat="43.27199" lon="-0.24539">
        <ele>235.94</ele>
        <time>2022-10-11T12:21:32.000Z</time>
      </trkpt>
      <trkpt lat="43.27226" lon="-0.24557">
        <ele>237.21</ele>
        <time>2022-10-11T12:21:37.000Z</time>
      </trkpt>
      <trkpt lat="43.27255" lon="-0.2457">
        <ele>238.33</ele>
        <time>2022-10-11T12:21:42.000Z</time>
      </trkpt>
      <trkpt lat="43.27283" lon="-0.24566">
        <ele>239.14</ele>
        <time>2022-10-11T12:21:47.000Z</time>
      </trkpt>
      <trkpt lat="43.27307" lon="-0.24569">
        <ele>239.82</ele>
        <time>2022-10-11T12:21:52.000Z</time>
      </trkpt>
      <trkpt lat="43.27327" lon="-0.24586">
        <ele>240.46</ele>
        <time>2022-10-11T12:21:57.000Z</time>
      </trkpt>
      <trkpt lat="43.2733" lon="-0.2461">
        <ele>240.92</ele>
        <time>2022-10-11T12:22:02.000Z</time>
      </trkpt>
      <trkpt lat="43.27337" lon="-0.24638">
        <ele>239.69</ele>
        <time>2022-10-11T12:22:07.000Z</time>
      </trkpt>
      <trkpt lat="43.2735" lon="-0.24666">
        <ele>239.36</ele>
        <time>2022-10-11T12:22:12.000Z</time>
      </trkpt>
      <trkpt lat="43.27361" lon="-0.24692">
        <ele>239.22</ele>
        <time>2022-10-11T12:22:17.000Z</time>
      </trkpt>
      <trkpt lat="43.27358" lon="-0.24727">
        <ele>239.82</ele>
        <time>2022-10-11T12:22:22.000Z</time>
      </trkpt>
      <trkpt lat="43.27367" lon="-0.24759">
        <ele>239.36</ele>
        <time>2022-10-11T12:22:27.000Z</time>
      </trkpt>
      <trkpt lat="43.27382" lon="-0.24789">
        <ele>238.56</ele>
        <time>2022-10-11T12:22:32.000Z</time>
      </trkpt>
      <trkpt lat="43.27398" lon="-0.24816">
        <ele>238.79</ele>
        <time>2022-10-11T12:22:37.000Z</time>
      </trkpt>
      <trkpt lat="43.27417" lon="-0.24847">
        <ele>238.63</ele>
        <time>2022-10-11T12:22:42.000Z</time>
      </trkpt>
      <trkpt lat="43.27434" lon="-0.2488">
        <ele>238.95</ele>
        <time>2022-10-11T12:22:47.000Z</time>
      </trkpt>
      <trkpt lat="43.27452" lon="-0.2491">
        <ele>238.2</ele>
        <time>2022-10-11T12:22:52.000Z</time>
      </trkpt>
      <trkpt lat="43.27468" lon="-0.24938">
        <ele>237.84</ele>
        <time>2022-10-11T12:22:57.000Z</time>
      </trkpt>
      <trkpt lat="43.27478" lon="-0.24955">
        <ele>237.46</ele>
        <time>2022-10-11T12:23:02.000Z</time>
      </trkpt>
      <trkpt lat="43.2748" lon="-0.2497">
        <ele>235.05</ele>
        <time>2022-10-11T12:23:49.000Z</time>
      </trkpt>
      <trkpt lat="43.27463" lon="-0.24987">
        <ele>235</ele>
        <time>2022-10-11T12:23:54.000Z</time>
      </trkpt>
      <trkpt lat="43.27447" lon="-0.25007">
        <ele>235.64</ele>
        <time>2022-10-11T12:23:59.000Z</time>
      </trkpt>
      <trkpt lat="43.27429" lon="-0.25028">
        <ele>236.27</ele>
        <time>2022-10-11T12:24:04.000Z</time>
      </trkpt>
      <trkpt lat="43.27413" lon="-0.25049">
        <ele>237.68</ele>
        <time>2022-10-11T12:24:09.000Z</time>
      </trkpt>
      <trkpt lat="43.27393" lon="-0.25075">
        <ele>238.24</ele>
        <time>2022-10-11T12:24:14.000Z</time>
      </trkpt>
      <trkpt lat="43.27379" lon="-0.25107">
        <ele>239.4</ele>
        <time>2022-10-11T12:24:19.000Z</time>
      </trkpt>
      <trkpt lat="43.27378" lon="-0.25146">
        <ele>241.35</ele>
        <time>2022-10-11T12:24:24.000Z</time>
      </trkpt>
      <trkpt lat="43.27381" lon="-0.25182">
        <ele>238</ele>
        <time>2022-10-11T12:24:29.000Z</time>
      </trkpt>
      <trkpt lat="43.27387" lon="-0.25222">
        <ele>235.29</ele>
        <time>2022-10-11T12:24:34.000Z</time>
      </trkpt>
      <trkpt lat="43.27393" lon="-0.25266">
        <ele>231.89</ele>
        <time>2022-10-11T12:24:39.000Z</time>
      </trkpt>
      <trkpt lat="43.27395" lon="-0.25307">
        <ele>230.25</ele>
        <time>2022-10-11T12:24:44.000Z</time>
      </trkpt>
      <trkpt lat="43.27394" lon="-0.25346">
        <ele>229.13</ele>
        <time>2022-10-11T12:24:49.000Z</time>
      </trkpt>
      <trkpt lat="43.2739" lon="-0.25382">
        <ele>229.06</ele>
        <time>2022-10-11T12:24:54.000Z</time>
      </trkpt>
      <trkpt lat="43.27378" lon="-0.25421">
        <ele>230.08</ele>
        <time>2022-10-11T12:24:59.000Z</time>
      </trkpt>
      <trkpt lat="43.27373" lon="-0.25468">
        <ele>232.49</ele>
        <time>2022-10-11T12:25:04.000Z</time>
      </trkpt>
      <trkpt lat="43.2739" lon="-0.25506">
        <ele>233.82</ele>
        <time>2022-10-11T12:25:09.000Z</time>
      </trkpt>
      <trkpt lat="43.27416" lon="-0.2553">
        <ele>235.54</ele>
        <time>2022-10-11T12:25:14.000Z</time>
      </trkpt>
      <trkpt lat="43.27436" lon="-0.25563">
        <ele>233.54</ele>
        <time>2022-10-11T12:25:19.000Z</time>
      </trkpt>
      <trkpt lat="43.2744" lon="-0.25607">
        <ele>234.44</ele>
        <time>2022-10-11T12:25:24.000Z</time>
      </trkpt>
      <trkpt lat="43.27423" lon="-0.25638">
        <ele>236.24</ele>
        <time>2022-10-11T12:25:29.000Z</time>
      </trkpt>
      <trkpt lat="43.27404" lon="-0.2567">
        <ele>236.88</ele>
        <time>2022-10-11T12:25:34.000Z</time>
      </trkpt>
      <trkpt lat="43.27386" lon="-0.25699">
        <ele>237.02</ele>
        <time>2022-10-11T12:25:39.000Z</time>
      </trkpt>
      <trkpt lat="43.27368" lon="-0.25725">
        <ele>237.99</ele>
        <time>2022-10-11T12:25:44.000Z</time>
      </trkpt>
      <trkpt lat="43.27352" lon="-0.25753">
        <ele>239.09</ele>
        <time>2022-10-11T12:25:49.000Z</time>
      </trkpt>
      <trkpt lat="43.27336" lon="-0.25775">
        <ele>241.38</ele>
        <time>2022-10-11T12:25:54.000Z</time>
      </trkpt>
      <trkpt lat="43.27324" lon="-0.258">
        <ele>241.32</ele>
        <time>2022-10-11T12:25:59.000Z</time>
      </trkpt>
      <trkpt lat="43.27319" lon="-0.25832">
        <ele>244.64</ele>
        <time>2022-10-11T12:26:04.000Z</time>
      </trkpt>
      <trkpt lat="43.27316" lon="-0.25863">
        <ele>245.89</ele>
        <time>2022-10-11T12:26:09.000Z</time>
      </trkpt>
      <trkpt lat="43.27316" lon="-0.25889">
        <ele>245.93</ele>
        <time>2022-10-11T12:26:14.000Z</time>
      </trkpt>
      <trkpt lat="43.27317" lon="-0.25917">
        <ele>245.82</ele>
        <time>2022-10-11T12:26:19.000Z</time>
      </trkpt>
      <trkpt lat="43.27318" lon="-0.25942">
        <ele>245.15</ele>
        <time>2022-10-11T12:26:24.000Z</time>
      </trkpt>
      <trkpt lat="43.27317" lon="-0.25965">
        <ele>244.49</ele>
        <time>2022-10-11T12:26:29.000Z</time>
      </trkpt>
      <trkpt lat="43.27316" lon="-0.25988">
        <ele>244.57</ele>
        <time>2022-10-11T12:26:34.000Z</time>
      </trkpt>
      <trkpt lat="43.27317" lon="-0.2601">
        <ele>244.84</ele>
        <time>2022-10-11T12:26:39.000Z</time>
      </trkpt>
      <trkpt lat="43.27317" lon="-0.26034">
        <ele>245.47</ele>
        <time>2022-10-11T12:26:44.000Z</time>
      </trkpt>
      <trkpt lat="43.27319" lon="-0.26056">
        <ele>245.2</ele>
        <time>2022-10-11T12:26:49.000Z</time>
      </trkpt>
      <trkpt lat="43.27317" lon="-0.2608">
        <ele>246.02</ele>
        <time>2022-10-11T12:26:54.000Z</time>
      </trkpt>
      <trkpt lat="43.27308" lon="-0.26097">
        <ele>248.06</ele>
        <time>2022-10-11T12:26:59.000Z</time>
      </trkpt>
      <trkpt lat="43.27293" lon="-0.26105">
        <ele>250.7</ele>
        <time>2022-10-11T12:27:04.000Z</time>
      </trkpt>
      <trkpt lat="43.27278" lon="-0.2611">
        <ele>252.33</ele>
        <time>2022-10-11T12:27:09.000Z</time>
      </trkpt>
      <trkpt lat="43.27262" lon="-0.26114">
        <ele>253.65</ele>
        <time>2022-10-11T12:27:14.000Z</time>
      </trkpt>
      <trkpt lat="43.27245" lon="-0.2612">
        <ele>258.47</ele>
        <time>2022-10-11T12:27:19.000Z</time>
      </trkpt>
      <trkpt lat="43.2723" lon="-0.26125">
        <ele>260.32</ele>
        <time>2022-10-11T12:27:24.000Z</time>
      </trkpt>
      <trkpt lat="43.27215" lon="-0.26128">
        <ele>261.13</ele>
        <time>2022-10-11T12:27:29.000Z</time>
      </trkpt>
      <trkpt lat="43.27199" lon="-0.26137">
        <ele>263.13</ele>
        <time>2022-10-11T12:27:34.000Z</time>
      </trkpt>
      <trkpt lat="43.27186" lon="-0.26155">
        <ele>262.37</ele>
        <time>2022-10-11T12:27:39.000Z</time>
      </trkpt>
      <trkpt lat="43.27174" lon="-0.26171">
        <ele>262.45</ele>
        <time>2022-10-11T12:27:44.000Z</time>
      </trkpt>
      <trkpt lat="43.27163" lon="-0.26189">
        <ele>262.57</ele>
        <time>2022-10-11T12:27:49.000Z</time>
      </trkpt>
      <trkpt lat="43.27153" lon="-0.26206">
        <ele>263.71</ele>
        <time>2022-10-11T12:27:54.000Z</time>
      </trkpt>
      <trkpt lat="43.27142" lon="-0.26225">
        <ele>265.43</ele>
        <time>2022-10-11T12:27:59.000Z</time>
      </trkpt>
      <trkpt lat="43.27131" lon="-0.26238">
        <ele>266.99</ele>
        <time>2022-10-11T12:28:04.000Z</time>
      </trkpt>
      <trkpt lat="43.27118" lon="-0.26251">
        <ele>267.38</ele>
        <time>2022-10-11T12:28:09.000Z</time>
      </trkpt>
      <trkpt lat="43.27102" lon="-0.26257">
        <ele>268.09</ele>
        <time>2022-10-11T12:28:14.000Z</time>
      </trkpt>
      <trkpt lat="43.27086" lon="-0.26264">
        <ele>268.34</ele>
        <time>2022-10-11T12:28:19.000Z</time>
      </trkpt>
      <trkpt lat="43.2707" lon="-0.26271">
        <ele>268.66</ele>
        <time>2022-10-11T12:28:24.000Z</time>
      </trkpt>
      <trkpt lat="43.27058" lon="-0.2628">
        <ele>269.06</ele>
        <time>2022-10-11T12:28:29.000Z</time>
      </trkpt>
      <trkpt lat="43.27046" lon="-0.26288">
        <ele>269.13</ele>
        <time>2022-10-11T12:28:34.000Z</time>
      </trkpt>
      <trkpt lat="43.27033" lon="-0.263">
        <ele>269.51</ele>
        <time>2022-10-11T12:28:39.000Z</time>
      </trkpt>
      <trkpt lat="43.27018" lon="-0.26309">
        <ele>271.22</ele>
        <time>2022-10-11T12:28:44.000Z</time>
      </trkpt>
      <trkpt lat="43.27002" lon="-0.2632">
        <ele>272.39</ele>
        <time>2022-10-11T12:28:49.000Z</time>
      </trkpt>
      <trkpt lat="43.26989" lon="-0.26332">
        <ele>273.57</ele>
        <time>2022-10-11T12:28:54.000Z</time>
      </trkpt>
      <trkpt lat="43.26977" lon="-0.26345">
        <ele>275.13</ele>
        <time>2022-10-11T12:28:59.000Z</time>
      </trkpt>
      <trkpt lat="43.26966" lon="-0.2636">
        <ele>276.39</ele>
        <time>2022-10-11T12:29:04.000Z</time>
      </trkpt>
      <trkpt lat="43.26953" lon="-0.26375">
        <ele>277.82</ele>
        <time>2022-10-11T12:29:09.000Z</time>
      </trkpt>
      <trkpt lat="43.2694" lon="-0.26389">
        <ele>278.85</ele>
        <time>2022-10-11T12:29:14.000Z</time>
      </trkpt>
      <trkpt lat="43.26928" lon="-0.26402">
        <ele>280.86</ele>
        <time>2022-10-11T12:29:19.000Z</time>
      </trkpt>
      <trkpt lat="43.26915" lon="-0.26419">
        <ele>282.78</ele>
        <time>2022-10-11T12:29:24.000Z</time>
      </trkpt>
      <trkpt lat="43.26903" lon="-0.26433">
        <ele>284.13</ele>
        <time>2022-10-11T12:29:29.000Z</time>
      </trkpt>
      <trkpt lat="43.26889" lon="-0.26446">
        <ele>285.01</ele>
        <time>2022-10-11T12:29:34.000Z</time>
      </trkpt>
      <trkpt lat="43.26877" lon="-0.26458">
        <ele>286.5</ele>
        <time>2022-10-11T12:29:39.000Z</time>
      </trkpt>
      <trkpt lat="43.26863" lon="-0.26474">
        <ele>287.36</ele>
        <time>2022-10-11T12:29:44.000Z</time>
      </trkpt>
      <trkpt lat="43.26852" lon="-0.26487">
        <ele>288.3</ele>
        <time>2022-10-11T12:29:49.000Z</time>
      </trkpt>
      <trkpt lat="43.26839" lon="-0.26497">
        <ele>288.87</ele>
        <time>2022-10-11T12:29:54.000Z</time>
      </trkpt>
      <trkpt lat="43.26832" lon="-0.26509">
        <ele>288.26</ele>
        <time>2022-10-11T12:29:59.000Z</time>
      </trkpt>
      <trkpt lat="43.26822" lon="-0.26514">
        <ele>285.91</ele>
        <time>2022-10-11T12:30:04.000Z</time>
      </trkpt>
      <trkpt lat="43.2681" lon="-0.26513">
        <ele>283.11</ele>
        <time>2022-10-11T12:30:09.000Z</time>
      </trkpt>
      <trkpt lat="43.26797" lon="-0.26516">
        <ele>281.96</ele>
        <time>2022-10-11T12:30:14.000Z</time>
      </trkpt>
      <trkpt lat="43.26788" lon="-0.26526">
        <ele>279.91</ele>
        <time>2022-10-11T12:30:19.000Z</time>
      </trkpt>
      <trkpt lat="43.26777" lon="-0.26538">
        <ele>279.96</ele>
        <time>2022-10-11T12:30:24.000Z</time>
      </trkpt>
      <trkpt lat="43.26754" lon="-0.26559">
        <ele>280.13</ele>
        <time>2022-10-11T12:30:29.000Z</time>
      </trkpt>
      <trkpt lat="43.26722" lon="-0.2658">
        <ele>278.67</ele>
        <time>2022-10-11T12:30:34.000Z</time>
      </trkpt>
      <trkpt lat="43.26691" lon="-0.26607">
        <ele>274.83</ele>
        <time>2022-10-11T12:30:39.000Z</time>
      </trkpt>
      <trkpt lat="43.26672" lon="-0.26655">
        <ele>272.67</ele>
        <time>2022-10-11T12:30:44.000Z</time>
      </trkpt>
      <trkpt lat="43.26635" lon="-0.26702">
        <ele>270.98</ele>
        <time>2022-10-11T12:30:49.000Z</time>
      </trkpt>
      <trkpt lat="43.26599" lon="-0.26746">
        <ele>267.85</ele>
        <time>2022-10-11T12:30:54.000Z</time>
      </trkpt>
      <trkpt lat="43.26567" lon="-0.26788">
        <ele>264.66</ele>
        <time>2022-10-11T12:30:59.000Z</time>
      </trkpt>
      <trkpt lat="43.26536" lon="-0.26834">
        <ele>260.65</ele>
        <time>2022-10-11T12:31:04.000Z</time>
      </trkpt>
      <trkpt lat="43.2651" lon="-0.26885">
        <ele>258.33</ele>
        <time>2022-10-11T12:31:09.000Z</time>
      </trkpt>
      <trkpt lat="43.26484" lon="-0.26937">
        <ele>257.39</ele>
        <time>2022-10-11T12:31:14.000Z</time>
      </trkpt>
      <trkpt lat="43.26459" lon="-0.26988">
        <ele>257.06</ele>
        <time>2022-10-11T12:31:19.000Z</time>
      </trkpt>
      <trkpt lat="43.26434" lon="-0.2704">
        <ele>256.37</ele>
        <time>2022-10-11T12:31:24.000Z</time>
      </trkpt>
      <trkpt lat="43.26412" lon="-0.2709">
        <ele>255.13</ele>
        <time>2022-10-11T12:31:29.000Z</time>
      </trkpt>
      <trkpt lat="43.26391" lon="-0.27138">
        <ele>254.22</ele>
        <time>2022-10-11T12:31:34.000Z</time>
      </trkpt>
      <trkpt lat="43.26371" lon="-0.27189">
        <ele>253.97</ele>
        <time>2022-10-11T12:31:39.000Z</time>
      </trkpt>
      <trkpt lat="43.26346" lon="-0.27245">
        <ele>252.44</ele>
        <time>2022-10-11T12:31:44.000Z</time>
      </trkpt>
      <trkpt lat="43.26322" lon="-0.27301">
        <ele>250.33</ele>
        <time>2022-10-11T12:31:49.000Z</time>
      </trkpt>
      <trkpt lat="43.26285" lon="-0.27353">
        <ele>247.91</ele>
        <time>2022-10-11T12:31:54.000Z</time>
      </trkpt>
      <trkpt lat="43.26235" lon="-0.27342">
        <ele>244.45</ele>
        <time>2022-10-11T12:31:59.000Z</time>
      </trkpt>
      <trkpt lat="43.2618" lon="-0.27325">
        <ele>240.05</ele>
        <time>2022-10-11T12:32:04.000Z</time>
      </trkpt>
      <trkpt lat="43.26134" lon="-0.27341">
        <ele>238.25</ele>
        <time>2022-10-11T12:32:09.000Z</time>
      </trkpt>
      <trkpt lat="43.26095" lon="-0.27374">
        <ele>235.37</ele>
        <time>2022-10-11T12:32:14.000Z</time>
      </trkpt>
      <trkpt lat="43.26061" lon="-0.27411">
        <ele>233.11</ele>
        <time>2022-10-11T12:32:19.000Z</time>
      </trkpt>
      <trkpt lat="43.26026" lon="-0.27447">
        <ele>233.14</ele>
        <time>2022-10-11T12:32:24.000Z</time>
      </trkpt>
      <trkpt lat="43.25994" lon="-0.27478">
        <ele>232.44</ele>
        <time>2022-10-11T12:32:29.000Z</time>
      </trkpt>
      <trkpt lat="43.25962" lon="-0.27505">
        <ele>231.28</ele>
        <time>2022-10-11T12:32:34.000Z</time>
      </trkpt>
      <trkpt lat="43.25931" lon="-0.27533">
        <ele>229.95</ele>
        <time>2022-10-11T12:32:39.000Z</time>
      </trkpt>
      <trkpt lat="43.259" lon="-0.27564">
        <ele>228.57</ele>
        <time>2022-10-11T12:32:44.000Z</time>
      </trkpt>
      <trkpt lat="43.25883" lon="-0.27618">
        <ele>226.25</ele>
        <time>2022-10-11T12:32:49.000Z</time>
      </trkpt>
      <trkpt lat="43.25872" lon="-0.27675">
        <ele>224.97</ele>
        <time>2022-10-11T12:32:54.000Z</time>
      </trkpt>
      <trkpt lat="43.25857" lon="-0.2773">
        <ele>223.67</ele>
        <time>2022-10-11T12:32:59.000Z</time>
      </trkpt>
      <trkpt lat="43.25845" lon="-0.27785">
        <ele>221.61</ele>
        <time>2022-10-11T12:33:04.000Z</time>
      </trkpt>
      <trkpt lat="43.25831" lon="-0.27841">
        <ele>219.72</ele>
        <time>2022-10-11T12:33:09.000Z</time>
      </trkpt>
      <trkpt lat="43.25803" lon="-0.27885">
        <ele>218.1</ele>
        <time>2022-10-11T12:33:14.000Z</time>
      </trkpt>
      <trkpt lat="43.25784" lon="-0.27933">
        <ele>216.8</ele>
        <time>2022-10-11T12:33:19.000Z</time>
      </trkpt>
      <trkpt lat="43.25772" lon="-0.27982">
        <ele>215.4</ele>
        <time>2022-10-11T12:33:24.000Z</time>
      </trkpt>
      <trkpt lat="43.25769" lon="-0.28028">
        <ele>214.02</ele>
        <time>2022-10-11T12:33:29.000Z</time>
      </trkpt>
      <trkpt lat="43.25767" lon="-0.28072">
        <ele>212.43</ele>
        <time>2022-10-11T12:33:34.000Z</time>
      </trkpt>
      <trkpt lat="43.25758" lon="-0.28109">
        <ele>211.17</ele>
        <time>2022-10-11T12:33:39.000Z</time>
      </trkpt>
      <trkpt lat="43.25748" lon="-0.28139">
        <ele>210.17</ele>
        <time>2022-10-11T12:33:44.000Z</time>
      </trkpt>
      <trkpt lat="43.2574" lon="-0.28178">
        <ele>209.26</ele>
        <time>2022-10-11T12:33:49.000Z</time>
      </trkpt>
      <trkpt lat="43.25726" lon="-0.28225">
        <ele>208.19</ele>
        <time>2022-10-11T12:33:54.000Z</time>
      </trkpt>
      <trkpt lat="43.25713" lon="-0.28279">
        <ele>207.48</ele>
        <time>2022-10-11T12:33:59.000Z</time>
      </trkpt>
      <trkpt lat="43.25703" lon="-0.28332">
        <ele>207.2</ele>
        <time>2022-10-11T12:34:04.000Z</time>
      </trkpt>
      <trkpt lat="43.25693" lon="-0.28381">
        <ele>206.91</ele>
        <time>2022-10-11T12:34:09.000Z</time>
      </trkpt>
      <trkpt lat="43.25683" lon="-0.28428">
        <ele>206</ele>
        <time>2022-10-11T12:34:14.000Z</time>
      </trkpt>
      <trkpt lat="43.25674" lon="-0.28475">
        <ele>204.7</ele>
        <time>2022-10-11T12:34:19.000Z</time>
      </trkpt>
      <trkpt lat="43.2567" lon="-0.28526">
        <ele>203.01</ele>
        <time>2022-10-11T12:34:24.000Z</time>
      </trkpt>
      <trkpt lat="43.25676" lon="-0.28581">
        <ele>202.15</ele>
        <time>2022-10-11T12:34:29.000Z</time>
      </trkpt>
      <trkpt lat="43.2567" lon="-0.28634">
        <ele>202.32</ele>
        <time>2022-10-11T12:34:34.000Z</time>
      </trkpt>
      <trkpt lat="43.2566" lon="-0.28681">
        <ele>201.57</ele>
        <time>2022-10-11T12:34:39.000Z</time>
      </trkpt>
      <trkpt lat="43.25642" lon="-0.28723">
        <ele>200.54</ele>
        <time>2022-10-11T12:34:44.000Z</time>
      </trkpt>
      <trkpt lat="43.25614" lon="-0.28758">
        <ele>199.89</ele>
        <time>2022-10-11T12:34:49.000Z</time>
      </trkpt>
      <trkpt lat="43.2559" lon="-0.28784">
        <ele>199.69</ele>
        <time>2022-10-11T12:34:54.000Z</time>
      </trkpt>
      <trkpt lat="43.25572" lon="-0.2882">
        <ele>200.02</ele>
        <time>2022-10-11T12:34:59.000Z</time>
      </trkpt>
      <trkpt lat="43.2556" lon="-0.28861">
        <ele>200.72</ele>
        <time>2022-10-11T12:35:04.000Z</time>
      </trkpt>
      <trkpt lat="43.25551" lon="-0.28905">
        <ele>200.68</ele>
        <time>2022-10-11T12:35:09.000Z</time>
      </trkpt>
      <trkpt lat="43.25546" lon="-0.28953">
        <ele>201.29</ele>
        <time>2022-10-11T12:35:14.000Z</time>
      </trkpt>
      <trkpt lat="43.25538" lon="-0.28997">
        <ele>201.87</ele>
        <time>2022-10-11T12:35:19.000Z</time>
      </trkpt>
      <trkpt lat="43.25531" lon="-0.29041">
        <ele>201.2</ele>
        <time>2022-10-11T12:35:24.000Z</time>
      </trkpt>
      <trkpt lat="43.2552" lon="-0.29081">
        <ele>200.62</ele>
        <time>2022-10-11T12:35:29.000Z</time>
      </trkpt>
      <trkpt lat="43.2551" lon="-0.29124">
        <ele>200.48</ele>
        <time>2022-10-11T12:35:34.000Z</time>
      </trkpt>
      <trkpt lat="43.25494" lon="-0.2916">
        <ele>200.28</ele>
        <time>2022-10-11T12:35:39.000Z</time>
      </trkpt>
      <trkpt lat="43.25475" lon="-0.29196">
        <ele>200.27</ele>
        <time>2022-10-11T12:35:44.000Z</time>
      </trkpt>
      <trkpt lat="43.25455" lon="-0.29232">
        <ele>199.69</ele>
        <time>2022-10-11T12:35:49.000Z</time>
      </trkpt>
      <trkpt lat="43.25435" lon="-0.29267">
        <ele>199.04</ele>
        <time>2022-10-11T12:35:54.000Z</time>
      </trkpt>
      <trkpt lat="43.25417" lon="-0.293">
        <ele>198.61</ele>
        <time>2022-10-11T12:35:59.000Z</time>
      </trkpt>
      <trkpt lat="43.25397" lon="-0.29334">
        <ele>198.42</ele>
        <time>2022-10-11T12:36:04.000Z</time>
      </trkpt>
      <trkpt lat="43.25378" lon="-0.29368">
        <ele>199.13</ele>
        <time>2022-10-11T12:36:09.000Z</time>
      </trkpt>
      <trkpt lat="43.25358" lon="-0.29399">
        <ele>200.76</ele>
        <time>2022-10-11T12:36:14.000Z</time>
      </trkpt>
      <trkpt lat="43.25339" lon="-0.29432">
        <ele>201.78</ele>
        <time>2022-10-11T12:36:19.000Z</time>
      </trkpt>
      <trkpt lat="43.25319" lon="-0.29464">
        <ele>204.51</ele>
        <time>2022-10-11T12:36:24.000Z</time>
      </trkpt>
      <trkpt lat="43.25301" lon="-0.29497">
        <ele>205.34</ele>
        <time>2022-10-11T12:36:29.000Z</time>
      </trkpt>
      <trkpt lat="43.25286" lon="-0.29526">
        <ele>206.46</ele>
        <time>2022-10-11T12:36:34.000Z</time>
      </trkpt>
      <trkpt lat="43.25274" lon="-0.29553">
        <ele>207.25</ele>
        <time>2022-10-11T12:36:39.000Z</time>
      </trkpt>
      <trkpt lat="43.2526" lon="-0.29577">
        <ele>207.96</ele>
        <time>2022-10-11T12:36:44.000Z</time>
      </trkpt>
      <trkpt lat="43.25244" lon="-0.29606">
        <ele>207.73</ele>
        <time>2022-10-11T12:36:49.000Z</time>
      </trkpt>
      <trkpt lat="43.25227" lon="-0.29637">
        <ele>207.79</ele>
        <time>2022-10-11T12:36:54.000Z</time>
      </trkpt>
      <trkpt lat="43.25211" lon="-0.29671">
        <ele>207.99</ele>
        <time>2022-10-11T12:36:59.000Z</time>
      </trkpt>
      <trkpt lat="43.25197" lon="-0.29706">
        <ele>208.02</ele>
        <time>2022-10-11T12:37:04.000Z</time>
      </trkpt>
      <trkpt lat="43.2518" lon="-0.2974">
        <ele>208.73</ele>
        <time>2022-10-11T12:37:09.000Z</time>
      </trkpt>
      <trkpt lat="43.25162" lon="-0.29774">
        <ele>210.01</ele>
        <time>2022-10-11T12:37:14.000Z</time>
      </trkpt>
      <trkpt lat="43.25145" lon="-0.29802">
        <ele>210.83</ele>
        <time>2022-10-11T12:37:19.000Z</time>
      </trkpt>
      <trkpt lat="43.25128" lon="-0.29833">
        <ele>212.22</ele>
        <time>2022-10-11T12:37:24.000Z</time>
      </trkpt>
      <trkpt lat="43.25109" lon="-0.29861">
        <ele>212.57</ele>
        <time>2022-10-11T12:37:29.000Z</time>
      </trkpt>
      <trkpt lat="43.2509" lon="-0.2988">
        <ele>213.32</ele>
        <time>2022-10-11T12:37:34.000Z</time>
      </trkpt>
      <trkpt lat="43.25072" lon="-0.29867">
        <ele>214.89</ele>
        <time>2022-10-11T12:37:39.000Z</time>
      </trkpt>
      <trkpt lat="43.25052" lon="-0.29844">
        <ele>215.57</ele>
        <time>2022-10-11T12:37:44.000Z</time>
      </trkpt>
      <trkpt lat="43.25027" lon="-0.29853">
        <ele>215.96</ele>
        <time>2022-10-11T12:37:49.000Z</time>
      </trkpt>
      <trkpt lat="43.25008" lon="-0.29884">
        <ele>216.61</ele>
        <time>2022-10-11T12:37:54.000Z</time>
      </trkpt>
      <trkpt lat="43.24982" lon="-0.29884">
        <ele>217.63</ele>
        <time>2022-10-11T12:37:59.000Z</time>
      </trkpt>
      <trkpt lat="43.24957" lon="-0.29865">
        <ele>218.28</ele>
        <time>2022-10-11T12:38:04.000Z</time>
      </trkpt>
      <trkpt lat="43.24925" lon="-0.29869">
        <ele>217.09</ele>
        <time>2022-10-11T12:38:09.000Z</time>
      </trkpt>
      <trkpt lat="43.24896" lon="-0.2989">
        <ele>216.89</ele>
        <time>2022-10-11T12:38:14.000Z</time>
      </trkpt>
      <trkpt lat="43.24873" lon="-0.2991">
        <ele>216.8</ele>
        <time>2022-10-11T12:38:19.000Z</time>
      </trkpt>
      <trkpt lat="43.24847" lon="-0.29936">
        <ele>216.04</ele>
        <time>2022-10-11T12:38:24.000Z</time>
      </trkpt>
      <trkpt lat="43.24821" lon="-0.29963">
        <ele>215.73</ele>
        <time>2022-10-11T12:38:29.000Z</time>
      </trkpt>
      <trkpt lat="43.24797" lon="-0.29993">
        <ele>215.72</ele>
        <time>2022-10-11T12:38:34.000Z</time>
      </trkpt>
      <trkpt lat="43.24777" lon="-0.30022">
        <ele>214.82</ele>
        <time>2022-10-11T12:38:39.000Z</time>
      </trkpt>
      <trkpt lat="43.24755" lon="-0.30048">
        <ele>214.51</ele>
        <time>2022-10-11T12:38:44.000Z</time>
      </trkpt>
      <trkpt lat="43.24736" lon="-0.3008">
        <ele>213.99</ele>
        <time>2022-10-11T12:38:49.000Z</time>
      </trkpt>
      <trkpt lat="43.24715" lon="-0.30112">
        <ele>213.73</ele>
        <time>2022-10-11T12:38:54.000Z</time>
      </trkpt>
      <trkpt lat="43.24692" lon="-0.30143">
        <ele>213.79</ele>
        <time>2022-10-11T12:38:59.000Z</time>
      </trkpt>
      <trkpt lat="43.24671" lon="-0.30177">
        <ele>213.84</ele>
        <time>2022-10-11T12:39:04.000Z</time>
      </trkpt>
      <trkpt lat="43.24652" lon="-0.30214">
        <ele>213.88</ele>
        <time>2022-10-11T12:39:09.000Z</time>
      </trkpt>
      <trkpt lat="43.24629" lon="-0.30252">
        <ele>211.03</ele>
        <time>2022-10-11T12:39:14.000Z</time>
      </trkpt>
      <trkpt lat="43.246" lon="-0.30286">
        <ele>209.19</ele>
        <time>2022-10-11T12:39:19.000Z</time>
      </trkpt>
      <trkpt lat="43.24571" lon="-0.30321">
        <ele>209.94</ele>
        <time>2022-10-11T12:39:24.000Z</time>
      </trkpt>
      <trkpt lat="43.24545" lon="-0.30353">
        <ele>208.23</ele>
        <time>2022-10-11T12:39:29.000Z</time>
      </trkpt>
      <trkpt lat="43.24523" lon="-0.3038">
        <ele>207.45</ele>
        <time>2022-10-11T12:39:34.000Z</time>
      </trkpt>
      <trkpt lat="43.2451" lon="-0.30412">
        <ele>209.99</ele>
        <time>2022-10-11T12:39:39.000Z</time>
      </trkpt>
      <trkpt lat="43.24501" lon="-0.30451">
        <ele>210.72</ele>
        <time>2022-10-11T12:39:44.000Z</time>
      </trkpt>
      <trkpt lat="43.24493" lon="-0.30488">
        <ele>210.9</ele>
        <time>2022-10-11T12:39:49.000Z</time>
      </trkpt>
      <trkpt lat="43.24486" lon="-0.30529">
        <ele>211.36</ele>
        <time>2022-10-11T12:39:54.000Z</time>
      </trkpt>
      <trkpt lat="43.24481" lon="-0.30567">
        <ele>211.42</ele>
        <time>2022-10-11T12:39:59.000Z</time>
      </trkpt>
      <trkpt lat="43.24474" lon="-0.3061">
        <ele>211.6</ele>
        <time>2022-10-11T12:40:04.000Z</time>
      </trkpt>
      <trkpt lat="43.24468" lon="-0.3065">
        <ele>211.07</ele>
        <time>2022-10-11T12:40:09.000Z</time>
      </trkpt>
      <trkpt lat="43.24463" lon="-0.30687">
        <ele>210.7</ele>
        <time>2022-10-11T12:40:14.000Z</time>
      </trkpt>
      <trkpt lat="43.24457" lon="-0.30718">
        <ele>210.6</ele>
        <time>2022-10-11T12:40:19.000Z</time>
      </trkpt>
      <trkpt lat="43.24453" lon="-0.30753">
        <ele>210.79</ele>
        <time>2022-10-11T12:40:24.000Z</time>
      </trkpt>
      <trkpt lat="43.24447" lon="-0.30787">
        <ele>210.53</ele>
        <time>2022-10-11T12:40:29.000Z</time>
      </trkpt>
      <trkpt lat="43.24442" lon="-0.30821">
        <ele>210.5</ele>
        <time>2022-10-11T12:40:34.000Z</time>
      </trkpt>
      <trkpt lat="43.24436" lon="-0.30858">
        <ele>210.13</ele>
        <time>2022-10-11T12:40:39.000Z</time>
      </trkpt>
      <trkpt lat="43.2443" lon="-0.30903">
        <ele>208.87</ele>
        <time>2022-10-11T12:40:44.000Z</time>
      </trkpt>
      <trkpt lat="43.24422" lon="-0.30953">
        <ele>207.96</ele>
        <time>2022-10-11T12:40:49.000Z</time>
      </trkpt>
      <trkpt lat="43.24417" lon="-0.31005">
        <ele>207.27</ele>
        <time>2022-10-11T12:40:54.000Z</time>
      </trkpt>
      <trkpt lat="43.24409" lon="-0.31054">
        <ele>206.93</ele>
        <time>2022-10-11T12:40:59.000Z</time>
      </trkpt>
      <trkpt lat="43.2441" lon="-0.31097">
        <ele>206.27</ele>
        <time>2022-10-11T12:41:04.000Z</time>
      </trkpt>
      <trkpt lat="43.2443" lon="-0.31125">
        <ele>203.59</ele>
        <time>2022-10-11T12:41:09.000Z</time>
      </trkpt>
      <trkpt lat="43.24463" lon="-0.31142">
        <ele>201.81</ele>
        <time>2022-10-11T12:41:14.000Z</time>
      </trkpt>
      <trkpt lat="43.24495" lon="-0.31164">
        <ele>201.18</ele>
        <time>2022-10-11T12:41:19.000Z</time>
      </trkpt>
      <trkpt lat="43.24525" lon="-0.31198">
        <ele>200.03</ele>
        <time>2022-10-11T12:41:24.000Z</time>
      </trkpt>
      <trkpt lat="43.24551" lon="-0.3124">
        <ele>198.85</ele>
        <time>2022-10-11T12:41:29.000Z</time>
      </trkpt>
      <trkpt lat="43.24577" lon="-0.31285">
        <ele>197.75</ele>
        <time>2022-10-11T12:41:34.000Z</time>
      </trkpt>
      <trkpt lat="43.24602" lon="-0.31326">
        <ele>196.92</ele>
        <time>2022-10-11T12:41:39.000Z</time>
      </trkpt>
      <trkpt lat="43.24626" lon="-0.31369">
        <ele>195.93</ele>
        <time>2022-10-11T12:41:44.000Z</time>
      </trkpt>
      <trkpt lat="43.2465" lon="-0.31412">
        <ele>194.52</ele>
        <time>2022-10-11T12:41:49.000Z</time>
      </trkpt>
      <trkpt lat="43.24677" lon="-0.31445">
        <ele>193.06</ele>
        <time>2022-10-11T12:41:54.000Z</time>
      </trkpt>
      <trkpt lat="43.2471" lon="-0.31465">
        <ele>192.63</ele>
        <time>2022-10-11T12:41:59.000Z</time>
      </trkpt>
      <trkpt lat="43.24743" lon="-0.31485">
        <ele>192.14</ele>
        <time>2022-10-11T12:42:04.000Z</time>
      </trkpt>
      <trkpt lat="43.24779" lon="-0.31504">
        <ele>192.12</ele>
        <time>2022-10-11T12:42:09.000Z</time>
      </trkpt>
      <trkpt lat="43.24815" lon="-0.3152">
        <ele>191.9</ele>
        <time>2022-10-11T12:42:14.000Z</time>
      </trkpt>
      <trkpt lat="43.24845" lon="-0.31542">
        <ele>191.93</ele>
        <time>2022-10-11T12:42:19.000Z</time>
      </trkpt>
      <trkpt lat="43.24864" lon="-0.31578">
        <ele>193.29</ele>
        <time>2022-10-11T12:42:24.000Z</time>
      </trkpt>
      <trkpt lat="43.24881" lon="-0.31618">
        <ele>192.98</ele>
        <time>2022-10-11T12:42:29.000Z</time>
      </trkpt>
      <trkpt lat="43.24905" lon="-0.31655">
        <ele>192.39</ele>
        <time>2022-10-11T12:42:34.000Z</time>
      </trkpt>
      <trkpt lat="43.24931" lon="-0.31687">
        <ele>193.75</ele>
        <time>2022-10-11T12:42:39.000Z</time>
      </trkpt>
      <trkpt lat="43.24954" lon="-0.31719">
        <ele>194.41</ele>
        <time>2022-10-11T12:42:44.000Z</time>
      </trkpt>
      <trkpt lat="43.24979" lon="-0.31753">
        <ele>194.28</ele>
        <time>2022-10-11T12:42:49.000Z</time>
      </trkpt>
      <trkpt lat="43.25" lon="-0.31791">
        <ele>192.75</ele>
        <time>2022-10-11T12:42:54.000Z</time>
      </trkpt>
      <trkpt lat="43.25021" lon="-0.31831">
        <ele>190.79</ele>
        <time>2022-10-11T12:42:59.000Z</time>
      </trkpt>
      <trkpt lat="43.25044" lon="-0.31873">
        <ele>190.51</ele>
        <time>2022-10-11T12:43:04.000Z</time>
      </trkpt>
      <trkpt lat="43.2507" lon="-0.3191">
        <ele>190.12</ele>
        <time>2022-10-11T12:43:09.000Z</time>
      </trkpt>
      <trkpt lat="43.25093" lon="-0.31944">
        <ele>189.69</ele>
        <time>2022-10-11T12:43:14.000Z</time>
      </trkpt>
      <trkpt lat="43.25117" lon="-0.31974">
        <ele>189.35</ele>
        <time>2022-10-11T12:43:19.000Z</time>
      </trkpt>
      <trkpt lat="43.25146" lon="-0.32002">
        <ele>189.26</ele>
        <time>2022-10-11T12:43:24.000Z</time>
      </trkpt>
      <trkpt lat="43.25174" lon="-0.32031">
        <ele>190.35</ele>
        <time>2022-10-11T12:43:29.000Z</time>
      </trkpt>
      <trkpt lat="43.25201" lon="-0.32063">
        <ele>191.93</ele>
        <time>2022-10-11T12:43:34.000Z</time>
      </trkpt>
      <trkpt lat="43.25223" lon="-0.32103">
        <ele>195.34</ele>
        <time>2022-10-11T12:43:39.000Z</time>
      </trkpt>
      <trkpt lat="43.25245" lon="-0.32144">
        <ele>197.67</ele>
        <time>2022-10-11T12:43:44.000Z</time>
      </trkpt>
      <trkpt lat="43.25265" lon="-0.32184">
        <ele>196.74</ele>
        <time>2022-10-11T12:43:49.000Z</time>
      </trkpt>
      <trkpt lat="43.25295" lon="-0.32211">
        <ele>196.61</ele>
        <time>2022-10-11T12:43:54.000Z</time>
      </trkpt>
      <trkpt lat="43.25328" lon="-0.32229">
        <ele>195.51</ele>
        <time>2022-10-11T12:43:59.000Z</time>
      </trkpt>
      <trkpt lat="43.25357" lon="-0.32259">
        <ele>195.75</ele>
        <time>2022-10-11T12:44:04.000Z</time>
      </trkpt>
      <trkpt lat="43.2538" lon="-0.323">
        <ele>195.59</ele>
        <time>2022-10-11T12:44:09.000Z</time>
      </trkpt>
      <trkpt lat="43.25405" lon="-0.32339">
        <ele>195.72</ele>
        <time>2022-10-11T12:44:14.000Z</time>
      </trkpt>
      <trkpt lat="43.2543" lon="-0.32372">
        <ele>195.75</ele>
        <time>2022-10-11T12:44:19.000Z</time>
      </trkpt>
      <trkpt lat="43.25458" lon="-0.324">
        <ele>195.2</ele>
        <time>2022-10-11T12:44:24.000Z</time>
      </trkpt>
      <trkpt lat="43.25487" lon="-0.32427">
        <ele>197.77</ele>
        <time>2022-10-11T12:44:29.000Z</time>
      </trkpt>
      <trkpt lat="43.25514" lon="-0.3245">
        <ele>198.96</ele>
        <time>2022-10-11T12:44:34.000Z</time>
      </trkpt>
      <trkpt lat="43.25542" lon="-0.32467">
        <ele>198.25</ele>
        <time>2022-10-11T12:44:39.000Z</time>
      </trkpt>
      <trkpt lat="43.25567" lon="-0.32454">
        <ele>197.75</ele>
        <time>2022-10-11T12:44:44.000Z</time>
      </trkpt>
      <trkpt lat="43.25583" lon="-0.32419">
        <ele>197.47</ele>
        <time>2022-10-11T12:44:49.000Z</time>
      </trkpt>
      <trkpt lat="43.25602" lon="-0.32388">
        <ele>197.87</ele>
        <time>2022-10-11T12:44:54.000Z</time>
      </trkpt>
      <trkpt lat="43.25619" lon="-0.32353">
        <ele>198.53</ele>
        <time>2022-10-11T12:44:59.000Z</time>
      </trkpt>
      <trkpt lat="43.25636" lon="-0.32324">
        <ele>199.26</ele>
        <time>2022-10-11T12:45:04.000Z</time>
      </trkpt>
      <trkpt lat="43.25649" lon="-0.3231">
        <ele>199.4</ele>
        <time>2022-10-11T12:45:09.000Z</time>
      </trkpt>
      <trkpt lat="43.25655" lon="-0.32301">
        <ele>200.87</ele>
        <time>2022-10-11T12:45:30.000Z</time>
      </trkpt>
      <trkpt lat="43.25654" lon="-0.32314">
        <ele>201.69</ele>
        <time>2022-10-11T12:45:48.000Z</time>
      </trkpt>
      <trkpt lat="43.25659" lon="-0.32299">
        <ele>201.97</ele>
        <time>2022-10-11T12:45:55.000Z</time>
      </trkpt>
      <trkpt lat="43.25656" lon="-0.32312">
        <ele>202.37</ele>
        <time>2022-10-11T12:46:00.000Z</time>
      </trkpt>
      <trkpt lat="43.25657" lon="-0.32298">
        <ele>203.17</ele>
        <time>2022-10-11T12:46:42.000Z</time>
      </trkpt>
      <trkpt lat="43.2566" lon="-0.32286">
        <ele>203.89</ele>
        <time>2022-10-11T12:46:48.000Z</time>
      </trkpt>
      <trkpt lat="43.25662" lon="-0.32274">
        <ele>204.4</ele>
        <time>2022-10-11T12:46:57.000Z</time>
      </trkpt>
      <trkpt lat="43.25661" lon="-0.32286">
        <ele>205.2</ele>
        <time>2022-10-11T12:47:11.000Z</time>
      </trkpt>
      <trkpt lat="43.25657" lon="-0.323">
        <ele>205.32</ele>
        <time>2022-10-11T12:47:43.000Z</time>
      </trkpt>
      <trkpt lat="43.25656" lon="-0.323">
        <ele>205.8</ele>
        <time>2022-10-11T12:48:57.000Z</time>
      </trkpt>
    </trkseg>
  </trk>
</gpx>